<?xml version='1.0' encoding='UTF-8'?><gpx version="1.1" creator="JPX - https://github.com/jenetics/jpx" xmlns="http://www.topografix.com/GPX/1/1"><trk><trkseg><trkpt lat="-36.7402919" lon="174.4233671"><ele>86.0</ele><time>2026-04-09T20:49:08.647Z</time></trkpt><trkpt lat="-36.7402605" lon="174.4232845"><ele>86.0</ele><time>2026-04-09T20:49:12.646Z</time></trkpt><trkpt lat="-36.7401829" lon="174.4232794"><ele>86.0</ele><time>2026-04-09T20:49:15.647Z</time></trkpt><trkpt lat="-36.7401206" lon="174.4232962"><ele>86.0</ele><time>2026-04-09T20:49:17.646Z</time></trkpt><trkpt lat="-36.7400267" lon="174.4233346"><ele>86.0</ele><time>2026-04-09T20:49:20.645Z</time></trkpt><trkpt lat="-36.7399472" lon="174.4233128"><ele>86.0</ele><time>2026-04-09T20:49:22.646Z</time></trkpt><trkpt lat="-36.7399014" lon="174.4232181"><ele>85.85714285714286</ele><time>2026-04-09T20:49:24.646Z</time></trkpt><trkpt lat="-36.7398814" lon="174.4231243"><ele>85.71428571428572</ele><time>2026-04-09T20:49:26.646Z</time></trkpt><trkpt lat="-36.7398906" lon="174.4230338"><ele>85.57142857142858</ele><time>2026-04-09T20:49:28.648Z</time></trkpt><trkpt lat="-36.7399069" lon="174.4229432"><ele>85.42857142857143</ele><time>2026-04-09T20:49:30.647Z</time></trkpt><trkpt lat="-36.7399289" lon="174.4228394"><ele>85.28571428571428</ele><time>2026-04-09T20:49:33.645Z</time></trkpt><trkpt lat="-36.7399205" lon="174.4227572"><ele>85.14285714285715</ele><time>2026-04-09T20:49:37.646Z</time></trkpt><trkpt lat="-36.7398615" lon="174.422794"><ele>85.0</ele><time>2026-04-09T20:49:40.645Z</time></trkpt><trkpt lat="-36.739848" lon="174.4228762"><ele>84.33333333333333</ele><time>2026-04-09T20:49:42.645Z</time></trkpt><trkpt lat="-36.7398497" lon="174.4229951"><ele>83.66666666666666</ele><time>2026-04-09T20:49:45.645Z</time></trkpt><trkpt lat="-36.7398437" lon="174.4230784"><ele>83.0</ele><time>2026-04-09T20:49:47.645Z</time></trkpt><trkpt lat="-36.7398375" lon="174.4231918"><ele>82.33333333333333</ele><time>2026-04-09T20:49:50.647Z</time></trkpt><trkpt lat="-36.7398747" lon="174.423281"><ele>81.66666666666667</ele><time>2026-04-09T20:49:53.646Z</time></trkpt><trkpt lat="-36.7399424" lon="174.4233145"><ele>81.0</ele><time>2026-04-09T20:49:55.646Z</time></trkpt><trkpt lat="-36.7400198" lon="174.423336"><ele>81.0</ele><time>2026-04-09T20:49:57.646Z</time></trkpt><trkpt lat="-36.7400963" lon="174.4233424"><ele>81.0</ele><time>2026-04-09T20:49:59.646Z</time></trkpt><trkpt lat="-36.740167" lon="174.4233492"><ele>81.0</ele><time>2026-04-09T20:50:01.645Z</time></trkpt><trkpt lat="-36.740228" lon="174.4233701"><ele>81.0</ele><time>2026-04-09T20:50:03.646Z</time></trkpt><trkpt lat="-36.7402966" lon="174.4234117"><ele>81.0</ele><time>2026-04-09T20:50:06.645Z</time></trkpt><trkpt lat="-36.7402656" lon="174.4234872"><ele>81.0</ele><time>2026-04-09T20:51:40.646Z</time></trkpt><trkpt lat="-36.7401863" lon="174.4234732"><ele>81.0</ele><time>2026-04-09T20:51:43.645Z</time></trkpt><trkpt lat="-36.7401228" lon="174.4234555"><ele>81.0</ele><time>2026-04-09T20:51:45.646Z</time></trkpt><trkpt lat="-36.7400546" lon="174.4234356"><ele>81.0</ele><time>2026-04-09T20:51:47.646Z</time></trkpt><trkpt lat="-36.7399977" lon="174.4233813"><ele>81.0</ele><time>2026-04-09T20:51:49.645Z</time></trkpt><trkpt lat="-36.7399478" lon="174.4233162"><ele>81.0</ele><time>2026-04-09T20:51:51.646Z</time></trkpt><trkpt lat="-36.7398999" lon="174.4232482"><ele>81.0</ele><time>2026-04-09T20:51:53.646Z</time></trkpt><trkpt lat="-36.7398742" lon="174.4231647"><ele>81.0</ele><time>2026-04-09T20:51:55.646Z</time></trkpt><trkpt lat="-36.7398771" lon="174.4230739"><ele>81.0</ele><time>2026-04-09T20:51:57.646Z</time></trkpt><trkpt lat="-36.7398951" lon="174.4229847"><ele>81.57142857142857</ele><time>2026-04-09T20:51:59.646Z</time></trkpt><trkpt lat="-36.7399163" lon="174.4229083"><ele>82.14285714285714</ele><time>2026-04-09T20:52:01.646Z</time></trkpt><trkpt lat="-36.7399328" lon="174.4228239"><ele>82.71428571428572</ele><time>2026-04-09T20:52:03.645Z</time></trkpt><trkpt lat="-36.7399546" lon="174.4227298"><ele>83.28571428571428</ele><time>2026-04-09T20:52:05.646Z</time></trkpt><trkpt lat="-36.7399718" lon="174.4226466"><ele>83.85714285714285</ele><time>2026-04-09T20:52:07.646Z</time></trkpt><trkpt lat="-36.7399828" lon="174.4225397"><ele>84.42857142857143</ele><time>2026-04-09T20:52:10.645Z</time></trkpt><trkpt lat="-36.740045" lon="174.4225084"><ele>85.0</ele><time>2026-04-09T20:53:33.645Z</time></trkpt><trkpt lat="-36.740063" lon="174.422414"><ele>85.0</ele><time>2026-04-09T20:53:47.646Z</time></trkpt><trkpt lat="-36.7400929" lon="174.4223395"><ele>85.0</ele><time>2026-04-09T20:53:50.644Z</time></trkpt><trkpt lat="-36.7401186" lon="174.4222264"><ele>85.0</ele><time>2026-04-09T20:53:53.644Z</time></trkpt><trkpt lat="-36.7401636" lon="174.4221545"><ele>85.0</ele><time>2026-04-09T20:53:55.645Z</time></trkpt><trkpt lat="-36.7402188" lon="174.4220871"><ele>85.0</ele><time>2026-04-09T20:53:57.645Z</time></trkpt><trkpt lat="-36.7402656" lon="174.4220296"><ele>85.0</ele><time>2026-04-09T20:53:59.646Z</time></trkpt><trkpt lat="-36.7403456" lon="174.4220511"><ele>86.5</ele><time>2026-04-09T20:54:02.646Z</time></trkpt><trkpt lat="-36.7404237" lon="174.4220616"><ele>88.0</ele><time>2026-04-09T20:54:05.644Z</time></trkpt><trkpt lat="-36.7404819" lon="174.4219774"><ele>89.5</ele><time>2026-04-09T20:54:08.645Z</time></trkpt><trkpt lat="-36.7405416" lon="174.4219432"><ele>91.0</ele><time>2026-04-09T20:54:11.645Z</time></trkpt><trkpt lat="-36.7406245" lon="174.4219075"><ele>92.5</ele><time>2026-04-09T20:54:14.645Z</time></trkpt><trkpt lat="-36.7406879" lon="174.4219204"><ele>94.0</ele><time>2026-04-09T20:54:16.645Z</time></trkpt><trkpt lat="-36.7407455" lon="174.4219624"><ele>94.0</ele><time>2026-04-09T20:54:19.644Z</time></trkpt><trkpt lat="-36.7407666" lon="174.4218619"><ele>94.0</ele><time>2026-04-09T20:54:22.645Z</time></trkpt><trkpt lat="-36.7407541" lon="174.4217722"><ele>94.0</ele><time>2026-04-09T20:54:24.646Z</time></trkpt><trkpt lat="-36.7407347" lon="174.4216949"><ele>94.0</ele><time>2026-04-09T20:54:26.645Z</time></trkpt><trkpt lat="-36.7407513" lon="174.4215965"><ele>94.0</ele><time>2026-04-09T20:54:29.645Z</time></trkpt><trkpt lat="-36.7408394" lon="174.4215619"><ele>94.0</ele><time>2026-04-09T20:54:32.646Z</time></trkpt><trkpt lat="-36.7409108" lon="174.421549"><ele>94.0</ele><time>2026-04-09T20:54:34.646Z</time></trkpt><trkpt lat="-36.7409567" lon="174.4214451"><ele>94.0</ele><time>2026-04-09T20:54:37.645Z</time></trkpt><trkpt lat="-36.7409652" lon="174.4213533"><ele>94.0</ele><time>2026-04-09T20:54:39.644Z</time></trkpt><trkpt lat="-36.7409558" lon="174.4212723"><ele>94.0</ele><time>2026-04-09T20:54:41.646Z</time></trkpt><trkpt lat="-36.7409542" lon="174.4211869"><ele>94.0</ele><time>2026-04-09T20:54:43.644Z</time></trkpt><trkpt lat="-36.7409554" lon="174.4210936"><ele>94.0</ele><time>2026-04-09T20:54:45.644Z</time></trkpt><trkpt lat="-36.7409884" lon="174.4210113"><ele>94.66666666666666</ele><time>2026-04-09T20:54:47.645Z</time></trkpt><trkpt lat="-36.7410448" lon="174.4209351"><ele>95.33333333333333</ele><time>2026-04-09T20:54:49.645Z</time></trkpt><trkpt lat="-36.7410995" lon="174.4208663"><ele>96.0</ele><time>2026-04-09T20:54:51.644Z</time></trkpt><trkpt lat="-36.7411192" lon="174.4207854"><ele>96.66666666666666</ele><time>2026-04-09T20:54:53.644Z</time></trkpt><trkpt lat="-36.7411557" lon="174.420702"><ele>97.33333333333333</ele><time>2026-04-09T20:54:55.646Z</time></trkpt><trkpt lat="-36.7412156" lon="174.4206333"><ele>98.0</ele><time>2026-04-09T20:54:57.646Z</time></trkpt><trkpt lat="-36.7413167" lon="174.4205319"><ele>98.80000000000001</ele><time>2026-04-09T20:54:59.645Z</time></trkpt><trkpt lat="-36.7414128" lon="174.4204251"><ele>99.6</ele><time>2026-04-09T20:55:01.645Z</time></trkpt><trkpt lat="-36.7415024" lon="174.4203348"><ele>100.4</ele><time>2026-04-09T20:55:03.644Z</time></trkpt><trkpt lat="-36.7415532" lon="174.4202422"><ele>101.19999999999999</ele><time>2026-04-09T20:55:05.644Z</time></trkpt><trkpt lat="-36.7415434" lon="174.420126"><ele>102.0</ele><time>2026-04-09T20:55:07.644Z</time></trkpt><trkpt lat="-36.7415205" lon="174.4199833"><ele>102.0</ele><time>2026-04-09T20:55:09.645Z</time></trkpt><trkpt lat="-36.7415334" lon="174.4198388"><ele>102.0</ele><time>2026-04-09T20:55:11.646Z</time></trkpt><trkpt lat="-36.741535" lon="174.419706"><ele>102.0</ele><time>2026-04-09T20:55:13.644Z</time></trkpt><trkpt lat="-36.7415277" lon="174.4195942"><ele>102.0</ele><time>2026-04-09T20:55:15.644Z</time></trkpt><trkpt lat="-36.7415003" lon="174.4195017"><ele>102.0</ele><time>2026-04-09T20:55:17.646Z</time></trkpt><trkpt lat="-36.7414368" lon="174.4194136"><ele>103.16666666666667</ele><time>2026-04-09T20:55:19.644Z</time></trkpt><trkpt lat="-36.7413955" lon="174.4193046"><ele>104.33333333333334</ele><time>2026-04-09T20:55:21.644Z</time></trkpt><trkpt lat="-36.7414611" lon="174.4192398"><ele>105.5</ele><time>2026-04-09T20:55:23.644Z</time></trkpt><trkpt lat="-36.7415127" lon="174.4191912"><ele>106.66666666666667</ele><time>2026-04-09T20:55:25.644Z</time></trkpt><trkpt lat="-36.7415721" lon="174.4191342"><ele>107.83333333333334</ele><time>2026-04-09T20:55:27.645Z</time></trkpt><trkpt lat="-36.7416498" lon="174.4190833"><ele>109.0</ele><time>2026-04-09T20:55:29.644Z</time></trkpt><trkpt lat="-36.7417336" lon="174.4190471"><ele>109.00000000000001</ele><time>2026-04-09T20:55:32.644Z</time></trkpt><trkpt lat="-36.74181" lon="174.4190283"><ele>109.0</ele><time>2026-04-09T20:55:34.645Z</time></trkpt><trkpt lat="-36.7418893" lon="174.4189981"><ele>109.0</ele><time>2026-04-09T20:55:36.646Z</time></trkpt><trkpt lat="-36.7419678" lon="174.4189775"><ele>109.0</ele><time>2026-04-09T20:55:38.646Z</time></trkpt><trkpt lat="-36.7420391" lon="174.418947"><ele>109.00000000000001</ele><time>2026-04-09T20:55:40.646Z</time></trkpt><trkpt lat="-36.7421224" lon="174.418929"><ele>109.0</ele><time>2026-04-09T20:55:42.646Z</time></trkpt><trkpt lat="-36.7422075" lon="174.418882"><ele>109.50000000000001</ele><time>2026-04-09T20:55:44.645Z</time></trkpt><trkpt lat="-36.7422923" lon="174.4188334"><ele>110.0</ele><time>2026-04-09T20:55:46.645Z</time></trkpt><trkpt lat="-36.7423675" lon="174.4187878"><ele>110.5</ele><time>2026-04-09T20:55:48.644Z</time></trkpt><trkpt lat="-36.7424472" lon="174.4187325"><ele>111.0</ele><time>2026-04-09T20:55:50.644Z</time></trkpt><trkpt lat="-36.7425126" lon="174.4186873"><ele>111.50000000000001</ele><time>2026-04-09T20:55:52.644Z</time></trkpt><trkpt lat="-36.7426049" lon="174.4186533"><ele>112.0</ele><time>2026-04-09T20:55:54.645Z</time></trkpt><trkpt lat="-36.7426826" lon="174.41863"><ele>112.50000000000001</ele><time>2026-04-09T20:55:56.644Z</time></trkpt><trkpt lat="-36.7427692" lon="174.4186183"><ele>113.0</ele><time>2026-04-09T20:55:58.645Z</time></trkpt><trkpt lat="-36.7428417" lon="174.4186804"><ele>113.5</ele><time>2026-04-09T20:56:01.644Z</time></trkpt><trkpt lat="-36.7429021" lon="174.4187154"><ele>114.0</ele><time>2026-04-09T20:56:03.644Z</time></trkpt><trkpt lat="-36.7429791" lon="174.4187161"><ele>114.50000000000001</ele><time>2026-04-09T20:56:05.644Z</time></trkpt><trkpt lat="-36.7430761" lon="174.4186949"><ele>115.0</ele><time>2026-04-09T20:56:07.645Z</time></trkpt><trkpt lat="-36.7431675" lon="174.4187014"><ele>115.00000000000001</ele><time>2026-04-09T20:56:09.645Z</time></trkpt><trkpt lat="-36.7432465" lon="174.4187178"><ele>115.0</ele><time>2026-04-09T20:56:11.645Z</time></trkpt><trkpt lat="-36.7433205" lon="174.4187065"><ele>115.0</ele><time>2026-04-09T20:56:13.646Z</time></trkpt><trkpt lat="-36.7433901" lon="174.4186913"><ele>115.0</ele><time>2026-04-09T20:56:15.644Z</time></trkpt><trkpt lat="-36.7434611" lon="174.4186592"><ele>115.00000000000001</ele><time>2026-04-09T20:56:17.644Z</time></trkpt><trkpt lat="-36.7435262" lon="174.4186386"><ele>115.0</ele><time>2026-04-09T20:56:19.645Z</time></trkpt><trkpt lat="-36.7436115" lon="174.4186708"><ele>115.66666666666667</ele><time>2026-04-09T20:56:21.645Z</time></trkpt><trkpt lat="-36.7436975" lon="174.4186941"><ele>116.33333333333334</ele><time>2026-04-09T20:56:23.645Z</time></trkpt><trkpt lat="-36.743773" lon="174.4187103"><ele>117.0</ele><time>2026-04-09T20:56:25.644Z</time></trkpt><trkpt lat="-36.7438675" lon="174.4187363"><ele>117.66666666666666</ele><time>2026-04-09T20:56:27.644Z</time></trkpt><trkpt lat="-36.7439586" lon="174.418798"><ele>118.33333333333333</ele><time>2026-04-09T20:56:29.645Z</time></trkpt><trkpt lat="-36.7440237" lon="174.4188271"><ele>119.0</ele><time>2026-04-09T20:56:31.645Z</time></trkpt><trkpt lat="-36.7441132" lon="174.4188336"><ele>119.83333333333333</ele><time>2026-04-09T20:56:33.644Z</time></trkpt><trkpt lat="-36.7441938" lon="174.4188555"><ele>120.66666666666666</ele><time>2026-04-09T20:56:35.644Z</time></trkpt><trkpt lat="-36.7442617" lon="174.4188771"><ele>121.5</ele><time>2026-04-09T20:56:37.645Z</time></trkpt><trkpt lat="-36.7443319" lon="174.4188433"><ele>122.33333333333334</ele><time>2026-04-09T20:56:39.644Z</time></trkpt><trkpt lat="-36.7443995" lon="174.4188748"><ele>123.16666666666667</ele><time>2026-04-09T20:56:42.644Z</time></trkpt><trkpt lat="-36.744387" lon="174.4189741"><ele>124.0</ele><time>2026-04-09T20:56:45.646Z</time></trkpt><trkpt lat="-36.7443519" lon="174.4190776"><ele>124.0</ele><time>2026-04-09T20:56:47.644Z</time></trkpt><trkpt lat="-36.7443144" lon="174.4191519"><ele>124.00000000000001</ele><time>2026-04-09T20:56:49.644Z</time></trkpt><trkpt lat="-36.744311" lon="174.4192378"><ele>124.0</ele><time>2026-04-09T20:56:52.645Z</time></trkpt><trkpt lat="-36.7443979" lon="174.4191891"><ele>124.0</ele><time>2026-04-09T20:56:55.644Z</time></trkpt><trkpt lat="-36.7444655" lon="174.4191779"><ele>124.00000000000001</ele><time>2026-04-09T20:56:57.645Z</time></trkpt><trkpt lat="-36.7445417" lon="174.4191601"><ele>124.0</ele><time>2026-04-09T20:56:59.645Z</time></trkpt><trkpt lat="-36.7445873" lon="174.4191055"><ele>124.0</ele><time>2026-04-09T20:57:01.644Z</time></trkpt><trkpt lat="-36.7446217" lon="174.4190177"><ele>124.85714285714286</ele><time>2026-04-09T20:57:04.645Z</time></trkpt><trkpt lat="-36.7446593" lon="174.4189469"><ele>125.71428571428572</ele><time>2026-04-09T20:57:06.645Z</time></trkpt><trkpt lat="-36.7447046" lon="174.4188612"><ele>126.57142857142858</ele><time>2026-04-09T20:57:08.644Z</time></trkpt><trkpt lat="-36.7447703" lon="174.4188155"><ele>127.42857142857144</ele><time>2026-04-09T20:57:12.645Z</time></trkpt><trkpt lat="-36.7447818" lon="174.4189007"><ele>128.28571428571428</ele><time>2026-04-09T20:57:15.645Z</time></trkpt><trkpt lat="-36.7447526" lon="174.4189705"><ele>129.14285714285717</ele><time>2026-04-09T20:57:17.644Z</time></trkpt><trkpt lat="-36.7447425" lon="174.4190491"><ele>130.0</ele><time>2026-04-09T20:57:20.644Z</time></trkpt><trkpt lat="-36.7448143" lon="174.4190155"><ele>130.0</ele><time>2026-04-09T20:57:23.645Z</time></trkpt><trkpt lat="-36.7448618" lon="174.4189616"><ele>130.0</ele><time>2026-04-09T20:57:25.646Z</time></trkpt><trkpt lat="-36.7449045" lon="174.4188578"><ele>130.0</ele><time>2026-04-09T20:57:28.645Z</time></trkpt><trkpt lat="-36.7449652" lon="174.4187915"><ele>130.0</ele><time>2026-04-09T20:57:31.643Z</time></trkpt><trkpt lat="-36.7449843" lon="174.4188988"><ele>130.0</ele><time>2026-04-09T20:57:35.645Z</time></trkpt><trkpt lat="-36.7449834" lon="174.4190129"><ele>130.0</ele><time>2026-04-09T20:57:38.644Z</time></trkpt><trkpt lat="-36.7450549" lon="174.4190764"><ele>130.00000000000003</ele><time>2026-04-09T20:57:41.645Z</time></trkpt><trkpt lat="-36.7451022" lon="174.4190222"><ele>130.0</ele><time>2026-04-09T20:57:45.645Z</time></trkpt><trkpt lat="-36.7451712" lon="174.4189987"><ele>130.0</ele><time>2026-04-09T20:57:50.645Z</time></trkpt><trkpt lat="-36.7452116" lon="174.4190733"><ele>130.0</ele><time>2026-04-09T20:57:52.644Z</time></trkpt><trkpt lat="-36.7452466" lon="174.4191688"><ele>130.0</ele><time>2026-04-09T20:57:55.644Z</time></trkpt><trkpt lat="-36.7453111" lon="174.4192157"><ele>130.00000000000003</ele><time>2026-04-09T20:57:58.644Z</time></trkpt><trkpt lat="-36.7453849" lon="174.4192192"><ele>130.0</ele><time>2026-04-09T20:58:02.645Z</time></trkpt><trkpt lat="-36.7454627" lon="174.4191805"><ele>130.66666666666669</ele><time>2026-04-09T20:58:05.644Z</time></trkpt><trkpt lat="-36.745536" lon="174.4191302"><ele>131.33333333333334</ele><time>2026-04-09T20:58:07.646Z</time></trkpt><trkpt lat="-36.7455913" lon="174.4190398"><ele>132.0</ele><time>2026-04-09T20:58:09.645Z</time></trkpt><trkpt lat="-36.7456311" lon="174.4189616"><ele>132.66666666666666</ele><time>2026-04-09T20:58:11.644Z</time></trkpt><trkpt lat="-36.7456731" lon="174.4188832"><ele>133.33333333333331</ele><time>2026-04-09T20:58:13.643Z</time></trkpt><trkpt lat="-36.7457183" lon="174.4188136"><ele>134.0</ele><time>2026-04-09T20:58:15.644Z</time></trkpt><trkpt lat="-36.7457548" lon="174.4187196"><ele>134.0</ele><time>2026-04-09T20:58:18.643Z</time></trkpt><trkpt lat="-36.7458053" lon="174.418643"><ele>134.0</ele><time>2026-04-09T20:58:20.645Z</time></trkpt><trkpt lat="-36.7458437" lon="174.4185675"><ele>134.0</ele><time>2026-04-09T20:58:22.645Z</time></trkpt><trkpt lat="-36.7458793" lon="174.4184974"><ele>134.0</ele><time>2026-04-09T20:58:24.644Z</time></trkpt><trkpt lat="-36.7459534" lon="174.4184019"><ele>134.0</ele><time>2026-04-09T20:58:26.646Z</time></trkpt><trkpt lat="-36.7460051" lon="174.4183071"><ele>134.0</ele><time>2026-04-09T20:58:28.644Z</time></trkpt><trkpt lat="-36.7460491" lon="174.4182149"><ele>134.0</ele><time>2026-04-09T20:58:30.644Z</time></trkpt><trkpt lat="-36.7460904" lon="174.4181285"><ele>134.0</ele><time>2026-04-09T20:58:32.645Z</time></trkpt><trkpt lat="-36.7461372" lon="174.4180284"><ele>134.0</ele><time>2026-04-09T20:58:34.645Z</time></trkpt><trkpt lat="-36.7461848" lon="174.4179329"><ele>134.0</ele><time>2026-04-09T20:58:36.646Z</time></trkpt><trkpt lat="-36.7462198" lon="174.417842"><ele>134.0</ele><time>2026-04-09T20:58:38.644Z</time></trkpt><trkpt lat="-36.7462375" lon="174.4177627"><ele>134.0</ele><time>2026-04-09T20:58:40.643Z</time></trkpt><trkpt lat="-36.7463027" lon="174.4177519"><ele>134.0</ele><time>2026-04-09T20:58:44.644Z</time></trkpt><trkpt lat="-36.7463066" lon="174.4178512"><ele>134.0</ele><time>2026-04-09T20:58:47.646Z</time></trkpt><trkpt lat="-36.7462828" lon="174.4179496"><ele>134.0</ele><time>2026-04-09T20:58:49.646Z</time></trkpt><trkpt lat="-36.7462384" lon="174.4180237"><ele>134.0</ele><time>2026-04-09T20:58:51.645Z</time></trkpt><trkpt lat="-36.746196" lon="174.4181383"><ele>134.0</ele><time>2026-04-09T20:58:53.645Z</time></trkpt><trkpt lat="-36.7461439" lon="174.4182483"><ele>134.0</ele><time>2026-04-09T20:58:54.645Z</time></trkpt><trkpt lat="-36.7461115" lon="174.4183251"><ele>134.0</ele><time>2026-04-09T20:58:55.645Z</time></trkpt><trkpt lat="-36.7460525" lon="174.4184006"><ele>134.0</ele><time>2026-04-09T20:58:56.645Z</time></trkpt><trkpt lat="-36.7460047" lon="174.4184872"><ele>134.0</ele><time>2026-04-09T20:58:57.644Z</time></trkpt><trkpt lat="-36.7459667" lon="174.4185633"><ele>134.0</ele><time>2026-04-09T20:58:58.645Z</time></trkpt><trkpt lat="-36.7459221" lon="174.4186575"><ele>134.0</ele><time>2026-04-09T20:58:59.646Z</time></trkpt><trkpt lat="-36.7458703" lon="174.4187077"><ele>134.0</ele><time>2026-04-09T20:59:00.645Z</time></trkpt><trkpt lat="-36.7458298" lon="174.4187956"><ele>134.0</ele><time>2026-04-09T20:59:01.646Z</time></trkpt><trkpt lat="-36.7458129" lon="174.4188845"><ele>134.0</ele><time>2026-04-09T20:59:02.645Z</time></trkpt><trkpt lat="-36.7457964" lon="174.4189763"><ele>134.0</ele><time>2026-04-09T20:59:03.644Z</time></trkpt><trkpt lat="-36.7457441" lon="174.4190476"><ele>134.0</ele><time>2026-04-09T20:59:04.644Z</time></trkpt><trkpt lat="-36.745651" lon="174.419138"><ele>134.0</ele><time>2026-04-09T20:59:06.644Z</time></trkpt><trkpt lat="-36.745664" lon="174.4192321"><ele>134.0</ele><time>2026-04-09T20:59:08.644Z</time></trkpt><trkpt lat="-36.74574" lon="174.419244"><ele>134.0</ele><time>2026-04-09T20:59:09.644Z</time></trkpt><trkpt lat="-36.7458179" lon="174.4193319"><ele>134.0</ele><time>2026-04-09T20:59:11.644Z</time></trkpt><trkpt lat="-36.7457829" lon="174.4194407"><ele>134.0</ele><time>2026-04-09T20:59:13.645Z</time></trkpt><trkpt lat="-36.7458544" lon="174.4195395"><ele>134.0</ele><time>2026-04-09T20:59:15.644Z</time></trkpt><trkpt lat="-36.745928" lon="174.4195676"><ele>134.0</ele><time>2026-04-09T20:59:17.644Z</time></trkpt><trkpt lat="-36.7460257" lon="174.419565"><ele>132.2</ele><time>2026-04-09T20:59:18.644Z</time></trkpt><trkpt lat="-36.7460604" lon="174.4196859"><ele>130.4</ele><time>2026-04-09T20:59:20.644Z</time></trkpt><trkpt lat="-36.7460554" lon="174.4198528"><ele>128.6</ele><time>2026-04-09T20:59:22.644Z</time></trkpt><trkpt lat="-36.7460507" lon="174.419932"><ele>126.8</ele><time>2026-04-09T20:59:23.645Z</time></trkpt><trkpt lat="-36.7460545" lon="174.4200391"><ele>125.0</ele><time>2026-04-09T20:59:25.645Z</time></trkpt><trkpt lat="-36.7461574" lon="174.4200925"><ele>124.99999999999999</ele><time>2026-04-09T20:59:27.644Z</time></trkpt><trkpt lat="-36.7462463" lon="174.4201028"><ele>125.0</ele><time>2026-04-09T20:59:28.643Z</time></trkpt><trkpt lat="-36.7463164" lon="174.4201151"><ele>125.0</ele><time>2026-04-09T20:59:29.645Z</time></trkpt><trkpt lat="-36.746401" lon="174.4201032"><ele>125.0</ele><time>2026-04-09T20:59:30.644Z</time></trkpt><trkpt lat="-36.7464935" lon="174.4200602"><ele>124.99999999999999</ele><time>2026-04-09T20:59:31.646Z</time></trkpt><trkpt lat="-36.7465521" lon="174.4200048"><ele>125.0</ele><time>2026-04-09T20:59:32.645Z</time></trkpt><trkpt lat="-36.7466246" lon="174.4199483"><ele>125.0</ele><time>2026-04-09T20:59:33.645Z</time></trkpt><trkpt lat="-36.7466361" lon="174.4197613"><ele>125.0</ele><time>2026-04-09T20:59:35.645Z</time></trkpt><trkpt lat="-36.7466423" lon="174.4195995"><ele>125.0</ele><time>2026-04-09T20:59:37.643Z</time></trkpt><trkpt lat="-36.746733" lon="174.4196441"><ele>125.0</ele><time>2026-04-09T20:59:40.646Z</time></trkpt><trkpt lat="-36.7467852" lon="174.4197614"><ele>125.0</ele><time>2026-04-09T20:59:42.645Z</time></trkpt><trkpt lat="-36.7468271" lon="174.4198876"><ele>125.0</ele><time>2026-04-09T20:59:44.646Z</time></trkpt><trkpt lat="-36.7468196" lon="174.4200242"><ele>125.0</ele><time>2026-04-09T20:59:46.645Z</time></trkpt><trkpt lat="-36.74687" lon="174.4201473"><ele>125.0</ele><time>2026-04-09T20:59:48.644Z</time></trkpt><trkpt lat="-36.7469368" lon="174.4201935"><ele>125.0</ele><time>2026-04-09T20:59:50.646Z</time></trkpt><trkpt lat="-36.7470009" lon="174.4201697"><ele>123.2</ele><time>2026-04-09T20:59:51.644Z</time></trkpt><trkpt lat="-36.7470949" lon="174.4200791"><ele>121.4</ele><time>2026-04-09T20:59:53.646Z</time></trkpt><trkpt lat="-36.7471808" lon="174.4200946"><ele>119.6</ele><time>2026-04-09T20:59:55.644Z</time></trkpt><trkpt lat="-36.7472619" lon="174.4201251"><ele>117.8</ele><time>2026-04-09T20:59:57.644Z</time></trkpt><trkpt lat="-36.7473748" lon="174.4201727"><ele>116.0</ele><time>2026-04-09T20:59:59.646Z</time></trkpt><trkpt lat="-36.7474574" lon="174.4201101"><ele>115.99999999999999</ele><time>2026-04-09T21:00:01.644Z</time></trkpt><trkpt lat="-36.7475177" lon="174.4200363"><ele>116.0</ele><time>2026-04-09T21:00:03.644Z</time></trkpt><trkpt lat="-36.7475339" lon="174.4199205"><ele>116.0</ele><time>2026-04-09T21:00:05.645Z</time></trkpt><trkpt lat="-36.7475029" lon="174.4198025"><ele>116.0</ele><time>2026-04-09T21:00:07.645Z</time></trkpt><trkpt lat="-36.7474376" lon="174.4197321"><ele>115.99999999999999</ele><time>2026-04-09T21:00:09.646Z</time></trkpt><trkpt lat="-36.7473744" lon="174.4196859"><ele>116.0</ele><time>2026-04-09T21:00:11.645Z</time></trkpt><trkpt lat="-36.7473004" lon="174.4196137"><ele>116.83333333333333</ele><time>2026-04-09T21:00:13.644Z</time></trkpt><trkpt lat="-36.7472651" lon="174.4195456"><ele>117.66666666666666</ele><time>2026-04-09T21:00:14.645Z</time></trkpt><trkpt lat="-36.7472341" lon="174.4194493"><ele>118.5</ele><time>2026-04-09T21:00:16.644Z</time></trkpt><trkpt lat="-36.7472337" lon="174.4193455"><ele>119.33333333333334</ele><time>2026-04-09T21:00:18.643Z</time></trkpt><trkpt lat="-36.7472477" lon="174.4192155"><ele>120.16666666666667</ele><time>2026-04-09T21:00:20.645Z</time></trkpt><trkpt lat="-36.7472708" lon="174.4191319"><ele>121.0</ele><time>2026-04-09T21:00:22.644Z</time></trkpt><trkpt lat="-36.7473081" lon="174.4190637"><ele>121.00000000000001</ele><time>2026-04-09T21:00:23.644Z</time></trkpt><trkpt lat="-36.7473745" lon="174.4189707"><ele>121.0</ele><time>2026-04-09T21:00:25.644Z</time></trkpt><trkpt lat="-36.7473978" lon="174.418891"><ele>121.0</ele><time>2026-04-09T21:00:27.644Z</time></trkpt><trkpt lat="-36.7474416" lon="174.4188272"><ele>121.0</ele><time>2026-04-09T21:00:29.645Z</time></trkpt><trkpt lat="-36.7474311" lon="174.4187219"><ele>121.00000000000001</ele><time>2026-04-09T21:00:32.644Z</time></trkpt><trkpt lat="-36.7473987" lon="174.4186452"><ele>121.0</ele><time>2026-04-09T21:00:35.644Z</time></trkpt><trkpt lat="-36.7474229" lon="174.418533"><ele>121.83333333333334</ele><time>2026-04-09T21:00:37.645Z</time></trkpt><trkpt lat="-36.7474338" lon="174.4184406"><ele>122.66666666666667</ele><time>2026-04-09T21:00:38.644Z</time></trkpt><trkpt lat="-36.7474767" lon="174.4183367"><ele>123.5</ele><time>2026-04-09T21:00:40.645Z</time></trkpt><trkpt lat="-36.747525" lon="174.4182373"><ele>124.33333333333334</ele><time>2026-04-09T21:00:42.643Z</time></trkpt><trkpt lat="-36.7475454" lon="174.4181525"><ele>125.16666666666667</ele><time>2026-04-09T21:00:43.644Z</time></trkpt><trkpt lat="-36.747538" lon="174.4180635"><ele>126.0</ele><time>2026-04-09T21:00:45.645Z</time></trkpt><trkpt lat="-36.7474866" lon="174.4180169"><ele>126.83333333333333</ele><time>2026-04-09T21:00:47.644Z</time></trkpt><trkpt lat="-36.7474313" lon="174.4179637"><ele>127.66666666666666</ele><time>2026-04-09T21:00:49.645Z</time></trkpt><trkpt lat="-36.7473817" lon="174.417906"><ele>128.5</ele><time>2026-04-09T21:00:51.644Z</time></trkpt><trkpt lat="-36.7473177" lon="174.4178651"><ele>129.33333333333331</ele><time>2026-04-09T21:00:53.646Z</time></trkpt><trkpt lat="-36.7472437" lon="174.4178234"><ele>130.16666666666666</ele><time>2026-04-09T21:00:55.645Z</time></trkpt><trkpt lat="-36.7471528" lon="174.4177664"><ele>131.0</ele><time>2026-04-09T21:00:57.644Z</time></trkpt><trkpt lat="-36.7470747" lon="174.4177386"><ele>131.0</ele><time>2026-04-09T21:00:59.644Z</time></trkpt><trkpt lat="-36.7469955" lon="174.4176943"><ele>131.0</ele><time>2026-04-09T21:01:01.645Z</time></trkpt><trkpt lat="-36.7469088" lon="174.4176553"><ele>131.0</ele><time>2026-04-09T21:01:03.645Z</time></trkpt><trkpt lat="-36.7468372" lon="174.4176193"><ele>131.0</ele><time>2026-04-09T21:01:05.644Z</time></trkpt><trkpt lat="-36.7467678" lon="174.4175728"><ele>131.0</ele><time>2026-04-09T21:01:07.644Z</time></trkpt><trkpt lat="-36.7467001" lon="174.417533"><ele>131.0</ele><time>2026-04-09T21:01:09.643Z</time></trkpt><trkpt lat="-36.7466396" lon="174.4174856"><ele>131.57142857142858</ele><time>2026-04-09T21:01:11.646Z</time></trkpt><trkpt lat="-36.7465693" lon="174.4174451"><ele>132.14285714285717</ele><time>2026-04-09T21:01:14.645Z</time></trkpt><trkpt lat="-36.746496" lon="174.4174523"><ele>132.71428571428572</ele><time>2026-04-09T21:01:17.644Z</time></trkpt><trkpt lat="-36.7464394" lon="174.4175087"><ele>133.28571428571428</ele><time>2026-04-09T21:01:20.644Z</time></trkpt><trkpt lat="-36.7463721" lon="174.4175451"><ele>133.85714285714283</ele><time>2026-04-09T21:01:23.643Z</time></trkpt><trkpt lat="-36.7463279" lon="174.417613"><ele>134.42857142857142</ele><time>2026-04-09T21:01:26.644Z</time></trkpt><trkpt lat="-36.7463132" lon="174.4177016"><ele>135.0</ele><time>2026-04-09T21:01:29.644Z</time></trkpt><trkpt lat="-36.7462712" lon="174.4177648"><ele>135.0</ele><time>2026-04-09T21:02:03.645Z</time></trkpt><trkpt lat="-36.7461987" lon="174.4177808"><ele>135.0</ele><time>2026-04-09T21:02:06.646Z</time></trkpt><trkpt lat="-36.7461364" lon="174.417721"><ele>135.0</ele><time>2026-04-09T21:02:10.646Z</time></trkpt><trkpt lat="-36.7460596" lon="174.4176524"><ele>135.0</ele><time>2026-04-09T21:02:14.644Z</time></trkpt><trkpt lat="-36.7459963" lon="174.417571"><ele>135.0</ele><time>2026-04-09T21:02:16.644Z</time></trkpt><trkpt lat="-36.7459587" lon="174.4174605"><ele>135.0</ele><time>2026-04-09T21:02:18.645Z</time></trkpt><trkpt lat="-36.7459555" lon="174.4173373"><ele>135.2</ele><time>2026-04-09T21:02:20.645Z</time></trkpt><trkpt lat="-36.7459541" lon="174.4172381"><ele>135.4</ele><time>2026-04-09T21:02:22.643Z</time></trkpt><trkpt lat="-36.7458963" lon="174.417135"><ele>135.6</ele><time>2026-04-09T21:02:25.646Z</time></trkpt><trkpt lat="-36.7458154" lon="174.4170917"><ele>135.8</ele><time>2026-04-09T21:02:26.646Z</time></trkpt><trkpt lat="-36.7457084" lon="174.4170046"><ele>136.0</ele><time>2026-04-09T21:02:28.645Z</time></trkpt><trkpt lat="-36.7456386" lon="174.4169557"><ele>136.16666666666669</ele><time>2026-04-09T21:02:29.644Z</time></trkpt><trkpt lat="-36.7455746" lon="174.4169108"><ele>136.33333333333334</ele><time>2026-04-09T21:02:30.643Z</time></trkpt><trkpt lat="-36.7454902" lon="174.4169136"><ele>136.5</ele><time>2026-04-09T21:02:31.644Z</time></trkpt><trkpt lat="-36.7454265" lon="174.4169033"><ele>136.66666666666666</ele><time>2026-04-09T21:02:32.644Z</time></trkpt><trkpt lat="-36.7453513" lon="174.4168616"><ele>136.83333333333331</ele><time>2026-04-09T21:02:33.645Z</time></trkpt><trkpt lat="-36.745282" lon="174.4168329"><ele>137.0</ele><time>2026-04-09T21:02:34.644Z</time></trkpt><trkpt lat="-36.745184" lon="174.4167555"><ele>136.16666666666666</ele><time>2026-04-09T21:02:36.644Z</time></trkpt><trkpt lat="-36.7451074" lon="174.4167025"><ele>135.33333333333331</ele><time>2026-04-09T21:02:37.645Z</time></trkpt><trkpt lat="-36.7450456" lon="174.4166558"><ele>134.5</ele><time>2026-04-09T21:02:38.644Z</time></trkpt><trkpt lat="-36.7449806" lon="174.416608"><ele>133.66666666666666</ele><time>2026-04-09T21:02:39.645Z</time></trkpt><trkpt lat="-36.7449067" lon="174.416501"><ele>132.83333333333334</ele><time>2026-04-09T21:02:41.645Z</time></trkpt><trkpt lat="-36.7448535" lon="174.4164336"><ele>132.0</ele><time>2026-04-09T21:02:42.644Z</time></trkpt><trkpt lat="-36.7447672" lon="174.416399"><ele>131.4</ele><time>2026-04-09T21:02:43.644Z</time></trkpt><trkpt lat="-36.7447142" lon="174.4163195"><ele>130.79999999999998</ele><time>2026-04-09T21:02:44.643Z</time></trkpt><trkpt lat="-36.7446478" lon="174.4162654"><ele>130.2</ele><time>2026-04-09T21:02:45.646Z</time></trkpt><trkpt lat="-36.7445733" lon="174.4162034"><ele>129.6</ele><time>2026-04-09T21:02:46.645Z</time></trkpt><trkpt lat="-36.7444804" lon="174.4161381"><ele>129.0</ele><time>2026-04-09T21:02:47.643Z</time></trkpt><trkpt lat="-36.744362" lon="174.416062"><ele>127.0</ele><time>2026-04-09T21:02:49.644Z</time></trkpt><trkpt lat="-36.744313" lon="174.4159829"><ele>125.0</ele><time>2026-04-09T21:02:50.643Z</time></trkpt><trkpt lat="-36.7442496" lon="174.4159085"><ele>123.0</ele><time>2026-04-09T21:02:51.646Z</time></trkpt><trkpt lat="-36.7441598" lon="174.4158522"><ele>121.0</ele><time>2026-04-09T21:02:52.644Z</time></trkpt><trkpt lat="-36.744075" lon="174.4157966"><ele>119.0</ele><time>2026-04-09T21:02:53.645Z</time></trkpt><trkpt lat="-36.7439854" lon="174.4157382"><ele>118.99999999999999</ele><time>2026-04-09T21:02:54.643Z</time></trkpt><trkpt lat="-36.7438929" lon="174.4156861"><ele>119.0</ele><time>2026-04-09T21:02:55.645Z</time></trkpt><trkpt lat="-36.7438203" lon="174.4156283"><ele>119.0</ele><time>2026-04-09T21:02:56.645Z</time></trkpt><trkpt lat="-36.7437537" lon="174.4155691"><ele>119.0</ele><time>2026-04-09T21:02:57.644Z</time></trkpt><trkpt lat="-36.7436957" lon="174.4155137"><ele>118.99999999999999</ele><time>2026-04-09T21:02:58.644Z</time></trkpt><trkpt lat="-36.7436493" lon="174.4154317"><ele>119.0</ele><time>2026-04-09T21:02:59.644Z</time></trkpt><trkpt lat="-36.7436207" lon="174.4153406"><ele>120.16666666666666</ele><time>2026-04-09T21:03:01.643Z</time></trkpt><trkpt lat="-36.7435424" lon="174.4152596"><ele>121.33333333333333</ele><time>2026-04-09T21:03:04.645Z</time></trkpt><trkpt lat="-36.7434749" lon="174.4152142"><ele>122.5</ele><time>2026-04-09T21:03:06.645Z</time></trkpt><trkpt lat="-36.7434045" lon="174.4151498"><ele>123.66666666666666</ele><time>2026-04-09T21:03:08.643Z</time></trkpt><trkpt lat="-36.7433416" lon="174.4151042"><ele>124.83333333333333</ele><time>2026-04-09T21:03:10.644Z</time></trkpt><trkpt lat="-36.7432713" lon="174.4150476"><ele>126.0</ele><time>2026-04-09T21:03:12.645Z</time></trkpt><trkpt lat="-36.7431947" lon="174.414994"><ele>126.0</ele><time>2026-04-09T21:03:14.644Z</time></trkpt><trkpt lat="-36.7431229" lon="174.4149416"><ele>126.0</ele><time>2026-04-09T21:03:16.643Z</time></trkpt><trkpt lat="-36.7430479" lon="174.4148941"><ele>126.0</ele><time>2026-04-09T21:03:18.643Z</time></trkpt><trkpt lat="-36.7429812" lon="174.4148255"><ele>126.0</ele><time>2026-04-09T21:03:20.644Z</time></trkpt><trkpt lat="-36.7429275" lon="174.414767"><ele>126.0</ele><time>2026-04-09T21:03:22.645Z</time></trkpt><trkpt lat="-36.7428637" lon="174.414708"><ele>126.0</ele><time>2026-04-09T21:03:24.644Z</time></trkpt><trkpt lat="-36.7427854" lon="174.4146634"><ele>126.85714285714286</ele><time>2026-04-09T21:03:26.645Z</time></trkpt><trkpt lat="-36.7427159" lon="174.4146143"><ele>127.71428571428572</ele><time>2026-04-09T21:03:28.645Z</time></trkpt><trkpt lat="-36.7426546" lon="174.4145685"><ele>128.57142857142856</ele><time>2026-04-09T21:03:30.645Z</time></trkpt><trkpt lat="-36.742592" lon="174.4145247"><ele>129.42857142857144</ele><time>2026-04-09T21:03:32.644Z</time></trkpt><trkpt lat="-36.7425271" lon="174.4144807"><ele>130.28571428571428</ele><time>2026-04-09T21:03:34.646Z</time></trkpt><trkpt lat="-36.742467" lon="174.4144346"><ele>131.14285714285714</ele><time>2026-04-09T21:03:36.645Z</time></trkpt><trkpt lat="-36.7424041" lon="174.4143958"><ele>132.0</ele><time>2026-04-09T21:03:38.645Z</time></trkpt><trkpt lat="-36.7423369" lon="174.41434"><ele>132.0</ele><time>2026-04-09T21:03:41.645Z</time></trkpt><trkpt lat="-36.7423635" lon="174.4142602"><ele>132.0</ele><time>2026-04-09T21:04:25.644Z</time></trkpt><trkpt lat="-36.7424599" lon="174.4142389"><ele>132.0</ele><time>2026-04-09T21:04:27.645Z</time></trkpt><trkpt lat="-36.7425685" lon="174.41423"><ele>132.0</ele><time>2026-04-09T21:04:29.645Z</time></trkpt><trkpt lat="-36.742684" lon="174.4142227"><ele>132.0</ele><time>2026-04-09T21:04:31.644Z</time></trkpt><trkpt lat="-36.7427587" lon="174.4142809"><ele>132.0</ele><time>2026-04-09T21:04:33.645Z</time></trkpt><trkpt lat="-36.7427809" lon="174.4143919"><ele>132.0</ele><time>2026-04-09T21:04:35.644Z</time></trkpt><trkpt lat="-36.7428458" lon="174.4144572"><ele>132.0</ele><time>2026-04-09T21:04:37.645Z</time></trkpt><trkpt lat="-36.7429306" lon="174.4144533"><ele>132.0</ele><time>2026-04-09T21:04:39.645Z</time></trkpt><trkpt lat="-36.7430536" lon="174.4144508"><ele>132.0</ele><time>2026-04-09T21:04:41.644Z</time></trkpt><trkpt lat="-36.7431324" lon="174.4145235"><ele>132.0</ele><time>2026-04-09T21:04:43.643Z</time></trkpt><trkpt lat="-36.7431286" lon="174.4146458"><ele>132.0</ele><time>2026-04-09T21:04:45.645Z</time></trkpt><trkpt lat="-36.7431722" lon="174.4147126"><ele>132.0</ele><time>2026-04-09T21:04:47.645Z</time></trkpt><trkpt lat="-36.7432282" lon="174.414794"><ele>132.0</ele><time>2026-04-09T21:04:49.643Z</time></trkpt><trkpt lat="-36.7433026" lon="174.4148275"><ele>132.0</ele><time>2026-04-09T21:04:51.643Z</time></trkpt><trkpt lat="-36.7433757" lon="174.4148453"><ele>132.0</ele><time>2026-04-09T21:04:53.643Z</time></trkpt><trkpt lat="-36.7434822" lon="174.4148354"><ele>130.2</ele><time>2026-04-09T21:04:55.645Z</time></trkpt><trkpt lat="-36.7435626" lon="174.4148501"><ele>128.39999999999998</ele><time>2026-04-09T21:04:57.644Z</time></trkpt><trkpt lat="-36.7436942" lon="174.4148482"><ele>126.60000000000001</ele><time>2026-04-09T21:04:59.645Z</time></trkpt><trkpt lat="-36.7437898" lon="174.4148094"><ele>124.80000000000001</ele><time>2026-04-09T21:05:01.643Z</time></trkpt><trkpt lat="-36.7438625" lon="174.414746"><ele>123.0</ele><time>2026-04-09T21:05:03.644Z</time></trkpt><trkpt lat="-36.7439401" lon="174.4147565"><ele>123.0</ele><time>2026-04-09T21:05:05.643Z</time></trkpt><trkpt lat="-36.7439855" lon="174.4148252"><ele>123.0</ele><time>2026-04-09T21:05:07.646Z</time></trkpt><trkpt lat="-36.7440317" lon="174.4148814"><ele>123.0</ele><time>2026-04-09T21:05:09.644Z</time></trkpt><trkpt lat="-36.7441082" lon="174.4149181"><ele>123.0</ele><time>2026-04-09T21:05:11.645Z</time></trkpt><trkpt lat="-36.7441819" lon="174.4149638"><ele>123.0</ele><time>2026-04-09T21:05:13.645Z</time></trkpt><trkpt lat="-36.7442637" lon="174.4149891"><ele>123.0</ele><time>2026-04-09T21:05:14.644Z</time></trkpt><trkpt lat="-36.7443305" lon="174.4150245"><ele>123.0</ele><time>2026-04-09T21:05:15.643Z</time></trkpt><trkpt lat="-36.7443734" lon="174.4151016"><ele>123.0</ele><time>2026-04-09T21:05:17.643Z</time></trkpt><trkpt lat="-36.7444028" lon="174.4152026"><ele>123.0</ele><time>2026-04-09T21:05:19.644Z</time></trkpt><trkpt lat="-36.7444538" lon="174.4152944"><ele>123.0</ele><time>2026-04-09T21:05:21.644Z</time></trkpt><trkpt lat="-36.7445093" lon="174.415368"><ele>123.0</ele><time>2026-04-09T21:05:23.645Z</time></trkpt><trkpt lat="-36.7445224" lon="174.4154649"><ele>123.0</ele><time>2026-04-09T21:05:25.644Z</time></trkpt><trkpt lat="-36.7444807" lon="174.415548"><ele>124.0</ele><time>2026-04-09T21:05:28.644Z</time></trkpt><trkpt lat="-36.7444997" lon="174.4156454"><ele>125.0</ele><time>2026-04-09T21:05:31.644Z</time></trkpt><trkpt lat="-36.744599" lon="174.4156829"><ele>126.0</ele><time>2026-04-09T21:05:34.643Z</time></trkpt><trkpt lat="-36.744673" lon="174.415706"><ele>127.0</ele><time>2026-04-09T21:05:36.644Z</time></trkpt><trkpt lat="-36.744755" lon="174.4157031"><ele>128.0</ele><time>2026-04-09T21:05:38.644Z</time></trkpt><trkpt lat="-36.7448293" lon="174.4157372"><ele>129.0</ele><time>2026-04-09T21:05:41.645Z</time></trkpt><trkpt lat="-36.7448156" lon="174.4158399"><ele>128.99999999999997</ele><time>2026-04-09T21:05:44.645Z</time></trkpt><trkpt lat="-36.7447572" lon="174.4159149"><ele>129.0</ele><time>2026-04-09T21:05:47.645Z</time></trkpt><trkpt lat="-36.7448183" lon="174.4159618"><ele>129.0</ele><time>2026-04-09T21:05:55.644Z</time></trkpt><trkpt lat="-36.7448785" lon="174.415998"><ele>129.0</ele><time>2026-04-09T21:05:58.644Z</time></trkpt><trkpt lat="-36.7449568" lon="174.4160419"><ele>129.0</ele><time>2026-04-09T21:06:01.643Z</time></trkpt><trkpt lat="-36.7449984" lon="174.416104"><ele>128.99999999999997</ele><time>2026-04-09T21:06:04.644Z</time></trkpt><trkpt lat="-36.7450345" lon="174.4160305"><ele>129.0</ele><time>2026-04-09T21:06:06.646Z</time></trkpt><trkpt lat="-36.7450279" lon="174.4159391"><ele>129.0</ele><time>2026-04-09T21:06:08.645Z</time></trkpt><trkpt lat="-36.7451019" lon="174.4158799"><ele>129.0</ele><time>2026-04-09T21:06:11.644Z</time></trkpt><trkpt lat="-36.7451852" lon="174.4158908"><ele>129.0</ele><time>2026-04-09T21:06:16.646Z</time></trkpt><trkpt lat="-36.7452705" lon="174.4159187"><ele>129.0</ele><time>2026-04-09T21:06:20.644Z</time></trkpt><trkpt lat="-36.7452871" lon="174.4160103"><ele>129.0</ele><time>2026-04-09T21:06:24.644Z</time></trkpt><trkpt lat="-36.7452663" lon="174.4160901"><ele>129.0</ele><time>2026-04-09T21:06:27.645Z</time></trkpt><trkpt lat="-36.7452697" lon="174.4161705"><ele>130.33333333333334</ele><time>2026-04-09T21:06:30.646Z</time></trkpt><trkpt lat="-36.7453246" lon="174.4162234"><ele>131.66666666666666</ele><time>2026-04-09T21:06:34.644Z</time></trkpt><trkpt lat="-36.7453802" lon="174.4162629"><ele>133.0</ele><time>2026-04-09T21:06:37.644Z</time></trkpt><trkpt lat="-36.7454225" lon="174.4163374"><ele>134.33333333333331</ele><time>2026-04-09T21:06:40.643Z</time></trkpt><trkpt lat="-36.7455021" lon="174.4163939"><ele>135.66666666666666</ele><time>2026-04-09T21:06:43.643Z</time></trkpt><trkpt lat="-36.7455703" lon="174.4164271"><ele>137.0</ele><time>2026-04-09T21:06:46.645Z</time></trkpt><trkpt lat="-36.7456525" lon="174.4164791"><ele>137.00000000000003</ele><time>2026-04-09T21:06:49.644Z</time></trkpt><trkpt lat="-36.7457026" lon="174.4165274"><ele>137.0</ele><time>2026-04-09T21:06:53.643Z</time></trkpt><trkpt lat="-36.7457492" lon="174.416446"><ele>137.0</ele><time>2026-04-09T21:06:58.645Z</time></trkpt><trkpt lat="-36.7457861" lon="174.4163799"><ele>137.0</ele><time>2026-04-09T21:07:01.644Z</time></trkpt><trkpt lat="-36.7457717" lon="174.416269"><ele>137.0</ele><time>2026-04-09T21:07:04.643Z</time></trkpt><trkpt lat="-36.7457905" lon="174.4161908"><ele>137.00000000000003</ele><time>2026-04-09T21:07:06.645Z</time></trkpt><trkpt lat="-36.7458338" lon="174.4161327"><ele>137.0</ele><time>2026-04-09T21:07:09.645Z</time></trkpt><trkpt lat="-36.7458634" lon="174.4160325"><ele>137.2</ele><time>2026-04-09T21:07:11.645Z</time></trkpt><trkpt lat="-36.7458612" lon="174.4159378"><ele>137.39999999999998</ele><time>2026-04-09T21:07:14.644Z</time></trkpt><trkpt lat="-36.7457872" lon="174.4159799"><ele>137.60000000000002</ele><time>2026-04-09T21:07:18.645Z</time></trkpt><trkpt lat="-36.7457241" lon="174.4159543"><ele>137.8</ele><time>2026-04-09T21:07:20.645Z</time></trkpt><trkpt lat="-36.7456926" lon="174.4157705"><ele>138.0</ele><time>2026-04-09T21:07:22.644Z</time></trkpt><trkpt lat="-36.7456222" lon="174.4156823"><ele>138.0</ele><time>2026-04-09T21:07:24.646Z</time></trkpt><trkpt lat="-36.7455503" lon="174.4155548"><ele>138.0</ele><time>2026-04-09T21:07:26.644Z</time></trkpt><trkpt lat="-36.74547" lon="174.4154338"><ele>138.0</ele><time>2026-04-09T21:07:28.644Z</time></trkpt><trkpt lat="-36.7454452" lon="174.4153537"><ele>138.0</ele><time>2026-04-09T21:07:29.643Z</time></trkpt><trkpt lat="-36.7454302" lon="174.4152587"><ele>138.0</ele><time>2026-04-09T21:07:30.645Z</time></trkpt><trkpt lat="-36.7453786" lon="174.4151162"><ele>136.4</ele><time>2026-04-09T21:07:32.645Z</time></trkpt><trkpt lat="-36.745295" lon="174.4150071"><ele>134.8</ele><time>2026-04-09T21:07:34.644Z</time></trkpt><trkpt lat="-36.7451986" lon="174.4149901"><ele>133.2</ele><time>2026-04-09T21:07:36.645Z</time></trkpt><trkpt lat="-36.7450925" lon="174.4150197"><ele>131.6</ele><time>2026-04-09T21:07:38.645Z</time></trkpt><trkpt lat="-36.745014" lon="174.4150558"><ele>130.0</ele><time>2026-04-09T21:07:40.645Z</time></trkpt><trkpt lat="-36.744934" lon="174.4151121"><ele>129.4</ele><time>2026-04-09T21:07:43.646Z</time></trkpt><trkpt lat="-36.7448573" lon="174.4151341"><ele>128.8</ele><time>2026-04-09T21:07:45.645Z</time></trkpt><trkpt lat="-36.7447777" lon="174.4151439"><ele>128.2</ele><time>2026-04-09T21:07:47.646Z</time></trkpt><trkpt lat="-36.7446479" lon="174.4151171"><ele>127.6</ele><time>2026-04-09T21:07:50.644Z</time></trkpt><trkpt lat="-36.7445522" lon="174.4150748"><ele>127.0</ele><time>2026-04-09T21:07:52.644Z</time></trkpt><trkpt lat="-36.7444964" lon="174.4150379"><ele>127.00000000000001</ele><time>2026-04-09T21:07:53.643Z</time></trkpt><trkpt lat="-36.7444403" lon="174.4149688"><ele>127.0</ele><time>2026-04-09T21:07:55.645Z</time></trkpt><trkpt lat="-36.7444118" lon="174.4148597"><ele>127.0</ele><time>2026-04-09T21:07:57.644Z</time></trkpt><trkpt lat="-36.7443666" lon="174.4147796"><ele>127.0</ele><time>2026-04-09T21:07:59.644Z</time></trkpt><trkpt lat="-36.7443198" lon="174.4147258"><ele>127.00000000000001</ele><time>2026-04-09T21:08:01.645Z</time></trkpt><trkpt lat="-36.7442449" lon="174.4146944"><ele>127.0</ele><time>2026-04-09T21:08:05.644Z</time></trkpt><trkpt lat="-36.7441844" lon="174.414642"><ele>127.33333333333334</ele><time>2026-04-09T21:08:08.645Z</time></trkpt><trkpt lat="-36.7441259" lon="174.4145445"><ele>127.66666666666667</ele><time>2026-04-09T21:08:11.645Z</time></trkpt><trkpt lat="-36.7440662" lon="174.414444"><ele>128.0</ele><time>2026-04-09T21:08:14.643Z</time></trkpt><trkpt lat="-36.7440303" lon="174.4143444"><ele>128.33333333333334</ele><time>2026-04-09T21:08:16.643Z</time></trkpt><trkpt lat="-36.7439989" lon="174.4142555"><ele>128.66666666666666</ele><time>2026-04-09T21:08:18.644Z</time></trkpt><trkpt lat="-36.7439998" lon="174.414176"><ele>129.0</ele><time>2026-04-09T21:08:20.643Z</time></trkpt><trkpt lat="-36.7439814" lon="174.4140906"><ele>129.0</ele><time>2026-04-09T21:08:22.643Z</time></trkpt><trkpt lat="-36.7439437" lon="174.4139778"><ele>129.0</ele><time>2026-04-09T21:08:25.643Z</time></trkpt><trkpt lat="-36.7439032" lon="174.413886"><ele>129.0</ele><time>2026-04-09T21:08:27.645Z</time></trkpt><trkpt lat="-36.7438141" lon="174.4138206"><ele>129.0</ele><time>2026-04-09T21:08:29.644Z</time></trkpt><trkpt lat="-36.7437129" lon="174.4137863"><ele>129.0</ele><time>2026-04-09T21:08:31.645Z</time></trkpt><trkpt lat="-36.7436384" lon="174.413709"><ele>129.16666666666666</ele><time>2026-04-09T21:08:33.645Z</time></trkpt><trkpt lat="-36.7435815" lon="174.4136366"><ele>129.33333333333334</ele><time>2026-04-09T21:08:35.643Z</time></trkpt><trkpt lat="-36.7435384" lon="174.4135475"><ele>129.5</ele><time>2026-04-09T21:08:37.644Z</time></trkpt><trkpt lat="-36.7434859" lon="174.4134653"><ele>129.66666666666669</ele><time>2026-04-09T21:08:39.644Z</time></trkpt><trkpt lat="-36.743453" lon="174.4133743"><ele>129.83333333333334</ele><time>2026-04-09T21:08:43.645Z</time></trkpt><trkpt lat="-36.7434563" lon="174.4132714"><ele>130.0</ele><time>2026-04-09T21:08:45.643Z</time></trkpt><trkpt lat="-36.7434995" lon="174.413146"><ele>130.0</ele><time>2026-04-09T21:08:47.645Z</time></trkpt><trkpt lat="-36.7435216" lon="174.4130303"><ele>130.0</ele><time>2026-04-09T21:08:49.645Z</time></trkpt><trkpt lat="-36.7435792" lon="174.4129276"><ele>130.0</ele><time>2026-04-09T21:08:51.643Z</time></trkpt><trkpt lat="-36.7436628" lon="174.4128991"><ele>130.0</ele><time>2026-04-09T21:08:52.644Z</time></trkpt><trkpt lat="-36.7437389" lon="174.4129009"><ele>130.0</ele><time>2026-04-09T21:08:54.644Z</time></trkpt><trkpt lat="-36.7437802" lon="174.4130002"><ele>130.0</ele><time>2026-04-09T21:08:56.644Z</time></trkpt><trkpt lat="-36.7437379" lon="174.4130701"><ele>130.0</ele><time>2026-04-09T21:08:59.645Z</time></trkpt><trkpt lat="-36.7436951" lon="174.4131287"><ele>130.0</ele><time>2026-04-09T21:09:01.644Z</time></trkpt><trkpt lat="-36.7436659" lon="174.4132455"><ele>130.0</ele><time>2026-04-09T21:09:04.644Z</time></trkpt><trkpt lat="-36.7436881" lon="174.4133278"><ele>130.0</ele><time>2026-04-09T21:09:07.645Z</time></trkpt><trkpt lat="-36.7437337" lon="174.4133996"><ele>130.0</ele><time>2026-04-09T21:09:10.644Z</time></trkpt><trkpt lat="-36.7437704" lon="174.4135412"><ele>130.0</ele><time>2026-04-09T21:09:13.644Z</time></trkpt><trkpt lat="-36.7438372" lon="174.4136296"><ele>130.0</ele><time>2026-04-09T21:09:16.645Z</time></trkpt><trkpt lat="-36.7439128" lon="174.4136724"><ele>130.0</ele><time>2026-04-09T21:09:19.645Z</time></trkpt><trkpt lat="-36.7439834" lon="174.4137089"><ele>130.0</ele><time>2026-04-09T21:09:21.645Z</time></trkpt><trkpt lat="-36.7440535" lon="174.4137612"><ele>130.0</ele><time>2026-04-09T21:09:23.644Z</time></trkpt><trkpt lat="-36.7440978" lon="174.4138324"><ele>130.0</ele><time>2026-04-09T21:09:25.645Z</time></trkpt><trkpt lat="-36.7441885" lon="174.4138524"><ele>130.0</ele><time>2026-04-09T21:09:28.644Z</time></trkpt><trkpt lat="-36.7442793" lon="174.4139212"><ele>129.83333333333334</ele><time>2026-04-09T21:09:31.643Z</time></trkpt><trkpt lat="-36.7442922" lon="174.4140011"><ele>129.66666666666669</ele><time>2026-04-09T21:09:33.645Z</time></trkpt><trkpt lat="-36.7442715" lon="174.4140794"><ele>129.5</ele><time>2026-04-09T21:09:35.644Z</time></trkpt><trkpt lat="-36.7442357" lon="174.4141777"><ele>129.33333333333334</ele><time>2026-04-09T21:09:38.645Z</time></trkpt><trkpt lat="-36.7442805" lon="174.4142522"><ele>129.16666666666666</ele><time>2026-04-09T21:09:41.643Z</time></trkpt><trkpt lat="-36.7443795" lon="174.4142453"><ele>129.0</ele><time>2026-04-09T21:09:44.644Z</time></trkpt><trkpt lat="-36.7444514" lon="174.4142432"><ele>128.6</ele><time>2026-04-09T21:09:46.645Z</time></trkpt><trkpt lat="-36.7445207" lon="174.4143"><ele>128.2</ele><time>2026-04-09T21:09:49.645Z</time></trkpt><trkpt lat="-36.744562" lon="174.4143822"><ele>127.79999999999998</ele><time>2026-04-09T21:09:51.646Z</time></trkpt><trkpt lat="-36.7446038" lon="174.4144903"><ele>127.39999999999999</ele><time>2026-04-09T21:09:53.646Z</time></trkpt><trkpt lat="-36.7446289" lon="174.4146211"><ele>127.0</ele><time>2026-04-09T21:09:55.643Z</time></trkpt><trkpt lat="-36.7446807" lon="174.4147092"><ele>127.00000000000001</ele><time>2026-04-09T21:09:57.643Z</time></trkpt><trkpt lat="-36.7447389" lon="174.41481"><ele>127.0</ele><time>2026-04-09T21:09:59.644Z</time></trkpt><trkpt lat="-36.7447675" lon="174.4148877"><ele>127.0</ele><time>2026-04-09T21:10:01.645Z</time></trkpt><trkpt lat="-36.7448331" lon="174.4149438"><ele>127.0</ele><time>2026-04-09T21:10:04.645Z</time></trkpt><trkpt lat="-36.7448906" lon="174.4149058"><ele>127.00000000000001</ele><time>2026-04-09T21:10:06.645Z</time></trkpt><trkpt lat="-36.7449356" lon="174.414847"><ele>127.0</ele><time>2026-04-09T21:10:08.646Z</time></trkpt><trkpt lat="-36.7449999" lon="174.4147979"><ele>127.00000000000001</ele><time>2026-04-09T21:10:10.645Z</time></trkpt><trkpt lat="-36.7450829" lon="174.4147644"><ele>127.0</ele><time>2026-04-09T21:10:12.645Z</time></trkpt><trkpt lat="-36.7451626" lon="174.4147692"><ele>127.0</ele><time>2026-04-09T21:10:15.644Z</time></trkpt><trkpt lat="-36.7452453" lon="174.4147333"><ele>127.0</ele><time>2026-04-09T21:10:18.643Z</time></trkpt><trkpt lat="-36.7453173" lon="174.4147481"><ele>127.00000000000001</ele><time>2026-04-09T21:10:20.644Z</time></trkpt><trkpt lat="-36.7453987" lon="174.4147864"><ele>127.0</ele><time>2026-04-09T21:10:23.645Z</time></trkpt><trkpt lat="-36.7454593" lon="174.4147581"><ele>127.42857142857143</ele><time>2026-04-09T21:10:25.645Z</time></trkpt><trkpt lat="-36.7455202" lon="174.4147244"><ele>127.85714285714286</ele><time>2026-04-09T21:10:27.644Z</time></trkpt><trkpt lat="-36.7456013" lon="174.414781"><ele>128.28571428571428</ele><time>2026-04-09T21:10:30.645Z</time></trkpt><trkpt lat="-36.7456346" lon="174.4148503"><ele>128.71428571428572</ele><time>2026-04-09T21:10:32.645Z</time></trkpt><trkpt lat="-36.7456435" lon="174.4149305"><ele>129.14285714285714</ele><time>2026-04-09T21:10:34.644Z</time></trkpt><trkpt lat="-36.7456662" lon="174.4150284"><ele>129.57142857142858</ele><time>2026-04-09T21:10:37.645Z</time></trkpt><trkpt lat="-36.7457225" lon="174.4150641"><ele>130.0</ele><time>2026-04-09T21:10:39.645Z</time></trkpt><trkpt lat="-36.745791" lon="174.4150759"><ele>130.0</ele><time>2026-04-09T21:10:42.645Z</time></trkpt><trkpt lat="-36.74583" lon="174.4151532"><ele>130.0</ele><time>2026-04-09T21:10:45.644Z</time></trkpt><trkpt lat="-36.7458259" lon="174.4152513"><ele>130.0</ele><time>2026-04-09T21:10:49.644Z</time></trkpt><trkpt lat="-36.7458798" lon="174.4153135"><ele>130.0</ele><time>2026-04-09T21:10:52.644Z</time></trkpt><trkpt lat="-36.7459044" lon="174.4154128"><ele>130.0</ele><time>2026-04-09T21:10:56.643Z</time></trkpt><trkpt lat="-36.7458603" lon="174.4154952"><ele>130.0</ele><time>2026-04-09T21:10:58.643Z</time></trkpt><trkpt lat="-36.7458252" lon="174.4155644"><ele>131.14285714285717</ele><time>2026-04-09T21:11:00.645Z</time></trkpt><trkpt lat="-36.7458044" lon="174.4156759"><ele>132.28571428571428</ele><time>2026-04-09T21:11:03.643Z</time></trkpt><trkpt lat="-36.7458659" lon="174.4156547"><ele>133.42857142857144</ele><time>2026-04-09T21:11:09.644Z</time></trkpt><trkpt lat="-36.7458991" lon="174.4157246"><ele>134.57142857142858</ele><time>2026-04-09T21:11:13.644Z</time></trkpt><trkpt lat="-36.7459772" lon="174.4157266"><ele>135.71428571428572</ele><time>2026-04-09T21:11:16.644Z</time></trkpt><trkpt lat="-36.7460407" lon="174.4157412"><ele>136.85714285714286</ele><time>2026-04-09T21:11:19.644Z</time></trkpt><trkpt lat="-36.7460638" lon="174.4156552"><ele>138.0</ele><time>2026-04-09T21:11:23.643Z</time></trkpt><trkpt lat="-36.7460404" lon="174.4155681"><ele>138.5</ele><time>2026-04-09T21:11:25.646Z</time></trkpt><trkpt lat="-36.7460599" lon="174.4154826"><ele>139.0</ele><time>2026-04-09T21:11:26.644Z</time></trkpt><trkpt lat="-36.7460791" lon="174.4153853"><ele>139.5</ele><time>2026-04-09T21:11:27.643Z</time></trkpt><trkpt lat="-36.7460896" lon="174.4152956"><ele>140.0</ele><time>2026-04-09T21:11:28.643Z</time></trkpt><trkpt lat="-36.7461219" lon="174.4152087"><ele>140.5</ele><time>2026-04-09T21:11:29.643Z</time></trkpt><trkpt lat="-36.7461915" lon="174.4151113"><ele>141.0</ele><time>2026-04-09T21:11:31.644Z</time></trkpt><trkpt lat="-36.7462914" lon="174.4150671"><ele>141.0</ele><time>2026-04-09T21:11:33.645Z</time></trkpt><trkpt lat="-36.7463449" lon="174.4150061"><ele>141.0</ele><time>2026-04-09T21:11:35.646Z</time></trkpt><trkpt lat="-36.7462799" lon="174.4148467"><ele>141.0</ele><time>2026-04-09T21:11:38.645Z</time></trkpt><trkpt lat="-36.7462752" lon="174.4147592"><ele>141.0</ele><time>2026-04-09T21:11:39.644Z</time></trkpt><trkpt lat="-36.7462853" lon="174.4146811"><ele>141.0</ele><time>2026-04-09T21:11:40.644Z</time></trkpt><trkpt lat="-36.7463483" lon="174.4145528"><ele>140.66666666666666</ele><time>2026-04-09T21:11:41.645Z</time></trkpt><trkpt lat="-36.7464032" lon="174.4144757"><ele>140.33333333333334</ele><time>2026-04-09T21:11:43.646Z</time></trkpt><trkpt lat="-36.7464329" lon="174.4143913"><ele>140.0</ele><time>2026-04-09T21:11:44.644Z</time></trkpt><trkpt lat="-36.7463825" lon="174.4142895"><ele>139.66666666666669</ele><time>2026-04-09T21:11:46.644Z</time></trkpt><trkpt lat="-36.7463295" lon="174.4142443"><ele>139.33333333333334</ele><time>2026-04-09T21:11:47.646Z</time></trkpt><trkpt lat="-36.7462689" lon="174.4141845"><ele>139.0</ele><time>2026-04-09T21:11:48.643Z</time></trkpt><trkpt lat="-36.7462075" lon="174.4141145"><ele>139.0</ele><time>2026-04-09T21:11:49.645Z</time></trkpt><trkpt lat="-36.7461465" lon="174.4140295"><ele>139.0</ele><time>2026-04-09T21:11:50.646Z</time></trkpt><trkpt lat="-36.7461239" lon="174.413956"><ele>139.0</ele><time>2026-04-09T21:11:51.645Z</time></trkpt><trkpt lat="-36.7460851" lon="174.4138924"><ele>139.0</ele><time>2026-04-09T21:11:54.644Z</time></trkpt><trkpt lat="-36.7460301" lon="174.413948"><ele>139.0</ele><time>2026-04-09T21:11:58.645Z</time></trkpt><trkpt lat="-36.746008" lon="174.4140545"><ele>139.0</ele><time>2026-04-09T21:12:01.645Z</time></trkpt><trkpt lat="-36.7459505" lon="174.4141002"><ele>139.0</ele><time>2026-04-09T21:12:03.645Z</time></trkpt><trkpt lat="-36.7458707" lon="174.4141089"><ele>136.25</ele><time>2026-04-09T21:12:05.643Z</time></trkpt><trkpt lat="-36.7457708" lon="174.414083"><ele>133.5</ele><time>2026-04-09T21:12:07.645Z</time></trkpt><trkpt lat="-36.7456677" lon="174.4141536"><ele>130.75</ele><time>2026-04-09T21:12:09.644Z</time></trkpt><trkpt lat="-36.7455759" lon="174.4142752"><ele>128.0</ele><time>2026-04-09T21:12:11.644Z</time></trkpt><trkpt lat="-36.7454553" lon="174.4143198"><ele>128.0</ele><time>2026-04-09T21:12:13.645Z</time></trkpt><trkpt lat="-36.7453221" lon="174.414318"><ele>128.0</ele><time>2026-04-09T21:12:15.644Z</time></trkpt><trkpt lat="-36.7452154" lon="174.4143177"><ele>128.0</ele><time>2026-04-09T21:12:17.645Z</time></trkpt><trkpt lat="-36.7451414" lon="174.4143345"><ele>128.0</ele><time>2026-04-09T21:12:19.645Z</time></trkpt><trkpt lat="-36.7450598" lon="174.4143476"><ele>128.0</ele><time>2026-04-09T21:12:22.644Z</time></trkpt><trkpt lat="-36.7450062" lon="174.4142826"><ele>127.49999999999999</ele><time>2026-04-09T21:12:24.644Z</time></trkpt><trkpt lat="-36.7449594" lon="174.4141748"><ele>127.0</ele><time>2026-04-09T21:12:26.643Z</time></trkpt><trkpt lat="-36.7449473" lon="174.4140556"><ele>126.5</ele><time>2026-04-09T21:12:28.643Z</time></trkpt><trkpt lat="-36.7449199" lon="174.4139812"><ele>126.0</ele><time>2026-04-09T21:12:30.644Z</time></trkpt><trkpt lat="-36.7448633" lon="174.413938"><ele>125.49999999999999</ele><time>2026-04-09T21:12:32.644Z</time></trkpt><trkpt lat="-36.7447928" lon="174.4139045"><ele>125.0</ele><time>2026-04-09T21:12:34.644Z</time></trkpt><trkpt lat="-36.7447196" lon="174.4138592"><ele>125.33333333333333</ele><time>2026-04-09T21:12:36.644Z</time></trkpt><trkpt lat="-36.7446535" lon="174.4138162"><ele>125.66666666666666</ele><time>2026-04-09T21:12:38.644Z</time></trkpt><trkpt lat="-36.7445845" lon="174.4137837"><ele>126.0</ele><time>2026-04-09T21:12:40.643Z</time></trkpt><trkpt lat="-36.744509" lon="174.413781"><ele>126.33333333333334</ele><time>2026-04-09T21:12:42.643Z</time></trkpt><trkpt lat="-36.7444362" lon="174.4137592"><ele>126.66666666666667</ele><time>2026-04-09T21:12:44.644Z</time></trkpt><trkpt lat="-36.7443823" lon="174.4136696"><ele>127.0</ele><time>2026-04-09T21:12:47.643Z</time></trkpt><trkpt lat="-36.7443643" lon="174.413582"><ele>127.50000000000001</ele><time>2026-04-09T21:12:49.643Z</time></trkpt><trkpt lat="-36.7443136" lon="174.4135309"><ele>128.0</ele><time>2026-04-09T21:12:52.643Z</time></trkpt><trkpt lat="-36.7442628" lon="174.4134734"><ele>128.5</ele><time>2026-04-09T21:12:55.645Z</time></trkpt><trkpt lat="-36.7441719" lon="174.4134176"><ele>129.0</ele><time>2026-04-09T21:12:58.644Z</time></trkpt><trkpt lat="-36.7440973" lon="174.4133738"><ele>129.5</ele><time>2026-04-09T21:13:00.644Z</time></trkpt><trkpt lat="-36.7440286" lon="174.4133448"><ele>130.0</ele><time>2026-04-09T21:13:02.644Z</time></trkpt><trkpt lat="-36.7439487" lon="174.413266"><ele>130.0</ele><time>2026-04-09T21:13:04.643Z</time></trkpt><trkpt lat="-36.7438738" lon="174.4132045"><ele>130.0</ele><time>2026-04-09T21:13:06.644Z</time></trkpt><trkpt lat="-36.7438395" lon="174.4131282"><ele>130.0</ele><time>2026-04-09T21:13:08.644Z</time></trkpt><trkpt lat="-36.7438083" lon="174.413019"><ele>130.0</ele><time>2026-04-09T21:13:11.644Z</time></trkpt><trkpt lat="-36.7437976" lon="174.4129229"><ele>130.0</ele><time>2026-04-09T21:13:14.644Z</time></trkpt><trkpt lat="-36.743807" lon="174.4128416"><ele>130.0</ele><time>2026-04-09T21:13:16.644Z</time></trkpt><trkpt lat="-36.7437834" lon="174.4127548"><ele>129.5</ele><time>2026-04-09T21:13:19.644Z</time></trkpt><trkpt lat="-36.7437732" lon="174.4126697"><ele>129.0</ele><time>2026-04-09T21:13:22.643Z</time></trkpt><trkpt lat="-36.7437705" lon="174.4125687"><ele>128.5</ele><time>2026-04-09T21:13:25.645Z</time></trkpt><trkpt lat="-36.7438092" lon="174.4124575"><ele>128.0</ele><time>2026-04-09T21:13:28.644Z</time></trkpt><trkpt lat="-36.743835" lon="174.4123543"><ele>127.50000000000001</ele><time>2026-04-09T21:13:30.643Z</time></trkpt><trkpt lat="-36.7438958" lon="174.4122929"><ele>127.0</ele><time>2026-04-09T21:13:36.643Z</time></trkpt><trkpt lat="-36.7440171" lon="174.4123658"><ele>127.0</ele><time>2026-04-09T21:13:38.644Z</time></trkpt><trkpt lat="-36.744334" lon="174.4123438"><ele>127.0</ele><time>2026-04-09T21:13:39.643Z</time></trkpt><trkpt lat="-36.7443955" lon="174.4124064"><ele>127.0</ele><time>2026-04-09T21:13:41.643Z</time></trkpt><trkpt lat="-36.7444226" lon="174.4124812"><ele>127.00000000000001</ele><time>2026-04-09T21:13:43.644Z</time></trkpt><trkpt lat="-36.7444261" lon="174.4125762"><ele>127.0</ele><time>2026-04-09T21:13:45.643Z</time></trkpt><trkpt lat="-36.7443738" lon="174.4126671"><ele>127.0</ele><time>2026-04-09T21:13:47.643Z</time></trkpt><trkpt lat="-36.7443238" lon="174.4127629"><ele>127.0</ele><time>2026-04-09T21:13:49.645Z</time></trkpt><trkpt lat="-36.7443" lon="174.4128465"><ele>127.00000000000001</ele><time>2026-04-09T21:13:50.645Z</time></trkpt><trkpt lat="-36.744312" lon="174.4129427"><ele>127.0</ele><time>2026-04-09T21:13:52.644Z</time></trkpt><trkpt lat="-36.7442798" lon="174.413073"><ele>127.00000000000001</ele><time>2026-04-09T21:13:55.644Z</time></trkpt><trkpt lat="-36.7443071" lon="174.4131523"><ele>127.0</ele><time>2026-04-09T21:13:58.643Z</time></trkpt><trkpt lat="-36.7443562" lon="174.4132328"><ele>127.0</ele><time>2026-04-09T21:14:02.645Z</time></trkpt><trkpt lat="-36.7444464" lon="174.4132514"><ele>127.0</ele><time>2026-04-09T21:14:05.643Z</time></trkpt><trkpt lat="-36.7445398" lon="174.4133053"><ele>127.00000000000001</ele><time>2026-04-09T21:14:08.643Z</time></trkpt><trkpt lat="-36.7446156" lon="174.4133477"><ele>127.0</ele><time>2026-04-09T21:14:10.643Z</time></trkpt><trkpt lat="-36.7446793" lon="174.4133456"><ele>127.00000000000001</ele><time>2026-04-09T21:14:12.643Z</time></trkpt><trkpt lat="-36.7447395" lon="174.4132719"><ele>127.0</ele><time>2026-04-09T21:14:15.643Z</time></trkpt><trkpt lat="-36.7448075" lon="174.4132005"><ele>127.0</ele><time>2026-04-09T21:14:18.643Z</time></trkpt><trkpt lat="-36.7448644" lon="174.4131348"><ele>127.0</ele><time>2026-04-09T21:14:20.643Z</time></trkpt><trkpt lat="-36.744935" lon="174.4130711"><ele>127.00000000000001</ele><time>2026-04-09T21:14:23.645Z</time></trkpt><trkpt lat="-36.7449965" lon="174.4130061"><ele>127.0</ele><time>2026-04-09T21:14:26.645Z</time></trkpt><trkpt lat="-36.7450369" lon="174.4129397"><ele>126.83333333333334</ele><time>2026-04-09T21:14:28.643Z</time></trkpt><trkpt lat="-36.7451015" lon="174.4129095"><ele>126.66666666666667</ele><time>2026-04-09T21:14:30.645Z</time></trkpt><trkpt lat="-36.7451775" lon="174.4128691"><ele>126.5</ele><time>2026-04-09T21:14:32.645Z</time></trkpt><trkpt lat="-36.7452558" lon="174.4128552"><ele>126.33333333333334</ele><time>2026-04-09T21:14:34.644Z</time></trkpt><trkpt lat="-36.7454057" lon="174.4128443"><ele>126.16666666666667</ele><time>2026-04-09T21:14:36.645Z</time></trkpt><trkpt lat="-36.7454715" lon="174.4128507"><ele>126.0</ele><time>2026-04-09T21:14:37.643Z</time></trkpt><trkpt lat="-36.7455393" lon="174.4128701"><ele>126.0</ele><time>2026-04-09T21:14:38.645Z</time></trkpt><trkpt lat="-36.745612" lon="174.4128834"><ele>126.0</ele><time>2026-04-09T21:14:39.643Z</time></trkpt><trkpt lat="-36.7456612" lon="174.413009"><ele>126.0</ele><time>2026-04-09T21:14:41.643Z</time></trkpt><trkpt lat="-36.745625" lon="174.413091"><ele>126.0</ele><time>2026-04-09T21:14:43.644Z</time></trkpt><trkpt lat="-36.7456005" lon="174.4131815"><ele>126.0</ele><time>2026-04-09T21:14:45.644Z</time></trkpt><trkpt lat="-36.7456359" lon="174.4132478"><ele>126.0</ele><time>2026-04-09T21:14:48.644Z</time></trkpt><trkpt lat="-36.745711" lon="174.4132534"><ele>126.5</ele><time>2026-04-09T21:14:50.643Z</time></trkpt><trkpt lat="-36.7457823" lon="174.4132331"><ele>127.0</ele><time>2026-04-09T21:14:52.644Z</time></trkpt><trkpt lat="-36.7458634" lon="174.4132361"><ele>127.5</ele><time>2026-04-09T21:14:54.643Z</time></trkpt><trkpt lat="-36.7459465" lon="174.4132594"><ele>128.0</ele><time>2026-04-09T21:14:56.645Z</time></trkpt><trkpt lat="-36.7460063" lon="174.4133134"><ele>128.5</ele><time>2026-04-09T21:14:58.643Z</time></trkpt><trkpt lat="-36.7460692" lon="174.4133646"><ele>129.0</ele><time>2026-04-09T21:15:01.644Z</time></trkpt><trkpt lat="-36.746145" lon="174.4133039"><ele>129.0</ele><time>2026-04-09T21:15:05.645Z</time></trkpt><trkpt lat="-36.7461772" lon="174.4132057"><ele>129.0</ele><time>2026-04-09T21:15:07.643Z</time></trkpt><trkpt lat="-36.746229" lon="174.4130988"><ele>129.0</ele><time>2026-04-09T21:15:09.644Z</time></trkpt><trkpt lat="-36.7462625" lon="174.4130187"><ele>129.0</ele><time>2026-04-09T21:15:11.644Z</time></trkpt><trkpt lat="-36.7462711" lon="174.4129294"><ele>129.0</ele><time>2026-04-09T21:15:13.646Z</time></trkpt><trkpt lat="-36.7463453" lon="174.4128627"><ele>129.0</ele><time>2026-04-09T21:15:16.645Z</time></trkpt><trkpt lat="-36.7464355" lon="174.4128828"><ele>129.0</ele><time>2026-04-09T21:15:19.644Z</time></trkpt><trkpt lat="-36.7464856" lon="174.4129467"><ele>129.0</ele><time>2026-04-09T21:15:21.645Z</time></trkpt><trkpt lat="-36.7465238" lon="174.4130391"><ele>129.0</ele><time>2026-04-09T21:15:23.643Z</time></trkpt><trkpt lat="-36.7465633" lon="174.4131274"><ele>129.0</ele><time>2026-04-09T21:15:25.643Z</time></trkpt><trkpt lat="-36.7465958" lon="174.4132401"><ele>129.0</ele><time>2026-04-09T21:15:27.643Z</time></trkpt><trkpt lat="-36.7465966" lon="174.4133374"><ele>129.0</ele><time>2026-04-09T21:15:29.644Z</time></trkpt><trkpt lat="-36.7466025" lon="174.4134361"><ele>129.42857142857142</ele><time>2026-04-09T21:15:31.645Z</time></trkpt><trkpt lat="-36.7465853" lon="174.4135286"><ele>129.85714285714286</ele><time>2026-04-09T21:15:34.644Z</time></trkpt><trkpt lat="-36.7466489" lon="174.413575"><ele>130.28571428571428</ele><time>2026-04-09T21:15:38.643Z</time></trkpt><trkpt lat="-36.7467053" lon="174.4135298"><ele>130.71428571428572</ele><time>2026-04-09T21:15:41.644Z</time></trkpt><trkpt lat="-36.7467328" lon="174.4134287"><ele>131.14285714285714</ele><time>2026-04-09T21:15:45.645Z</time></trkpt><trkpt lat="-36.7467547" lon="174.4133489"><ele>131.57142857142856</ele><time>2026-04-09T21:15:47.644Z</time></trkpt><trkpt lat="-36.7468025" lon="174.4132815"><ele>132.0</ele><time>2026-04-09T21:15:49.643Z</time></trkpt><trkpt lat="-36.746855" lon="174.4132037"><ele>134.33333333333334</ele><time>2026-04-09T21:15:52.645Z</time></trkpt><trkpt lat="-36.7469283" lon="174.4132251"><ele>136.66666666666666</ele><time>2026-04-09T21:15:56.644Z</time></trkpt><trkpt lat="-36.746952" lon="174.4133139"><ele>139.0</ele><time>2026-04-09T21:15:59.645Z</time></trkpt><trkpt lat="-36.7469645" lon="174.41342"><ele>141.33333333333331</ele><time>2026-04-09T21:16:02.644Z</time></trkpt><trkpt lat="-36.7469779" lon="174.413518"><ele>143.66666666666666</ele><time>2026-04-09T21:16:05.646Z</time></trkpt><trkpt lat="-36.7470113" lon="174.4136068"><ele>146.0</ele><time>2026-04-09T21:16:08.643Z</time></trkpt><trkpt lat="-36.7470824" lon="174.4135509"><ele>146.0</ele><time>2026-04-09T21:16:12.645Z</time></trkpt><trkpt lat="-36.7470549" lon="174.4134577"><ele>146.0</ele><time>2026-04-09T21:16:15.645Z</time></trkpt><trkpt lat="-36.747026" lon="174.4133591"><ele>146.0</ele><time>2026-04-09T21:16:17.645Z</time></trkpt><trkpt lat="-36.7469889" lon="174.4132577"><ele>146.0</ele><time>2026-04-09T21:16:19.645Z</time></trkpt><trkpt lat="-36.7469467" lon="174.4131165"><ele>146.0</ele><time>2026-04-09T21:16:21.644Z</time></trkpt><trkpt lat="-36.746912" lon="174.413027"><ele>145.66666666666666</ele><time>2026-04-09T21:16:22.645Z</time></trkpt><trkpt lat="-36.7468791" lon="174.4129343"><ele>145.33333333333331</ele><time>2026-04-09T21:16:23.644Z</time></trkpt><trkpt lat="-36.7468362" lon="174.4128319"><ele>145.0</ele><time>2026-04-09T21:16:24.644Z</time></trkpt><trkpt lat="-36.7467979" lon="174.4127661"><ele>144.66666666666666</ele><time>2026-04-09T21:16:25.644Z</time></trkpt><trkpt lat="-36.746765" lon="174.4126836"><ele>144.33333333333334</ele><time>2026-04-09T21:16:26.643Z</time></trkpt><trkpt lat="-36.7467253" lon="174.4126073"><ele>144.0</ele><time>2026-04-09T21:16:27.643Z</time></trkpt><trkpt lat="-36.7466769" lon="174.412531"><ele>141.0</ele><time>2026-04-09T21:16:28.643Z</time></trkpt><trkpt lat="-36.7465807" lon="174.4124431"><ele>138.0</ele><time>2026-04-09T21:16:30.644Z</time></trkpt><trkpt lat="-36.7465216" lon="174.4124042"><ele>135.0</ele><time>2026-04-09T21:16:31.644Z</time></trkpt><trkpt lat="-36.7463979" lon="174.412362"><ele>132.0</ele><time>2026-04-09T21:16:33.644Z</time></trkpt><trkpt lat="-36.7463196" lon="174.4123414"><ele>129.0</ele><time>2026-04-09T21:16:34.644Z</time></trkpt><trkpt lat="-36.7462656" lon="174.4122865"><ele>128.99999999999997</ele><time>2026-04-09T21:16:35.644Z</time></trkpt><trkpt lat="-36.7462085" lon="174.4122372"><ele>129.0</ele><time>2026-04-09T21:16:36.643Z</time></trkpt><trkpt lat="-36.7461622" lon="174.4121818"><ele>129.0</ele><time>2026-04-09T21:16:37.644Z</time></trkpt><trkpt lat="-36.746121" lon="174.4121188"><ele>129.0</ele><time>2026-04-09T21:16:39.644Z</time></trkpt><trkpt lat="-36.746081" lon="174.412051"><ele>129.0</ele><time>2026-04-09T21:16:41.644Z</time></trkpt><trkpt lat="-36.7460022" lon="174.4120045"><ele>128.99999999999997</ele><time>2026-04-09T21:16:45.644Z</time></trkpt><trkpt lat="-36.7459164" lon="174.4120296"><ele>129.0</ele><time>2026-04-09T21:16:48.645Z</time></trkpt><trkpt lat="-36.7458569" lon="174.4120712"><ele>128.66666666666666</ele><time>2026-04-09T21:16:51.643Z</time></trkpt><trkpt lat="-36.7457961" lon="174.4120356"><ele>128.33333333333334</ele><time>2026-04-09T21:16:54.644Z</time></trkpt><trkpt lat="-36.7457895" lon="174.411949"><ele>128.0</ele><time>2026-04-09T21:16:58.644Z</time></trkpt><trkpt lat="-36.745759" lon="174.4118738"><ele>127.66666666666667</ele><time>2026-04-09T21:17:01.644Z</time></trkpt><trkpt lat="-36.7456742" lon="174.4118806"><ele>127.33333333333334</ele><time>2026-04-09T21:17:04.645Z</time></trkpt><trkpt lat="-36.7456332" lon="174.4119588"><ele>127.0</ele><time>2026-04-09T21:17:07.643Z</time></trkpt><trkpt lat="-36.7455591" lon="174.4121246"><ele>126.83333333333334</ele><time>2026-04-09T21:17:09.644Z</time></trkpt><trkpt lat="-36.74552" lon="174.4121963"><ele>126.66666666666667</ele><time>2026-04-09T21:17:10.644Z</time></trkpt><trkpt lat="-36.7454191" lon="174.4122597"><ele>126.5</ele><time>2026-04-09T21:17:12.644Z</time></trkpt><trkpt lat="-36.7453454" lon="174.41223"><ele>126.33333333333334</ele><time>2026-04-09T21:17:13.645Z</time></trkpt><trkpt lat="-36.7452798" lon="174.4122077"><ele>126.16666666666667</ele><time>2026-04-09T21:17:14.644Z</time></trkpt><trkpt lat="-36.7452031" lon="174.4121513"><ele>126.0</ele><time>2026-04-09T21:17:15.644Z</time></trkpt><trkpt lat="-36.745128" lon="174.4121527"><ele>125.66666666666667</ele><time>2026-04-09T21:17:16.644Z</time></trkpt><trkpt lat="-36.7450583" lon="174.4121336"><ele>125.33333333333334</ele><time>2026-04-09T21:17:17.645Z</time></trkpt><trkpt lat="-36.7449801" lon="174.4121185"><ele>125.0</ele><time>2026-04-09T21:17:18.644Z</time></trkpt><trkpt lat="-36.744912" lon="174.4120934"><ele>124.66666666666667</ele><time>2026-04-09T21:17:19.645Z</time></trkpt><trkpt lat="-36.7448111" lon="174.4120228"><ele>124.33333333333334</ele><time>2026-04-09T21:17:21.644Z</time></trkpt><trkpt lat="-36.7447531" lon="174.4119039"><ele>124.0</ele><time>2026-04-09T21:17:23.645Z</time></trkpt><trkpt lat="-36.7447846" lon="174.4117729"><ele>124.00000000000001</ele><time>2026-04-09T21:17:25.643Z</time></trkpt><trkpt lat="-36.7448557" lon="174.4116635"><ele>124.0</ele><time>2026-04-09T21:17:27.643Z</time></trkpt><trkpt lat="-36.7449243" lon="174.4115884"><ele>124.0</ele><time>2026-04-09T21:17:29.645Z</time></trkpt><trkpt lat="-36.7449887" lon="174.4115141"><ele>124.0</ele><time>2026-04-09T21:17:31.644Z</time></trkpt><trkpt lat="-36.7450074" lon="174.4114302"><ele>124.00000000000001</ele><time>2026-04-09T21:17:33.645Z</time></trkpt><trkpt lat="-36.7449866" lon="174.4113557"><ele>124.0</ele><time>2026-04-09T21:17:35.645Z</time></trkpt><trkpt lat="-36.7449785" lon="174.4112601"><ele>123.0</ele><time>2026-04-09T21:17:37.645Z</time></trkpt><trkpt lat="-36.7449657" lon="174.4111477"><ele>122.0</ele><time>2026-04-09T21:17:39.643Z</time></trkpt><trkpt lat="-36.7449178" lon="174.4110254"><ele>121.0</ele><time>2026-04-09T21:17:41.644Z</time></trkpt><trkpt lat="-36.7448377" lon="174.4109708"><ele>120.0</ele><time>2026-04-09T21:17:43.645Z</time></trkpt><trkpt lat="-36.7447448" lon="174.410996"><ele>119.0</ele><time>2026-04-09T21:17:45.644Z</time></trkpt><trkpt lat="-36.7446716" lon="174.4110003"><ele>118.99999999999999</ele><time>2026-04-09T21:17:47.643Z</time></trkpt><trkpt lat="-36.7445908" lon="174.4110545"><ele>119.0</ele><time>2026-04-09T21:17:50.645Z</time></trkpt><trkpt lat="-36.7445362" lon="174.4111327"><ele>119.0</ele><time>2026-04-09T21:17:53.644Z</time></trkpt><trkpt lat="-36.7445962" lon="174.4111903"><ele>119.0</ele><time>2026-04-09T21:17:58.643Z</time></trkpt><trkpt lat="-36.7445931" lon="174.4112769"><ele>118.99999999999999</ele><time>2026-04-09T21:18:01.644Z</time></trkpt><trkpt lat="-36.744551" lon="174.4113463"><ele>119.0</ele><time>2026-04-09T21:18:03.643Z</time></trkpt><trkpt lat="-36.7445146" lon="174.411417"><ele>119.83333333333333</ele><time>2026-04-09T21:18:05.643Z</time></trkpt><trkpt lat="-36.7444659" lon="174.411478"><ele>120.66666666666666</ele><time>2026-04-09T21:18:07.645Z</time></trkpt><trkpt lat="-36.7444107" lon="174.4115763"><ele>121.5</ele><time>2026-04-09T21:18:09.644Z</time></trkpt><trkpt lat="-36.7443656" lon="174.4116583"><ele>122.33333333333334</ele><time>2026-04-09T21:18:11.643Z</time></trkpt><trkpt lat="-36.7443069" lon="174.411702"><ele>123.16666666666667</ele><time>2026-04-09T21:18:13.644Z</time></trkpt><trkpt lat="-36.7442671" lon="174.4118099"><ele>124.0</ele><time>2026-04-09T21:18:16.644Z</time></trkpt><trkpt lat="-36.7442194" lon="174.4118797"><ele>124.33333333333334</ele><time>2026-04-09T21:18:18.645Z</time></trkpt><trkpt lat="-36.7441618" lon="174.4119208"><ele>124.66666666666667</ele><time>2026-04-09T21:18:20.644Z</time></trkpt><trkpt lat="-36.744085" lon="174.4119276"><ele>125.0</ele><time>2026-04-09T21:18:22.644Z</time></trkpt><trkpt lat="-36.7440081" lon="174.4119327"><ele>125.33333333333334</ele><time>2026-04-09T21:18:24.645Z</time></trkpt><trkpt lat="-36.7439219" lon="174.4119732"><ele>125.66666666666667</ele><time>2026-04-09T21:18:26.644Z</time></trkpt><trkpt lat="-36.7438421" lon="174.4120164"><ele>126.0</ele><time>2026-04-09T21:18:28.645Z</time></trkpt><trkpt lat="-36.7437822" lon="174.4121062"><ele>126.16666666666667</ele><time>2026-04-09T21:18:30.645Z</time></trkpt><trkpt lat="-36.7437812" lon="174.4121931"><ele>126.33333333333334</ele><time>2026-04-09T21:18:32.644Z</time></trkpt><trkpt lat="-36.7437768" lon="174.412272"><ele>126.5</ele><time>2026-04-09T21:18:34.643Z</time></trkpt><trkpt lat="-36.7437179" lon="174.4123404"><ele>126.66666666666667</ele><time>2026-04-09T21:18:37.644Z</time></trkpt><trkpt lat="-36.7436103" lon="174.4124272"><ele>126.83333333333334</ele><time>2026-04-09T21:18:39.645Z</time></trkpt><trkpt lat="-36.7435416" lon="174.4124684"><ele>127.0</ele><time>2026-04-09T21:18:40.644Z</time></trkpt><trkpt lat="-36.7434833" lon="174.4125033"><ele>126.71428571428572</ele><time>2026-04-09T21:18:41.644Z</time></trkpt><trkpt lat="-36.7434344" lon="174.4125564"><ele>126.42857142857142</ele><time>2026-04-09T21:18:43.644Z</time></trkpt><trkpt lat="-36.743367" lon="174.4126082"><ele>126.14285714285714</ele><time>2026-04-09T21:18:44.644Z</time></trkpt><trkpt lat="-36.7433191" lon="174.4126596"><ele>125.85714285714286</ele><time>2026-04-09T21:18:46.644Z</time></trkpt><trkpt lat="-36.7432899" lon="174.41274"><ele>125.57142857142858</ele><time>2026-04-09T21:18:48.645Z</time></trkpt><trkpt lat="-36.7432617" lon="174.4128188"><ele>125.28571428571428</ele><time>2026-04-09T21:18:50.644Z</time></trkpt><trkpt lat="-36.7432025" lon="174.4128966"><ele>125.0</ele><time>2026-04-09T21:18:52.644Z</time></trkpt><trkpt lat="-36.7431381" lon="174.4129848"><ele>126.2</ele><time>2026-04-09T21:18:54.644Z</time></trkpt><trkpt lat="-36.7430802" lon="174.413059"><ele>127.4</ele><time>2026-04-09T21:18:56.645Z</time></trkpt><trkpt lat="-36.7430522" lon="174.413174"><ele>128.6</ele><time>2026-04-09T21:18:59.644Z</time></trkpt><trkpt lat="-36.7430138" lon="174.4132634"><ele>129.8</ele><time>2026-04-09T21:19:01.644Z</time></trkpt><trkpt lat="-36.7429728" lon="174.4133621"><ele>131.0</ele><time>2026-04-09T21:19:03.644Z</time></trkpt><trkpt lat="-36.7429051" lon="174.4134753"><ele>131.0</ele><time>2026-04-09T21:19:06.643Z</time></trkpt><trkpt lat="-36.7428458" lon="174.4135617"><ele>131.0</ele><time>2026-04-09T21:19:08.65Z</time></trkpt><trkpt lat="-36.7427546" lon="174.4136402"><ele>131.0</ele><time>2026-04-09T21:19:10.648Z</time></trkpt><trkpt lat="-36.7427165" lon="174.4137163"><ele>131.0</ele><time>2026-04-09T21:19:12.645Z</time></trkpt><trkpt lat="-36.7426616" lon="174.4137918"><ele>131.0</ele><time>2026-04-09T21:19:14.643Z</time></trkpt><trkpt lat="-36.742585" lon="174.4138923"><ele>131.83333333333331</ele><time>2026-04-09T21:19:16.643Z</time></trkpt><trkpt lat="-36.7425415" lon="174.4139702"><ele>132.66666666666666</ele><time>2026-04-09T21:19:18.645Z</time></trkpt><trkpt lat="-36.7424656" lon="174.4139736"><ele>133.5</ele><time>2026-04-09T21:19:21.644Z</time></trkpt><trkpt lat="-36.7424387" lon="174.4138948"><ele>134.33333333333334</ele><time>2026-04-09T21:19:23.644Z</time></trkpt><trkpt lat="-36.7423962" lon="174.4138338"><ele>135.16666666666669</ele><time>2026-04-09T21:19:26.645Z</time></trkpt><trkpt lat="-36.7423836" lon="174.4139355"><ele>136.0</ele><time>2026-04-09T21:19:29.65Z</time></trkpt><trkpt lat="-36.7423521" lon="174.4140404"><ele>136.0</ele><time>2026-04-09T21:19:32.644Z</time></trkpt><trkpt lat="-36.7423578" lon="174.4141633"><ele>136.0</ele><time>2026-04-09T21:19:35.644Z</time></trkpt><trkpt lat="-36.7423628" lon="174.4142444"><ele>136.0</ele><time>2026-04-09T21:19:38.643Z</time></trkpt><trkpt lat="-36.7422964" lon="174.4142291"><ele>136.0</ele><time>2026-04-09T21:20:20.643Z</time></trkpt><trkpt lat="-36.7422322" lon="174.4142172"><ele>136.0</ele><time>2026-04-09T21:20:24.645Z</time></trkpt><trkpt lat="-36.7421668" lon="174.4141806"><ele>136.0</ele><time>2026-04-09T21:20:26.644Z</time></trkpt><trkpt lat="-36.7420862" lon="174.4141246"><ele>136.0</ele><time>2026-04-09T21:20:28.644Z</time></trkpt><trkpt lat="-36.7419915" lon="174.4140702"><ele>136.0</ele><time>2026-04-09T21:20:30.646Z</time></trkpt><trkpt lat="-36.7418983" lon="174.4140143"><ele>136.0</ele><time>2026-04-09T21:20:32.644Z</time></trkpt><trkpt lat="-36.7417968" lon="174.4139646"><ele>136.0</ele><time>2026-04-09T21:20:34.645Z</time></trkpt><trkpt lat="-36.7416891" lon="174.413908"><ele>136.0</ele><time>2026-04-09T21:20:36.644Z</time></trkpt><trkpt lat="-36.7415842" lon="174.4138516"><ele>134.2</ele><time>2026-04-09T21:20:38.643Z</time></trkpt><trkpt lat="-36.7414806" lon="174.4137942"><ele>132.39999999999998</ele><time>2026-04-09T21:20:40.643Z</time></trkpt><trkpt lat="-36.7413665" lon="174.4137453"><ele>130.6</ele><time>2026-04-09T21:20:42.646Z</time></trkpt><trkpt lat="-36.7413044" lon="174.4137169"><ele>128.79999999999998</ele><time>2026-04-09T21:20:43.644Z</time></trkpt><trkpt lat="-36.7411861" lon="174.413667"><ele>127.0</ele><time>2026-04-09T21:20:45.644Z</time></trkpt><trkpt lat="-36.7410718" lon="174.413609"><ele>126.83333333333334</ele><time>2026-04-09T21:20:47.644Z</time></trkpt><trkpt lat="-36.7410116" lon="174.4135804"><ele>126.66666666666667</ele><time>2026-04-09T21:20:48.644Z</time></trkpt><trkpt lat="-36.7409511" lon="174.4135501"><ele>126.5</ele><time>2026-04-09T21:20:49.644Z</time></trkpt><trkpt lat="-36.7408882" lon="174.4135233"><ele>126.33333333333334</ele><time>2026-04-09T21:20:50.645Z</time></trkpt><trkpt lat="-36.7407703" lon="174.4134692"><ele>126.16666666666667</ele><time>2026-04-09T21:20:52.644Z</time></trkpt><trkpt lat="-36.74071" lon="174.4134379"><ele>126.0</ele><time>2026-04-09T21:20:53.645Z</time></trkpt><trkpt lat="-36.7406476" lon="174.413408"><ele>126.0</ele><time>2026-04-09T21:20:54.644Z</time></trkpt><trkpt lat="-36.7405826" lon="174.4133824"><ele>126.0</ele><time>2026-04-09T21:20:55.643Z</time></trkpt><trkpt lat="-36.7405222" lon="174.4133535"><ele>126.0</ele><time>2026-04-09T21:20:56.645Z</time></trkpt><trkpt lat="-36.7404533" lon="174.4133168"><ele>126.0</ele><time>2026-04-09T21:20:57.643Z</time></trkpt><trkpt lat="-36.7403887" lon="174.4132875"><ele>126.0</ele><time>2026-04-09T21:20:58.644Z</time></trkpt><trkpt lat="-36.7403245" lon="174.4132614"><ele>126.0</ele><time>2026-04-09T21:20:59.646Z</time></trkpt><trkpt lat="-36.7402634" lon="174.4132318"><ele>126.0</ele><time>2026-04-09T21:21:00.644Z</time></trkpt><trkpt lat="-36.7401977" lon="174.4131998"><ele>126.28571428571428</ele><time>2026-04-09T21:21:01.643Z</time></trkpt><trkpt lat="-36.7401353" lon="174.4131667"><ele>126.57142857142857</ele><time>2026-04-09T21:21:02.643Z</time></trkpt><trkpt lat="-36.7400702" lon="174.4131293"><ele>126.85714285714286</ele><time>2026-04-09T21:21:03.644Z</time></trkpt><trkpt lat="-36.7400031" lon="174.4131007"><ele>127.14285714285714</ele><time>2026-04-09T21:21:04.643Z</time></trkpt><trkpt lat="-36.739935" lon="174.41307"><ele>127.42857142857142</ele><time>2026-04-09T21:21:05.644Z</time></trkpt><trkpt lat="-36.7398708" lon="174.4130372"><ele>127.71428571428571</ele><time>2026-04-09T21:21:06.645Z</time></trkpt><trkpt lat="-36.7398071" lon="174.4130013"><ele>128.0</ele><time>2026-04-09T21:21:07.644Z</time></trkpt><trkpt lat="-36.7397438" lon="174.4129725"><ele>127.33333333333333</ele><time>2026-04-09T21:21:08.643Z</time></trkpt><trkpt lat="-36.739627" lon="174.4129141"><ele>126.66666666666666</ele><time>2026-04-09T21:21:10.645Z</time></trkpt><trkpt lat="-36.7395675" lon="174.4128809"><ele>126.0</ele><time>2026-04-09T21:21:11.645Z</time></trkpt><trkpt lat="-36.7394513" lon="174.4128197"><ele>125.33333333333334</ele><time>2026-04-09T21:21:13.646Z</time></trkpt><trkpt lat="-36.7393926" lon="174.4127835"><ele>124.66666666666667</ele><time>2026-04-09T21:21:14.644Z</time></trkpt><trkpt lat="-36.7393357" lon="174.4127478"><ele>124.0</ele><time>2026-04-09T21:21:15.644Z</time></trkpt><trkpt lat="-36.7392745" lon="174.4127169"><ele>124.0</ele><time>2026-04-09T21:21:16.644Z</time></trkpt><trkpt lat="-36.7392164" lon="174.4126832"><ele>124.00000000000001</ele><time>2026-04-09T21:21:17.644Z</time></trkpt><trkpt lat="-36.7391579" lon="174.4126519"><ele>124.0</ele><time>2026-04-09T21:21:18.643Z</time></trkpt><trkpt lat="-36.7390979" lon="174.4126161"><ele>124.0</ele><time>2026-04-09T21:21:19.643Z</time></trkpt><trkpt lat="-36.7390348" lon="174.4125872"><ele>124.00000000000001</ele><time>2026-04-09T21:21:20.643Z</time></trkpt><trkpt lat="-36.7389767" lon="174.4125526"><ele>124.0</ele><time>2026-04-09T21:21:21.643Z</time></trkpt><trkpt lat="-36.738915" lon="174.4125223"><ele>124.0</ele><time>2026-04-09T21:21:22.644Z</time></trkpt><trkpt lat="-36.7388554" lon="174.4124918"><ele>124.0</ele><time>2026-04-09T21:21:23.644Z</time></trkpt><trkpt lat="-36.738793" lon="174.4124624"><ele>124.00000000000001</ele><time>2026-04-09T21:21:24.643Z</time></trkpt><trkpt lat="-36.7387298" lon="174.4124334"><ele>124.0</ele><time>2026-04-09T21:21:25.644Z</time></trkpt><trkpt lat="-36.7386649" lon="174.4124012"><ele>124.0</ele><time>2026-04-09T21:21:26.646Z</time></trkpt><trkpt lat="-36.7385995" lon="174.4123686"><ele>124.00000000000001</ele><time>2026-04-09T21:21:27.643Z</time></trkpt><trkpt lat="-36.7385385" lon="174.4123363"><ele>124.0</ele><time>2026-04-09T21:21:28.645Z</time></trkpt><trkpt lat="-36.7384699" lon="174.4123074"><ele>124.0</ele><time>2026-04-09T21:21:29.646Z</time></trkpt><trkpt lat="-36.7384017" lon="174.4122741"><ele>124.0</ele><time>2026-04-09T21:21:30.644Z</time></trkpt><trkpt lat="-36.7383358" lon="174.4122425"><ele>124.00000000000001</ele><time>2026-04-09T21:21:31.644Z</time></trkpt><trkpt lat="-36.7382673" lon="174.4122064"><ele>124.0</ele><time>2026-04-09T21:21:32.644Z</time></trkpt><trkpt lat="-36.7381992" lon="174.4121708"><ele>124.0</ele><time>2026-04-09T21:21:33.645Z</time></trkpt><trkpt lat="-36.7381305" lon="174.4121397"><ele>124.00000000000001</ele><time>2026-04-09T21:21:34.643Z</time></trkpt><trkpt lat="-36.7380574" lon="174.412102"><ele>124.0</ele><time>2026-04-09T21:21:35.643Z</time></trkpt><trkpt lat="-36.7379912" lon="174.4120661"><ele>124.0</ele><time>2026-04-09T21:21:36.643Z</time></trkpt><trkpt lat="-36.7379248" lon="174.412042"><ele>124.0</ele><time>2026-04-09T21:21:37.643Z</time></trkpt><trkpt lat="-36.7378571" lon="174.4120086"><ele>124.0</ele><time>2026-04-09T21:21:38.644Z</time></trkpt><trkpt lat="-36.7377903" lon="174.411977"><ele>124.0</ele><time>2026-04-09T21:21:39.644Z</time></trkpt><trkpt lat="-36.737725" lon="174.4119397"><ele>124.0</ele><time>2026-04-09T21:21:40.644Z</time></trkpt><trkpt lat="-36.7376152" lon="174.4118838"><ele>124.0</ele><time>2026-04-09T21:21:42.644Z</time></trkpt><trkpt lat="-36.7374999" lon="174.4118382"><ele>124.6</ele><time>2026-04-09T21:21:44.644Z</time></trkpt><trkpt lat="-36.7373904" lon="174.4117848"><ele>125.2</ele><time>2026-04-09T21:21:46.645Z</time></trkpt><trkpt lat="-36.7373303" lon="174.4117564"><ele>125.79999999999998</ele><time>2026-04-09T21:21:47.644Z</time></trkpt><trkpt lat="-36.7372259" lon="174.4117232"><ele>126.39999999999999</ele><time>2026-04-09T21:21:49.645Z</time></trkpt><trkpt lat="-36.7371301" lon="174.4116872"><ele>127.0</ele><time>2026-04-09T21:21:51.645Z</time></trkpt><trkpt lat="-36.7370411" lon="174.4116415"><ele>127.0</ele><time>2026-04-09T21:21:53.645Z</time></trkpt><trkpt lat="-36.7369462" lon="174.4116"><ele>126.99999999999999</ele><time>2026-04-09T21:21:55.644Z</time></trkpt><trkpt lat="-36.7368483" lon="174.4115466"><ele>126.99999999999999</ele><time>2026-04-09T21:21:57.645Z</time></trkpt><trkpt lat="-36.7367489" lon="174.4114932"><ele>127.0</ele><time>2026-04-09T21:21:59.644Z</time></trkpt><trkpt lat="-36.7366385" lon="174.4114474"><ele>127.0</ele><time>2026-04-09T21:22:01.645Z</time></trkpt><trkpt lat="-36.7365443" lon="174.4114036"><ele>127.39999999999999</ele><time>2026-04-09T21:22:03.645Z</time></trkpt><trkpt lat="-36.7364552" lon="174.4113577"><ele>127.79999999999998</ele><time>2026-04-09T21:22:05.643Z</time></trkpt><trkpt lat="-36.7363554" lon="174.41132"><ele>128.2</ele><time>2026-04-09T21:22:07.643Z</time></trkpt><trkpt lat="-36.7362615" lon="174.4112803"><ele>128.6</ele><time>2026-04-09T21:22:09.644Z</time></trkpt><trkpt lat="-36.7361769" lon="174.4112467"><ele>129.0</ele><time>2026-04-09T21:22:11.643Z</time></trkpt><trkpt lat="-36.7361126" lon="174.4112254"><ele>129.66666666666666</ele><time>2026-04-09T21:22:13.645Z</time></trkpt><trkpt lat="-36.7361231" lon="174.4111456"><ele>130.33333333333334</ele><time>2026-04-09T21:22:16.644Z</time></trkpt><trkpt lat="-36.7362173" lon="174.411157"><ele>131.0</ele><time>2026-04-09T21:22:19.643Z</time></trkpt><trkpt lat="-36.7362989" lon="174.4111626"><ele>131.66666666666669</ele><time>2026-04-09T21:22:21.643Z</time></trkpt><trkpt lat="-36.7363766" lon="174.4111465"><ele>132.33333333333334</ele><time>2026-04-09T21:22:23.646Z</time></trkpt><trkpt lat="-36.7364559" lon="174.4111315"><ele>133.0</ele><time>2026-04-09T21:22:25.644Z</time></trkpt><trkpt lat="-36.7365128" lon="174.4110613"><ele>133.0</ele><time>2026-04-09T21:22:28.644Z</time></trkpt><trkpt lat="-36.7364948" lon="174.4109828"><ele>133.0</ele><time>2026-04-09T21:22:30.644Z</time></trkpt><trkpt lat="-36.7364376" lon="174.4109166"><ele>133.0</ele><time>2026-04-09T21:22:32.644Z</time></trkpt><trkpt lat="-36.7363744" lon="174.4108671"><ele>133.0</ele><time>2026-04-09T21:22:34.645Z</time></trkpt><trkpt lat="-36.7363551" lon="174.4107911"><ele>133.0</ele><time>2026-04-09T21:22:36.645Z</time></trkpt><trkpt lat="-36.7363809" lon="174.4107104"><ele>133.0</ele><time>2026-04-09T21:22:38.644Z</time></trkpt><trkpt lat="-36.7364076" lon="174.4106035"><ele>133.0</ele><time>2026-04-09T21:22:40.645Z</time></trkpt><trkpt lat="-36.7364446" lon="174.4105031"><ele>134.0</ele><time>2026-04-09T21:22:42.643Z</time></trkpt><trkpt lat="-36.7364728" lon="174.410388"><ele>135.0</ele><time>2026-04-09T21:22:44.644Z</time></trkpt><trkpt lat="-36.7364825" lon="174.4102804"><ele>136.0</ele><time>2026-04-09T21:22:46.643Z</time></trkpt><trkpt lat="-36.7365038" lon="174.4101579"><ele>137.0</ele><time>2026-04-09T21:22:48.645Z</time></trkpt><trkpt lat="-36.7365258" lon="174.4100533"><ele>138.0</ele><time>2026-04-09T21:22:50.646Z</time></trkpt><trkpt lat="-36.7365423" lon="174.4099251"><ele>138.0</ele><time>2026-04-09T21:22:52.644Z</time></trkpt><trkpt lat="-36.7365734" lon="174.4098165"><ele>138.0</ele><time>2026-04-09T21:22:54.644Z</time></trkpt><trkpt lat="-36.7366089" lon="174.4097303"><ele>138.0</ele><time>2026-04-09T21:22:55.644Z</time></trkpt><trkpt lat="-36.736633" lon="174.4096196"><ele>138.0</ele><time>2026-04-09T21:22:57.644Z</time></trkpt><trkpt lat="-36.7366727" lon="174.4094984"><ele>138.0</ele><time>2026-04-09T21:22:59.643Z</time></trkpt><trkpt lat="-36.7366827" lon="174.4093767"><ele>138.0</ele><time>2026-04-09T21:23:01.644Z</time></trkpt><trkpt lat="-36.7367112" lon="174.4092981"><ele>138.0</ele><time>2026-04-09T21:23:02.644Z</time></trkpt><trkpt lat="-36.7367494" lon="174.4091798"><ele>138.0</ele><time>2026-04-09T21:23:04.646Z</time></trkpt><trkpt lat="-36.7367887" lon="174.409032"><ele>138.0</ele><time>2026-04-09T21:23:06.643Z</time></trkpt><trkpt lat="-36.7368245" lon="174.4088935"><ele>138.0</ele><time>2026-04-09T21:23:08.644Z</time></trkpt><trkpt lat="-36.7368676" lon="174.40876"><ele>137.66666666666666</ele><time>2026-04-09T21:23:10.645Z</time></trkpt><trkpt lat="-36.7368907" lon="174.4086847"><ele>137.33333333333334</ele><time>2026-04-09T21:23:11.645Z</time></trkpt><trkpt lat="-36.7369103" lon="174.4086088"><ele>137.0</ele><time>2026-04-09T21:23:12.644Z</time></trkpt><trkpt lat="-36.736959" lon="174.4084876"><ele>136.66666666666669</ele><time>2026-04-09T21:23:14.644Z</time></trkpt><trkpt lat="-36.7369967" lon="174.4083837"><ele>136.33333333333334</ele><time>2026-04-09T21:23:16.643Z</time></trkpt><trkpt lat="-36.7370303" lon="174.4082708"><ele>136.0</ele><time>2026-04-09T21:23:18.645Z</time></trkpt><trkpt lat="-36.737063" lon="174.4081602"><ele>136.0</ele><time>2026-04-09T21:23:20.643Z</time></trkpt><trkpt lat="-36.737092" lon="174.4080342"><ele>136.0</ele><time>2026-04-09T21:23:22.645Z</time></trkpt><trkpt lat="-36.7371233" lon="174.407935"><ele>136.0</ele><time>2026-04-09T21:23:24.645Z</time></trkpt><trkpt lat="-36.73715" lon="174.4078346"><ele>136.0</ele><time>2026-04-09T21:23:26.643Z</time></trkpt><trkpt lat="-36.7371727" lon="174.407745"><ele>136.0</ele><time>2026-04-09T21:23:28.645Z</time></trkpt><trkpt lat="-36.7371971" lon="174.407653"><ele>136.0</ele><time>2026-04-09T21:23:30.644Z</time></trkpt><trkpt lat="-36.7372229" lon="174.4075725"><ele>137.0</ele><time>2026-04-09T21:23:32.644Z</time></trkpt><trkpt lat="-36.7372567" lon="174.4074843"><ele>138.0</ele><time>2026-04-09T21:23:34.644Z</time></trkpt><trkpt lat="-36.7372745" lon="174.4073957"><ele>139.0</ele><time>2026-04-09T21:23:36.644Z</time></trkpt><trkpt lat="-36.7372995" lon="174.4073003"><ele>140.0</ele><time>2026-04-09T21:23:38.643Z</time></trkpt><trkpt lat="-36.7373166" lon="174.4072099"><ele>141.0</ele><time>2026-04-09T21:23:40.644Z</time></trkpt><trkpt lat="-36.7373452" lon="174.4071255"><ele>142.0</ele><time>2026-04-09T21:23:42.643Z</time></trkpt><trkpt lat="-36.7373701" lon="174.4070439"><ele>142.0</ele><time>2026-04-09T21:23:44.643Z</time></trkpt><trkpt lat="-36.7373856" lon="174.4069636"><ele>142.0</ele><time>2026-04-09T21:23:46.644Z</time></trkpt><trkpt lat="-36.7374436" lon="174.4068812"><ele>142.0</ele><time>2026-04-09T21:23:49.644Z</time></trkpt><trkpt lat="-36.7375211" lon="174.4068429"><ele>142.0</ele><time>2026-04-09T21:23:52.645Z</time></trkpt><trkpt lat="-36.7374863" lon="174.4067614"><ele>142.0</ele><time>2026-04-09T21:24:45.645Z</time></trkpt><trkpt lat="-36.7374348" lon="174.4066956"><ele>142.0</ele><time>2026-04-09T21:24:47.643Z</time></trkpt><trkpt lat="-36.7373723" lon="174.4066621"><ele>142.0</ele><time>2026-04-09T21:24:48.644Z</time></trkpt><trkpt lat="-36.7372812" lon="174.4065984"><ele>142.0</ele><time>2026-04-09T21:24:50.643Z</time></trkpt><trkpt lat="-36.7371761" lon="174.4065804"><ele>142.0</ele><time>2026-04-09T21:24:52.643Z</time></trkpt><trkpt lat="-36.7371045" lon="174.4064937"><ele>142.0</ele><time>2026-04-09T21:24:54.644Z</time></trkpt><trkpt lat="-36.7371681" lon="174.4064301"><ele>142.0</ele><time>2026-04-09T21:24:55.643Z</time></trkpt><trkpt lat="-36.7371033" lon="174.4063701"><ele>141.83333333333334</ele><time>2026-04-09T21:24:57.643Z</time></trkpt><trkpt lat="-36.7369864" lon="174.4063166"><ele>141.66666666666669</ele><time>2026-04-09T21:24:59.643Z</time></trkpt><trkpt lat="-36.7369227" lon="174.4062787"><ele>141.5</ele><time>2026-04-09T21:25:00.643Z</time></trkpt><trkpt lat="-36.7368627" lon="174.4062484"><ele>141.33333333333334</ele><time>2026-04-09T21:25:01.644Z</time></trkpt><trkpt lat="-36.7367893" lon="174.4062386"><ele>141.16666666666666</ele><time>2026-04-09T21:25:02.643Z</time></trkpt><trkpt lat="-36.736721" lon="174.4061987"><ele>141.0</ele><time>2026-04-09T21:25:03.644Z</time></trkpt><trkpt lat="-36.7366516" lon="174.4061637"><ele>139.0</ele><time>2026-04-09T21:25:04.643Z</time></trkpt><trkpt lat="-36.7365687" lon="174.4061375"><ele>137.0</ele><time>2026-04-09T21:25:05.645Z</time></trkpt><trkpt lat="-36.7364899" lon="174.4060965"><ele>135.0</ele><time>2026-04-09T21:25:06.644Z</time></trkpt><trkpt lat="-36.736416" lon="174.4060681"><ele>133.0</ele><time>2026-04-09T21:25:07.644Z</time></trkpt><trkpt lat="-36.7363359" lon="174.4060728"><ele>131.0</ele><time>2026-04-09T21:25:08.643Z</time></trkpt><trkpt lat="-36.7362526" lon="174.406067"><ele>129.0</ele><time>2026-04-09T21:25:09.643Z</time></trkpt><trkpt lat="-36.736177" lon="174.4060519"><ele>129.0</ele><time>2026-04-09T21:25:10.645Z</time></trkpt><trkpt lat="-36.736098" lon="174.4060663"><ele>129.0</ele><time>2026-04-09T21:25:11.643Z</time></trkpt><trkpt lat="-36.7360134" lon="174.4060849"><ele>129.0</ele><time>2026-04-09T21:25:12.645Z</time></trkpt><trkpt lat="-36.7359433" lon="174.4061213"><ele>129.0</ele><time>2026-04-09T21:25:13.643Z</time></trkpt><trkpt lat="-36.7358622" lon="174.4061781"><ele>129.0</ele><time>2026-04-09T21:25:14.643Z</time></trkpt><trkpt lat="-36.735782" lon="174.4062208"><ele>129.0</ele><time>2026-04-09T21:25:15.644Z</time></trkpt><trkpt lat="-36.7356717" lon="174.4062178"><ele>127.5</ele><time>2026-04-09T21:25:16.645Z</time></trkpt><trkpt lat="-36.7355873" lon="174.4062078"><ele>126.0</ele><time>2026-04-09T21:25:17.643Z</time></trkpt><trkpt lat="-36.7355021" lon="174.4062102"><ele>124.5</ele><time>2026-04-09T21:25:18.645Z</time></trkpt><trkpt lat="-36.7354089" lon="174.4062205"><ele>123.0</ele><time>2026-04-09T21:25:19.643Z</time></trkpt><trkpt lat="-36.7353103" lon="174.4062237"><ele>121.5</ele><time>2026-04-09T21:25:20.645Z</time></trkpt><trkpt lat="-36.7352263" lon="174.4062309"><ele>120.0</ele><time>2026-04-09T21:25:21.644Z</time></trkpt><trkpt lat="-36.7351052" lon="174.4061862"><ele>120.0</ele><time>2026-04-09T21:25:23.643Z</time></trkpt><trkpt lat="-36.7349981" lon="174.4061338"><ele>120.0</ele><time>2026-04-09T21:25:25.643Z</time></trkpt><trkpt lat="-36.7349054" lon="174.4060516"><ele>120.0</ele><time>2026-04-09T21:25:27.645Z</time></trkpt><trkpt lat="-36.7348329" lon="174.4059271"><ele>120.0</ele><time>2026-04-09T21:25:29.644Z</time></trkpt><trkpt lat="-36.7347706" lon="174.4058103"><ele>120.0</ele><time>2026-04-09T21:25:31.644Z</time></trkpt><trkpt lat="-36.7347503" lon="174.4057103"><ele>120.0</ele><time>2026-04-09T21:25:33.644Z</time></trkpt><trkpt lat="-36.7347284" lon="174.4055953"><ele>120.0</ele><time>2026-04-09T21:25:35.644Z</time></trkpt><trkpt lat="-36.7347272" lon="174.4055028"><ele>120.0</ele><time>2026-04-09T21:25:37.644Z</time></trkpt><trkpt lat="-36.7346936" lon="174.4054302"><ele>120.0</ele><time>2026-04-09T21:25:39.644Z</time></trkpt><trkpt lat="-36.7346676" lon="174.4053529"><ele>120.0</ele><time>2026-04-09T21:25:42.644Z</time></trkpt><trkpt lat="-36.7347277" lon="174.4053223"><ele>120.14285714285714</ele><time>2026-04-09T21:25:47.645Z</time></trkpt><trkpt lat="-36.734709" lon="174.4052455"><ele>120.28571428571428</ele><time>2026-04-09T21:25:50.643Z</time></trkpt><trkpt lat="-36.7346771" lon="174.4051625"><ele>120.42857142857142</ele><time>2026-04-09T21:25:53.645Z</time></trkpt><trkpt lat="-36.7346632" lon="174.4050739"><ele>120.57142857142857</ele><time>2026-04-09T21:25:55.643Z</time></trkpt><trkpt lat="-36.734659" lon="174.4049771"><ele>120.7142857142857</ele><time>2026-04-09T21:25:57.643Z</time></trkpt><trkpt lat="-36.7346418" lon="174.4048932"><ele>120.85714285714285</ele><time>2026-04-09T21:25:59.644Z</time></trkpt><trkpt lat="-36.7346601" lon="174.4048076"><ele>121.0</ele><time>2026-04-09T21:26:01.643Z</time></trkpt><trkpt lat="-36.7346945" lon="174.4047208"><ele>122.6</ele><time>2026-04-09T21:26:03.644Z</time></trkpt><trkpt lat="-36.7347515" lon="174.4046241"><ele>124.19999999999999</ele><time>2026-04-09T21:26:05.645Z</time></trkpt><trkpt lat="-36.7348279" lon="174.4045393"><ele>125.80000000000001</ele><time>2026-04-09T21:26:07.643Z</time></trkpt><trkpt lat="-36.7348726" lon="174.4044306"><ele>127.4</ele><time>2026-04-09T21:26:09.645Z</time></trkpt><trkpt lat="-36.7348523" lon="174.4043226"><ele>129.0</ele><time>2026-04-09T21:26:12.644Z</time></trkpt><trkpt lat="-36.7348575" lon="174.4042156"><ele>128.99999999999997</ele><time>2026-04-09T21:26:15.644Z</time></trkpt><trkpt lat="-36.734869" lon="174.4041364"><ele>129.0</ele><time>2026-04-09T21:26:17.644Z</time></trkpt><trkpt lat="-36.7348715" lon="174.4040536"><ele>129.0</ele><time>2026-04-09T21:26:19.643Z</time></trkpt><trkpt lat="-36.7348832" lon="174.4039627"><ele>129.0</ele><time>2026-04-09T21:26:21.644Z</time></trkpt><trkpt lat="-36.7349023" lon="174.403868"><ele>129.0</ele><time>2026-04-09T21:26:23.644Z</time></trkpt><trkpt lat="-36.7349202" lon="174.4037527"><ele>128.99999999999997</ele><time>2026-04-09T21:26:26.643Z</time></trkpt><trkpt lat="-36.7349612" lon="174.4036819"><ele>129.0</ele><time>2026-04-09T21:26:28.644Z</time></trkpt><trkpt lat="-36.7350305" lon="174.4036235"><ele>128.75</ele><time>2026-04-09T21:26:30.644Z</time></trkpt><trkpt lat="-36.7351163" lon="174.4035706"><ele>128.5</ele><time>2026-04-09T21:26:32.643Z</time></trkpt><trkpt lat="-36.7352224" lon="174.4035514"><ele>128.25</ele><time>2026-04-09T21:26:34.644Z</time></trkpt><trkpt lat="-36.7353566" lon="174.403468"><ele>128.0</ele><time>2026-04-09T21:26:36.643Z</time></trkpt><trkpt lat="-36.7354127" lon="174.4033656"><ele>127.99999999999999</ele><time>2026-04-09T21:26:38.645Z</time></trkpt><trkpt lat="-36.7354923" lon="174.4033737"><ele>128.0</ele><time>2026-04-09T21:26:40.645Z</time></trkpt><trkpt lat="-36.7355574" lon="174.4034272"><ele>128.0</ele><time>2026-04-09T21:26:42.644Z</time></trkpt><trkpt lat="-36.7356295" lon="174.4034556"><ele>128.0</ele><time>2026-04-09T21:26:44.645Z</time></trkpt><trkpt lat="-36.7357096" lon="174.4034534"><ele>127.99999999999999</ele><time>2026-04-09T21:26:46.644Z</time></trkpt><trkpt lat="-36.7357881" lon="174.4033994"><ele>128.0</ele><time>2026-04-09T21:26:48.644Z</time></trkpt><trkpt lat="-36.7358442" lon="174.403288"><ele>128.0</ele><time>2026-04-09T21:26:50.646Z</time></trkpt><trkpt lat="-36.7358847" lon="174.403173"><ele>128.0</ele><time>2026-04-09T21:26:52.644Z</time></trkpt><trkpt lat="-36.7359158" lon="174.4031032"><ele>128.0</ele><time>2026-04-09T21:26:53.644Z</time></trkpt><trkpt lat="-36.735947" lon="174.4029715"><ele>128.0</ele><time>2026-04-09T21:26:55.645Z</time></trkpt><trkpt lat="-36.7359821" lon="174.4028504"><ele>128.0</ele><time>2026-04-09T21:26:57.645Z</time></trkpt><trkpt lat="-36.7360093" lon="174.4027255"><ele>127.49999999999999</ele><time>2026-04-09T21:26:59.644Z</time></trkpt><trkpt lat="-36.7360395" lon="174.4026543"><ele>127.0</ele><time>2026-04-09T21:27:00.644Z</time></trkpt><trkpt lat="-36.7360663" lon="174.4025768"><ele>126.5</ele><time>2026-04-09T21:27:01.644Z</time></trkpt><trkpt lat="-36.736083" lon="174.4024965"><ele>126.0</ele><time>2026-04-09T21:27:02.645Z</time></trkpt><trkpt lat="-36.7361108" lon="174.4023446"><ele>125.49999999999999</ele><time>2026-04-09T21:27:04.644Z</time></trkpt><trkpt lat="-36.7361426" lon="174.4022737"><ele>125.0</ele><time>2026-04-09T21:27:05.644Z</time></trkpt><trkpt lat="-36.736189" lon="174.4022198"><ele>124.33333333333333</ele><time>2026-04-09T21:27:06.644Z</time></trkpt><trkpt lat="-36.7362734" lon="174.4021245"><ele>123.66666666666666</ele><time>2026-04-09T21:27:08.645Z</time></trkpt><trkpt lat="-36.7362965" lon="174.4020265"><ele>123.0</ele><time>2026-04-09T21:27:10.643Z</time></trkpt><trkpt lat="-36.7362903" lon="174.4019435"><ele>122.33333333333334</ele><time>2026-04-09T21:27:12.645Z</time></trkpt><trkpt lat="-36.7362882" lon="174.4018451"><ele>121.66666666666667</ele><time>2026-04-09T21:27:14.643Z</time></trkpt><trkpt lat="-36.7363013" lon="174.4017654"><ele>121.0</ele><time>2026-04-09T21:27:16.644Z</time></trkpt><trkpt lat="-36.736343" lon="174.4016511"><ele>121.00000000000001</ele><time>2026-04-09T21:27:19.643Z</time></trkpt><trkpt lat="-36.7363594" lon="174.4015562"><ele>121.0</ele><time>2026-04-09T21:27:21.643Z</time></trkpt><trkpt lat="-36.7363905" lon="174.4014707"><ele>121.0</ele><time>2026-04-09T21:27:23.644Z</time></trkpt><trkpt lat="-36.7364303" lon="174.4013814"><ele>121.0</ele><time>2026-04-09T21:27:25.643Z</time></trkpt><trkpt lat="-36.736441" lon="174.4012938"><ele>121.00000000000001</ele><time>2026-04-09T21:27:27.644Z</time></trkpt><trkpt lat="-36.7364617" lon="174.4012086"><ele>121.0</ele><time>2026-04-09T21:27:29.644Z</time></trkpt><trkpt lat="-36.7364973" lon="174.4011269"><ele>121.50000000000001</ele><time>2026-04-09T21:27:31.643Z</time></trkpt><trkpt lat="-36.7365272" lon="174.4010438"><ele>122.0</ele><time>2026-04-09T21:27:33.644Z</time></trkpt><trkpt lat="-36.7365864" lon="174.4009948"><ele>122.5</ele><time>2026-04-09T21:27:35.644Z</time></trkpt><trkpt lat="-36.7366466" lon="174.4009455"><ele>123.0</ele><time>2026-04-09T21:27:37.644Z</time></trkpt><trkpt lat="-36.7366966" lon="174.4008862"><ele>123.50000000000001</ele><time>2026-04-09T21:27:39.645Z</time></trkpt><trkpt lat="-36.7367505" lon="174.4008086"><ele>124.0</ele><time>2026-04-09T21:27:41.645Z</time></trkpt><trkpt lat="-36.7368068" lon="174.4007268"><ele>124.00000000000001</ele><time>2026-04-09T21:27:43.644Z</time></trkpt><trkpt lat="-36.7368741" lon="174.4006701"><ele>124.0</ele><time>2026-04-09T21:27:45.643Z</time></trkpt><trkpt lat="-36.7369134" lon="174.4006022"><ele>124.0</ele><time>2026-04-09T21:27:47.643Z</time></trkpt><trkpt lat="-36.7369632" lon="174.4004914"><ele>124.0</ele><time>2026-04-09T21:27:50.644Z</time></trkpt><trkpt lat="-36.7370242" lon="174.4004644"><ele>124.00000000000001</ele><time>2026-04-09T21:27:51.643Z</time></trkpt><trkpt lat="-36.7371099" lon="174.4004176"><ele>124.0</ele><time>2026-04-09T21:27:53.644Z</time></trkpt><trkpt lat="-36.7371504" lon="174.4003414"><ele>125.80000000000001</ele><time>2026-04-09T21:27:55.644Z</time></trkpt><trkpt lat="-36.7372027" lon="174.400242"><ele>127.60000000000001</ele><time>2026-04-09T21:27:57.644Z</time></trkpt><trkpt lat="-36.7372606" lon="174.4001353"><ele>129.4</ele><time>2026-04-09T21:27:59.643Z</time></trkpt><trkpt lat="-36.7373142" lon="174.4000181"><ele>131.20000000000002</ele><time>2026-04-09T21:28:01.644Z</time></trkpt><trkpt lat="-36.7373741" lon="174.3998984"><ele>133.0</ele><time>2026-04-09T21:28:03.644Z</time></trkpt><trkpt lat="-36.7373774" lon="174.3997732"><ele>133.0</ele><time>2026-04-09T21:28:05.644Z</time></trkpt><trkpt lat="-36.7373612" lon="174.3996965"><ele>133.0</ele><time>2026-04-09T21:28:07.645Z</time></trkpt><trkpt lat="-36.7373035" lon="174.3997374"><ele>133.0</ele><time>2026-04-09T21:28:11.643Z</time></trkpt><trkpt lat="-36.7372986" lon="174.3998361"><ele>133.0</ele><time>2026-04-09T21:28:14.644Z</time></trkpt><trkpt lat="-36.7372873" lon="174.3999345"><ele>133.0</ele><time>2026-04-09T21:28:17.643Z</time></trkpt><trkpt lat="-36.7372297" lon="174.3999972"><ele>133.0</ele><time>2026-04-09T21:28:19.644Z</time></trkpt><trkpt lat="-36.7371699" lon="174.4000842"><ele>133.0</ele><time>2026-04-09T21:28:22.644Z</time></trkpt><trkpt lat="-36.7370454" lon="174.4001221"><ele>133.0</ele><time>2026-04-09T21:28:24.644Z</time></trkpt><trkpt lat="-36.7369407" lon="174.4001508"><ele>133.0</ele><time>2026-04-09T21:28:26.644Z</time></trkpt><trkpt lat="-36.736877" lon="174.4002428"><ele>133.0</ele><time>2026-04-09T21:28:28.643Z</time></trkpt><trkpt lat="-36.7368327" lon="174.4003247"><ele>133.0</ele><time>2026-04-09T21:28:30.643Z</time></trkpt><trkpt lat="-36.7367682" lon="174.4004157"><ele>131.5</ele><time>2026-04-09T21:28:32.644Z</time></trkpt><trkpt lat="-36.7367065" lon="174.4004888"><ele>130.0</ele><time>2026-04-09T21:28:34.643Z</time></trkpt><trkpt lat="-36.736689" lon="174.4006088"><ele>128.5</ele><time>2026-04-09T21:28:36.644Z</time></trkpt><trkpt lat="-36.7366322" lon="174.4006795"><ele>127.0</ele><time>2026-04-09T21:28:38.646Z</time></trkpt><trkpt lat="-36.7365411" lon="174.400723"><ele>125.50000000000001</ele><time>2026-04-09T21:28:40.645Z</time></trkpt><trkpt lat="-36.7364715" lon="174.4007488"><ele>124.0</ele><time>2026-04-09T21:28:41.643Z</time></trkpt><trkpt lat="-36.7364003" lon="174.4007967"><ele>124.0</ele><time>2026-04-09T21:28:43.643Z</time></trkpt><trkpt lat="-36.7363757" lon="174.40091"><ele>124.0</ele><time>2026-04-09T21:28:46.643Z</time></trkpt><trkpt lat="-36.7363507" lon="174.4010307"><ele>124.0</ele><time>2026-04-09T21:28:49.645Z</time></trkpt><trkpt lat="-36.7363716" lon="174.401148"><ele>124.0</ele><time>2026-04-09T21:28:52.645Z</time></trkpt><trkpt lat="-36.736344" lon="174.401264"><ele>124.0</ele><time>2026-04-09T21:28:54.644Z</time></trkpt><trkpt lat="-36.7362476" lon="174.4013548"><ele>123.4</ele><time>2026-04-09T21:28:56.643Z</time></trkpt><trkpt lat="-36.7361915" lon="174.4014916"><ele>122.80000000000001</ele><time>2026-04-09T21:28:58.643Z</time></trkpt><trkpt lat="-36.7361762" lon="174.4015714"><ele>122.19999999999999</ele><time>2026-04-09T21:28:59.643Z</time></trkpt><trkpt lat="-36.7361784" lon="174.4016972"><ele>121.6</ele><time>2026-04-09T21:29:01.644Z</time></trkpt><trkpt lat="-36.7361548" lon="174.4018268"><ele>121.0</ele><time>2026-04-09T21:29:03.644Z</time></trkpt><trkpt lat="-36.7361009" lon="174.4019149"><ele>120.14285714285714</ele><time>2026-04-09T21:29:05.644Z</time></trkpt><trkpt lat="-36.7360317" lon="174.4019307"><ele>119.28571428571428</ele><time>2026-04-09T21:29:07.643Z</time></trkpt><trkpt lat="-36.7360054" lon="174.4018577"><ele>118.42857142857142</ele><time>2026-04-09T21:29:08.644Z</time></trkpt><trkpt lat="-36.7360041" lon="174.4017742"><ele>117.57142857142856</ele><time>2026-04-09T21:29:09.644Z</time></trkpt><trkpt lat="-36.7359609" lon="174.401669"><ele>116.71428571428571</ele><time>2026-04-09T21:29:11.643Z</time></trkpt><trkpt lat="-36.7358807" lon="174.4016768"><ele>115.85714285714283</ele><time>2026-04-09T21:29:14.644Z</time></trkpt><trkpt lat="-36.7358353" lon="174.4017324"><ele>114.99999999999999</ele><time>2026-04-09T21:29:15.644Z</time></trkpt><trkpt lat="-36.7357187" lon="174.4017892"><ele>115.00000000000001</ele><time>2026-04-09T21:29:16.643Z</time></trkpt><trkpt lat="-36.735657" lon="174.4017327"><ele>115.0</ele><time>2026-04-09T21:29:17.644Z</time></trkpt><trkpt lat="-36.7355965" lon="174.4016809"><ele>115.0</ele><time>2026-04-09T21:29:18.645Z</time></trkpt><trkpt lat="-36.7355408" lon="174.4016321"><ele>115.0</ele><time>2026-04-09T21:29:19.644Z</time></trkpt><trkpt lat="-36.7354695" lon="174.4015728"><ele>115.00000000000001</ele><time>2026-04-09T21:29:20.644Z</time></trkpt><trkpt lat="-36.7354039" lon="174.4015166"><ele>115.0</ele><time>2026-04-09T21:29:21.645Z</time></trkpt><trkpt lat="-36.7353357" lon="174.4014774"><ele>115.0</ele><time>2026-04-09T21:29:22.645Z</time></trkpt><trkpt lat="-36.7352541" lon="174.4014853"><ele>115.0</ele><time>2026-04-09T21:29:23.644Z</time></trkpt><trkpt lat="-36.7351746" lon="174.4014829"><ele>115.0</ele><time>2026-04-09T21:29:24.644Z</time></trkpt><trkpt lat="-36.7350712" lon="174.401596"><ele>115.0</ele><time>2026-04-09T21:29:26.645Z</time></trkpt><trkpt lat="-36.7349834" lon="174.4016379"><ele>115.0</ele><time>2026-04-09T21:29:28.645Z</time></trkpt><trkpt lat="-36.7349158" lon="174.4016363"><ele>114.50000000000001</ele><time>2026-04-09T21:29:29.643Z</time></trkpt><trkpt lat="-36.734862" lon="174.4015441"><ele>114.0</ele><time>2026-04-09T21:29:30.644Z</time></trkpt><trkpt lat="-36.734807" lon="174.4014913"><ele>113.5</ele><time>2026-04-09T21:29:31.644Z</time></trkpt><trkpt lat="-36.7348489" lon="174.4013974"><ele>113.0</ele><time>2026-04-09T21:29:32.643Z</time></trkpt><trkpt lat="-36.7348994" lon="174.4012663"><ele>112.50000000000001</ele><time>2026-04-09T21:29:34.644Z</time></trkpt><trkpt lat="-36.734965" lon="174.4012356"><ele>112.0</ele><time>2026-04-09T21:29:35.644Z</time></trkpt><trkpt lat="-36.7350578" lon="174.4011978"><ele>111.0</ele><time>2026-04-09T21:29:36.644Z</time></trkpt><trkpt lat="-36.7351758" lon="174.4011517"><ele>109.99999999999999</ele><time>2026-04-09T21:29:38.645Z</time></trkpt><trkpt lat="-36.7352485" lon="174.4011356"><ele>108.99999999999999</ele><time>2026-04-09T21:29:39.644Z</time></trkpt><trkpt lat="-36.7352817" lon="174.401034"><ele>108.0</ele><time>2026-04-09T21:29:41.644Z</time></trkpt><trkpt lat="-36.7352574" lon="174.4009063"><ele>107.0</ele><time>2026-04-09T21:29:43.644Z</time></trkpt><trkpt lat="-36.7351704" lon="174.4009461"><ele>106.0</ele><time>2026-04-09T21:29:45.644Z</time></trkpt><trkpt lat="-36.7351028" lon="174.4009806"><ele>104.99999999999999</ele><time>2026-04-09T21:29:46.644Z</time></trkpt><trkpt lat="-36.7350166" lon="174.4009972"><ele>104.0</ele><time>2026-04-09T21:29:47.643Z</time></trkpt><trkpt lat="-36.7350116" lon="174.4008849"><ele>103.0</ele><time>2026-04-09T21:29:49.643Z</time></trkpt><trkpt lat="-36.7351102" lon="174.4007884"><ele>102.0</ele><time>2026-04-09T21:29:51.643Z</time></trkpt><trkpt lat="-36.7351687" lon="174.4006767"><ele>102.0</ele><time>2026-04-09T21:29:53.644Z</time></trkpt><trkpt lat="-36.735089" lon="174.4006013"><ele>102.0</ele><time>2026-04-09T21:29:54.644Z</time></trkpt><trkpt lat="-36.7351001" lon="174.4005089"><ele>102.0</ele><time>2026-04-09T21:29:56.644Z</time></trkpt><trkpt lat="-36.735153" lon="174.4004399"><ele>102.0</ele><time>2026-04-09T21:29:58.644Z</time></trkpt><trkpt lat="-36.7352328" lon="174.4004584"><ele>102.0</ele><time>2026-04-09T21:30:00.644Z</time></trkpt><trkpt lat="-36.7353049" lon="174.4005347"><ele>102.0</ele><time>2026-04-09T21:30:02.644Z</time></trkpt><trkpt lat="-36.7353673" lon="174.4005874"><ele>101.71428571428572</ele><time>2026-04-09T21:30:04.644Z</time></trkpt><trkpt lat="-36.7354266" lon="174.4006434"><ele>101.42857142857143</ele><time>2026-04-09T21:30:06.643Z</time></trkpt><trkpt lat="-36.7354926" lon="174.4006725"><ele>101.14285714285714</ele><time>2026-04-09T21:30:08.643Z</time></trkpt><trkpt lat="-36.7355699" lon="174.4006388"><ele>100.85714285714286</ele><time>2026-04-09T21:30:10.643Z</time></trkpt><trkpt lat="-36.7356113" lon="174.4005734"><ele>100.57142857142857</ele><time>2026-04-09T21:30:12.644Z</time></trkpt><trkpt lat="-36.7356396" lon="174.4004946"><ele>100.28571428571429</ele><time>2026-04-09T21:30:14.644Z</time></trkpt><trkpt lat="-36.735662" lon="174.4004198"><ele>100.0</ele><time>2026-04-09T21:30:16.643Z</time></trkpt><trkpt lat="-36.7356894" lon="174.4003435"><ele>100.00000000000001</ele><time>2026-04-09T21:30:18.645Z</time></trkpt><trkpt lat="-36.7357401" lon="174.4002694"><ele>100.0</ele><time>2026-04-09T21:30:20.644Z</time></trkpt><trkpt lat="-36.7356849" lon="174.400164"><ele>100.0</ele><time>2026-04-09T21:30:22.643Z</time></trkpt><trkpt lat="-36.7356899" lon="174.4000696"><ele>100.0</ele><time>2026-04-09T21:30:24.644Z</time></trkpt><trkpt lat="-36.7357669" lon="174.4000489"><ele>100.00000000000001</ele><time>2026-04-09T21:30:26.645Z</time></trkpt><trkpt lat="-36.7358551" lon="174.4000015"><ele>100.0</ele><time>2026-04-09T21:30:28.644Z</time></trkpt><trkpt lat="-36.7359178" lon="174.3999531"><ele>100.0</ele><time>2026-04-09T21:30:29.643Z</time></trkpt><trkpt lat="-36.73598" lon="174.3998817"><ele>100.0</ele><time>2026-04-09T21:30:32.644Z</time></trkpt><trkpt lat="-36.7360374" lon="174.3998269"><ele>100.0</ele><time>2026-04-09T21:30:34.643Z</time></trkpt><trkpt lat="-36.7361114" lon="174.3997393"><ele>100.0</ele><time>2026-04-09T21:30:37.643Z</time></trkpt><trkpt lat="-36.7361436" lon="174.3996408"><ele>100.0</ele><time>2026-04-09T21:30:38.643Z</time></trkpt><trkpt lat="-36.7361772" lon="174.3995145"><ele>99.66666666666667</ele><time>2026-04-09T21:30:40.644Z</time></trkpt><trkpt lat="-36.7362348" lon="174.3993964"><ele>99.33333333333334</ele><time>2026-04-09T21:30:42.643Z</time></trkpt><trkpt lat="-36.7362866" lon="174.3993514"><ele>99.0</ele><time>2026-04-09T21:30:43.643Z</time></trkpt><trkpt lat="-36.7363738" lon="174.3993159"><ele>98.66666666666666</ele><time>2026-04-09T21:30:45.644Z</time></trkpt><trkpt lat="-36.7364122" lon="174.3992464"><ele>98.33333333333333</ele><time>2026-04-09T21:30:47.644Z</time></trkpt><trkpt lat="-36.7364092" lon="174.3991314"><ele>98.0</ele><time>2026-04-09T21:30:49.643Z</time></trkpt><trkpt lat="-36.7363578" lon="174.3990709"><ele>98.0</ele><time>2026-04-09T21:30:51.643Z</time></trkpt><trkpt lat="-36.7362943" lon="174.3989784"><ele>98.0</ele><time>2026-04-09T21:30:53.643Z</time></trkpt><trkpt lat="-36.7361966" lon="174.3989623"><ele>98.0</ele><time>2026-04-09T21:30:55.644Z</time></trkpt><trkpt lat="-36.7361417" lon="174.3990444"><ele>98.0</ele><time>2026-04-09T21:30:57.643Z</time></trkpt><trkpt lat="-36.7360717" lon="174.3991268"><ele>98.0</ele><time>2026-04-09T21:30:59.645Z</time></trkpt><trkpt lat="-36.7359763" lon="174.3991433"><ele>98.16666666666666</ele><time>2026-04-09T21:31:02.643Z</time></trkpt><trkpt lat="-36.7359185" lon="174.3992001"><ele>98.33333333333333</ele><time>2026-04-09T21:31:05.643Z</time></trkpt><trkpt lat="-36.7358772" lon="174.3993096"><ele>98.5</ele><time>2026-04-09T21:31:07.643Z</time></trkpt><trkpt lat="-36.7358448" lon="174.3994219"><ele>98.66666666666666</ele><time>2026-04-09T21:31:09.644Z</time></trkpt><trkpt lat="-36.7358398" lon="174.3995245"><ele>98.83333333333333</ele><time>2026-04-09T21:31:11.644Z</time></trkpt><trkpt lat="-36.7357973" lon="174.3996105"><ele>99.0</ele><time>2026-04-09T21:31:13.643Z</time></trkpt><trkpt lat="-36.7357273" lon="174.3996844"><ele>99.16666666666667</ele><time>2026-04-09T21:31:15.644Z</time></trkpt><trkpt lat="-36.7356537" lon="174.3997383"><ele>99.33333333333334</ele><time>2026-04-09T21:31:17.644Z</time></trkpt><trkpt lat="-36.7355947" lon="174.3997832"><ele>99.5</ele><time>2026-04-09T21:31:18.643Z</time></trkpt><trkpt lat="-36.7355051" lon="174.3998284"><ele>99.66666666666667</ele><time>2026-04-09T21:31:20.643Z</time></trkpt><trkpt lat="-36.7354279" lon="174.3998872"><ele>99.83333333333334</ele><time>2026-04-09T21:31:22.643Z</time></trkpt><trkpt lat="-36.7353543" lon="174.3999408"><ele>100.0</ele><time>2026-04-09T21:31:24.643Z</time></trkpt><trkpt lat="-36.735279" lon="174.399994"><ele>100.16666666666667</ele><time>2026-04-09T21:31:26.643Z</time></trkpt><trkpt lat="-36.7352018" lon="174.4000512"><ele>100.33333333333334</ele><time>2026-04-09T21:31:28.643Z</time></trkpt><trkpt lat="-36.73512" lon="174.4000822"><ele>100.5</ele><time>2026-04-09T21:31:30.645Z</time></trkpt><trkpt lat="-36.7350417" lon="174.4001157"><ele>100.66666666666666</ele><time>2026-04-09T21:31:32.643Z</time></trkpt><trkpt lat="-36.7349621" lon="174.400115"><ele>100.83333333333333</ele><time>2026-04-09T21:31:34.643Z</time></trkpt><trkpt lat="-36.7348512" lon="174.4001305"><ele>101.0</ele><time>2026-04-09T21:31:36.643Z</time></trkpt><trkpt lat="-36.7347573" lon="174.400124"><ele>100.99999999999999</ele><time>2026-04-09T21:31:38.643Z</time></trkpt><trkpt lat="-36.7346876" lon="174.4001136"><ele>101.0</ele><time>2026-04-09T21:31:40.644Z</time></trkpt><trkpt lat="-36.7345871" lon="174.4000994"><ele>101.0</ele><time>2026-04-09T21:31:42.645Z</time></trkpt><trkpt lat="-36.7345156" lon="174.4000831"><ele>101.0</ele><time>2026-04-09T21:31:44.644Z</time></trkpt><trkpt lat="-36.7344337" lon="174.4000909"><ele>100.99999999999999</ele><time>2026-04-09T21:31:46.645Z</time></trkpt><trkpt lat="-36.7343567" lon="174.4000744"><ele>101.0</ele><time>2026-04-09T21:31:48.644Z</time></trkpt><trkpt lat="-36.7342714" lon="174.4000761"><ele>102.49999999999999</ele><time>2026-04-09T21:31:50.643Z</time></trkpt><trkpt lat="-36.7341905" lon="174.4000945"><ele>104.0</ele><time>2026-04-09T21:31:52.645Z</time></trkpt><trkpt lat="-36.7341068" lon="174.4001098"><ele>105.5</ele><time>2026-04-09T21:31:54.644Z</time></trkpt><trkpt lat="-36.7340171" lon="174.4001569"><ele>107.0</ele><time>2026-04-09T21:31:56.643Z</time></trkpt><trkpt lat="-36.733936" lon="174.4002034"><ele>108.49999999999999</ele><time>2026-04-09T21:31:58.643Z</time></trkpt><trkpt lat="-36.7338561" lon="174.4002189"><ele>110.0</ele><time>2026-04-09T21:32:00.644Z</time></trkpt><trkpt lat="-36.7337917" lon="174.4001681"><ele>109.99999999999999</ele><time>2026-04-09T21:32:02.646Z</time></trkpt><trkpt lat="-36.7337413" lon="174.4001109"><ele>110.0</ele><time>2026-04-09T21:32:04.644Z</time></trkpt><trkpt lat="-36.7336722" lon="174.4000698"><ele>110.0</ele><time>2026-04-09T21:32:06.644Z</time></trkpt><trkpt lat="-36.7335919" lon="174.4000193"><ele>110.0</ele><time>2026-04-09T21:32:08.644Z</time></trkpt><trkpt lat="-36.7335415" lon="174.3999385"><ele>109.99999999999999</ele><time>2026-04-09T21:32:10.645Z</time></trkpt><trkpt lat="-36.7335304" lon="174.3998462"><ele>110.0</ele><time>2026-04-09T21:32:12.644Z</time></trkpt><trkpt lat="-36.7335633" lon="174.399757"><ele>110.16666666666666</ele><time>2026-04-09T21:32:14.643Z</time></trkpt><trkpt lat="-36.7335423" lon="174.399671"><ele>110.33333333333333</ele><time>2026-04-09T21:32:17.643Z</time></trkpt><trkpt lat="-36.7334747" lon="174.399642"><ele>110.5</ele><time>2026-04-09T21:32:20.643Z</time></trkpt><trkpt lat="-36.7333963" lon="174.3995941"><ele>110.66666666666666</ele><time>2026-04-09T21:32:23.645Z</time></trkpt><trkpt lat="-36.7333661" lon="174.3995057"><ele>110.83333333333333</ele><time>2026-04-09T21:32:26.645Z</time></trkpt><trkpt lat="-36.7333576" lon="174.3993931"><ele>111.0</ele><time>2026-04-09T21:32:29.644Z</time></trkpt><trkpt lat="-36.7333692" lon="174.3992789"><ele>111.83333333333333</ele><time>2026-04-09T21:32:31.644Z</time></trkpt><trkpt lat="-36.7334007" lon="174.3991868"><ele>112.66666666666666</ele><time>2026-04-09T21:32:33.645Z</time></trkpt><trkpt lat="-36.7333987" lon="174.3990784"><ele>113.5</ele><time>2026-04-09T21:32:35.644Z</time></trkpt><trkpt lat="-36.7333841" lon="174.3989878"><ele>114.33333333333333</ele><time>2026-04-09T21:32:37.644Z</time></trkpt><trkpt lat="-36.7333708" lon="174.3988742"><ele>115.16666666666666</ele><time>2026-04-09T21:32:40.644Z</time></trkpt><trkpt lat="-36.733378" lon="174.3987755"><ele>116.0</ele><time>2026-04-09T21:32:43.644Z</time></trkpt><trkpt lat="-36.7333989" lon="174.3986613"><ele>116.33333333333333</ele><time>2026-04-09T21:32:46.644Z</time></trkpt><trkpt lat="-36.7334065" lon="174.3985473"><ele>116.66666666666666</ele><time>2026-04-09T21:32:49.644Z</time></trkpt><trkpt lat="-36.7333951" lon="174.3984515"><ele>117.0</ele><time>2026-04-09T21:32:51.643Z</time></trkpt><trkpt lat="-36.733398" lon="174.3983454"><ele>117.33333333333334</ele><time>2026-04-09T21:32:53.643Z</time></trkpt><trkpt lat="-36.7334175" lon="174.3982473"><ele>117.66666666666667</ele><time>2026-04-09T21:32:55.643Z</time></trkpt><trkpt lat="-36.7334263" lon="174.398147"><ele>118.0</ele><time>2026-04-09T21:32:58.645Z</time></trkpt><trkpt lat="-36.7334145" lon="174.3980634"><ele>117.66666666666667</ele><time>2026-04-09T21:33:00.644Z</time></trkpt><trkpt lat="-36.7333947" lon="174.3979682"><ele>117.33333333333334</ele><time>2026-04-09T21:33:02.643Z</time></trkpt><trkpt lat="-36.7333686" lon="174.3978874"><ele>117.0</ele><time>2026-04-09T21:33:04.644Z</time></trkpt><trkpt lat="-36.7332999" lon="174.3978007"><ele>116.66666666666666</ele><time>2026-04-09T21:33:07.643Z</time></trkpt><trkpt lat="-36.7332462" lon="174.3977496"><ele>116.33333333333333</ele><time>2026-04-09T21:33:09.644Z</time></trkpt><trkpt lat="-36.7331717" lon="174.3977592"><ele>116.0</ele><time>2026-04-09T21:33:12.644Z</time></trkpt><trkpt lat="-36.7331217" lon="174.3976849"><ele>115.99999999999999</ele><time>2026-04-09T21:34:23.644Z</time></trkpt><trkpt lat="-36.7331685" lon="174.3975816"><ele>116.0</ele><time>2026-04-09T21:34:27.644Z</time></trkpt><trkpt lat="-36.7332149" lon="174.39752"><ele>116.0</ele><time>2026-04-09T21:34:29.645Z</time></trkpt><trkpt lat="-36.7332772" lon="174.3974587"><ele>116.0</ele><time>2026-04-09T21:34:32.644Z</time></trkpt><trkpt lat="-36.7333339" lon="174.3974186"><ele>115.99999999999999</ele><time>2026-04-09T21:35:04.645Z</time></trkpt><trkpt lat="-36.7333712" lon="174.3975156"><ele>116.0</ele><time>2026-04-09T21:35:08.644Z</time></trkpt><trkpt lat="-36.7333557" lon="174.3976018"><ele>116.0</ele><time>2026-04-09T21:35:10.644Z</time></trkpt><trkpt lat="-36.7334659" lon="174.3976251"><ele>116.0</ele><time>2026-04-09T21:35:14.644Z</time></trkpt><trkpt lat="-36.7335343" lon="174.3975601"><ele>116.0</ele><time>2026-04-09T21:35:16.643Z</time></trkpt><trkpt lat="-36.7335879" lon="174.3974649"><ele>116.0</ele><time>2026-04-09T21:35:18.645Z</time></trkpt><trkpt lat="-36.7336907" lon="174.3973765"><ele>116.0</ele><time>2026-04-09T21:35:20.644Z</time></trkpt><trkpt lat="-36.7337862" lon="174.3973561"><ele>115.4</ele><time>2026-04-09T21:35:22.644Z</time></trkpt><trkpt lat="-36.7338956" lon="174.3973405"><ele>114.8</ele><time>2026-04-09T21:35:24.643Z</time></trkpt><trkpt lat="-36.7339782" lon="174.3972426"><ele>114.20000000000002</ele><time>2026-04-09T21:35:26.644Z</time></trkpt><trkpt lat="-36.7339128" lon="174.3971372"><ele>113.60000000000001</ele><time>2026-04-09T21:35:28.643Z</time></trkpt><trkpt lat="-36.7338854" lon="174.3970486"><ele>113.0</ele><time>2026-04-09T21:35:30.645Z</time></trkpt><trkpt lat="-36.7339884" lon="174.3970928"><ele>110.33333333333333</ele><time>2026-04-09T21:35:33.644Z</time></trkpt><trkpt lat="-36.7340682" lon="174.397059"><ele>107.66666666666666</ele><time>2026-04-09T21:35:35.643Z</time></trkpt><trkpt lat="-36.7341625" lon="174.3970229"><ele>105.0</ele><time>2026-04-09T21:35:37.643Z</time></trkpt><trkpt lat="-36.7342546" lon="174.3970096"><ele>102.33333333333334</ele><time>2026-04-09T21:35:39.643Z</time></trkpt><trkpt lat="-36.7343122" lon="174.3970654"><ele>99.66666666666667</ele><time>2026-04-09T21:35:40.643Z</time></trkpt><trkpt lat="-36.7344084" lon="174.3970657"><ele>97.0</ele><time>2026-04-09T21:35:42.644Z</time></trkpt><trkpt lat="-36.7344898" lon="174.396977"><ele>95.8</ele><time>2026-04-09T21:35:45.645Z</time></trkpt><trkpt lat="-36.7345825" lon="174.3969022"><ele>94.6</ele><time>2026-04-09T21:35:47.644Z</time></trkpt><trkpt lat="-36.7346403" lon="174.396861"><ele>93.39999999999999</ele><time>2026-04-09T21:35:48.644Z</time></trkpt><trkpt lat="-36.7347582" lon="174.396864"><ele>92.19999999999999</ele><time>2026-04-09T21:35:50.644Z</time></trkpt><trkpt lat="-36.7348783" lon="174.3968849"><ele>91.0</ele><time>2026-04-09T21:35:52.644Z</time></trkpt><trkpt lat="-36.7349841" lon="174.3969105"><ele>91.0</ele><time>2026-04-09T21:35:54.645Z</time></trkpt><trkpt lat="-36.7350816" lon="174.3969231"><ele>91.0</ele><time>2026-04-09T21:35:56.644Z</time></trkpt><trkpt lat="-36.7351443" lon="174.3969954"><ele>91.0</ele><time>2026-04-09T21:35:58.645Z</time></trkpt><trkpt lat="-36.7351602" lon="174.3970783"><ele>91.0</ele><time>2026-04-09T21:36:00.648Z</time></trkpt><trkpt lat="-36.7351829" lon="174.3971571"><ele>91.0</ele><time>2026-04-09T21:36:02.644Z</time></trkpt><trkpt lat="-36.7352303" lon="174.3972172"><ele>91.0</ele><time>2026-04-09T21:36:04.643Z</time></trkpt><trkpt lat="-36.7353161" lon="174.3972582"><ele>91.83333333333333</ele><time>2026-04-09T21:36:07.643Z</time></trkpt><trkpt lat="-36.7353994" lon="174.3972593"><ele>92.66666666666666</ele><time>2026-04-09T21:36:09.643Z</time></trkpt><trkpt lat="-36.7354902" lon="174.3972641"><ele>93.5</ele><time>2026-04-09T21:36:10.643Z</time></trkpt><trkpt lat="-36.7355611" lon="174.3973279"><ele>94.33333333333333</ele><time>2026-04-09T21:36:12.644Z</time></trkpt><trkpt lat="-36.7355945" lon="174.3974302"><ele>95.16666666666667</ele><time>2026-04-09T21:36:16.644Z</time></trkpt><trkpt lat="-36.735652" lon="174.3974965"><ele>96.0</ele><time>2026-04-09T21:36:18.644Z</time></trkpt><trkpt lat="-36.7357203" lon="174.3975349"><ele>96.0</ele><time>2026-04-09T21:36:20.644Z</time></trkpt><trkpt lat="-36.7357965" lon="174.3975414"><ele>96.0</ele><time>2026-04-09T21:36:22.643Z</time></trkpt><trkpt lat="-36.7358796" lon="174.3975162"><ele>96.0</ele><time>2026-04-09T21:36:23.643Z</time></trkpt><trkpt lat="-36.7360045" lon="174.3974704"><ele>96.0</ele><time>2026-04-09T21:36:25.644Z</time></trkpt><trkpt lat="-36.7360911" lon="174.3974885"><ele>96.0</ele><time>2026-04-09T21:36:27.644Z</time></trkpt><trkpt lat="-36.7361711" lon="174.3974686"><ele>96.0</ele><time>2026-04-09T21:36:29.644Z</time></trkpt><trkpt lat="-36.7362307" lon="174.3973761"><ele>96.0</ele><time>2026-04-09T21:36:31.644Z</time></trkpt><trkpt lat="-36.7361724" lon="174.3972767"><ele>96.0</ele><time>2026-04-09T21:36:33.644Z</time></trkpt><trkpt lat="-36.7360911" lon="174.3972412"><ele>96.0</ele><time>2026-04-09T21:36:35.643Z</time></trkpt><trkpt lat="-36.7360113" lon="174.3972798"><ele>96.0</ele><time>2026-04-09T21:36:38.644Z</time></trkpt><trkpt lat="-36.7359356" lon="174.3972973"><ele>96.0</ele><time>2026-04-09T21:36:40.644Z</time></trkpt><trkpt lat="-36.7358559" lon="174.3973239"><ele>96.0</ele><time>2026-04-09T21:36:42.644Z</time></trkpt><trkpt lat="-36.7357778" lon="174.3973271"><ele>96.0</ele><time>2026-04-09T21:36:44.643Z</time></trkpt><trkpt lat="-36.7358994" lon="174.3972664"><ele>96.0</ele><time>2026-04-09T21:36:48.644Z</time></trkpt><trkpt lat="-36.7359838" lon="174.3972004"><ele>96.0</ele><time>2026-04-09T21:36:50.644Z</time></trkpt><trkpt lat="-36.7360175" lon="174.3970511"><ele>96.0</ele><time>2026-04-09T21:36:52.644Z</time></trkpt><trkpt lat="-36.7359856" lon="174.3969611"><ele>92.2</ele><time>2026-04-09T21:36:54.644Z</time></trkpt><trkpt lat="-36.7359428" lon="174.3968398"><ele>88.39999999999999</ele><time>2026-04-09T21:36:56.644Z</time></trkpt><trkpt lat="-36.7358836" lon="174.3967969"><ele>84.6</ele><time>2026-04-09T21:36:57.644Z</time></trkpt><trkpt lat="-36.7358396" lon="174.3966595"><ele>80.8</ele><time>2026-04-09T21:36:59.644Z</time></trkpt><trkpt lat="-36.7357752" lon="174.3965415"><ele>77.0</ele><time>2026-04-09T21:37:01.643Z</time></trkpt><trkpt lat="-36.7356927" lon="174.3965243"><ele>77.0</ele><time>2026-04-09T21:37:03.643Z</time></trkpt><trkpt lat="-36.7356112" lon="174.3964686"><ele>77.0</ele><time>2026-04-09T21:37:05.643Z</time></trkpt><trkpt lat="-36.7355391" lon="174.3964009"><ele>77.0</ele><time>2026-04-09T21:37:07.644Z</time></trkpt><trkpt lat="-36.7354569" lon="174.3963705"><ele>77.0</ele><time>2026-04-09T21:37:09.644Z</time></trkpt><trkpt lat="-36.7353721" lon="174.3963497"><ele>77.0</ele><time>2026-04-09T21:37:11.643Z</time></trkpt><trkpt lat="-36.7352927" lon="174.3963125"><ele>77.0</ele><time>2026-04-09T21:37:13.644Z</time></trkpt><trkpt lat="-36.7352186" lon="174.3962888"><ele>76.0</ele><time>2026-04-09T21:37:15.644Z</time></trkpt><trkpt lat="-36.7351393" lon="174.3962927"><ele>75.0</ele><time>2026-04-09T21:37:17.643Z</time></trkpt><trkpt lat="-36.7350468" lon="174.3962539"><ele>74.0</ele><time>2026-04-09T21:37:19.643Z</time></trkpt><trkpt lat="-36.7349881" lon="174.3961988"><ele>73.0</ele><time>2026-04-09T21:37:20.643Z</time></trkpt><trkpt lat="-36.7349242" lon="174.3961459"><ele>72.0</ele><time>2026-04-09T21:37:22.643Z</time></trkpt><trkpt lat="-36.7348624" lon="174.3960546"><ele>71.0</ele><time>2026-04-09T21:37:24.645Z</time></trkpt><trkpt lat="-36.7347952" lon="174.395946"><ele>71.0</ele><time>2026-04-09T21:37:26.643Z</time></trkpt><trkpt lat="-36.7347175" lon="174.3958367"><ele>71.0</ele><time>2026-04-09T21:37:28.644Z</time></trkpt><trkpt lat="-36.7346551" lon="174.3957465"><ele>71.0</ele><time>2026-04-09T21:37:30.644Z</time></trkpt><trkpt lat="-36.7346217" lon="174.3956638"><ele>71.0</ele><time>2026-04-09T21:37:31.643Z</time></trkpt><trkpt lat="-36.7345875" lon="174.3955921"><ele>71.0</ele><time>2026-04-09T21:37:32.644Z</time></trkpt><trkpt lat="-36.7345812" lon="174.3955076"><ele>71.0</ele><time>2026-04-09T21:37:33.643Z</time></trkpt><trkpt lat="-36.7345867" lon="174.3954235"><ele>68.0</ele><time>2026-04-09T21:37:34.644Z</time></trkpt><trkpt lat="-36.7345339" lon="174.3953369"><ele>65.0</ele><time>2026-04-09T21:37:36.644Z</time></trkpt><trkpt lat="-36.7344572" lon="174.3952678"><ele>61.99999999999999</ele><time>2026-04-09T21:37:38.643Z</time></trkpt><trkpt lat="-36.7344499" lon="174.3951871"><ele>59.0</ele><time>2026-04-09T21:37:39.643Z</time></trkpt><trkpt lat="-36.7344474" lon="174.3950369"><ele>56.0</ele><time>2026-04-09T21:37:41.643Z</time></trkpt><trkpt lat="-36.7344666" lon="174.3948875"><ele>56.0</ele><time>2026-04-09T21:37:43.644Z</time></trkpt><trkpt lat="-36.7344924" lon="174.3947476"><ele>55.99999999999999</ele><time>2026-04-09T21:37:45.644Z</time></trkpt><trkpt lat="-36.734449" lon="174.3946261"><ele>55.99999999999999</ele><time>2026-04-09T21:37:47.644Z</time></trkpt><trkpt lat="-36.7343711" lon="174.3945127"><ele>56.0</ele><time>2026-04-09T21:37:49.643Z</time></trkpt><trkpt lat="-36.7343303" lon="174.3944474"><ele>56.0</ele><time>2026-04-09T21:37:50.644Z</time></trkpt><trkpt lat="-36.734284" lon="174.3943662"><ele>56.0</ele><time>2026-04-09T21:37:51.643Z</time></trkpt><trkpt lat="-36.7342196" lon="174.3942762"><ele>55.99999999999999</ele><time>2026-04-09T21:37:52.645Z</time></trkpt><trkpt lat="-36.734201" lon="174.39414"><ele>55.99999999999999</ele><time>2026-04-09T21:37:54.645Z</time></trkpt><trkpt lat="-36.7342387" lon="174.3940507"><ele>56.0</ele><time>2026-04-09T21:37:56.644Z</time></trkpt><trkpt lat="-36.734172" lon="174.3940088"><ele>56.0</ele><time>2026-04-09T21:37:58.643Z</time></trkpt><trkpt lat="-36.7340817" lon="174.3940201"><ele>56.00000000000001</ele><time>2026-04-09T21:38:00.643Z</time></trkpt><trkpt lat="-36.7340086" lon="174.3940314"><ele>56.0</ele><time>2026-04-09T21:38:01.643Z</time></trkpt><trkpt lat="-36.7338889" lon="174.3940616"><ele>56.0</ele><time>2026-04-09T21:38:03.643Z</time></trkpt><trkpt lat="-36.7338175" lon="174.3941086"><ele>56.0</ele><time>2026-04-09T21:38:04.644Z</time></trkpt><trkpt lat="-36.7337504" lon="174.3940862"><ele>56.00000000000001</ele><time>2026-04-09T21:38:05.644Z</time></trkpt><trkpt lat="-36.7336664" lon="174.3940479"><ele>56.0</ele><time>2026-04-09T21:38:07.644Z</time></trkpt><trkpt lat="-36.7335787" lon="174.3939533"><ele>56.00000000000001</ele><time>2026-04-09T21:38:09.643Z</time></trkpt><trkpt lat="-36.7335373" lon="174.3938893"><ele>56.0</ele><time>2026-04-09T21:38:10.643Z</time></trkpt><trkpt lat="-36.7334813" lon="174.3938523"><ele>56.0</ele><time>2026-04-09T21:38:11.643Z</time></trkpt><trkpt lat="-36.7334416" lon="174.3937863"><ele>56.0</ele><time>2026-04-09T21:38:12.645Z</time></trkpt><trkpt lat="-36.7333866" lon="174.3936683"><ele>56.00000000000001</ele><time>2026-04-09T21:38:14.644Z</time></trkpt><trkpt lat="-36.7333554" lon="174.3935313"><ele>56.0</ele><time>2026-04-09T21:38:16.643Z</time></trkpt><trkpt lat="-36.7334077" lon="174.3934153"><ele>53.50000000000001</ele><time>2026-04-09T21:38:18.643Z</time></trkpt><trkpt lat="-36.7334857" lon="174.3933564"><ele>51.0</ele><time>2026-04-09T21:38:20.644Z</time></trkpt><trkpt lat="-36.7335556" lon="174.3933954"><ele>48.5</ele><time>2026-04-09T21:38:22.645Z</time></trkpt><trkpt lat="-36.7336385" lon="174.3933713"><ele>46.0</ele><time>2026-04-09T21:38:24.644Z</time></trkpt><trkpt lat="-36.7337034" lon="174.3933128"><ele>43.5</ele><time>2026-04-09T21:38:26.643Z</time></trkpt><trkpt lat="-36.7337753" lon="174.3932871"><ele>41.0</ele><time>2026-04-09T21:38:27.643Z</time></trkpt><trkpt lat="-36.7338802" lon="174.3932752"><ele>41.0</ele><time>2026-04-09T21:38:29.644Z</time></trkpt><trkpt lat="-36.7339609" lon="174.3932244"><ele>41.0</ele><time>2026-04-09T21:38:31.643Z</time></trkpt><trkpt lat="-36.7339784" lon="174.3930961"><ele>41.0</ele><time>2026-04-09T21:38:33.645Z</time></trkpt><trkpt lat="-36.733919" lon="174.3929787"><ele>41.0</ele><time>2026-04-09T21:38:35.644Z</time></trkpt><trkpt lat="-36.7338821" lon="174.3929141"><ele>41.0</ele><time>2026-04-09T21:38:36.644Z</time></trkpt><trkpt lat="-36.7338242" lon="174.3928757"><ele>41.0</ele><time>2026-04-09T21:38:37.643Z</time></trkpt><trkpt lat="-36.7337335" lon="174.3927946"><ele>39.166666666666664</ele><time>2026-04-09T21:38:39.643Z</time></trkpt><trkpt lat="-36.7336264" lon="174.3927671"><ele>37.33333333333333</ele><time>2026-04-09T21:38:41.644Z</time></trkpt><trkpt lat="-36.7335125" lon="174.3927675"><ele>35.5</ele><time>2026-04-09T21:38:43.643Z</time></trkpt><trkpt lat="-36.7334394" lon="174.3927826"><ele>33.666666666666664</ele><time>2026-04-09T21:38:44.645Z</time></trkpt><trkpt lat="-36.733376" lon="174.3927734"><ele>31.833333333333332</ele><time>2026-04-09T21:38:45.644Z</time></trkpt><trkpt lat="-36.7332939" lon="174.3927824"><ele>30.0</ele><time>2026-04-09T21:38:46.644Z</time></trkpt><trkpt lat="-36.7331833" lon="174.3927393"><ele>29.5</ele><time>2026-04-09T21:38:48.644Z</time></trkpt><trkpt lat="-36.7331134" lon="174.3926364"><ele>29.0</ele><time>2026-04-09T21:38:50.642Z</time></trkpt><trkpt lat="-36.7331541" lon="174.3924771"><ele>28.5</ele><time>2026-04-09T21:38:52.644Z</time></trkpt><trkpt lat="-36.7332171" lon="174.3924082"><ele>28.0</ele><time>2026-04-09T21:38:53.643Z</time></trkpt><trkpt lat="-36.7333401" lon="174.3923651"><ele>28.0</ele><time>2026-04-09T21:38:55.643Z</time></trkpt><trkpt lat="-36.7334214" lon="174.392338"><ele>27.999999999999996</ele><time>2026-04-09T21:38:56.644Z</time></trkpt><trkpt lat="-36.7334946" lon="174.3922568"><ele>27.999999999999996</ele><time>2026-04-09T21:38:58.644Z</time></trkpt><trkpt lat="-36.7335099" lon="174.3921666"><ele>28.0</ele><time>2026-04-09T21:38:59.643Z</time></trkpt><trkpt lat="-36.7334725" lon="174.3920321"><ele>28.0</ele><time>2026-04-09T21:39:01.645Z</time></trkpt><trkpt lat="-36.7334304" lon="174.3919094"><ele>27.0</ele><time>2026-04-09T21:39:03.643Z</time></trkpt><trkpt lat="-36.7334023" lon="174.3917997"><ele>25.999999999999996</ele><time>2026-04-09T21:39:05.644Z</time></trkpt><trkpt lat="-36.7333874" lon="174.3916689"><ele>25.0</ele><time>2026-04-09T21:39:07.643Z</time></trkpt><trkpt lat="-36.7333969" lon="174.3915452"><ele>24.0</ele><time>2026-04-09T21:39:09.643Z</time></trkpt><trkpt lat="-36.7333622" lon="174.3914388"><ele>23.0</ele><time>2026-04-09T21:39:11.644Z</time></trkpt><trkpt lat="-36.7333097" lon="174.3913564"><ele>23.666666666666668</ele><time>2026-04-09T21:39:13.645Z</time></trkpt><trkpt lat="-36.733287" lon="174.3912522"><ele>24.333333333333336</ele><time>2026-04-09T21:39:15.645Z</time></trkpt><trkpt lat="-36.7332301" lon="174.3911714"><ele>25.0</ele><time>2026-04-09T21:39:17.643Z</time></trkpt><trkpt lat="-36.7331549" lon="174.3911134"><ele>25.666666666666668</ele><time>2026-04-09T21:39:19.645Z</time></trkpt><trkpt lat="-36.7330953" lon="174.3910695"><ele>26.333333333333332</ele><time>2026-04-09T21:39:21.644Z</time></trkpt><trkpt lat="-36.7330453" lon="174.3910157"><ele>27.0</ele><time>2026-04-09T21:39:23.644Z</time></trkpt><trkpt lat="-36.7329788" lon="174.3909567"><ele>27.0</ele><time>2026-04-09T21:39:25.644Z</time></trkpt><trkpt lat="-36.732903" lon="174.3909155"><ele>27.0</ele><time>2026-04-09T21:39:27.643Z</time></trkpt><trkpt lat="-36.7328349" lon="174.3908811"><ele>27.0</ele><time>2026-04-09T21:39:29.643Z</time></trkpt><trkpt lat="-36.7327783" lon="174.3908294"><ele>27.0</ele><time>2026-04-09T21:39:31.644Z</time></trkpt><trkpt lat="-36.7327132" lon="174.3908241"><ele>27.0</ele><time>2026-04-09T21:39:33.644Z</time></trkpt><trkpt lat="-36.7326496" lon="174.3908813"><ele>27.0</ele><time>2026-04-09T21:39:35.643Z</time></trkpt><trkpt lat="-36.7326032" lon="174.3909572"><ele>27.0</ele><time>2026-04-09T21:39:37.644Z</time></trkpt><trkpt lat="-36.7325611" lon="174.3910334"><ele>27.0</ele><time>2026-04-09T21:39:39.643Z</time></trkpt><trkpt lat="-36.7325236" lon="174.391117"><ele>27.0</ele><time>2026-04-09T21:39:41.644Z</time></trkpt><trkpt lat="-36.7324921" lon="174.3911981"><ele>27.0</ele><time>2026-04-09T21:39:43.643Z</time></trkpt><trkpt lat="-36.732444" lon="174.3912697"><ele>27.0</ele><time>2026-04-09T21:39:46.643Z</time></trkpt><trkpt lat="-36.7323985" lon="174.3913491"><ele>27.0</ele><time>2026-04-09T21:40:20.643Z</time></trkpt><trkpt lat="-36.7323258" lon="174.3914017"><ele>27.0</ele><time>2026-04-09T21:40:23.643Z</time></trkpt><trkpt lat="-36.7322649" lon="174.3914591"><ele>27.0</ele><time>2026-04-09T21:40:25.644Z</time></trkpt><trkpt lat="-36.7321887" lon="174.3914943"><ele>27.0</ele><time>2026-04-09T21:40:27.645Z</time></trkpt><trkpt lat="-36.7321178" lon="174.3914892"><ele>27.0</ele><time>2026-04-09T21:40:29.644Z</time></trkpt><trkpt lat="-36.7320374" lon="174.3914939"><ele>27.0</ele><time>2026-04-09T21:40:31.644Z</time></trkpt><trkpt lat="-36.7319539" lon="174.3914963"><ele>27.0</ele><time>2026-04-09T21:40:33.644Z</time></trkpt><trkpt lat="-36.7318845" lon="174.3914775"><ele>27.0</ele><time>2026-04-09T21:40:35.645Z</time></trkpt><trkpt lat="-36.7318134" lon="174.3914641"><ele>27.666666666666668</ele><time>2026-04-09T21:40:37.643Z</time></trkpt><trkpt lat="-36.7317381" lon="174.3914505"><ele>28.333333333333336</ele><time>2026-04-09T21:40:39.643Z</time></trkpt><trkpt lat="-36.7316411" lon="174.3914976"><ele>29.0</ele><time>2026-04-09T21:40:41.643Z</time></trkpt><trkpt lat="-36.7315712" lon="174.3915607"><ele>29.666666666666668</ele><time>2026-04-09T21:40:43.644Z</time></trkpt><trkpt lat="-36.7315401" lon="174.3916428"><ele>30.333333333333336</ele><time>2026-04-09T21:40:45.644Z</time></trkpt><trkpt lat="-36.7315752" lon="174.3917376"><ele>31.0</ele><time>2026-04-09T21:40:49.644Z</time></trkpt><trkpt lat="-36.731539" lon="174.3918151"><ele>31.000000000000004</ele><time>2026-04-09T21:40:54.643Z</time></trkpt><trkpt lat="-36.7314856" lon="174.3918957"><ele>31.0</ele><time>2026-04-09T21:40:57.645Z</time></trkpt><trkpt lat="-36.7314191" lon="174.3919292"><ele>31.0</ele><time>2026-04-09T21:40:59.643Z</time></trkpt><trkpt lat="-36.7313228" lon="174.3918868"><ele>31.0</ele><time>2026-04-09T21:41:02.644Z</time></trkpt><trkpt lat="-36.7312418" lon="174.3918333"><ele>31.000000000000004</ele><time>2026-04-09T21:41:04.643Z</time></trkpt><trkpt lat="-36.7311613" lon="174.3917906"><ele>31.0</ele><time>2026-04-09T21:41:06.643Z</time></trkpt><trkpt lat="-36.7310947" lon="174.3917738"><ele>31.500000000000004</ele><time>2026-04-09T21:41:08.644Z</time></trkpt><trkpt lat="-36.7310258" lon="174.3918034"><ele>32.0</ele><time>2026-04-09T21:41:10.643Z</time></trkpt><trkpt lat="-36.7309827" lon="174.391878"><ele>32.5</ele><time>2026-04-09T21:41:13.644Z</time></trkpt><trkpt lat="-36.7310181" lon="174.391974"><ele>33.0</ele><time>2026-04-09T21:41:15.644Z</time></trkpt><trkpt lat="-36.7310089" lon="174.3920727"><ele>33.5</ele><time>2026-04-09T21:41:18.643Z</time></trkpt><trkpt lat="-36.7309709" lon="174.3921821"><ele>34.0</ele><time>2026-04-09T21:41:21.643Z</time></trkpt><trkpt lat="-36.730993" lon="174.3922883"><ele>34.0</ele><time>2026-04-09T21:41:24.643Z</time></trkpt><trkpt lat="-36.7309478" lon="174.3923601"><ele>34.0</ele><time>2026-04-09T21:41:28.644Z</time></trkpt><trkpt lat="-36.7309064" lon="174.3922897"><ele>34.0</ele><time>2026-04-09T21:41:31.645Z</time></trkpt><trkpt lat="-36.7308883" lon="174.3921839"><ele>34.0</ele><time>2026-04-09T21:41:34.644Z</time></trkpt><trkpt lat="-36.7308631" lon="174.3920901"><ele>34.0</ele><time>2026-04-09T21:41:37.644Z</time></trkpt><trkpt lat="-36.7308086" lon="174.3920264"><ele>34.0</ele><time>2026-04-09T21:41:40.644Z</time></trkpt><trkpt lat="-36.7307293" lon="174.3920036"><ele>34.0</ele><time>2026-04-09T21:41:43.645Z</time></trkpt><trkpt lat="-36.7306656" lon="174.3919925"><ele>34.0</ele><time>2026-04-09T21:41:45.643Z</time></trkpt><trkpt lat="-36.730598" lon="174.391984"><ele>34.0</ele><time>2026-04-09T21:41:48.643Z</time></trkpt><trkpt lat="-36.7305121" lon="174.3919727"><ele>34.0</ele><time>2026-04-09T21:41:51.643Z</time></trkpt><trkpt lat="-36.7304254" lon="174.3919724"><ele>34.0</ele><time>2026-04-09T21:41:53.643Z</time></trkpt><trkpt lat="-36.7304704" lon="174.3920512"><ele>34.0</ele><time>2026-04-09T21:41:59.643Z</time></trkpt><trkpt lat="-36.7305459" lon="174.3920589"><ele>34.0</ele><time>2026-04-09T21:42:02.644Z</time></trkpt><trkpt lat="-36.7306179" lon="174.3920901"><ele>34.0</ele><time>2026-04-09T21:42:04.643Z</time></trkpt><trkpt lat="-36.7306903" lon="174.3921549"><ele>34.0</ele><time>2026-04-09T21:42:06.644Z</time></trkpt><trkpt lat="-36.7307246" lon="174.3922293"><ele>34.0</ele><time>2026-04-09T21:42:08.644Z</time></trkpt><trkpt lat="-36.7306572" lon="174.3922789"><ele>34.0</ele><time>2026-04-09T21:42:12.644Z</time></trkpt><trkpt lat="-36.7305751" lon="174.3922749"><ele>34.0</ele><time>2026-04-09T21:42:15.644Z</time></trkpt><trkpt lat="-36.7305128" lon="174.3922402"><ele>34.0</ele><time>2026-04-09T21:42:17.644Z</time></trkpt><trkpt lat="-36.7304193" lon="174.3922404"><ele>34.0</ele><time>2026-04-09T21:42:20.644Z</time></trkpt><trkpt lat="-36.7303284" lon="174.3922303"><ele>34.0</ele><time>2026-04-09T21:42:23.643Z</time></trkpt><trkpt lat="-36.730264" lon="174.3921398"><ele>34.0</ele><time>2026-04-09T21:42:26.644Z</time></trkpt><trkpt lat="-36.7302047" lon="174.3920938"><ele>34.0</ele><time>2026-04-09T21:42:29.644Z</time></trkpt><trkpt lat="-36.7301416" lon="174.3920087"><ele>34.0</ele><time>2026-04-09T21:42:32.643Z</time></trkpt><trkpt lat="-36.7300892" lon="174.3919383"><ele>36.0</ele><time>2026-04-09T21:42:34.644Z</time></trkpt><trkpt lat="-36.730028" lon="174.3918354"><ele>38.0</ele><time>2026-04-09T21:42:36.643Z</time></trkpt><trkpt lat="-36.7299681" lon="174.3917707"><ele>40.0</ele><time>2026-04-09T21:42:38.643Z</time></trkpt><trkpt lat="-36.7298936" lon="174.3917253"><ele>42.0</ele><time>2026-04-09T21:42:40.643Z</time></trkpt><trkpt lat="-36.7298048" lon="174.3916724"><ele>44.0</ele><time>2026-04-09T21:42:42.643Z</time></trkpt><trkpt lat="-36.7297335" lon="174.3916193"><ele>46.0</ele><time>2026-04-09T21:42:44.644Z</time></trkpt><trkpt lat="-36.7296637" lon="174.3915689"><ele>46.0</ele><time>2026-04-09T21:42:46.643Z</time></trkpt><trkpt lat="-36.7295898" lon="174.3915374"><ele>46.0</ele><time>2026-04-09T21:42:48.644Z</time></trkpt><trkpt lat="-36.7295149" lon="174.3914959"><ele>46.0</ele><time>2026-04-09T21:42:50.644Z</time></trkpt><trkpt lat="-36.7294459" lon="174.3914569"><ele>46.0</ele><time>2026-04-09T21:42:52.643Z</time></trkpt><trkpt lat="-36.7293821" lon="174.3913873"><ele>46.0</ele><time>2026-04-09T21:42:54.644Z</time></trkpt><trkpt lat="-36.729326" lon="174.3913184"><ele>46.0</ele><time>2026-04-09T21:42:56.645Z</time></trkpt><trkpt lat="-36.7292736" lon="174.3912494"><ele>44.8</ele><time>2026-04-09T21:42:58.643Z</time></trkpt><trkpt lat="-36.7292194" lon="174.3911506"><ele>43.599999999999994</ele><time>2026-04-09T21:43:00.643Z</time></trkpt><trkpt lat="-36.7291442" lon="174.3910382"><ele>42.4</ele><time>2026-04-09T21:43:02.644Z</time></trkpt><trkpt lat="-36.729085" lon="174.3909571"><ele>41.2</ele><time>2026-04-09T21:43:04.644Z</time></trkpt><trkpt lat="-36.7290195" lon="174.3909007"><ele>40.0</ele><time>2026-04-09T21:43:06.644Z</time></trkpt><trkpt lat="-36.7289564" lon="174.3908365"><ele>40.0</ele><time>2026-04-09T21:43:08.644Z</time></trkpt><trkpt lat="-36.7288817" lon="174.3907809"><ele>40.0</ele><time>2026-04-09T21:43:10.643Z</time></trkpt><trkpt lat="-36.7288071" lon="174.3907664"><ele>40.0</ele><time>2026-04-09T21:43:12.643Z</time></trkpt><trkpt lat="-36.7287275" lon="174.3907344"><ele>40.0</ele><time>2026-04-09T21:43:14.643Z</time></trkpt><trkpt lat="-36.7286627" lon="174.3906994"><ele>40.0</ele><time>2026-04-09T21:43:16.643Z</time></trkpt><trkpt lat="-36.7286186" lon="174.39078"><ele>40.0</ele><time>2026-04-09T21:43:20.644Z</time></trkpt><trkpt lat="-36.728604" lon="174.3908831"><ele>40.0</ele><time>2026-04-09T21:43:23.644Z</time></trkpt><trkpt lat="-36.7285599" lon="174.3909611"><ele>40.0</ele><time>2026-04-09T21:43:26.644Z</time></trkpt><trkpt lat="-36.7284939" lon="174.3909042"><ele>40.0</ele><time>2026-04-09T21:43:29.643Z</time></trkpt><trkpt lat="-36.7284291" lon="174.3908256"><ele>40.0</ele><time>2026-04-09T21:43:32.645Z</time></trkpt><trkpt lat="-36.7283639" lon="174.390772"><ele>40.0</ele><time>2026-04-09T21:43:35.643Z</time></trkpt><trkpt lat="-36.7282847" lon="174.3907516"><ele>40.0</ele><time>2026-04-09T21:43:38.643Z</time></trkpt><trkpt lat="-36.7282024" lon="174.3907273"><ele>41.857142857142854</ele><time>2026-04-09T21:43:41.644Z</time></trkpt><trkpt lat="-36.7281383" lon="174.390712"><ele>43.714285714285715</ele><time>2026-04-09T21:43:43.645Z</time></trkpt><trkpt lat="-36.7280666" lon="174.3906921"><ele>45.57142857142857</ele><time>2026-04-09T21:43:46.644Z</time></trkpt><trkpt lat="-36.7279847" lon="174.3907057"><ele>47.42857142857143</ele><time>2026-04-09T21:43:49.643Z</time></trkpt><trkpt lat="-36.7279149" lon="174.3906741"><ele>49.285714285714285</ele><time>2026-04-09T21:43:52.643Z</time></trkpt><trkpt lat="-36.7279325" lon="174.390763"><ele>51.142857142857146</ele><time>2026-04-09T21:44:02.644Z</time></trkpt><trkpt lat="-36.7279469" lon="174.3908476"><ele>53.0</ele><time>2026-04-09T21:44:05.644Z</time></trkpt><trkpt lat="-36.7278763" lon="174.3908384"><ele>53.00000000000001</ele><time>2026-04-09T21:44:08.643Z</time></trkpt><trkpt lat="-36.7278148" lon="174.3908107"><ele>53.0</ele><time>2026-04-09T21:44:12.644Z</time></trkpt><trkpt lat="-36.7278424" lon="174.3908872"><ele>53.0</ele><time>2026-04-09T21:44:19.643Z</time></trkpt><trkpt lat="-36.7277752" lon="174.3909067"><ele>53.0</ele><time>2026-04-09T21:44:23.643Z</time></trkpt><trkpt lat="-36.7277075" lon="174.3909787"><ele>53.00000000000001</ele><time>2026-04-09T21:44:28.643Z</time></trkpt><trkpt lat="-36.7276498" lon="174.391054"><ele>53.0</ele><time>2026-04-09T21:44:31.644Z</time></trkpt><trkpt lat="-36.7275765" lon="174.3910834"><ele>54.00000000000001</ele><time>2026-04-09T21:44:34.643Z</time></trkpt><trkpt lat="-36.7275435" lon="174.391153"><ele>55.0</ele><time>2026-04-09T21:44:39.644Z</time></trkpt><trkpt lat="-36.7276143" lon="174.3912008"><ele>56.0</ele><time>2026-04-09T21:44:44.645Z</time></trkpt><trkpt lat="-36.7276615" lon="174.3912787"><ele>57.0</ele><time>2026-04-09T21:44:47.644Z</time></trkpt><trkpt lat="-36.7276928" lon="174.3913978"><ele>58.00000000000001</ele><time>2026-04-09T21:44:50.643Z</time></trkpt><trkpt lat="-36.7277199" lon="174.3915207"><ele>59.0</ele><time>2026-04-09T21:44:53.643Z</time></trkpt><trkpt lat="-36.7277342" lon="174.3916135"><ele>61.333333333333336</ele><time>2026-04-09T21:44:55.645Z</time></trkpt><trkpt lat="-36.7277484" lon="174.3917181"><ele>63.66666666666667</ele><time>2026-04-09T21:44:57.643Z</time></trkpt><trkpt lat="-36.7277729" lon="174.3918067"><ele>66.0</ele><time>2026-04-09T21:44:59.644Z</time></trkpt><trkpt lat="-36.7277827" lon="174.3919057"><ele>68.33333333333333</ele><time>2026-04-09T21:45:01.643Z</time></trkpt><trkpt lat="-36.7278048" lon="174.39199"><ele>70.66666666666666</ele><time>2026-04-09T21:45:03.643Z</time></trkpt><trkpt lat="-36.7278003" lon="174.3920913"><ele>73.0</ele><time>2026-04-09T21:45:05.645Z</time></trkpt><trkpt lat="-36.7277811" lon="174.392199"><ele>73.14285714285714</ele><time>2026-04-09T21:45:07.644Z</time></trkpt><trkpt lat="-36.7277783" lon="174.3922834"><ele>73.28571428571429</ele><time>2026-04-09T21:45:09.644Z</time></trkpt><trkpt lat="-36.7277411" lon="174.3923664"><ele>73.42857142857143</ele><time>2026-04-09T21:45:12.644Z</time></trkpt><trkpt lat="-36.7277497" lon="174.3924675"><ele>73.57142857142857</ele><time>2026-04-09T21:45:16.643Z</time></trkpt><trkpt lat="-36.7276969" lon="174.3925487"><ele>73.71428571428571</ele><time>2026-04-09T21:45:19.643Z</time></trkpt><trkpt lat="-36.727634" lon="174.3925734"><ele>73.85714285714286</ele><time>2026-04-09T21:45:21.644Z</time></trkpt><trkpt lat="-36.7275622" lon="174.3925745"><ele>74.0</ele><time>2026-04-09T21:45:24.645Z</time></trkpt><trkpt lat="-36.7275134" lon="174.3926714"><ele>74.0</ele><time>2026-04-09T21:45:28.645Z</time></trkpt><trkpt lat="-36.7274532" lon="174.3927215"><ele>74.0</ele><time>2026-04-09T21:45:30.644Z</time></trkpt><trkpt lat="-36.7274435" lon="174.3928199"><ele>74.0</ele><time>2026-04-09T21:45:33.643Z</time></trkpt><trkpt lat="-36.727463" lon="174.3929136"><ele>74.0</ele><time>2026-04-09T21:45:36.644Z</time></trkpt><trkpt lat="-36.7274249" lon="174.3929927"><ele>74.0</ele><time>2026-04-09T21:45:41.644Z</time></trkpt><trkpt lat="-36.7274121" lon="174.393081"><ele>74.0</ele><time>2026-04-09T21:45:44.643Z</time></trkpt><trkpt lat="-36.7274151" lon="174.3931838"><ele>74.66666666666667</ele><time>2026-04-09T21:45:47.645Z</time></trkpt><trkpt lat="-36.7273819" lon="174.3932772"><ele>75.33333333333334</ele><time>2026-04-09T21:45:50.644Z</time></trkpt><trkpt lat="-36.7272984" lon="174.3933049"><ele>76.0</ele><time>2026-04-09T21:45:53.644Z</time></trkpt><trkpt lat="-36.7272555" lon="174.3933879"><ele>76.66666666666667</ele><time>2026-04-09T21:45:58.643Z</time></trkpt><trkpt lat="-36.7272331" lon="174.3934777"><ele>77.33333333333333</ele><time>2026-04-09T21:46:00.643Z</time></trkpt><trkpt lat="-36.7272338" lon="174.3935791"><ele>78.0</ele><time>2026-04-09T21:46:03.643Z</time></trkpt><trkpt lat="-36.727242" lon="174.3936634"><ele>78.0</ele><time>2026-04-09T21:46:05.644Z</time></trkpt><trkpt lat="-36.7271853" lon="174.3937424"><ele>78.0</ele><time>2026-04-09T21:46:07.644Z</time></trkpt><trkpt lat="-36.7271297" lon="174.3938232"><ele>78.0</ele><time>2026-04-09T21:46:09.642Z</time></trkpt><trkpt lat="-36.7270979" lon="174.3938912"><ele>78.0</ele><time>2026-04-09T21:46:11.644Z</time></trkpt><trkpt lat="-36.7271076" lon="174.3939891"><ele>78.0</ele><time>2026-04-09T21:46:13.643Z</time></trkpt><trkpt lat="-36.7271008" lon="174.3941004"><ele>78.0</ele><time>2026-04-09T21:46:16.644Z</time></trkpt><trkpt lat="-36.7270766" lon="174.3941865"><ele>78.0</ele><time>2026-04-09T21:46:19.644Z</time></trkpt><trkpt lat="-36.7270773" lon="174.3942966"><ele>78.0</ele><time>2026-04-09T21:46:22.643Z</time></trkpt><trkpt lat="-36.7270816" lon="174.3943999"><ele>78.0</ele><time>2026-04-09T21:46:24.643Z</time></trkpt><trkpt lat="-36.7270617" lon="174.3944768"><ele>78.0</ele><time>2026-04-09T21:46:27.644Z</time></trkpt><trkpt lat="-36.7269849" lon="174.3944403"><ele>78.0</ele><time>2026-04-09T21:46:30.643Z</time></trkpt><trkpt lat="-36.7269275" lon="174.394371"><ele>78.0</ele><time>2026-04-09T21:46:33.644Z</time></trkpt><trkpt lat="-36.7269371" lon="174.3942546"><ele>78.0</ele><time>2026-04-09T21:46:37.644Z</time></trkpt><trkpt lat="-36.7268998" lon="174.3941868"><ele>78.0</ele><time>2026-04-09T21:46:40.643Z</time></trkpt><trkpt lat="-36.7268388" lon="174.3942333"><ele>78.0</ele><time>2026-04-09T21:46:44.643Z</time></trkpt><trkpt lat="-36.7268688" lon="174.3943297"><ele>78.0</ele><time>2026-04-09T21:46:47.644Z</time></trkpt><trkpt lat="-36.7268965" lon="174.3944064"><ele>78.0</ele><time>2026-04-09T21:46:50.644Z</time></trkpt><trkpt lat="-36.7269324" lon="174.3945075"><ele>78.0</ele><time>2026-04-09T21:46:53.644Z</time></trkpt><trkpt lat="-36.7269204" lon="174.3946127"><ele>80.4</ele><time>2026-04-09T21:46:57.644Z</time></trkpt><trkpt lat="-36.7268853" lon="174.3947036"><ele>82.8</ele><time>2026-04-09T21:47:00.643Z</time></trkpt><trkpt lat="-36.7268457" lon="174.3947954"><ele>85.2</ele><time>2026-04-09T21:47:03.645Z</time></trkpt><trkpt lat="-36.7267727" lon="174.3948464"><ele>87.6</ele><time>2026-04-09T21:47:05.642Z</time></trkpt><trkpt lat="-36.7266432" lon="174.3949423"><ele>90.0</ele><time>2026-04-09T21:47:07.643Z</time></trkpt><trkpt lat="-36.7265419" lon="174.3949757"><ele>90.0</ele><time>2026-04-09T21:47:09.645Z</time></trkpt><trkpt lat="-36.7264475" lon="174.395008"><ele>90.0</ele><time>2026-04-09T21:47:11.643Z</time></trkpt><trkpt lat="-36.7263825" lon="174.3950822"><ele>90.0</ele><time>2026-04-09T21:47:14.644Z</time></trkpt><trkpt lat="-36.7263522" lon="174.3951841"><ele>90.0</ele><time>2026-04-09T21:47:17.645Z</time></trkpt><trkpt lat="-36.7263305" lon="174.3952797"><ele>90.0</ele><time>2026-04-09T21:47:20.643Z</time></trkpt><trkpt lat="-36.7262785" lon="174.3953837"><ele>90.0</ele><time>2026-04-09T21:47:23.644Z</time></trkpt><trkpt lat="-36.7262176" lon="174.3954246"><ele>90.0</ele><time>2026-04-09T21:47:25.645Z</time></trkpt><trkpt lat="-36.7261596" lon="174.3954817"><ele>90.0</ele><time>2026-04-09T21:47:27.643Z</time></trkpt><trkpt lat="-36.7260851" lon="174.3955542"><ele>90.0</ele><time>2026-04-09T21:47:30.643Z</time></trkpt><trkpt lat="-36.7260262" lon="174.395626"><ele>90.0</ele><time>2026-04-09T21:47:33.645Z</time></trkpt><trkpt lat="-36.7259773" lon="174.3956798"><ele>90.0</ele><time>2026-04-09T21:47:35.645Z</time></trkpt><trkpt lat="-36.7259141" lon="174.3957477"><ele>92.33333333333333</ele><time>2026-04-09T21:47:37.643Z</time></trkpt><trkpt lat="-36.7258726" lon="174.3958235"><ele>94.66666666666666</ele><time>2026-04-09T21:47:39.644Z</time></trkpt><trkpt lat="-36.7258507" lon="174.3959039"><ele>97.0</ele><time>2026-04-09T21:47:41.643Z</time></trkpt><trkpt lat="-36.7258368" lon="174.3960101"><ele>99.33333333333333</ele><time>2026-04-09T21:47:44.644Z</time></trkpt><trkpt lat="-36.72583" lon="174.3961146"><ele>101.66666666666666</ele><time>2026-04-09T21:47:47.643Z</time></trkpt><trkpt lat="-36.7257849" lon="174.3961791"><ele>104.0</ele><time>2026-04-09T21:47:51.644Z</time></trkpt><trkpt lat="-36.725749" lon="174.3960908"><ele>104.0</ele><time>2026-04-09T21:47:55.643Z</time></trkpt><trkpt lat="-36.7257283" lon="174.3960139"><ele>104.0</ele><time>2026-04-09T21:47:58.645Z</time></trkpt><trkpt lat="-36.7256675" lon="174.3959508"><ele>104.0</ele><time>2026-04-09T21:48:01.644Z</time></trkpt><trkpt lat="-36.7256539" lon="174.3958719"><ele>104.0</ele><time>2026-04-09T21:48:05.645Z</time></trkpt><trkpt lat="-36.7256793" lon="174.3957734"><ele>104.0</ele><time>2026-04-09T21:48:09.643Z</time></trkpt><trkpt lat="-36.7256821" lon="174.3956764"><ele>104.0</ele><time>2026-04-09T21:48:13.645Z</time></trkpt><trkpt lat="-36.7256743" lon="174.3955959"><ele>104.0</ele><time>2026-04-09T21:48:16.645Z</time></trkpt><trkpt lat="-36.7256829" lon="174.3955156"><ele>104.16666666666666</ele><time>2026-04-09T21:48:19.644Z</time></trkpt><trkpt lat="-36.7257154" lon="174.3954246"><ele>104.33333333333333</ele><time>2026-04-09T21:48:22.644Z</time></trkpt><trkpt lat="-36.7257326" lon="174.3953344"><ele>104.5</ele><time>2026-04-09T21:48:25.645Z</time></trkpt><trkpt lat="-36.7257746" lon="174.3952728"><ele>104.66666666666666</ele><time>2026-04-09T21:48:27.643Z</time></trkpt><trkpt lat="-36.7258369" lon="174.3951903"><ele>104.83333333333333</ele><time>2026-04-09T21:48:30.644Z</time></trkpt><trkpt lat="-36.7258928" lon="174.3951116"><ele>105.0</ele><time>2026-04-09T21:48:33.642Z</time></trkpt><trkpt lat="-36.7259131" lon="174.3950315"><ele>105.0</ele><time>2026-04-09T21:48:35.643Z</time></trkpt><trkpt lat="-36.7259207" lon="174.3949379"><ele>105.0</ele><time>2026-04-09T21:48:37.644Z</time></trkpt><trkpt lat="-36.7259175" lon="174.3948453"><ele>105.0</ele><time>2026-04-09T21:48:39.644Z</time></trkpt><trkpt lat="-36.7259112" lon="174.394742"><ele>105.0</ele><time>2026-04-09T21:48:42.644Z</time></trkpt><trkpt lat="-36.725923" lon="174.3946477"><ele>105.0</ele><time>2026-04-09T21:48:44.642Z</time></trkpt><trkpt lat="-36.7259136" lon="174.3945075"><ele>105.0</ele><time>2026-04-09T21:48:46.643Z</time></trkpt><trkpt lat="-36.725892" lon="174.3944044"><ele>105.14285714285714</ele><time>2026-04-09T21:48:48.645Z</time></trkpt><trkpt lat="-36.72586" lon="174.3943269"><ele>105.28571428571428</ele><time>2026-04-09T21:48:50.643Z</time></trkpt><trkpt lat="-36.7258173" lon="174.3942508"><ele>105.42857142857143</ele><time>2026-04-09T21:48:52.643Z</time></trkpt><trkpt lat="-36.725756" lon="174.3941871"><ele>105.57142857142857</ele><time>2026-04-09T21:48:54.644Z</time></trkpt><trkpt lat="-36.7257172" lon="174.39412"><ele>105.71428571428571</ele><time>2026-04-09T21:48:56.644Z</time></trkpt><trkpt lat="-36.7257049" lon="174.3940312"><ele>105.85714285714286</ele><time>2026-04-09T21:48:58.643Z</time></trkpt><trkpt lat="-36.7257058" lon="174.3939356"><ele>106.0</ele><time>2026-04-09T21:49:00.644Z</time></trkpt><trkpt lat="-36.7256683" lon="174.3938622"><ele>105.57142857142857</ele><time>2026-04-09T21:49:02.644Z</time></trkpt><trkpt lat="-36.7256188" lon="174.393803"><ele>105.14285714285714</ele><time>2026-04-09T21:49:04.644Z</time></trkpt><trkpt lat="-36.7256167" lon="174.3936899"><ele>104.71428571428571</ele><time>2026-04-09T21:49:07.643Z</time></trkpt><trkpt lat="-36.7256198" lon="174.3935937"><ele>104.28571428571428</ele><time>2026-04-09T21:49:09.644Z</time></trkpt><trkpt lat="-36.7256216" lon="174.3935022"><ele>103.85714285714286</ele><time>2026-04-09T21:49:11.643Z</time></trkpt><trkpt lat="-36.7256278" lon="174.3934149"><ele>103.42857142857142</ele><time>2026-04-09T21:49:13.643Z</time></trkpt><trkpt lat="-36.7256223" lon="174.3933347"><ele>103.0</ele><time>2026-04-09T21:49:15.643Z</time></trkpt><trkpt lat="-36.7256059" lon="174.3932307"><ele>102.99999999999999</ele><time>2026-04-09T21:49:18.644Z</time></trkpt><trkpt lat="-36.7255822" lon="174.3931462"><ele>103.0</ele><time>2026-04-09T21:49:21.645Z</time></trkpt><trkpt lat="-36.7255744" lon="174.3930607"><ele>103.0</ele><time>2026-04-09T21:50:58.644Z</time></trkpt><trkpt lat="-36.7255237" lon="174.3929689"><ele>103.0</ele><time>2026-04-09T21:51:01.643Z</time></trkpt><trkpt lat="-36.7254666" lon="174.3929325"><ele>103.0</ele><time>2026-04-09T21:51:03.643Z</time></trkpt><trkpt lat="-36.7253892" lon="174.3929126"><ele>102.99999999999999</ele><time>2026-04-09T21:51:06.643Z</time></trkpt><trkpt lat="-36.7253162" lon="174.392902"><ele>103.0</ele><time>2026-04-09T21:51:09.643Z</time></trkpt><trkpt lat="-36.7252331" lon="174.3929031"><ele>103.14285714285714</ele><time>2026-04-09T21:51:12.644Z</time></trkpt><trkpt lat="-36.7251739" lon="174.3929467"><ele>103.28571428571428</ele><time>2026-04-09T21:51:15.645Z</time></trkpt><trkpt lat="-36.7251158" lon="174.3929872"><ele>103.42857142857142</ele><time>2026-04-09T21:51:17.643Z</time></trkpt><trkpt lat="-36.725079" lon="174.3930749"><ele>103.57142857142857</ele><time>2026-04-09T21:51:20.643Z</time></trkpt><trkpt lat="-36.7250534" lon="174.3931542"><ele>103.71428571428572</ele><time>2026-04-09T21:51:22.643Z</time></trkpt><trkpt lat="-36.7250282" lon="174.3932425"><ele>103.85714285714285</ele><time>2026-04-09T21:51:25.644Z</time></trkpt><trkpt lat="-36.724992" lon="174.3933112"><ele>104.0</ele><time>2026-04-09T21:51:27.644Z</time></trkpt><trkpt lat="-36.7248806" lon="174.3934325"><ele>104.33333333333333</ele><time>2026-04-09T21:51:29.644Z</time></trkpt><trkpt lat="-36.724831" lon="174.393504"><ele>104.66666666666666</ele><time>2026-04-09T21:51:30.645Z</time></trkpt><trkpt lat="-36.7247828" lon="174.3935842"><ele>105.0</ele><time>2026-04-09T21:51:32.643Z</time></trkpt><trkpt lat="-36.7247307" lon="174.3936454"><ele>105.33333333333334</ele><time>2026-04-09T21:51:33.643Z</time></trkpt><trkpt lat="-36.7246531" lon="174.3937348"><ele>105.66666666666667</ele><time>2026-04-09T21:51:36.643Z</time></trkpt><trkpt lat="-36.7245957" lon="174.3937902"><ele>106.0</ele><time>2026-04-09T21:51:38.644Z</time></trkpt><trkpt lat="-36.7245017" lon="174.3937435"><ele>106.00000000000001</ele><time>2026-04-09T21:51:41.644Z</time></trkpt><trkpt lat="-36.7244291" lon="174.3936648"><ele>106.0</ele><time>2026-04-09T21:51:42.644Z</time></trkpt><trkpt lat="-36.7243742" lon="174.3935911"><ele>106.0</ele><time>2026-04-09T21:51:43.644Z</time></trkpt><trkpt lat="-36.72433" lon="174.3935282"><ele>106.0</ele><time>2026-04-09T21:51:44.643Z</time></trkpt><trkpt lat="-36.7242535" lon="174.3934445"><ele>106.00000000000001</ele><time>2026-04-09T21:51:46.644Z</time></trkpt><trkpt lat="-36.7241861" lon="174.3934212"><ele>106.0</ele><time>2026-04-09T21:51:47.644Z</time></trkpt><trkpt lat="-36.7240851" lon="174.3934291"><ele>105.00000000000001</ele><time>2026-04-09T21:51:49.644Z</time></trkpt><trkpt lat="-36.7240292" lon="174.3934699"><ele>104.0</ele><time>2026-04-09T21:51:50.645Z</time></trkpt><trkpt lat="-36.7239314" lon="174.393514"><ele>103.0</ele><time>2026-04-09T21:51:52.644Z</time></trkpt><trkpt lat="-36.7238393" lon="174.3935485"><ele>102.0</ele><time>2026-04-09T21:51:54.643Z</time></trkpt><trkpt lat="-36.7237732" lon="174.3935018"><ele>101.00000000000001</ele><time>2026-04-09T21:51:56.643Z</time></trkpt><trkpt lat="-36.7237121" lon="174.3934688"><ele>100.0</ele><time>2026-04-09T21:51:58.643Z</time></trkpt><trkpt lat="-36.7236446" lon="174.3934749"><ele>100.00000000000001</ele><time>2026-04-09T21:52:00.645Z</time></trkpt><trkpt lat="-36.7235946" lon="174.3935313"><ele>100.0</ele><time>2026-04-09T21:52:02.642Z</time></trkpt><trkpt lat="-36.7235429" lon="174.3936006"><ele>100.0</ele><time>2026-04-09T21:52:05.643Z</time></trkpt><trkpt lat="-36.723475" lon="174.3936705"><ele>100.0</ele><time>2026-04-09T21:52:08.643Z</time></trkpt><trkpt lat="-36.7234397" lon="174.3935921"><ele>100.0</ele><time>2026-04-09T21:52:13.643Z</time></trkpt><trkpt lat="-36.72349" lon="174.3935382"><ele>100.00000000000001</ele><time>2026-04-09T21:52:15.645Z</time></trkpt><trkpt lat="-36.7235322" lon="174.3934777"><ele>100.0</ele><time>2026-04-09T21:52:17.644Z</time></trkpt><trkpt lat="-36.7235714" lon="174.3933732"><ele>100.00000000000001</ele><time>2026-04-09T21:52:20.643Z</time></trkpt><trkpt lat="-36.7236222" lon="174.3932851"><ele>100.0</ele><time>2026-04-09T21:52:23.642Z</time></trkpt><trkpt lat="-36.7236167" lon="174.3931876"><ele>100.0</ele><time>2026-04-09T21:52:26.642Z</time></trkpt><trkpt lat="-36.7236416" lon="174.3931143"><ele>100.0</ele><time>2026-04-09T21:52:28.643Z</time></trkpt><trkpt lat="-36.7236659" lon="174.3930412"><ele>100.00000000000001</ele><time>2026-04-09T21:52:30.644Z</time></trkpt><trkpt lat="-36.7237093" lon="174.3929768"><ele>100.0</ele><time>2026-04-09T21:52:33.643Z</time></trkpt><trkpt lat="-36.7237637" lon="174.3928829"><ele>101.33333333333334</ele><time>2026-04-09T21:52:37.644Z</time></trkpt><trkpt lat="-36.7238175" lon="174.3928017"><ele>102.66666666666667</ele><time>2026-04-09T21:52:40.644Z</time></trkpt><trkpt lat="-36.7238445" lon="174.3927249"><ele>104.0</ele><time>2026-04-09T21:52:44.644Z</time></trkpt><trkpt lat="-36.7237813" lon="174.3926691"><ele>105.33333333333334</ele><time>2026-04-09T21:52:52.644Z</time></trkpt><trkpt lat="-36.7238089" lon="174.3925976"><ele>106.66666666666667</ele><time>2026-04-09T21:52:56.643Z</time></trkpt><trkpt lat="-36.7238678" lon="174.3925242"><ele>108.0</ele><time>2026-04-09T21:52:59.643Z</time></trkpt><trkpt lat="-36.7237924" lon="174.3925029"><ele>108.0</ele><time>2026-04-09T21:53:04.645Z</time></trkpt><trkpt lat="-36.7238219" lon="174.3924183"><ele>108.0</ele><time>2026-04-09T21:53:11.643Z</time></trkpt><trkpt lat="-36.72387" lon="174.3923461"><ele>108.0</ele><time>2026-04-09T21:53:14.643Z</time></trkpt><trkpt lat="-36.7239022" lon="174.3922714"><ele>108.0</ele><time>2026-04-09T21:53:17.645Z</time></trkpt><trkpt lat="-36.7239383" lon="174.3921952"><ele>108.0</ele><time>2026-04-09T21:53:20.643Z</time></trkpt><trkpt lat="-36.7240012" lon="174.3921396"><ele>108.0</ele><time>2026-04-09T21:53:23.642Z</time></trkpt><trkpt lat="-36.7240352" lon="174.3920536"><ele>108.0</ele><time>2026-04-09T21:53:26.644Z</time></trkpt><trkpt lat="-36.7240338" lon="174.3919698"><ele>109.42857142857143</ele><time>2026-04-09T21:53:30.645Z</time></trkpt><trkpt lat="-36.7239686" lon="174.3919453"><ele>110.85714285714286</ele><time>2026-04-09T21:53:35.643Z</time></trkpt><trkpt lat="-36.7239059" lon="174.3919211"><ele>112.28571428571428</ele><time>2026-04-09T21:53:38.644Z</time></trkpt><trkpt lat="-36.7238502" lon="174.3918547"><ele>113.71428571428572</ele><time>2026-04-09T21:53:41.644Z</time></trkpt><trkpt lat="-36.7237909" lon="174.3917863"><ele>115.14285714285715</ele><time>2026-04-09T21:53:45.644Z</time></trkpt><trkpt lat="-36.7238004" lon="174.3916942"><ele>116.57142857142857</ele><time>2026-04-09T21:53:49.644Z</time></trkpt><trkpt lat="-36.7238244" lon="174.3916029"><ele>118.0</ele><time>2026-04-09T21:53:53.643Z</time></trkpt><trkpt lat="-36.7238038" lon="174.3915191"><ele>118.0</ele><time>2026-04-09T21:53:57.643Z</time></trkpt><trkpt lat="-36.7238332" lon="174.3914432"><ele>118.0</ele><time>2026-04-09T21:54:00.643Z</time></trkpt><trkpt lat="-36.7238787" lon="174.3913643"><ele>118.0</ele><time>2026-04-09T21:54:04.643Z</time></trkpt><trkpt lat="-36.7238903" lon="174.3912808"><ele>118.0</ele><time>2026-04-09T21:54:08.644Z</time></trkpt><trkpt lat="-36.7239533" lon="174.3912231"><ele>118.0</ele><time>2026-04-09T21:54:12.642Z</time></trkpt><trkpt lat="-36.7240161" lon="174.3911895"><ele>118.0</ele><time>2026-04-09T21:54:15.644Z</time></trkpt><trkpt lat="-36.7241053" lon="174.3911984"><ele>118.0</ele><time>2026-04-09T21:54:19.644Z</time></trkpt><trkpt lat="-36.7241791" lon="174.3911945"><ele>117.71428571428571</ele><time>2026-04-09T21:54:21.643Z</time></trkpt><trkpt lat="-36.7242506" lon="174.3911661"><ele>117.42857142857144</ele><time>2026-04-09T21:54:23.644Z</time></trkpt><trkpt lat="-36.7243029" lon="174.3911147"><ele>117.14285714285715</ele><time>2026-04-09T21:54:25.643Z</time></trkpt><trkpt lat="-36.7243478" lon="174.3910417"><ele>116.85714285714286</ele><time>2026-04-09T21:54:28.643Z</time></trkpt><trkpt lat="-36.7243872" lon="174.3909646"><ele>116.57142857142858</ele><time>2026-04-09T21:54:31.642Z</time></trkpt><trkpt lat="-36.7244331" lon="174.3909087"><ele>116.2857142857143</ele><time>2026-04-09T21:54:33.643Z</time></trkpt><trkpt lat="-36.7244873" lon="174.3908517"><ele>116.00000000000001</ele><time>2026-04-09T21:54:35.644Z</time></trkpt><trkpt lat="-36.7245459" lon="174.390802"><ele>116.00000000000001</ele><time>2026-04-09T21:54:37.644Z</time></trkpt><trkpt lat="-36.7246126" lon="174.3907338"><ele>116.0</ele><time>2026-04-09T21:54:39.643Z</time></trkpt><trkpt lat="-36.7246915" lon="174.3907068"><ele>116.00000000000001</ele><time>2026-04-09T21:54:41.644Z</time></trkpt><trkpt lat="-36.724752" lon="174.3906778"><ele>116.00000000000001</ele><time>2026-04-09T21:54:43.644Z</time></trkpt><trkpt lat="-36.7248213" lon="174.3906609"><ele>116.0</ele><time>2026-04-09T21:54:45.645Z</time></trkpt><trkpt lat="-36.7248718" lon="174.3907133"><ele>116.00000000000001</ele><time>2026-04-09T21:54:48.643Z</time></trkpt><trkpt lat="-36.7248931" lon="174.3907984"><ele>116.00000000000001</ele><time>2026-04-09T21:54:51.644Z</time></trkpt><trkpt lat="-36.7248827" lon="174.3908899"><ele>115.99999999999999</ele><time>2026-04-09T21:54:54.643Z</time></trkpt><trkpt lat="-36.7248231" lon="174.3909583"><ele>116.0</ele><time>2026-04-09T21:54:56.644Z</time></trkpt><trkpt lat="-36.724746" lon="174.3909936"><ele>116.0</ele><time>2026-04-09T21:54:58.644Z</time></trkpt><trkpt lat="-36.7246753" lon="174.3910105"><ele>116.0</ele><time>2026-04-09T21:55:00.643Z</time></trkpt><trkpt lat="-36.7245848" lon="174.3910375"><ele>115.99999999999999</ele><time>2026-04-09T21:55:02.643Z</time></trkpt><trkpt lat="-36.7245113" lon="174.391068"><ele>116.0</ele><time>2026-04-09T21:55:04.643Z</time></trkpt><trkpt lat="-36.724456" lon="174.3911087"><ele>116.00000000000001</ele><time>2026-04-09T21:55:07.644Z</time></trkpt><trkpt lat="-36.7244142" lon="174.3911687"><ele>116.0</ele><time>2026-04-09T21:55:10.643Z</time></trkpt><trkpt lat="-36.7243509" lon="174.3912098"><ele>116.00000000000001</ele><time>2026-04-09T21:55:13.645Z</time></trkpt><trkpt lat="-36.7243239" lon="174.3912881"><ele>116.00000000000001</ele><time>2026-04-09T21:55:16.642Z</time></trkpt><trkpt lat="-36.7243366" lon="174.3913724"><ele>116.0</ele><time>2026-04-09T21:55:18.643Z</time></trkpt><trkpt lat="-36.7243653" lon="174.3914675"><ele>116.00000000000001</ele><time>2026-04-09T21:55:20.642Z</time></trkpt><trkpt lat="-36.7243965" lon="174.3915576"><ele>116.00000000000001</ele><time>2026-04-09T21:55:22.644Z</time></trkpt><trkpt lat="-36.7244149" lon="174.3916635"><ele>116.4</ele><time>2026-04-09T21:55:24.644Z</time></trkpt><trkpt lat="-36.724356" lon="174.3917914"><ele>116.8</ele><time>2026-04-09T21:55:26.643Z</time></trkpt><trkpt lat="-36.7242924" lon="174.3918876"><ele>117.20000000000002</ele><time>2026-04-09T21:55:28.644Z</time></trkpt><trkpt lat="-36.7242353" lon="174.3919575"><ele>117.60000000000001</ele><time>2026-04-09T21:55:30.643Z</time></trkpt><trkpt lat="-36.7241551" lon="174.3920063"><ele>118.0</ele><time>2026-04-09T21:55:32.644Z</time></trkpt><trkpt lat="-36.7241635" lon="174.3920875"><ele>118.00000000000001</ele><time>2026-04-09T21:55:35.642Z</time></trkpt><trkpt lat="-36.7242402" lon="174.3921071"><ele>118.0</ele><time>2026-04-09T21:55:37.643Z</time></trkpt><trkpt lat="-36.7242982" lon="174.3920738"><ele>118.0</ele><time>2026-04-09T21:55:39.643Z</time></trkpt><trkpt lat="-36.7243347" lon="174.3919912"><ele>118.0</ele><time>2026-04-09T21:55:42.645Z</time></trkpt><trkpt lat="-36.7243815" lon="174.3919041"><ele>118.00000000000001</ele><time>2026-04-09T21:55:45.643Z</time></trkpt><trkpt lat="-36.7244338" lon="174.3918127"><ele>118.0</ele><time>2026-04-09T21:55:48.644Z</time></trkpt><trkpt lat="-36.724497" lon="174.3917373"><ele>117.66666666666667</ele><time>2026-04-09T21:55:50.644Z</time></trkpt><trkpt lat="-36.724563" lon="174.3916466"><ele>117.33333333333334</ele><time>2026-04-09T21:55:52.643Z</time></trkpt><trkpt lat="-36.7246081" lon="174.3915765"><ele>117.0</ele><time>2026-04-09T21:55:54.644Z</time></trkpt><trkpt lat="-36.724651" lon="174.3914745"><ele>116.66666666666666</ele><time>2026-04-09T21:55:57.644Z</time></trkpt><trkpt lat="-36.7246922" lon="174.3913869"><ele>116.33333333333333</ele><time>2026-04-09T21:56:00.642Z</time></trkpt><trkpt lat="-36.7247473" lon="174.3913448"><ele>116.0</ele><time>2026-04-09T21:56:02.644Z</time></trkpt><trkpt lat="-36.7248191" lon="174.3912986"><ele>115.99999999999999</ele><time>2026-04-09T21:56:04.644Z</time></trkpt><trkpt lat="-36.7248801" lon="174.391249"><ele>116.0</ele><time>2026-04-09T21:56:07.643Z</time></trkpt><trkpt lat="-36.7249395" lon="174.3911664"><ele>116.0</ele><time>2026-04-09T21:56:10.644Z</time></trkpt><trkpt lat="-36.7250202" lon="174.3911655"><ele>116.0</ele><time>2026-04-09T21:56:13.643Z</time></trkpt><trkpt lat="-36.7250913" lon="174.3911973"><ele>115.99999999999999</ele><time>2026-04-09T21:56:15.643Z</time></trkpt><trkpt lat="-36.7251712" lon="174.3911398"><ele>116.0</ele><time>2026-04-09T21:56:17.644Z</time></trkpt><trkpt lat="-36.7252135" lon="174.3910545"><ele>112.99999999999999</ele><time>2026-04-09T21:56:18.643Z</time></trkpt><trkpt lat="-36.7252936" lon="174.3909731"><ele>110.0</ele><time>2026-04-09T21:56:20.645Z</time></trkpt><trkpt lat="-36.7253817" lon="174.390967"><ele>107.0</ele><time>2026-04-09T21:56:22.644Z</time></trkpt><trkpt lat="-36.7254439" lon="174.3909858"><ele>104.0</ele><time>2026-04-09T21:56:23.644Z</time></trkpt><trkpt lat="-36.7254899" lon="174.3910403"><ele>100.99999999999999</ele><time>2026-04-09T21:56:25.643Z</time></trkpt><trkpt lat="-36.725569" lon="174.3910802"><ele>98.0</ele><time>2026-04-09T21:56:28.644Z</time></trkpt><trkpt lat="-36.725603" lon="174.3911606"><ele>98.0</ele><time>2026-04-09T21:56:31.645Z</time></trkpt><trkpt lat="-36.7255676" lon="174.3912489"><ele>98.0</ele><time>2026-04-09T21:56:34.643Z</time></trkpt><trkpt lat="-36.7255281" lon="174.3913258"><ele>98.0</ele><time>2026-04-09T21:56:37.643Z</time></trkpt><trkpt lat="-36.7255074" lon="174.3914163"><ele>98.0</ele><time>2026-04-09T21:56:40.643Z</time></trkpt><trkpt lat="-36.7254607" lon="174.3914743"><ele>98.0</ele><time>2026-04-09T21:56:42.643Z</time></trkpt><trkpt lat="-36.7253782" lon="174.3915067"><ele>98.0</ele><time>2026-04-09T21:56:43.643Z</time></trkpt><trkpt lat="-36.7253166" lon="174.3915349"><ele>98.0</ele><time>2026-04-09T21:56:44.644Z</time></trkpt><trkpt lat="-36.7252486" lon="174.3915913"><ele>98.33333333333333</ele><time>2026-04-09T21:56:45.645Z</time></trkpt><trkpt lat="-36.7251813" lon="174.3916878"><ele>98.66666666666666</ele><time>2026-04-09T21:56:47.644Z</time></trkpt><trkpt lat="-36.7251793" lon="174.391804"><ele>99.0</ele><time>2026-04-09T21:56:49.643Z</time></trkpt><trkpt lat="-36.725206" lon="174.3919284"><ele>99.33333333333334</ele><time>2026-04-09T21:56:51.644Z</time></trkpt><trkpt lat="-36.7252362" lon="174.3920227"><ele>99.66666666666667</ele><time>2026-04-09T21:56:52.643Z</time></trkpt><trkpt lat="-36.7252473" lon="174.3921002"><ele>100.0</ele><time>2026-04-09T21:56:53.643Z</time></trkpt><trkpt lat="-36.7252365" lon="174.3922061"><ele>100.66666666666667</ele><time>2026-04-09T21:56:55.645Z</time></trkpt><trkpt lat="-36.7251824" lon="174.3922993"><ele>101.33333333333334</ele><time>2026-04-09T21:56:58.642Z</time></trkpt><trkpt lat="-36.7251544" lon="174.392372"><ele>102.0</ele><time>2026-04-09T21:57:00.642Z</time></trkpt><trkpt lat="-36.7251281" lon="174.3924442"><ele>102.66666666666666</ele><time>2026-04-09T21:57:02.644Z</time></trkpt><trkpt lat="-36.7251152" lon="174.3925212"><ele>103.33333333333333</ele><time>2026-04-09T21:57:05.642Z</time></trkpt><trkpt lat="-36.7250426" lon="174.3925797"><ele>104.0</ele><time>2026-04-09T21:57:08.644Z</time></trkpt><trkpt lat="-36.7249731" lon="174.3926292"><ele>103.99999999999999</ele><time>2026-04-09T21:57:10.644Z</time></trkpt><trkpt lat="-36.724883" lon="174.3926582"><ele>104.0</ele><time>2026-04-09T21:57:11.643Z</time></trkpt><trkpt lat="-36.7247762" lon="174.3926759"><ele>104.0</ele><time>2026-04-09T21:57:13.644Z</time></trkpt><trkpt lat="-36.7246959" lon="174.3927115"><ele>104.0</ele><time>2026-04-09T21:57:15.643Z</time></trkpt><trkpt lat="-36.724674" lon="174.3927995"><ele>103.99999999999999</ele><time>2026-04-09T21:57:19.644Z</time></trkpt><trkpt lat="-36.7247482" lon="174.392837"><ele>104.0</ele><time>2026-04-09T21:57:22.644Z</time></trkpt><trkpt lat="-36.7248239" lon="174.3928558"><ele>103.99999999999999</ele><time>2026-04-09T21:57:24.643Z</time></trkpt><trkpt lat="-36.7248909" lon="174.3928332"><ele>104.0</ele><time>2026-04-09T21:57:26.643Z</time></trkpt><trkpt lat="-36.7249711" lon="174.3927802"><ele>104.0</ele><time>2026-04-09T21:57:29.645Z</time></trkpt><trkpt lat="-36.7250422" lon="174.3927252"><ele>104.0</ele><time>2026-04-09T21:57:32.644Z</time></trkpt><trkpt lat="-36.7251045" lon="174.3926912"><ele>103.99999999999999</ele><time>2026-04-09T21:57:34.644Z</time></trkpt><trkpt lat="-36.7251684" lon="174.3926648"><ele>104.0</ele><time>2026-04-09T21:57:36.644Z</time></trkpt><trkpt lat="-36.7252549" lon="174.3926654"><ele>103.83333333333333</ele><time>2026-04-09T21:57:39.645Z</time></trkpt><trkpt lat="-36.7253291" lon="174.3926954"><ele>103.66666666666666</ele><time>2026-04-09T21:57:41.644Z</time></trkpt><trkpt lat="-36.7253942" lon="174.3927419"><ele>103.5</ele><time>2026-04-09T21:57:43.644Z</time></trkpt><trkpt lat="-36.7254518" lon="174.3927882"><ele>103.33333333333334</ele><time>2026-04-09T21:57:45.643Z</time></trkpt><trkpt lat="-36.7255037" lon="174.3928381"><ele>103.16666666666667</ele><time>2026-04-09T21:57:47.643Z</time></trkpt><trkpt lat="-36.7255444" lon="174.3929415"><ele>103.0</ele><time>2026-04-09T21:57:50.643Z</time></trkpt><trkpt lat="-36.7255587" lon="174.3930409"><ele>102.99999999999999</ele><time>2026-04-09T21:57:53.643Z</time></trkpt><trkpt lat="-36.7255942" lon="174.3931281"><ele>103.0</ele><time>2026-04-09T21:58:15.643Z</time></trkpt><trkpt lat="-36.7255474" lon="174.3930704"><ele>103.0</ele><time>2026-04-09T21:59:15.643Z</time></trkpt><trkpt lat="-36.7254865" lon="174.3930062"><ele>103.0</ele><time>2026-04-09T21:59:19.644Z</time></trkpt><trkpt lat="-36.7254332" lon="174.3930511"><ele>103.0</ele><time>2026-04-09T21:59:23.643Z</time></trkpt><trkpt lat="-36.7253771" lon="174.3931118"><ele>102.99999999999999</ele><time>2026-04-09T21:59:27.643Z</time></trkpt><trkpt lat="-36.7253134" lon="174.3930934"><ele>103.0</ele><time>2026-04-09T21:59:30.643Z</time></trkpt><trkpt lat="-36.7252413" lon="174.3931378"><ele>102.99999999999999</ele><time>2026-04-09T21:59:33.643Z</time></trkpt><trkpt lat="-36.7252202" lon="174.3932122"><ele>103.0</ele><time>2026-04-09T21:59:36.644Z</time></trkpt><trkpt lat="-36.7252164" lon="174.3933192"><ele>103.0</ele><time>2026-04-09T21:59:39.644Z</time></trkpt><trkpt lat="-36.7252534" lon="174.3933831"><ele>103.0</ele><time>2026-04-09T21:59:42.644Z</time></trkpt><trkpt lat="-36.7253354" lon="174.3934111"><ele>103.0</ele><time>2026-04-09T21:59:46.644Z</time></trkpt><trkpt lat="-36.7253867" lon="174.393459"><ele>102.99999999999999</ele><time>2026-04-09T21:59:48.643Z</time></trkpt><trkpt lat="-36.7254339" lon="174.3935356"><ele>103.0</ele><time>2026-04-09T21:59:50.644Z</time></trkpt><trkpt lat="-36.725417" lon="174.3936139"><ele>103.00000000000001</ele><time>2026-04-09T21:59:53.643Z</time></trkpt><trkpt lat="-36.7254193" lon="174.3936952"><ele>103.0</ele><time>2026-04-09T21:59:56.642Z</time></trkpt><trkpt lat="-36.7254605" lon="174.3937703"><ele>103.0</ele><time>2026-04-09T21:59:59.645Z</time></trkpt><trkpt lat="-36.7254781" lon="174.3938481"><ele>103.0</ele><time>2026-04-09T22:00:01.644Z</time></trkpt><trkpt lat="-36.7255121" lon="174.3939512"><ele>103.00000000000001</ele><time>2026-04-09T22:00:04.645Z</time></trkpt><trkpt lat="-36.7255624" lon="174.3940541"><ele>103.0</ele><time>2026-04-09T22:00:07.643Z</time></trkpt><trkpt lat="-36.7255969" lon="174.3941241"><ele>103.33333333333334</ele><time>2026-04-09T22:00:09.643Z</time></trkpt><trkpt lat="-36.725583" lon="174.3942056"><ele>103.66666666666667</ele><time>2026-04-09T22:00:12.644Z</time></trkpt><trkpt lat="-36.7255781" lon="174.3943013"><ele>104.0</ele><time>2026-04-09T22:00:15.645Z</time></trkpt><trkpt lat="-36.7256149" lon="174.3944014"><ele>104.33333333333334</ele><time>2026-04-09T22:00:18.644Z</time></trkpt><trkpt lat="-36.7256387" lon="174.3944996"><ele>104.66666666666667</ele><time>2026-04-09T22:00:19.643Z</time></trkpt><trkpt lat="-36.7255813" lon="174.3946186"><ele>105.0</ele><time>2026-04-09T22:00:21.643Z</time></trkpt><trkpt lat="-36.7255681" lon="174.3947286"><ele>105.0</ele><time>2026-04-09T22:00:23.643Z</time></trkpt><trkpt lat="-36.7255518" lon="174.3948306"><ele>105.0</ele><time>2026-04-09T22:00:25.643Z</time></trkpt><trkpt lat="-36.7255215" lon="174.3949535"><ele>105.0</ele><time>2026-04-09T22:00:27.645Z</time></trkpt><trkpt lat="-36.7254929" lon="174.3950428"><ele>105.0</ele><time>2026-04-09T22:00:29.643Z</time></trkpt><trkpt lat="-36.7254165" lon="174.3951458"><ele>105.0</ele><time>2026-04-09T22:00:31.643Z</time></trkpt><trkpt lat="-36.7253755" lon="174.3952975"><ele>105.0</ele><time>2026-04-09T22:00:33.643Z</time></trkpt><trkpt lat="-36.7253748" lon="174.3954283"><ele>105.0</ele><time>2026-04-09T22:00:35.643Z</time></trkpt><trkpt lat="-36.7253997" lon="174.3955511"><ele>105.0</ele><time>2026-04-09T22:00:37.643Z</time></trkpt><trkpt lat="-36.7254314" lon="174.3956742"><ele>105.0</ele><time>2026-04-09T22:00:39.642Z</time></trkpt><trkpt lat="-36.7254691" lon="174.3957994"><ele>105.0</ele><time>2026-04-09T22:00:41.643Z</time></trkpt><trkpt lat="-36.7254912" lon="174.3959533"><ele>104.75</ele><time>2026-04-09T22:00:43.643Z</time></trkpt><trkpt lat="-36.7255124" lon="174.396123"><ele>104.5</ele><time>2026-04-09T22:00:45.644Z</time></trkpt><trkpt lat="-36.7255424" lon="174.3962709"><ele>104.25</ele><time>2026-04-09T22:00:47.644Z</time></trkpt><trkpt lat="-36.725574" lon="174.396406"><ele>104.0</ele><time>2026-04-09T22:00:49.642Z</time></trkpt><trkpt lat="-36.7256485" lon="174.3964929"><ele>104.0</ele><time>2026-04-09T22:00:51.643Z</time></trkpt><trkpt lat="-36.7257408" lon="174.3965087"><ele>104.0</ele><time>2026-04-09T22:00:53.643Z</time></trkpt><trkpt lat="-36.7258224" lon="174.3964281"><ele>104.0</ele><time>2026-04-09T22:00:55.644Z</time></trkpt><trkpt lat="-36.7258753" lon="174.3963072"><ele>104.0</ele><time>2026-04-09T22:00:57.642Z</time></trkpt><trkpt lat="-36.7259441" lon="174.3961795"><ele>104.0</ele><time>2026-04-09T22:00:59.645Z</time></trkpt><trkpt lat="-36.7259749" lon="174.3960889"><ele>103.99999999999999</ele><time>2026-04-09T22:01:00.645Z</time></trkpt><trkpt lat="-36.7260191" lon="174.3960261"><ele>104.0</ele><time>2026-04-09T22:01:01.645Z</time></trkpt><trkpt lat="-36.7260663" lon="174.3959477"><ele>104.0</ele><time>2026-04-09T22:01:02.643Z</time></trkpt><trkpt lat="-36.7261105" lon="174.3958821"><ele>104.0</ele><time>2026-04-09T22:01:03.645Z</time></trkpt><trkpt lat="-36.7262079" lon="174.395798"><ele>103.99999999999999</ele><time>2026-04-09T22:01:05.643Z</time></trkpt><trkpt lat="-36.7262815" lon="174.3957416"><ele>104.0</ele><time>2026-04-09T22:01:07.643Z</time></trkpt><trkpt lat="-36.726334" lon="174.395682"><ele>102.0</ele><time>2026-04-09T22:01:10.643Z</time></trkpt><trkpt lat="-36.726424" lon="174.3956218"><ele>100.0</ele><time>2026-04-09T22:01:22.644Z</time></trkpt><trkpt lat="-36.7264985" lon="174.3955739"><ele>98.0</ele><time>2026-04-09T22:01:24.643Z</time></trkpt><trkpt lat="-36.7265609" lon="174.3955312"><ele>96.0</ele><time>2026-04-09T22:01:26.642Z</time></trkpt><trkpt lat="-36.7266209" lon="174.3954872"><ele>94.0</ele><time>2026-04-09T22:01:28.643Z</time></trkpt><trkpt lat="-36.7267384" lon="174.395424"><ele>93.33333333333333</ele><time>2026-04-09T22:01:31.644Z</time></trkpt><trkpt lat="-36.7267993" lon="174.3953494"><ele>92.66666666666666</ele><time>2026-04-09T22:01:33.643Z</time></trkpt><trkpt lat="-36.7268516" lon="174.3952892"><ele>92.0</ele><time>2026-04-09T22:01:35.645Z</time></trkpt><trkpt lat="-36.7269202" lon="174.3952184"><ele>91.33333333333333</ele><time>2026-04-09T22:01:38.643Z</time></trkpt><trkpt lat="-36.7269745" lon="174.3951529"><ele>90.66666666666667</ele><time>2026-04-09T22:01:40.642Z</time></trkpt><trkpt lat="-36.7270162" lon="174.3950578"><ele>90.0</ele><time>2026-04-09T22:01:42.644Z</time></trkpt><trkpt lat="-36.7270744" lon="174.395005"><ele>87.6</ele><time>2026-04-09T22:01:44.644Z</time></trkpt><trkpt lat="-36.7271724" lon="174.3949716"><ele>85.2</ele><time>2026-04-09T22:01:47.643Z</time></trkpt><trkpt lat="-36.7272475" lon="174.3949531"><ele>82.8</ele><time>2026-04-09T22:01:48.642Z</time></trkpt><trkpt lat="-36.7273733" lon="174.3949322"><ele>80.4</ele><time>2026-04-09T22:01:50.643Z</time></trkpt><trkpt lat="-36.7274726" lon="174.3949521"><ele>78.0</ele><time>2026-04-09T22:01:52.643Z</time></trkpt><trkpt lat="-36.7275219" lon="174.3950092"><ele>78.0</ele><time>2026-04-09T22:01:53.644Z</time></trkpt><trkpt lat="-36.7276144" lon="174.3951119"><ele>78.0</ele><time>2026-04-09T22:01:55.644Z</time></trkpt><trkpt lat="-36.7276606" lon="174.395179"><ele>78.0</ele><time>2026-04-09T22:01:56.644Z</time></trkpt><trkpt lat="-36.7277086" lon="174.3952441"><ele>78.0</ele><time>2026-04-09T22:01:57.644Z</time></trkpt><trkpt lat="-36.7277595" lon="174.3953171"><ele>78.0</ele><time>2026-04-09T22:01:58.642Z</time></trkpt><trkpt lat="-36.7278149" lon="174.3953758"><ele>78.0</ele><time>2026-04-09T22:01:59.644Z</time></trkpt><trkpt lat="-36.7279015" lon="174.3954548"><ele>77.6</ele><time>2026-04-09T22:02:01.644Z</time></trkpt><trkpt lat="-36.727994" lon="174.3955351"><ele>77.19999999999999</ele><time>2026-04-09T22:02:03.642Z</time></trkpt><trkpt lat="-36.7280496" lon="174.3955989"><ele>76.8</ele><time>2026-04-09T22:02:05.644Z</time></trkpt><trkpt lat="-36.7281453" lon="174.3956606"><ele>76.39999999999999</ele><time>2026-04-09T22:02:07.643Z</time></trkpt><trkpt lat="-36.7282411" lon="174.3956867"><ele>76.0</ele><time>2026-04-09T22:02:09.642Z</time></trkpt><trkpt lat="-36.7283059" lon="174.3957187"><ele>76.0</ele><time>2026-04-09T22:02:10.644Z</time></trkpt><trkpt lat="-36.7284021" lon="174.3957444"><ele>76.0</ele><time>2026-04-09T22:02:12.643Z</time></trkpt><trkpt lat="-36.7284951" lon="174.3958005"><ele>76.0</ele><time>2026-04-09T22:02:14.643Z</time></trkpt><trkpt lat="-36.7285831" lon="174.3958456"><ele>76.0</ele><time>2026-04-09T22:02:16.644Z</time></trkpt><trkpt lat="-36.7286663" lon="174.3958551"><ele>76.0</ele><time>2026-04-09T22:02:18.644Z</time></trkpt><trkpt lat="-36.7287444" lon="174.3958222"><ele>75.0</ele><time>2026-04-09T22:02:21.645Z</time></trkpt><trkpt lat="-36.7288088" lon="174.3957831"><ele>74.0</ele><time>2026-04-09T22:02:23.644Z</time></trkpt><trkpt lat="-36.7288826" lon="174.3957579"><ele>73.0</ele><time>2026-04-09T22:02:25.643Z</time></trkpt><trkpt lat="-36.7289596" lon="174.3957718"><ele>72.0</ele><time>2026-04-09T22:02:27.643Z</time></trkpt><trkpt lat="-36.7290262" lon="174.3957995"><ele>71.0</ele><time>2026-04-09T22:02:29.643Z</time></trkpt><trkpt lat="-36.7290909" lon="174.3958766"><ele>70.0</ele><time>2026-04-09T22:02:32.644Z</time></trkpt><trkpt lat="-36.7291269" lon="174.3959685"><ele>70.0</ele><time>2026-04-09T22:02:34.642Z</time></trkpt><trkpt lat="-36.7291541" lon="174.396067"><ele>70.0</ele><time>2026-04-09T22:02:36.643Z</time></trkpt><trkpt lat="-36.7291784" lon="174.3961535"><ele>70.0</ele><time>2026-04-09T22:02:38.644Z</time></trkpt><trkpt lat="-36.7291683" lon="174.3962355"><ele>70.0</ele><time>2026-04-09T22:02:40.642Z</time></trkpt><trkpt lat="-36.7291149" lon="174.3963152"><ele>70.0</ele><time>2026-04-09T22:02:43.645Z</time></trkpt><trkpt lat="-36.7290569" lon="174.3963743"><ele>70.0</ele><time>2026-04-09T22:02:46.644Z</time></trkpt><trkpt lat="-36.7289942" lon="174.3964435"><ele>72.33333333333333</ele><time>2026-04-09T22:02:49.643Z</time></trkpt><trkpt lat="-36.7289493" lon="174.3965011"><ele>74.66666666666666</ele><time>2026-04-09T22:02:51.643Z</time></trkpt><trkpt lat="-36.7289004" lon="174.3965554"><ele>77.0</ele><time>2026-04-09T22:02:53.645Z</time></trkpt><trkpt lat="-36.728822" lon="174.3966157"><ele>79.33333333333333</ele><time>2026-04-09T22:02:56.643Z</time></trkpt><trkpt lat="-36.7287449" lon="174.3966679"><ele>81.66666666666667</ele><time>2026-04-09T22:02:59.643Z</time></trkpt><trkpt lat="-36.7287079" lon="174.3967362"><ele>84.0</ele><time>2026-04-09T22:03:03.644Z</time></trkpt><trkpt lat="-36.7287791" lon="174.3967751"><ele>84.0</ele><time>2026-04-09T22:03:07.643Z</time></trkpt><trkpt lat="-36.7288537" lon="174.3968115"><ele>84.0</ele><time>2026-04-09T22:03:10.643Z</time></trkpt><trkpt lat="-36.7289303" lon="174.396846"><ele>84.0</ele><time>2026-04-09T22:03:12.644Z</time></trkpt><trkpt lat="-36.7290046" lon="174.3968995"><ele>84.0</ele><time>2026-04-09T22:03:14.644Z</time></trkpt><trkpt lat="-36.7290562" lon="174.3969645"><ele>84.0</ele><time>2026-04-09T22:03:16.643Z</time></trkpt><trkpt lat="-36.7290598" lon="174.3970639"><ele>84.0</ele><time>2026-04-09T22:03:19.643Z</time></trkpt><trkpt lat="-36.7290092" lon="174.3971269"><ele>85.66666666666667</ele><time>2026-04-09T22:03:23.643Z</time></trkpt><trkpt lat="-36.7289586" lon="174.3971966"><ele>87.33333333333333</ele><time>2026-04-09T22:03:26.643Z</time></trkpt><trkpt lat="-36.7288845" lon="174.3972675"><ele>89.0</ele><time>2026-04-09T22:03:28.643Z</time></trkpt><trkpt lat="-36.7288321" lon="174.3973446"><ele>90.66666666666666</ele><time>2026-04-09T22:03:30.643Z</time></trkpt><trkpt lat="-36.7288602" lon="174.397419"><ele>92.33333333333333</ele><time>2026-04-09T22:03:33.643Z</time></trkpt><trkpt lat="-36.7288169" lon="174.3975012"><ele>94.0</ele><time>2026-04-09T22:03:36.644Z</time></trkpt><trkpt lat="-36.7288163" lon="174.397603"><ele>94.0</ele><time>2026-04-09T22:03:40.643Z</time></trkpt><trkpt lat="-36.7288963" lon="174.3976623"><ele>94.0</ele><time>2026-04-09T22:03:43.644Z</time></trkpt><trkpt lat="-36.7289605" lon="174.3976912"><ele>94.0</ele><time>2026-04-09T22:03:45.643Z</time></trkpt><trkpt lat="-36.7290336" lon="174.3977473"><ele>94.0</ele><time>2026-04-09T22:03:47.643Z</time></trkpt><trkpt lat="-36.7290987" lon="174.3978078"><ele>94.0</ele><time>2026-04-09T22:03:49.644Z</time></trkpt><trkpt lat="-36.7291739" lon="174.3978652"><ele>94.0</ele><time>2026-04-09T22:03:51.644Z</time></trkpt><trkpt lat="-36.7292398" lon="174.3979198"><ele>94.0</ele><time>2026-04-09T22:03:53.644Z</time></trkpt><trkpt lat="-36.7293182" lon="174.3979642"><ele>94.0</ele><time>2026-04-09T22:03:55.642Z</time></trkpt><trkpt lat="-36.7293852" lon="174.3980034"><ele>94.0</ele><time>2026-04-09T22:03:57.642Z</time></trkpt><trkpt lat="-36.7294317" lon="174.3980726"><ele>94.0</ele><time>2026-04-09T22:03:59.643Z</time></trkpt><trkpt lat="-36.7294929" lon="174.3981006"><ele>94.0</ele><time>2026-04-09T22:04:01.643Z</time></trkpt><trkpt lat="-36.7295609" lon="174.3981056"><ele>94.0</ele><time>2026-04-09T22:04:03.643Z</time></trkpt><trkpt lat="-36.7296393" lon="174.3981269"><ele>94.0</ele><time>2026-04-09T22:04:05.643Z</time></trkpt><trkpt lat="-36.7297019" lon="174.3981581"><ele>95.16666666666666</ele><time>2026-04-09T22:04:07.643Z</time></trkpt><trkpt lat="-36.7297645" lon="174.39818"><ele>96.33333333333333</ele><time>2026-04-09T22:04:09.642Z</time></trkpt><trkpt lat="-36.7298195" lon="174.3982198"><ele>97.5</ele><time>2026-04-09T22:04:11.643Z</time></trkpt><trkpt lat="-36.7298997" lon="174.3982613"><ele>98.66666666666666</ele><time>2026-04-09T22:04:13.643Z</time></trkpt><trkpt lat="-36.7299814" lon="174.3983016"><ele>99.83333333333333</ele><time>2026-04-09T22:04:15.643Z</time></trkpt><trkpt lat="-36.7300502" lon="174.3983445"><ele>101.0</ele><time>2026-04-09T22:04:17.643Z</time></trkpt><trkpt lat="-36.7301025" lon="174.3984077"><ele>101.0</ele><time>2026-04-09T22:04:19.642Z</time></trkpt><trkpt lat="-36.7301732" lon="174.3984579"><ele>101.0</ele><time>2026-04-09T22:04:22.642Z</time></trkpt><trkpt lat="-36.7302371" lon="174.3984638"><ele>101.0</ele><time>2026-04-09T22:04:24.644Z</time></trkpt><trkpt lat="-36.7302993" lon="174.3985178"><ele>101.0</ele><time>2026-04-09T22:04:26.643Z</time></trkpt><trkpt lat="-36.7303533" lon="174.3985952"><ele>101.0</ele><time>2026-04-09T22:04:28.642Z</time></trkpt><trkpt lat="-36.7304097" lon="174.3986616"><ele>101.0</ele><time>2026-04-09T22:04:30.642Z</time></trkpt><trkpt lat="-36.7304725" lon="174.3986896"><ele>101.0</ele><time>2026-04-09T22:04:32.644Z</time></trkpt><trkpt lat="-36.7305247" lon="174.3987834"><ele>101.85714285714286</ele><time>2026-04-09T22:04:35.644Z</time></trkpt><trkpt lat="-36.7305686" lon="174.3988505"><ele>102.71428571428571</ele><time>2026-04-09T22:04:37.643Z</time></trkpt><trkpt lat="-36.7306278" lon="174.3988867"><ele>103.57142857142858</ele><time>2026-04-09T22:04:40.643Z</time></trkpt><trkpt lat="-36.7306527" lon="174.3988034"><ele>104.42857142857143</ele><time>2026-04-09T22:04:43.642Z</time></trkpt><trkpt lat="-36.7306651" lon="174.3987127"><ele>105.28571428571429</ele><time>2026-04-09T22:04:45.642Z</time></trkpt><trkpt lat="-36.7306752" lon="174.398634"><ele>106.14285714285715</ele><time>2026-04-09T22:04:47.643Z</time></trkpt><trkpt lat="-36.7307519" lon="174.398641"><ele>107.0</ele><time>2026-04-09T22:04:50.644Z</time></trkpt><trkpt lat="-36.7307816" lon="174.3987119"><ele>107.00000000000001</ele><time>2026-04-09T22:04:53.644Z</time></trkpt><trkpt lat="-36.7308311" lon="174.3987641"><ele>107.0</ele><time>2026-04-09T22:04:56.643Z</time></trkpt><trkpt lat="-36.7308997" lon="174.398714"><ele>107.0</ele><time>2026-04-09T22:04:59.645Z</time></trkpt><trkpt lat="-36.7309786" lon="174.3987417"><ele>107.0</ele><time>2026-04-09T22:05:03.643Z</time></trkpt><trkpt lat="-36.7310445" lon="174.3987231"><ele>107.0</ele><time>2026-04-09T22:05:05.644Z</time></trkpt><trkpt lat="-36.7310944" lon="174.3986612"><ele>107.00000000000001</ele><time>2026-04-09T22:05:08.643Z</time></trkpt><trkpt lat="-36.7311506" lon="174.3985838"><ele>107.0</ele><time>2026-04-09T22:05:11.644Z</time></trkpt><trkpt lat="-36.7312208" lon="174.3985748"><ele>107.42857142857143</ele><time>2026-04-09T22:05:13.643Z</time></trkpt><trkpt lat="-36.7312932" lon="174.3985745"><ele>107.85714285714286</ele><time>2026-04-09T22:05:15.642Z</time></trkpt><trkpt lat="-36.7313563" lon="174.3985612"><ele>108.28571428571428</ele><time>2026-04-09T22:05:17.644Z</time></trkpt><trkpt lat="-36.7314357" lon="174.3985397"><ele>108.71428571428572</ele><time>2026-04-09T22:05:19.644Z</time></trkpt><trkpt lat="-36.7314997" lon="174.3985279"><ele>109.14285714285714</ele><time>2026-04-09T22:05:21.644Z</time></trkpt><trkpt lat="-36.7315687" lon="174.3985114"><ele>109.57142857142857</ele><time>2026-04-09T22:05:23.643Z</time></trkpt><trkpt lat="-36.731644" lon="174.3985086"><ele>110.0</ele><time>2026-04-09T22:05:25.643Z</time></trkpt><trkpt lat="-36.7317237" lon="174.3985093"><ele>109.99999999999999</ele><time>2026-04-09T22:05:27.643Z</time></trkpt><trkpt lat="-36.7317943" lon="174.3985094"><ele>110.0</ele><time>2026-04-09T22:05:29.642Z</time></trkpt><trkpt lat="-36.7318876" lon="174.3984944"><ele>110.0</ele><time>2026-04-09T22:05:32.642Z</time></trkpt><trkpt lat="-36.7319534" lon="174.3984912"><ele>110.0</ele><time>2026-04-09T22:05:34.643Z</time></trkpt><trkpt lat="-36.7320291" lon="174.3984956"><ele>109.99999999999999</ele><time>2026-04-09T22:05:36.644Z</time></trkpt><trkpt lat="-36.7321046" lon="174.3985118"><ele>110.0</ele><time>2026-04-09T22:05:38.643Z</time></trkpt><trkpt lat="-36.7321705" lon="174.3985283"><ele>111.14285714285714</ele><time>2026-04-09T22:05:40.644Z</time></trkpt><trkpt lat="-36.7322356" lon="174.3985473"><ele>112.28571428571428</ele><time>2026-04-09T22:05:42.645Z</time></trkpt><trkpt lat="-36.7323068" lon="174.3985606"><ele>113.42857142857142</ele><time>2026-04-09T22:05:44.644Z</time></trkpt><trkpt lat="-36.7323788" lon="174.3985788"><ele>114.57142857142857</ele><time>2026-04-09T22:05:46.643Z</time></trkpt><trkpt lat="-36.7324464" lon="174.3985986"><ele>115.71428571428572</ele><time>2026-04-09T22:05:48.643Z</time></trkpt><trkpt lat="-36.7325169" lon="174.3986229"><ele>116.85714285714285</ele><time>2026-04-09T22:05:50.643Z</time></trkpt><trkpt lat="-36.7325878" lon="174.3986473"><ele>118.0</ele><time>2026-04-09T22:05:52.644Z</time></trkpt><trkpt lat="-36.7326564" lon="174.3986926"><ele>118.0</ele><time>2026-04-09T22:05:54.643Z</time></trkpt><trkpt lat="-36.7327194" lon="174.398746"><ele>118.0</ele><time>2026-04-09T22:05:56.645Z</time></trkpt><trkpt lat="-36.7327838" lon="174.3987903"><ele>118.0</ele><time>2026-04-09T22:05:58.645Z</time></trkpt><trkpt lat="-36.7328523" lon="174.3988372"><ele>118.0</ele><time>2026-04-09T22:06:00.644Z</time></trkpt><trkpt lat="-36.7329171" lon="174.3988883"><ele>118.0</ele><time>2026-04-09T22:06:02.642Z</time></trkpt><trkpt lat="-36.7329686" lon="174.3989465"><ele>118.0</ele><time>2026-04-09T22:06:04.643Z</time></trkpt><trkpt lat="-36.7330225" lon="174.3989947"><ele>118.0</ele><time>2026-04-09T22:06:06.643Z</time></trkpt><trkpt lat="-36.7330994" lon="174.3990234"><ele>118.00000000000001</ele><time>2026-04-09T22:06:09.642Z</time></trkpt><trkpt lat="-36.7331737" lon="174.398997"><ele>118.0</ele><time>2026-04-09T22:06:13.643Z</time></trkpt><trkpt lat="-36.7332497" lon="174.3989436"><ele>118.0</ele><time>2026-04-09T22:06:16.644Z</time></trkpt><trkpt lat="-36.7333111" lon="174.3988957"><ele>118.0</ele><time>2026-04-09T22:06:18.643Z</time></trkpt><trkpt lat="-36.7333488" lon="174.3988176"><ele>118.00000000000001</ele><time>2026-04-09T22:06:20.643Z</time></trkpt><trkpt lat="-36.7333769" lon="174.3987406"><ele>118.0</ele><time>2026-04-09T22:06:23.644Z</time></trkpt><trkpt lat="-36.7334095" lon="174.398642"><ele>118.0</ele><time>2026-04-09T22:06:26.644Z</time></trkpt><trkpt lat="-36.7334054" lon="174.398535"><ele>118.0</ele><time>2026-04-09T22:06:29.645Z</time></trkpt><trkpt lat="-36.7333911" lon="174.3984301"><ele>118.0</ele><time>2026-04-09T22:06:32.643Z</time></trkpt><trkpt lat="-36.7334056" lon="174.3983498"><ele>118.0</ele><time>2026-04-09T22:06:34.643Z</time></trkpt><trkpt lat="-36.7334144" lon="174.3982666"><ele>118.0</ele><time>2026-04-09T22:06:36.644Z</time></trkpt><trkpt lat="-36.7334164" lon="174.3981817"><ele>118.0</ele><time>2026-04-09T22:06:38.645Z</time></trkpt><trkpt lat="-36.7334372" lon="174.3980922"><ele>118.0</ele><time>2026-04-09T22:06:41.643Z</time></trkpt><trkpt lat="-36.7334969" lon="174.3980069"><ele>117.16666666666667</ele><time>2026-04-09T22:06:44.643Z</time></trkpt><trkpt lat="-36.733571" lon="174.3979753"><ele>116.33333333333334</ele><time>2026-04-09T22:06:47.643Z</time></trkpt><trkpt lat="-36.7336436" lon="174.397938"><ele>115.5</ele><time>2026-04-09T22:08:37.642Z</time></trkpt><trkpt lat="-36.7337278" lon="174.3979038"><ele>114.66666666666666</ele><time>2026-04-09T22:08:41.644Z</time></trkpt><trkpt lat="-36.7338078" lon="174.3978752"><ele>113.83333333333333</ele><time>2026-04-09T22:08:44.643Z</time></trkpt><trkpt lat="-36.7338861" lon="174.3978626"><ele>113.0</ele><time>2026-04-09T22:08:47.642Z</time></trkpt><trkpt lat="-36.7339744" lon="174.3978598"><ele>112.99999999999999</ele><time>2026-04-09T22:08:50.642Z</time></trkpt><trkpt lat="-36.7340354" lon="174.3977899"><ele>113.0</ele><time>2026-04-09T22:09:00.643Z</time></trkpt><trkpt lat="-36.7340071" lon="174.3977088"><ele>113.0</ele><time>2026-04-09T22:09:01.642Z</time></trkpt><trkpt lat="-36.7339957" lon="174.3975876"><ele>113.0</ele><time>2026-04-09T22:09:03.644Z</time></trkpt><trkpt lat="-36.7339879" lon="174.397469"><ele>112.99999999999999</ele><time>2026-04-09T22:09:05.642Z</time></trkpt><trkpt lat="-36.7340168" lon="174.3973566"><ele>113.0</ele><time>2026-04-09T22:09:07.644Z</time></trkpt><trkpt lat="-36.7341209" lon="174.3973052"><ele>112.99999999999999</ele><time>2026-04-09T22:09:09.644Z</time></trkpt><trkpt lat="-36.7341852" lon="174.3972867"><ele>113.0</ele><time>2026-04-09T22:09:10.643Z</time></trkpt><trkpt lat="-36.7343049" lon="174.3972681"><ele>113.0</ele><time>2026-04-09T22:09:12.642Z</time></trkpt><trkpt lat="-36.7343739" lon="174.3972586"><ele>113.0</ele><time>2026-04-09T22:09:13.643Z</time></trkpt><trkpt lat="-36.7344416" lon="174.3972012"><ele>112.99999999999999</ele><time>2026-04-09T22:09:15.645Z</time></trkpt><trkpt lat="-36.7344996" lon="174.3971196"><ele>113.0</ele><time>2026-04-09T22:09:17.642Z</time></trkpt><trkpt lat="-36.7345619" lon="174.3969946"><ele>108.60000000000001</ele><time>2026-04-09T22:09:19.644Z</time></trkpt><trkpt lat="-36.7346693" lon="174.3969493"><ele>104.20000000000002</ele><time>2026-04-09T22:09:21.644Z</time></trkpt><trkpt lat="-36.7347759" lon="174.396961"><ele>99.8</ele><time>2026-04-09T22:09:23.644Z</time></trkpt><trkpt lat="-36.7348608" lon="174.3969948"><ele>95.4</ele><time>2026-04-09T22:09:25.643Z</time></trkpt><trkpt lat="-36.7349333" lon="174.3970054"><ele>91.0</ele><time>2026-04-09T22:09:27.643Z</time></trkpt><trkpt lat="-36.7349929" lon="174.397059"><ele>91.0</ele><time>2026-04-09T22:09:30.643Z</time></trkpt><trkpt lat="-36.7350211" lon="174.3971311"><ele>91.0</ele><time>2026-04-09T22:09:33.644Z</time></trkpt><trkpt lat="-36.7350884" lon="174.3971963"><ele>91.0</ele><time>2026-04-09T22:09:36.643Z</time></trkpt><trkpt lat="-36.7351364" lon="174.3972704"><ele>91.0</ele><time>2026-04-09T22:09:38.643Z</time></trkpt><trkpt lat="-36.7352008" lon="174.3973075"><ele>91.0</ele><time>2026-04-09T22:09:41.644Z</time></trkpt><trkpt lat="-36.7352654" lon="174.3973494"><ele>91.0</ele><time>2026-04-09T22:09:43.644Z</time></trkpt><trkpt lat="-36.7353417" lon="174.3973644"><ele>91.0</ele><time>2026-04-09T22:09:46.644Z</time></trkpt><trkpt lat="-36.7354152" lon="174.3973849"><ele>91.83333333333333</ele><time>2026-04-09T22:09:49.642Z</time></trkpt><trkpt lat="-36.7354906" lon="174.3974149"><ele>92.66666666666666</ele><time>2026-04-09T22:09:53.645Z</time></trkpt><trkpt lat="-36.7355494" lon="174.3974765"><ele>93.5</ele><time>2026-04-09T22:09:55.643Z</time></trkpt><trkpt lat="-36.7355894" lon="174.397546"><ele>94.33333333333333</ele><time>2026-04-09T22:09:56.642Z</time></trkpt><trkpt lat="-36.7356633" lon="174.3976129"><ele>95.16666666666667</ele><time>2026-04-09T22:09:58.642Z</time></trkpt><trkpt lat="-36.7357317" lon="174.3976366"><ele>96.0</ele><time>2026-04-09T22:10:00.645Z</time></trkpt><trkpt lat="-36.7357959" lon="174.3976702"><ele>96.0</ele><time>2026-04-09T22:10:02.644Z</time></trkpt><trkpt lat="-36.7358433" lon="174.3977597"><ele>96.0</ele><time>2026-04-09T22:10:05.644Z</time></trkpt><trkpt lat="-36.7358786" lon="174.3978438"><ele>96.0</ele><time>2026-04-09T22:10:07.644Z</time></trkpt><trkpt lat="-36.7358781" lon="174.3979486"><ele>96.0</ele><time>2026-04-09T22:10:10.643Z</time></trkpt><trkpt lat="-36.7358455" lon="174.398022"><ele>96.0</ele><time>2026-04-09T22:10:12.643Z</time></trkpt><trkpt lat="-36.7357901" lon="174.3980981"><ele>96.0</ele><time>2026-04-09T22:10:15.643Z</time></trkpt><trkpt lat="-36.7358305" lon="174.3982022"><ele>95.5</ele><time>2026-04-09T22:10:18.642Z</time></trkpt><trkpt lat="-36.7358741" lon="174.3982991"><ele>95.0</ele><time>2026-04-09T22:10:20.643Z</time></trkpt><trkpt lat="-36.7359283" lon="174.3983393"><ele>94.5</ele><time>2026-04-09T22:10:21.643Z</time></trkpt><trkpt lat="-36.7360251" lon="174.3983937"><ele>94.0</ele><time>2026-04-09T22:10:23.642Z</time></trkpt><trkpt lat="-36.7361121" lon="174.3983543"><ele>93.5</ele><time>2026-04-09T22:10:25.643Z</time></trkpt><trkpt lat="-36.7361555" lon="174.3982513"><ele>93.0</ele><time>2026-04-09T22:10:27.644Z</time></trkpt><trkpt lat="-36.7361906" lon="174.3981494"><ele>93.0</ele><time>2026-04-09T22:10:29.644Z</time></trkpt><trkpt lat="-36.7362351" lon="174.3980798"><ele>93.0</ele><time>2026-04-09T22:10:31.644Z</time></trkpt><trkpt lat="-36.7363023" lon="174.3979917"><ele>93.0</ele><time>2026-04-09T22:10:33.644Z</time></trkpt><trkpt lat="-36.7363993" lon="174.3979275"><ele>93.0</ele><time>2026-04-09T22:10:35.644Z</time></trkpt><trkpt lat="-36.7364809" lon="174.3979167"><ele>93.0</ele><time>2026-04-09T22:10:36.643Z</time></trkpt><trkpt lat="-36.7365488" lon="174.3978933"><ele>93.0</ele><time>2026-04-09T22:10:37.644Z</time></trkpt><trkpt lat="-36.7366192" lon="174.3978801"><ele>93.0</ele><time>2026-04-09T22:10:38.643Z</time></trkpt><trkpt lat="-36.7366712" lon="174.397932"><ele>93.0</ele><time>2026-04-09T22:10:39.642Z</time></trkpt><trkpt lat="-36.7367288" lon="174.397983"><ele>93.0</ele><time>2026-04-09T22:10:40.645Z</time></trkpt><trkpt lat="-36.736749" lon="174.3980773"><ele>93.0</ele><time>2026-04-09T22:10:42.642Z</time></trkpt><trkpt lat="-36.7367811" lon="174.3979864"><ele>93.0</ele><time>2026-04-09T22:10:45.643Z</time></trkpt><trkpt lat="-36.7367526" lon="174.3978997"><ele>93.0</ele><time>2026-04-09T22:10:47.643Z</time></trkpt><trkpt lat="-36.7366784" lon="174.3978483"><ele>90.83333333333333</ele><time>2026-04-09T22:10:49.644Z</time></trkpt><trkpt lat="-36.7365645" lon="174.3978194"><ele>88.66666666666667</ele><time>2026-04-09T22:10:51.643Z</time></trkpt><trkpt lat="-36.7365119" lon="174.3977617"><ele>86.5</ele><time>2026-04-09T22:10:53.644Z</time></trkpt><trkpt lat="-36.7365239" lon="174.3976822"><ele>84.33333333333334</ele><time>2026-04-09T22:10:54.642Z</time></trkpt><trkpt lat="-36.7365293" lon="174.3975543"><ele>82.16666666666667</ele><time>2026-04-09T22:10:56.644Z</time></trkpt><trkpt lat="-36.7365481" lon="174.397448"><ele>80.0</ele><time>2026-04-09T22:10:58.643Z</time></trkpt><trkpt lat="-36.736595" lon="174.3973658"><ele>80.0</ele><time>2026-04-09T22:11:00.643Z</time></trkpt><trkpt lat="-36.7365211" lon="174.3972738"><ele>80.0</ele><time>2026-04-09T22:11:03.643Z</time></trkpt><trkpt lat="-36.7364621" lon="174.3971988"><ele>80.0</ele><time>2026-04-09T22:11:05.643Z</time></trkpt><trkpt lat="-36.7364394" lon="174.3970852"><ele>80.0</ele><time>2026-04-09T22:11:07.643Z</time></trkpt><trkpt lat="-36.7364051" lon="174.3970073"><ele>80.0</ele><time>2026-04-09T22:11:09.643Z</time></trkpt><trkpt lat="-36.7363655" lon="174.3969358"><ele>80.0</ele><time>2026-04-09T22:11:10.643Z</time></trkpt><trkpt lat="-36.7363514" lon="174.3967964"><ele>79.5</ele><time>2026-04-09T22:11:12.643Z</time></trkpt><trkpt lat="-36.7362622" lon="174.3967445"><ele>79.0</ele><time>2026-04-09T22:11:14.645Z</time></trkpt><trkpt lat="-36.736175" lon="174.3966955"><ele>78.5</ele><time>2026-04-09T22:11:16.642Z</time></trkpt><trkpt lat="-36.7361564" lon="174.3966197"><ele>78.0</ele><time>2026-04-09T22:11:17.645Z</time></trkpt><trkpt lat="-36.7360919" lon="174.3965135"><ele>77.5</ele><time>2026-04-09T22:11:19.643Z</time></trkpt><trkpt lat="-36.7360263" lon="174.3964781"><ele>77.0</ele><time>2026-04-09T22:11:21.643Z</time></trkpt><trkpt lat="-36.7359531" lon="174.396445"><ele>77.0</ele><time>2026-04-09T22:11:23.643Z</time></trkpt><trkpt lat="-36.7359155" lon="174.3963678"><ele>77.0</ele><time>2026-04-09T22:11:25.643Z</time></trkpt><trkpt lat="-36.7358785" lon="174.3962803"><ele>77.0</ele><time>2026-04-09T22:11:27.642Z</time></trkpt><trkpt lat="-36.7358242" lon="174.3961919"><ele>77.0</ele><time>2026-04-09T22:11:44.644Z</time></trkpt><trkpt lat="-36.7357722" lon="174.3961402"><ele>77.0</ele><time>2026-04-09T22:11:46.643Z</time></trkpt><trkpt lat="-36.7357157" lon="174.3960742"><ele>77.0</ele><time>2026-04-09T22:11:48.642Z</time></trkpt><trkpt lat="-36.7356531" lon="174.396026"><ele>73.6</ele><time>2026-04-09T22:11:49.644Z</time></trkpt><trkpt lat="-36.7355581" lon="174.3959607"><ele>70.2</ele><time>2026-04-09T22:11:51.643Z</time></trkpt><trkpt lat="-36.7354893" lon="174.3959065"><ele>66.8</ele><time>2026-04-09T22:11:53.643Z</time></trkpt><trkpt lat="-36.7354275" lon="174.3958506"><ele>63.4</ele><time>2026-04-09T22:11:54.643Z</time></trkpt><trkpt lat="-36.7353277" lon="174.3957704"><ele>60.0</ele><time>2026-04-09T22:11:56.644Z</time></trkpt><trkpt lat="-36.7352257" lon="174.3957104"><ele>59.2</ele><time>2026-04-09T22:11:58.643Z</time></trkpt><trkpt lat="-36.7351671" lon="174.395679"><ele>58.4</ele><time>2026-04-09T22:11:59.643Z</time></trkpt><trkpt lat="-36.7351013" lon="174.395575"><ele>57.599999999999994</ele><time>2026-04-09T22:12:01.644Z</time></trkpt><trkpt lat="-36.7350663" lon="174.3954543"><ele>56.8</ele><time>2026-04-09T22:12:03.643Z</time></trkpt><trkpt lat="-36.7350994" lon="174.3953272"><ele>56.0</ele><time>2026-04-09T22:12:05.643Z</time></trkpt><trkpt lat="-36.7351736" lon="174.395314"><ele>54.50000000000001</ele><time>2026-04-09T22:12:06.643Z</time></trkpt><trkpt lat="-36.7352807" lon="174.3953113"><ele>53.0</ele><time>2026-04-09T22:12:08.642Z</time></trkpt><trkpt lat="-36.7353478" lon="174.3953294"><ele>51.5</ele><time>2026-04-09T22:12:09.644Z</time></trkpt><trkpt lat="-36.7354219" lon="174.3953992"><ele>50.0</ele><time>2026-04-09T22:12:11.643Z</time></trkpt><trkpt lat="-36.735517" lon="174.3954115"><ele>48.5</ele><time>2026-04-09T22:12:14.642Z</time></trkpt><trkpt lat="-36.7355199" lon="174.3953261"><ele>47.0</ele><time>2026-04-09T22:12:16.644Z</time></trkpt><trkpt lat="-36.7354907" lon="174.3952459"><ele>47.0</ele><time>2026-04-09T22:12:17.644Z</time></trkpt><trkpt lat="-36.7354492" lon="174.3951732"><ele>47.0</ele><time>2026-04-09T22:12:18.642Z</time></trkpt><trkpt lat="-36.7354096" lon="174.3951103"><ele>47.0</ele><time>2026-04-09T22:12:19.642Z</time></trkpt><trkpt lat="-36.7353278" lon="174.3949894"><ele>47.0</ele><time>2026-04-09T22:12:21.643Z</time></trkpt><trkpt lat="-36.7352668" lon="174.3949133"><ele>47.0</ele><time>2026-04-09T22:12:23.644Z</time></trkpt><trkpt lat="-36.7352013" lon="174.3949181"><ele>47.0</ele><time>2026-04-09T22:12:24.643Z</time></trkpt><trkpt lat="-36.7351384" lon="174.3949243"><ele>47.0</ele><time>2026-04-09T22:12:25.643Z</time></trkpt><trkpt lat="-36.7350595" lon="174.3948997"><ele>47.0</ele><time>2026-04-09T22:12:27.644Z</time></trkpt><trkpt lat="-36.7350225" lon="174.3947895"><ele>47.0</ele><time>2026-04-09T22:12:29.642Z</time></trkpt><trkpt lat="-36.7350492" lon="174.3946601"><ele>47.0</ele><time>2026-04-09T22:12:31.643Z</time></trkpt><trkpt lat="-36.7350034" lon="174.3944926"><ele>47.0</ele><time>2026-04-09T22:12:33.643Z</time></trkpt><trkpt lat="-36.7349626" lon="174.3944059"><ele>47.0</ele><time>2026-04-09T22:12:34.643Z</time></trkpt><trkpt lat="-36.7349288" lon="174.3942952"><ele>47.0</ele><time>2026-04-09T22:12:36.643Z</time></trkpt><trkpt lat="-36.7349444" lon="174.3941717"><ele>47.0</ele><time>2026-04-09T22:12:38.642Z</time></trkpt><trkpt lat="-36.7350258" lon="174.3940495"><ele>47.0</ele><time>2026-04-09T22:12:40.642Z</time></trkpt><trkpt lat="-36.7350626" lon="174.3939725"><ele>47.0</ele><time>2026-04-09T22:12:41.642Z</time></trkpt><trkpt lat="-36.735091" lon="174.3939015"><ele>45.5</ele><time>2026-04-09T22:12:42.643Z</time></trkpt><trkpt lat="-36.7350894" lon="174.393772"><ele>44.0</ele><time>2026-04-09T22:12:44.644Z</time></trkpt><trkpt lat="-36.7350765" lon="174.3936504"><ele>42.5</ele><time>2026-04-09T22:12:46.644Z</time></trkpt><trkpt lat="-36.7349826" lon="174.3935792"><ele>41.0</ele><time>2026-04-09T22:12:48.644Z</time></trkpt><trkpt lat="-36.7349125" lon="174.3935574"><ele>39.5</ele><time>2026-04-09T22:12:49.644Z</time></trkpt><trkpt lat="-36.7348621" lon="174.3935059"><ele>38.0</ele><time>2026-04-09T22:12:50.643Z</time></trkpt><trkpt lat="-36.7347767" lon="174.3933921"><ele>38.0</ele><time>2026-04-09T22:12:52.643Z</time></trkpt><trkpt lat="-36.7347227" lon="174.3932977"><ele>38.0</ele><time>2026-04-09T22:12:54.643Z</time></trkpt><trkpt lat="-36.7346665" lon="174.3932347"><ele>38.0</ele><time>2026-04-09T22:12:56.645Z</time></trkpt><trkpt lat="-36.7346093" lon="174.3931779"><ele>38.0</ele><time>2026-04-09T22:12:58.644Z</time></trkpt><trkpt lat="-36.7345539" lon="174.3930966"><ele>38.0</ele><time>2026-04-09T22:13:01.643Z</time></trkpt><trkpt lat="-36.7344407" lon="174.3930648"><ele>38.0</ele><time>2026-04-09T22:13:03.644Z</time></trkpt><trkpt lat="-36.7343719" lon="174.3930922"><ele>38.599999999999994</ele><time>2026-04-09T22:13:04.644Z</time></trkpt><trkpt lat="-36.7342644" lon="174.3930756"><ele>39.199999999999996</ele><time>2026-04-09T22:13:06.642Z</time></trkpt><trkpt lat="-36.7342017" lon="174.392961"><ele>39.8</ele><time>2026-04-09T22:13:08.643Z</time></trkpt><trkpt lat="-36.7341565" lon="174.3928648"><ele>40.4</ele><time>2026-04-09T22:13:10.643Z</time></trkpt><trkpt lat="-36.7341938" lon="174.3927422"><ele>41.0</ele><time>2026-04-09T22:13:13.643Z</time></trkpt><trkpt lat="-36.7342948" lon="174.3926514"><ele>38.8</ele><time>2026-04-09T22:13:15.644Z</time></trkpt><trkpt lat="-36.7343361" lon="174.3925319"><ele>36.599999999999994</ele><time>2026-04-09T22:13:17.642Z</time></trkpt><trkpt lat="-36.7343077" lon="174.3924338"><ele>34.4</ele><time>2026-04-09T22:13:19.642Z</time></trkpt><trkpt lat="-36.7342779" lon="174.3923644"><ele>32.2</ele><time>2026-04-09T22:13:20.644Z</time></trkpt><trkpt lat="-36.7341976" lon="174.3922415"><ele>30.0</ele><time>2026-04-09T22:13:22.643Z</time></trkpt><trkpt lat="-36.7341331" lon="174.3921901"><ele>29.0</ele><time>2026-04-09T22:13:23.644Z</time></trkpt><trkpt lat="-36.734017" lon="174.3921596"><ele>28.0</ele><time>2026-04-09T22:13:25.644Z</time></trkpt><trkpt lat="-36.7339278" lon="174.3921364"><ele>27.0</ele><time>2026-04-09T22:13:27.643Z</time></trkpt><trkpt lat="-36.7338151" lon="174.3921238"><ele>26.0</ele><time>2026-04-09T22:13:29.643Z</time></trkpt><trkpt lat="-36.7337449" lon="174.3921304"><ele>25.0</ele><time>2026-04-09T22:13:30.642Z</time></trkpt><trkpt lat="-36.7336718" lon="174.3921357"><ele>25.000000000000004</ele><time>2026-04-09T22:13:31.644Z</time></trkpt><trkpt lat="-36.7336021" lon="174.3920828"><ele>25.0</ele><time>2026-04-09T22:13:32.644Z</time></trkpt><trkpt lat="-36.7335218" lon="174.3919687"><ele>25.0</ele><time>2026-04-09T22:13:34.643Z</time></trkpt><trkpt lat="-36.7334613" lon="174.3918669"><ele>25.0</ele><time>2026-04-09T22:13:36.645Z</time></trkpt><trkpt lat="-36.7334183" lon="174.3918033"><ele>25.000000000000004</ele><time>2026-04-09T22:13:38.643Z</time></trkpt><trkpt lat="-36.7334847" lon="174.3917781"><ele>25.0</ele><time>2026-04-09T22:14:06.642Z</time></trkpt><trkpt lat="-36.7335392" lon="174.3918421"><ele>25.000000000000004</ele><time>2026-04-09T22:14:10.644Z</time></trkpt><trkpt lat="-36.733634" lon="174.3918823"><ele>25.0</ele><time>2026-04-09T22:14:13.642Z</time></trkpt><trkpt lat="-36.7337159" lon="174.3919025"><ele>25.0</ele><time>2026-04-09T22:14:15.642Z</time></trkpt><trkpt lat="-36.7337973" lon="174.3919383"><ele>25.0</ele><time>2026-04-09T22:14:17.643Z</time></trkpt><trkpt lat="-36.733871" lon="174.3919563"><ele>25.000000000000004</ele><time>2026-04-09T22:14:19.645Z</time></trkpt><trkpt lat="-36.7339399" lon="174.3919544"><ele>25.0</ele><time>2026-04-09T22:14:21.644Z</time></trkpt><trkpt lat="-36.7340089" lon="174.3919602"><ele>25.000000000000004</ele><time>2026-04-09T22:14:23.643Z</time></trkpt><trkpt lat="-36.7340795" lon="174.392012"><ele>25.0</ele><time>2026-04-09T22:14:25.643Z</time></trkpt><trkpt lat="-36.734145" lon="174.3920781"><ele>25.0</ele><time>2026-04-09T22:14:27.644Z</time></trkpt><trkpt lat="-36.7342168" lon="174.392143"><ele>25.0</ele><time>2026-04-09T22:14:29.643Z</time></trkpt><trkpt lat="-36.7342864" lon="174.3922007"><ele>25.000000000000004</ele><time>2026-04-09T22:14:31.643Z</time></trkpt><trkpt lat="-36.734357" lon="174.3922724"><ele>25.0</ele><time>2026-04-09T22:14:33.644Z</time></trkpt><trkpt lat="-36.7344214" lon="174.3923209"><ele>25.833333333333336</ele><time>2026-04-09T22:14:35.643Z</time></trkpt><trkpt lat="-36.7344793" lon="174.3923731"><ele>26.666666666666668</ele><time>2026-04-09T22:14:37.644Z</time></trkpt><trkpt lat="-36.7345309" lon="174.3924381"><ele>27.5</ele><time>2026-04-09T22:14:39.643Z</time></trkpt><trkpt lat="-36.7345888" lon="174.3925305"><ele>28.333333333333336</ele><time>2026-04-09T22:14:42.643Z</time></trkpt><trkpt lat="-36.7346459" lon="174.3926021"><ele>29.166666666666668</ele><time>2026-04-09T22:14:45.644Z</time></trkpt><trkpt lat="-36.7347032" lon="174.3926446"><ele>30.0</ele><time>2026-04-09T22:14:47.645Z</time></trkpt><trkpt lat="-36.7347527" lon="174.3927049"><ele>30.0</ele><time>2026-04-09T22:14:49.642Z</time></trkpt><trkpt lat="-36.734795" lon="174.392767"><ele>30.0</ele><time>2026-04-09T22:14:51.644Z</time></trkpt><trkpt lat="-36.7348306" lon="174.3928453"><ele>30.0</ele><time>2026-04-09T22:14:53.642Z</time></trkpt><trkpt lat="-36.7348636" lon="174.3929333"><ele>30.0</ele><time>2026-04-09T22:14:55.645Z</time></trkpt><trkpt lat="-36.7349003" lon="174.3930266"><ele>30.0</ele><time>2026-04-09T22:14:57.644Z</time></trkpt><trkpt lat="-36.734934" lon="174.3930957"><ele>30.0</ele><time>2026-04-09T22:14:59.644Z</time></trkpt><trkpt lat="-36.7350231" lon="174.3931435"><ele>30.333333333333332</ele><time>2026-04-09T22:15:02.643Z</time></trkpt><trkpt lat="-36.7351055" lon="174.3931468"><ele>30.666666666666664</ele><time>2026-04-09T22:15:04.644Z</time></trkpt><trkpt lat="-36.7351822" lon="174.3931474"><ele>31.0</ele><time>2026-04-09T22:15:06.645Z</time></trkpt><trkpt lat="-36.735268" lon="174.393134"><ele>31.333333333333332</ele><time>2026-04-09T22:15:08.644Z</time></trkpt><trkpt lat="-36.7353407" lon="174.3931449"><ele>31.666666666666664</ele><time>2026-04-09T22:15:09.642Z</time></trkpt><trkpt lat="-36.7354437" lon="174.3931413"><ele>32.0</ele><time>2026-04-09T22:15:11.642Z</time></trkpt><trkpt lat="-36.7355303" lon="174.3931188"><ele>32.0</ele><time>2026-04-09T22:15:13.642Z</time></trkpt><trkpt lat="-36.7356252" lon="174.3930384"><ele>32.0</ele><time>2026-04-09T22:15:15.644Z</time></trkpt><trkpt lat="-36.7357006" lon="174.3930155"><ele>32.0</ele><time>2026-04-09T22:15:17.644Z</time></trkpt><trkpt lat="-36.7357859" lon="174.3929969"><ele>32.0</ele><time>2026-04-09T22:15:19.643Z</time></trkpt><trkpt lat="-36.7358819" lon="174.3930378"><ele>32.0</ele><time>2026-04-09T22:15:21.642Z</time></trkpt><trkpt lat="-36.7359504" lon="174.3931026"><ele>31.999999999999996</ele><time>2026-04-09T22:15:23.643Z</time></trkpt><trkpt lat="-36.7358972" lon="174.3931706"><ele>32.0</ele><time>2026-04-09T22:15:26.643Z</time></trkpt><trkpt lat="-36.7358695" lon="174.3932732"><ele>32.0</ele><time>2026-04-09T22:15:29.643Z</time></trkpt><trkpt lat="-36.7358683" lon="174.3933755"><ele>32.0</ele><time>2026-04-09T22:15:32.643Z</time></trkpt><trkpt lat="-36.7358303" lon="174.393467"><ele>31.999999999999996</ele><time>2026-04-09T22:15:35.643Z</time></trkpt><trkpt lat="-36.735824" lon="174.3935613"><ele>32.0</ele><time>2026-04-09T22:15:38.642Z</time></trkpt><trkpt lat="-36.7358315" lon="174.3936433"><ele>31.999999999999996</ele><time>2026-04-09T22:15:41.643Z</time></trkpt><trkpt lat="-36.735769" lon="174.3937031"><ele>32.0</ele><time>2026-04-09T22:15:45.643Z</time></trkpt><trkpt lat="-36.7356987" lon="174.3936494"><ele>32.0</ele><time>2026-04-09T22:15:49.643Z</time></trkpt><trkpt lat="-36.7356463" lon="174.3936022"><ele>32.0</ele><time>2026-04-09T22:15:52.642Z</time></trkpt><trkpt lat="-36.7356078" lon="174.3935051"><ele>31.999999999999996</ele><time>2026-04-09T22:15:55.643Z</time></trkpt><trkpt lat="-36.7355284" lon="174.3934661"><ele>32.0</ele><time>2026-04-09T22:15:58.643Z</time></trkpt><trkpt lat="-36.7354942" lon="174.393555"><ele>31.999999999999996</ele><time>2026-04-09T22:16:02.643Z</time></trkpt><trkpt lat="-36.7355319" lon="174.3936541"><ele>32.0</ele><time>2026-04-09T22:16:05.643Z</time></trkpt><trkpt lat="-36.73556" lon="174.3937554"><ele>32.0</ele><time>2026-04-09T22:16:08.643Z</time></trkpt><trkpt lat="-36.7355683" lon="174.3938465"><ele>32.0</ele><time>2026-04-09T22:16:11.642Z</time></trkpt><trkpt lat="-36.735503" lon="174.3939092"><ele>31.999999999999996</ele><time>2026-04-09T22:16:14.643Z</time></trkpt><trkpt lat="-36.7355041" lon="174.3939891"><ele>32.0</ele><time>2026-04-09T22:16:16.642Z</time></trkpt><trkpt lat="-36.7355248" lon="174.3940959"><ele>31.999999999999996</ele><time>2026-04-09T22:16:19.645Z</time></trkpt><trkpt lat="-36.7355846" lon="174.3941248"><ele>32.0</ele><time>2026-04-09T22:16:21.643Z</time></trkpt><trkpt lat="-36.7356541" lon="174.3940389"><ele>32.0</ele><time>2026-04-09T22:16:24.642Z</time></trkpt><trkpt lat="-36.7356959" lon="174.3939655"><ele>32.0</ele><time>2026-04-09T22:16:26.643Z</time></trkpt><trkpt lat="-36.7357587" lon="174.3939087"><ele>31.999999999999996</ele><time>2026-04-09T22:16:28.642Z</time></trkpt><trkpt lat="-36.7358281" lon="174.3938696"><ele>32.0</ele><time>2026-04-09T22:16:30.643Z</time></trkpt><trkpt lat="-36.7358769" lon="174.3937802"><ele>31.999999999999996</ele><time>2026-04-09T22:16:33.644Z</time></trkpt><trkpt lat="-36.7358911" lon="174.3936939"><ele>32.0</ele><time>2026-04-09T22:16:35.642Z</time></trkpt><trkpt lat="-36.7359939" lon="174.3935637"><ele>32.0</ele><time>2026-04-09T22:16:38.643Z</time></trkpt><trkpt lat="-36.7360522" lon="174.393528"><ele>32.0</ele><time>2026-04-09T22:16:39.642Z</time></trkpt><trkpt lat="-36.7361136" lon="174.3934886"><ele>31.999999999999996</ele><time>2026-04-09T22:16:40.642Z</time></trkpt><trkpt lat="-36.7361716" lon="174.3934026"><ele>32.0</ele><time>2026-04-09T22:16:42.643Z</time></trkpt><trkpt lat="-36.7362068" lon="174.3933067"><ele>30.999999999999996</ele><time>2026-04-09T22:16:44.644Z</time></trkpt><trkpt lat="-36.7362541" lon="174.3932315"><ele>30.0</ele><time>2026-04-09T22:16:45.642Z</time></trkpt><trkpt lat="-36.736286" lon="174.3931614"><ele>29.0</ele><time>2026-04-09T22:16:46.642Z</time></trkpt><trkpt lat="-36.7363032" lon="174.3930682"><ele>28.0</ele><time>2026-04-09T22:16:47.643Z</time></trkpt><trkpt lat="-36.7363122" lon="174.3929879"><ele>26.999999999999996</ele><time>2026-04-09T22:16:48.644Z</time></trkpt><trkpt lat="-36.7362712" lon="174.3929024"><ele>26.0</ele><time>2026-04-09T22:16:50.643Z</time></trkpt><trkpt lat="-36.7362791" lon="174.3927876"><ele>25.999999999999996</ele><time>2026-04-09T22:16:52.644Z</time></trkpt><trkpt lat="-36.7363289" lon="174.3926856"><ele>26.0</ele><time>2026-04-09T22:16:53.643Z</time></trkpt><trkpt lat="-36.7363593" lon="174.3925925"><ele>26.0</ele><time>2026-04-09T22:16:54.642Z</time></trkpt><trkpt lat="-36.7363977" lon="174.3925135"><ele>26.0</ele><time>2026-04-09T22:16:55.642Z</time></trkpt><trkpt lat="-36.7364598" lon="174.3924434"><ele>25.999999999999996</ele><time>2026-04-09T22:16:56.644Z</time></trkpt><trkpt lat="-36.7365272" lon="174.3924241"><ele>26.0</ele><time>2026-04-09T22:16:59.644Z</time></trkpt><trkpt lat="-36.7365972" lon="174.3924076"><ele>25.999999999999996</ele><time>2026-04-09T22:17:02.643Z</time></trkpt><trkpt lat="-36.7366785" lon="174.3924943"><ele>26.0</ele><time>2026-04-09T22:17:05.643Z</time></trkpt><trkpt lat="-36.7366911" lon="174.3925927"><ele>26.0</ele><time>2026-04-09T22:17:07.643Z</time></trkpt><trkpt lat="-36.7366628" lon="174.3926725"><ele>26.0</ele><time>2026-04-09T22:17:09.644Z</time></trkpt><trkpt lat="-36.7366069" lon="174.3927129"><ele>25.999999999999996</ele><time>2026-04-09T22:17:12.644Z</time></trkpt><trkpt lat="-36.7366223" lon="174.3928124"><ele>26.0</ele><time>2026-04-09T22:17:17.643Z</time></trkpt><trkpt lat="-36.7366815" lon="174.3928451"><ele>25.999999999999996</ele><time>2026-04-09T22:17:20.643Z</time></trkpt><trkpt lat="-36.736749" lon="174.3929146"><ele>26.0</ele><time>2026-04-09T22:17:24.642Z</time></trkpt><trkpt lat="-36.736818" lon="174.3929101"><ele>26.0</ele><time>2026-04-09T22:17:26.644Z</time></trkpt><trkpt lat="-36.7368882" lon="174.3929445"><ele>26.0</ele><time>2026-04-09T22:17:29.642Z</time></trkpt><trkpt lat="-36.7368939" lon="174.3930529"><ele>25.999999999999996</ele><time>2026-04-09T22:17:32.642Z</time></trkpt><trkpt lat="-36.7368557" lon="174.393161"><ele>26.0</ele><time>2026-04-09T22:17:34.643Z</time></trkpt><trkpt lat="-36.7368063" lon="174.3932344"><ele>25.833333333333332</ele><time>2026-04-09T22:17:37.643Z</time></trkpt><trkpt lat="-36.7367176" lon="174.3932631"><ele>25.666666666666664</ele><time>2026-04-09T22:17:40.642Z</time></trkpt><trkpt lat="-36.736645" lon="174.3932745"><ele>25.5</ele><time>2026-04-09T22:17:42.642Z</time></trkpt><trkpt lat="-36.7365869" lon="174.3933267"><ele>25.333333333333336</ele><time>2026-04-09T22:17:45.644Z</time></trkpt><trkpt lat="-36.7365671" lon="174.3934361"><ele>25.166666666666668</ele><time>2026-04-09T22:17:48.642Z</time></trkpt><trkpt lat="-36.7365371" lon="174.3935422"><ele>25.0</ele><time>2026-04-09T22:17:51.642Z</time></trkpt><trkpt lat="-36.7365101" lon="174.3936215"><ele>25.000000000000004</ele><time>2026-04-09T22:17:53.644Z</time></trkpt><trkpt lat="-36.7364796" lon="174.3936905"><ele>25.0</ele><time>2026-04-09T22:17:57.644Z</time></trkpt><trkpt lat="-36.7364014" lon="174.3936961"><ele>25.0</ele><time>2026-04-09T22:18:00.643Z</time></trkpt><trkpt lat="-36.7363436" lon="174.3937394"><ele>25.0</ele><time>2026-04-09T22:18:02.642Z</time></trkpt><trkpt lat="-36.7362998" lon="174.393817"><ele>25.0</ele><time>2026-04-09T22:18:05.642Z</time></trkpt><trkpt lat="-36.7363085" lon="174.3939101"><ele>25.000000000000004</ele><time>2026-04-09T22:18:08.643Z</time></trkpt><trkpt lat="-36.7363614" lon="174.3939743"><ele>25.0</ele><time>2026-04-09T22:18:12.642Z</time></trkpt><trkpt lat="-36.7364004" lon="174.3940496"><ele>25.571428571428573</ele><time>2026-04-09T22:18:15.642Z</time></trkpt><trkpt lat="-36.7364281" lon="174.3941365"><ele>26.142857142857146</ele><time>2026-04-09T22:18:18.643Z</time></trkpt><trkpt lat="-36.7363712" lon="174.3941761"><ele>26.714285714285715</ele><time>2026-04-09T22:18:25.643Z</time></trkpt><trkpt lat="-36.7362936" lon="174.3941777"><ele>27.28571428571429</ele><time>2026-04-09T22:18:28.644Z</time></trkpt><trkpt lat="-36.7362352" lon="174.3941462"><ele>27.857142857142858</ele><time>2026-04-09T22:18:32.643Z</time></trkpt><trkpt lat="-36.7362288" lon="174.394226"><ele>28.428571428571434</ele><time>2026-04-09T22:18:38.644Z</time></trkpt><trkpt lat="-36.7362689" lon="174.3942925"><ele>29.000000000000004</ele><time>2026-04-09T22:18:42.644Z</time></trkpt><trkpt lat="-36.7362598" lon="174.3943797"><ele>29.000000000000004</ele><time>2026-04-09T22:18:47.644Z</time></trkpt><trkpt lat="-36.7362021" lon="174.3944168"><ele>29.0</ele><time>2026-04-09T22:18:50.643Z</time></trkpt><trkpt lat="-36.7361533" lon="174.3944845"><ele>29.000000000000004</ele><time>2026-04-09T22:18:53.644Z</time></trkpt><trkpt lat="-36.7360849" lon="174.3945265"><ele>29.000000000000004</ele><time>2026-04-09T22:18:58.644Z</time></trkpt><trkpt lat="-36.7360052" lon="174.3945217"><ele>29.0</ele><time>2026-04-09T22:19:02.642Z</time></trkpt><trkpt lat="-36.7359471" lon="174.3945627"><ele>29.000000000000004</ele><time>2026-04-09T22:19:06.642Z</time></trkpt><trkpt lat="-36.7359229" lon="174.3946356"><ele>29.000000000000004</ele><time>2026-04-09T22:19:10.642Z</time></trkpt><trkpt lat="-36.7359799" lon="174.3947193"><ele>30.142857142857146</ele><time>2026-04-09T22:19:15.643Z</time></trkpt><trkpt lat="-36.7360137" lon="174.3947919"><ele>31.285714285714285</ele><time>2026-04-09T22:19:18.642Z</time></trkpt><trkpt lat="-36.7360496" lon="174.3948787"><ele>32.42857142857143</ele><time>2026-04-09T22:19:21.643Z</time></trkpt><trkpt lat="-36.7360763" lon="174.3949559"><ele>33.57142857142857</ele><time>2026-04-09T22:19:25.643Z</time></trkpt><trkpt lat="-36.736012" lon="174.3949624"><ele>34.714285714285715</ele><time>2026-04-09T22:19:29.642Z</time></trkpt><trkpt lat="-36.7359458" lon="174.3949663"><ele>35.85714285714286</ele><time>2026-04-09T22:19:32.642Z</time></trkpt><trkpt lat="-36.735874" lon="174.3949657"><ele>37.0</ele><time>2026-04-09T22:19:36.643Z</time></trkpt><trkpt lat="-36.7358491" lon="174.3950422"><ele>37.0</ele><time>2026-04-09T22:19:43.643Z</time></trkpt><trkpt lat="-36.7359043" lon="174.3951024"><ele>37.0</ele><time>2026-04-09T22:19:47.644Z</time></trkpt><trkpt lat="-36.7359689" lon="174.3951782"><ele>37.0</ele><time>2026-04-09T22:19:51.643Z</time></trkpt><trkpt lat="-36.736033" lon="174.3952402"><ele>37.0</ele><time>2026-04-09T22:19:54.642Z</time></trkpt><trkpt lat="-36.7360782" lon="174.3953106"><ele>37.0</ele><time>2026-04-09T22:19:57.645Z</time></trkpt><trkpt lat="-36.7361077" lon="174.3953966"><ele>37.0</ele><time>2026-04-09T22:20:01.643Z</time></trkpt><trkpt lat="-36.7361648" lon="174.3954525"><ele>37.0</ele><time>2026-04-09T22:20:05.643Z</time></trkpt><trkpt lat="-36.7362492" lon="174.3954863"><ele>37.0</ele><time>2026-04-09T22:20:09.644Z</time></trkpt><trkpt lat="-36.7363184" lon="174.3955484"><ele>37.0</ele><time>2026-04-09T22:20:12.643Z</time></trkpt><trkpt lat="-36.7364173" lon="174.3956579"><ele>37.0</ele><time>2026-04-09T22:20:15.644Z</time></trkpt><trkpt lat="-36.7365308" lon="174.3957025"><ele>37.0</ele><time>2026-04-09T22:20:17.643Z</time></trkpt><trkpt lat="-36.7366495" lon="174.3956025"><ele>37.0</ele><time>2026-04-09T22:20:19.644Z</time></trkpt><trkpt lat="-36.7367239" lon="174.3955605"><ele>37.0</ele><time>2026-04-09T22:20:20.642Z</time></trkpt><trkpt lat="-36.7368311" lon="174.3955194"><ele>37.0</ele><time>2026-04-09T22:20:22.643Z</time></trkpt><trkpt lat="-36.7368704" lon="174.3954332"><ele>37.0</ele><time>2026-04-09T22:20:24.643Z</time></trkpt><trkpt lat="-36.7368962" lon="174.3953171"><ele>37.0</ele><time>2026-04-09T22:20:26.643Z</time></trkpt><trkpt lat="-36.7369207" lon="174.3952019"><ele>36.0</ele><time>2026-04-09T22:20:28.644Z</time></trkpt><trkpt lat="-36.7369306" lon="174.3950798"><ele>35.0</ele><time>2026-04-09T22:20:29.642Z</time></trkpt><trkpt lat="-36.7369365" lon="174.3949651"><ele>34.0</ele><time>2026-04-09T22:20:30.643Z</time></trkpt><trkpt lat="-36.7369188" lon="174.3948339"><ele>33.0</ele><time>2026-04-09T22:20:32.643Z</time></trkpt><trkpt lat="-36.7369032" lon="174.3947557"><ele>32.0</ele><time>2026-04-09T22:20:33.642Z</time></trkpt><trkpt lat="-36.7368929" lon="174.3946747"><ele>31.0</ele><time>2026-04-09T22:20:34.643Z</time></trkpt><trkpt lat="-36.7368764" lon="174.3945658"><ele>30.666666666666668</ele><time>2026-04-09T22:20:36.643Z</time></trkpt><trkpt lat="-36.7368532" lon="174.3944887"><ele>30.333333333333336</ele><time>2026-04-09T22:20:38.642Z</time></trkpt><trkpt lat="-36.7368232" lon="174.3944015"><ele>30.0</ele><time>2026-04-09T22:20:40.642Z</time></trkpt><trkpt lat="-36.736808" lon="174.3943177"><ele>29.666666666666664</ele><time>2026-04-09T22:20:43.643Z</time></trkpt><trkpt lat="-36.7368326" lon="174.3942198"><ele>29.333333333333332</ele><time>2026-04-09T22:20:45.644Z</time></trkpt><trkpt lat="-36.7368193" lon="174.3941262"><ele>29.0</ele><time>2026-04-09T22:20:47.643Z</time></trkpt><trkpt lat="-36.7367436" lon="174.3940202"><ele>29.0</ele><time>2026-04-09T22:20:49.644Z</time></trkpt><trkpt lat="-36.7367044" lon="174.3939079"><ele>29.0</ele><time>2026-04-09T22:20:51.642Z</time></trkpt><trkpt lat="-36.7366652" lon="174.393772"><ele>29.0</ele><time>2026-04-09T22:20:53.643Z</time></trkpt><trkpt lat="-36.7366279" lon="174.3936232"><ele>29.0</ele><time>2026-04-09T22:20:55.645Z</time></trkpt><trkpt lat="-36.736682" lon="174.393534"><ele>29.0</ele><time>2026-04-09T22:20:57.643Z</time></trkpt><trkpt lat="-36.736744" lon="174.3934658"><ele>28.333333333333332</ele><time>2026-04-09T22:20:59.642Z</time></trkpt><trkpt lat="-36.7368163" lon="174.3934534"><ele>27.666666666666664</ele><time>2026-04-09T22:21:01.643Z</time></trkpt><trkpt lat="-36.7368812" lon="174.3934851"><ele>27.0</ele><time>2026-04-09T22:21:04.644Z</time></trkpt><trkpt lat="-36.7368863" lon="174.3936003"><ele>26.333333333333336</ele><time>2026-04-09T22:21:07.644Z</time></trkpt><trkpt lat="-36.7369197" lon="174.3936784"><ele>25.666666666666668</ele><time>2026-04-09T22:21:10.643Z</time></trkpt><trkpt lat="-36.736978" lon="174.3937717"><ele>25.0</ele><time>2026-04-09T22:21:13.643Z</time></trkpt><trkpt lat="-36.7370337" lon="174.3938318"><ele>24.500000000000004</ele><time>2026-04-09T22:21:15.643Z</time></trkpt><trkpt lat="-36.7370429" lon="174.3939326"><ele>24.0</ele><time>2026-04-09T22:21:18.643Z</time></trkpt><trkpt lat="-36.7370479" lon="174.3940169"><ele>23.5</ele><time>2026-04-09T22:21:21.643Z</time></trkpt><trkpt lat="-36.7371002" lon="174.3939603"><ele>23.0</ele><time>2026-04-09T22:21:23.643Z</time></trkpt><trkpt lat="-36.7370989" lon="174.3938439"><ele>22.5</ele><time>2026-04-09T22:21:26.643Z</time></trkpt><trkpt lat="-36.7370734" lon="174.3937362"><ele>22.0</ele><time>2026-04-09T22:21:29.643Z</time></trkpt><trkpt lat="-36.7370364" lon="174.39364"><ele>22.0</ele><time>2026-04-09T22:21:32.643Z</time></trkpt><trkpt lat="-36.7370039" lon="174.393538"><ele>22.0</ele><time>2026-04-09T22:21:34.644Z</time></trkpt><trkpt lat="-36.7369906" lon="174.393454"><ele>22.0</ele><time>2026-04-09T22:21:36.644Z</time></trkpt><trkpt lat="-36.7370286" lon="174.3933582"><ele>22.0</ele><time>2026-04-09T22:21:38.644Z</time></trkpt><trkpt lat="-36.7370397" lon="174.3932603"><ele>22.0</ele><time>2026-04-09T22:21:41.644Z</time></trkpt><trkpt lat="-36.7370307" lon="174.3931822"><ele>22.0</ele><time>2026-04-09T22:21:43.642Z</time></trkpt><trkpt lat="-36.7369985" lon="174.3930739"><ele>22.0</ele><time>2026-04-09T22:21:46.643Z</time></trkpt><trkpt lat="-36.7370168" lon="174.3929629"><ele>22.0</ele><time>2026-04-09T22:21:48.644Z</time></trkpt><trkpt lat="-36.737033" lon="174.3928418"><ele>22.0</ele><time>2026-04-09T22:21:50.643Z</time></trkpt><trkpt lat="-36.7370781" lon="174.3927505"><ele>22.0</ele><time>2026-04-09T22:21:52.643Z</time></trkpt><trkpt lat="-36.7371153" lon="174.3926363"><ele>22.0</ele><time>2026-04-09T22:21:55.642Z</time></trkpt><trkpt lat="-36.7371581" lon="174.3925506"><ele>22.0</ele><time>2026-04-09T22:21:57.642Z</time></trkpt><trkpt lat="-36.7372063" lon="174.3924879"><ele>22.0</ele><time>2026-04-09T22:21:59.644Z</time></trkpt><trkpt lat="-36.7373012" lon="174.3924822"><ele>22.0</ele><time>2026-04-09T22:22:01.643Z</time></trkpt><trkpt lat="-36.7373365" lon="174.3925678"><ele>22.0</ele><time>2026-04-09T22:22:03.643Z</time></trkpt><trkpt lat="-36.7373289" lon="174.392696"><ele>22.0</ele><time>2026-04-09T22:22:05.643Z</time></trkpt><trkpt lat="-36.7373104" lon="174.3928235"><ele>22.0</ele><time>2026-04-09T22:22:07.642Z</time></trkpt><trkpt lat="-36.7372946" lon="174.3929111"><ele>22.0</ele><time>2026-04-09T22:22:09.642Z</time></trkpt><trkpt lat="-36.7373013" lon="174.3930173"><ele>22.0</ele><time>2026-04-09T22:22:11.642Z</time></trkpt><trkpt lat="-36.7373239" lon="174.3930909"><ele>22.0</ele><time>2026-04-09T22:22:13.642Z</time></trkpt><trkpt lat="-36.7373514" lon="174.3931744"><ele>22.0</ele><time>2026-04-09T22:22:15.643Z</time></trkpt><trkpt lat="-36.7373789" lon="174.393253"><ele>22.0</ele><time>2026-04-09T22:22:17.643Z</time></trkpt><trkpt lat="-36.7374405" lon="174.3933149"><ele>22.0</ele><time>2026-04-09T22:22:19.642Z</time></trkpt><trkpt lat="-36.7374586" lon="174.3934042"><ele>22.0</ele><time>2026-04-09T22:22:22.644Z</time></trkpt><trkpt lat="-36.7374806" lon="174.3934959"><ele>22.0</ele><time>2026-04-09T22:22:24.643Z</time></trkpt><trkpt lat="-36.737517" lon="174.3936043"><ele>22.0</ele><time>2026-04-09T22:22:26.643Z</time></trkpt><trkpt lat="-36.7375521" lon="174.3937084"><ele>22.0</ele><time>2026-04-09T22:22:28.643Z</time></trkpt><trkpt lat="-36.7375755" lon="174.393867"><ele>22.0</ele><time>2026-04-09T22:22:30.644Z</time></trkpt><trkpt lat="-36.7376388" lon="174.3939683"><ele>22.0</ele><time>2026-04-09T22:22:32.642Z</time></trkpt><trkpt lat="-36.7377239" lon="174.3940614"><ele>22.333333333333332</ele><time>2026-04-09T22:22:34.642Z</time></trkpt><trkpt lat="-36.7377881" lon="174.3941329"><ele>22.666666666666664</ele><time>2026-04-09T22:22:36.642Z</time></trkpt><trkpt lat="-36.7378877" lon="174.3941893"><ele>23.0</ele><time>2026-04-09T22:22:38.644Z</time></trkpt><trkpt lat="-36.7379387" lon="174.3942515"><ele>23.333333333333332</ele><time>2026-04-09T22:22:39.643Z</time></trkpt><trkpt lat="-36.7380106" lon="174.3942889"><ele>23.666666666666668</ele><time>2026-04-09T22:22:41.642Z</time></trkpt><trkpt lat="-36.7380747" lon="174.3943208"><ele>24.0</ele><time>2026-04-09T22:22:43.643Z</time></trkpt><trkpt lat="-36.7381224" lon="174.3944071"><ele>24.0</ele><time>2026-04-09T22:22:46.643Z</time></trkpt><trkpt lat="-36.7381821" lon="174.3944815"><ele>24.0</ele><time>2026-04-09T22:22:49.642Z</time></trkpt><trkpt lat="-36.7382621" lon="174.3944794"><ele>24.0</ele><time>2026-04-09T22:22:52.643Z</time></trkpt><trkpt lat="-36.738349" lon="174.3945058"><ele>24.0</ele><time>2026-04-09T22:22:55.644Z</time></trkpt><trkpt lat="-36.7383804" lon="174.3945857"><ele>24.0</ele><time>2026-04-09T22:22:58.643Z</time></trkpt><trkpt lat="-36.7383238" lon="174.3946741"><ele>24.0</ele><time>2026-04-09T22:23:02.642Z</time></trkpt><trkpt lat="-36.7382526" lon="174.3947378"><ele>25.428571428571427</ele><time>2026-04-09T22:23:05.643Z</time></trkpt><trkpt lat="-36.738205" lon="174.3948031"><ele>26.857142857142854</ele><time>2026-04-09T22:23:08.643Z</time></trkpt><trkpt lat="-36.7382131" lon="174.3949157"><ele>28.285714285714285</ele><time>2026-04-09T22:23:12.644Z</time></trkpt><trkpt lat="-36.738171" lon="174.3949798"><ele>29.71428571428571</ele><time>2026-04-09T22:23:15.642Z</time></trkpt><trkpt lat="-36.738111" lon="174.3950045"><ele>31.142857142857142</ele><time>2026-04-09T22:23:18.643Z</time></trkpt><trkpt lat="-36.7380528" lon="174.395053"><ele>32.57142857142857</ele><time>2026-04-09T22:23:22.643Z</time></trkpt><trkpt lat="-36.7379772" lon="174.3950666"><ele>34.0</ele><time>2026-04-09T22:23:25.642Z</time></trkpt><trkpt lat="-36.7379158" lon="174.3950429"><ele>34.0</ele><time>2026-04-09T22:23:30.643Z</time></trkpt><trkpt lat="-36.73787" lon="174.3949585"><ele>34.0</ele><time>2026-04-09T22:23:33.643Z</time></trkpt><trkpt lat="-36.7378037" lon="174.3949208"><ele>34.0</ele><time>2026-04-09T22:23:36.645Z</time></trkpt><trkpt lat="-36.7377684" lon="174.3949984"><ele>34.0</ele><time>2026-04-09T22:23:40.644Z</time></trkpt><trkpt lat="-36.7377593" lon="174.3951012"><ele>34.0</ele><time>2026-04-09T22:23:45.645Z</time></trkpt><trkpt lat="-36.7377084" lon="174.3951742"><ele>34.0</ele><time>2026-04-09T22:23:48.642Z</time></trkpt><trkpt lat="-36.7376243" lon="174.3951394"><ele>33.5</ele><time>2026-04-09T22:23:52.643Z</time></trkpt><trkpt lat="-36.737546" lon="174.3950712"><ele>33.0</ele><time>2026-04-09T22:23:55.643Z</time></trkpt><trkpt lat="-36.7374715" lon="174.3950565"><ele>32.5</ele><time>2026-04-09T22:23:57.642Z</time></trkpt><trkpt lat="-36.7374079" lon="174.3950931"><ele>32.0</ele><time>2026-04-09T22:24:00.642Z</time></trkpt><trkpt lat="-36.7374413" lon="174.3951757"><ele>31.500000000000004</ele><time>2026-04-09T22:24:04.643Z</time></trkpt><trkpt lat="-36.7374964" lon="174.3952173"><ele>31.0</ele><time>2026-04-09T22:24:07.643Z</time></trkpt><trkpt lat="-36.7374832" lon="174.3953219"><ele>31.0</ele><time>2026-04-09T22:24:11.642Z</time></trkpt><trkpt lat="-36.7374764" lon="174.3954201"><ele>31.000000000000004</ele><time>2026-04-09T22:24:14.642Z</time></trkpt><trkpt lat="-36.7374829" lon="174.3955046"><ele>31.0</ele><time>2026-04-09T22:24:17.643Z</time></trkpt><trkpt lat="-36.737439" lon="174.3955637"><ele>31.0</ele><time>2026-04-09T22:24:23.642Z</time></trkpt><trkpt lat="-36.7373804" lon="174.3955932"><ele>31.000000000000004</ele><time>2026-04-09T22:24:27.644Z</time></trkpt><trkpt lat="-36.7373864" lon="174.3957022"><ele>31.0</ele><time>2026-04-09T22:24:31.643Z</time></trkpt><trkpt lat="-36.7373769" lon="174.3958006"><ele>31.0</ele><time>2026-04-09T22:24:34.643Z</time></trkpt><trkpt lat="-36.7373224" lon="174.3958716"><ele>32.57142857142857</ele><time>2026-04-09T22:24:37.643Z</time></trkpt><trkpt lat="-36.7372659" lon="174.3958119"><ele>34.142857142857146</ele><time>2026-04-09T22:24:42.645Z</time></trkpt><trkpt lat="-36.7372108" lon="174.3957468"><ele>35.714285714285715</ele><time>2026-04-09T22:24:45.642Z</time></trkpt><trkpt lat="-36.7371516" lon="174.3957166"><ele>37.285714285714285</ele><time>2026-04-09T22:24:47.642Z</time></trkpt><trkpt lat="-36.7371518" lon="174.3957985"><ele>38.85714285714286</ele><time>2026-04-09T22:24:52.643Z</time></trkpt><trkpt lat="-36.7371827" lon="174.3958855"><ele>40.42857142857143</ele><time>2026-04-09T22:24:55.643Z</time></trkpt><trkpt lat="-36.737186" lon="174.3959695"><ele>42.0</ele><time>2026-04-09T22:24:57.642Z</time></trkpt><trkpt lat="-36.7371993" lon="174.3960674"><ele>42.0</ele><time>2026-04-09T22:25:00.643Z</time></trkpt><trkpt lat="-36.7372269" lon="174.3961524"><ele>42.0</ele><time>2026-04-09T22:25:03.644Z</time></trkpt><trkpt lat="-36.737276" lon="174.3962136"><ele>42.0</ele><time>2026-04-09T22:25:06.643Z</time></trkpt><trkpt lat="-36.7373384" lon="174.396235"><ele>42.0</ele><time>2026-04-09T22:25:10.642Z</time></trkpt><trkpt lat="-36.7373932" lon="174.3963159"><ele>42.0</ele><time>2026-04-09T22:25:14.643Z</time></trkpt><trkpt lat="-36.7374701" lon="174.3963041"><ele>42.0</ele><time>2026-04-09T22:25:17.642Z</time></trkpt><trkpt lat="-36.7375512" lon="174.3963224"><ele>44.333333333333336</ele><time>2026-04-09T22:25:21.643Z</time></trkpt><trkpt lat="-36.7376114" lon="174.3963873"><ele>46.66666666666667</ele><time>2026-04-09T22:25:24.643Z</time></trkpt><trkpt lat="-36.7376495" lon="174.3964921"><ele>49.0</ele><time>2026-04-09T22:25:27.643Z</time></trkpt><trkpt lat="-36.7376735" lon="174.3966009"><ele>51.333333333333336</ele><time>2026-04-09T22:25:30.642Z</time></trkpt><trkpt lat="-36.73766" lon="174.3967092"><ele>53.66666666666667</ele><time>2026-04-09T22:25:33.643Z</time></trkpt><trkpt lat="-36.7376414" lon="174.3967918"><ele>56.0</ele><time>2026-04-09T22:25:36.642Z</time></trkpt><trkpt lat="-36.7376061" lon="174.3968869"><ele>56.0</ele><time>2026-04-09T22:25:39.643Z</time></trkpt><trkpt lat="-36.7375787" lon="174.3969789"><ele>56.0</ele><time>2026-04-09T22:25:43.642Z</time></trkpt><trkpt lat="-36.7375309" lon="174.3969256"><ele>56.0</ele><time>2026-04-09T22:25:47.642Z</time></trkpt><trkpt lat="-36.7375214" lon="174.3968465"><ele>56.0</ele><time>2026-04-09T22:25:51.644Z</time></trkpt><trkpt lat="-36.7374652" lon="174.396903"><ele>56.0</ele><time>2026-04-09T22:25:58.643Z</time></trkpt><trkpt lat="-36.7374643" lon="174.3969828"><ele>56.0</ele><time>2026-04-09T22:26:00.642Z</time></trkpt><trkpt lat="-36.7374854" lon="174.3970905"><ele>56.0</ele><time>2026-04-09T22:26:03.643Z</time></trkpt><trkpt lat="-36.7375245" lon="174.3971833"><ele>58.66666666666667</ele><time>2026-04-09T22:26:06.642Z</time></trkpt><trkpt lat="-36.7375538" lon="174.3972896"><ele>61.333333333333336</ele><time>2026-04-09T22:26:09.643Z</time></trkpt><trkpt lat="-36.7375418" lon="174.3973944"><ele>64.0</ele><time>2026-04-09T22:26:13.643Z</time></trkpt><trkpt lat="-36.7374962" lon="174.3974577"><ele>66.66666666666667</ele><time>2026-04-09T22:26:15.644Z</time></trkpt><trkpt lat="-36.7374492" lon="174.3975364"><ele>69.33333333333333</ele><time>2026-04-09T22:26:18.642Z</time></trkpt><trkpt lat="-36.7373884" lon="174.3976181"><ele>72.0</ele><time>2026-04-09T22:26:22.642Z</time></trkpt><trkpt lat="-36.737352" lon="174.3977138"><ele>72.0</ele><time>2026-04-09T22:26:25.642Z</time></trkpt><trkpt lat="-36.7373402" lon="174.3978502"><ele>72.0</ele><time>2026-04-09T22:26:26.642Z</time></trkpt><trkpt lat="-36.7372655" lon="174.3978883"><ele>72.0</ele><time>2026-04-09T22:26:29.642Z</time></trkpt><trkpt lat="-36.7372634" lon="174.3978083"><ele>72.0</ele><time>2026-04-09T22:26:33.643Z</time></trkpt><trkpt lat="-36.7372991" lon="174.3977293"><ele>72.0</ele><time>2026-04-09T22:26:37.643Z</time></trkpt><trkpt lat="-36.7372768" lon="174.3976534"><ele>72.0</ele><time>2026-04-09T22:26:42.643Z</time></trkpt><trkpt lat="-36.737306" lon="174.3975615"><ele>72.00000000000001</ele><time>2026-04-09T22:26:46.642Z</time></trkpt><trkpt lat="-36.7372608" lon="174.3974987"><ele>72.0</ele><time>2026-04-09T22:26:49.642Z</time></trkpt><trkpt lat="-36.7372244" lon="174.397431"><ele>72.0</ele><time>2026-04-09T22:26:51.643Z</time></trkpt><trkpt lat="-36.7371853" lon="174.3973655"><ele>72.0</ele><time>2026-04-09T22:26:54.642Z</time></trkpt><trkpt lat="-36.7371179" lon="174.3973708"><ele>72.0</ele><time>2026-04-09T22:26:57.643Z</time></trkpt><trkpt lat="-36.7370563" lon="174.3973542"><ele>72.00000000000001</ele><time>2026-04-09T22:27:00.642Z</time></trkpt><trkpt lat="-36.7369854" lon="174.3973413"><ele>72.0</ele><time>2026-04-09T22:27:04.644Z</time></trkpt><trkpt lat="-36.7369782" lon="174.3974358"><ele>72.00000000000001</ele><time>2026-04-09T22:27:11.644Z</time></trkpt><trkpt lat="-36.7369056" lon="174.3974296"><ele>72.0</ele><time>2026-04-09T22:27:16.642Z</time></trkpt><trkpt lat="-36.7368333" lon="174.397407"><ele>72.0</ele><time>2026-04-09T22:27:20.642Z</time></trkpt><trkpt lat="-36.736766" lon="174.3973942"><ele>72.0</ele><time>2026-04-09T22:27:24.642Z</time></trkpt><trkpt lat="-36.736802" lon="174.3974601"><ele>72.0</ele><time>2026-04-09T22:27:28.643Z</time></trkpt><trkpt lat="-36.7368496" lon="174.3975337"><ele>72.00000000000001</ele><time>2026-04-09T22:27:31.643Z</time></trkpt><trkpt lat="-36.7368611" lon="174.3976302"><ele>72.0</ele><time>2026-04-09T22:27:34.643Z</time></trkpt><trkpt lat="-36.7367917" lon="174.3976299"><ele>73.33333333333333</ele><time>2026-04-09T22:27:39.642Z</time></trkpt><trkpt lat="-36.7367085" lon="174.3976062"><ele>74.66666666666667</ele><time>2026-04-09T22:27:42.643Z</time></trkpt><trkpt lat="-36.736668" lon="174.3975221"><ele>76.0</ele><time>2026-04-09T22:27:45.644Z</time></trkpt><trkpt lat="-36.7366162" lon="174.3974707"><ele>77.33333333333334</ele><time>2026-04-09T22:27:48.644Z</time></trkpt><trkpt lat="-36.7366108" lon="174.3975617"><ele>78.66666666666667</ele><time>2026-04-09T22:27:52.643Z</time></trkpt><trkpt lat="-36.7366452" lon="174.3976295"><ele>80.0</ele><time>2026-04-09T22:27:57.643Z</time></trkpt><trkpt lat="-36.7367139" lon="174.3976857"><ele>80.0</ele><time>2026-04-09T22:28:01.644Z</time></trkpt><trkpt lat="-36.7367629" lon="174.3977613"><ele>80.0</ele><time>2026-04-09T22:28:03.642Z</time></trkpt><trkpt lat="-36.7368461" lon="174.3978398"><ele>80.0</ele><time>2026-04-09T22:28:07.643Z</time></trkpt><trkpt lat="-36.7368803" lon="174.3979285"><ele>80.0</ele><time>2026-04-09T22:28:09.643Z</time></trkpt><trkpt lat="-36.7368963" lon="174.3980177"><ele>80.0</ele><time>2026-04-09T22:28:12.643Z</time></trkpt><trkpt lat="-36.7369177" lon="174.3981168"><ele>80.0</ele><time>2026-04-09T22:28:16.642Z</time></trkpt><trkpt lat="-36.7369168" lon="174.3982025"><ele>81.66666666666667</ele><time>2026-04-09T22:28:19.641Z</time></trkpt><trkpt lat="-36.7368921" lon="174.3983145"><ele>83.33333333333334</ele><time>2026-04-09T22:28:21.643Z</time></trkpt><trkpt lat="-36.7368771" lon="174.3984018"><ele>85.0</ele><time>2026-04-09T22:28:23.643Z</time></trkpt><trkpt lat="-36.7368644" lon="174.3985064"><ele>86.66666666666667</ele><time>2026-04-09T22:28:26.643Z</time></trkpt><trkpt lat="-36.7368378" lon="174.3985911"><ele>88.33333333333333</ele><time>2026-04-09T22:28:29.643Z</time></trkpt><trkpt lat="-36.7368088" lon="174.3986929"><ele>90.0</ele><time>2026-04-09T22:28:33.642Z</time></trkpt><trkpt lat="-36.736739" lon="174.3987692"><ele>90.5</ele><time>2026-04-09T22:28:36.642Z</time></trkpt><trkpt lat="-36.7366879" lon="174.3988319"><ele>91.0</ele><time>2026-04-09T22:28:38.643Z</time></trkpt><trkpt lat="-36.7366396" lon="174.3989141"><ele>91.5</ele><time>2026-04-09T22:28:41.643Z</time></trkpt><trkpt lat="-36.7366078" lon="174.3989854"><ele>92.0</ele><time>2026-04-09T22:28:44.642Z</time></trkpt><trkpt lat="-36.7365449" lon="174.3990736"><ele>92.5</ele><time>2026-04-09T22:28:47.643Z</time></trkpt><trkpt lat="-36.7364953" lon="174.39913"><ele>93.0</ele><time>2026-04-09T22:28:50.643Z</time></trkpt><trkpt lat="-36.7364196" lon="174.3991219"><ele>93.71428571428572</ele><time>2026-04-09T22:28:53.644Z</time></trkpt><trkpt lat="-36.7363614" lon="174.3990647"><ele>94.42857142857143</ele><time>2026-04-09T22:28:55.642Z</time></trkpt><trkpt lat="-36.7363154" lon="174.3990105"><ele>95.14285714285714</ele><time>2026-04-09T22:28:57.643Z</time></trkpt><trkpt lat="-36.7362541" lon="174.3989742"><ele>95.85714285714286</ele><time>2026-04-09T22:28:59.644Z</time></trkpt><trkpt lat="-36.7361922" lon="174.3990144"><ele>96.57142857142857</ele><time>2026-04-09T22:29:01.644Z</time></trkpt><trkpt lat="-36.7361423" lon="174.3990796"><ele>97.28571428571429</ele><time>2026-04-09T22:29:03.643Z</time></trkpt><trkpt lat="-36.7360811" lon="174.399116"><ele>98.0</ele><time>2026-04-09T22:29:05.643Z</time></trkpt><trkpt lat="-36.7360039" lon="174.3991564"><ele>98.16666666666666</ele><time>2026-04-09T22:29:08.641Z</time></trkpt><trkpt lat="-36.7359153" lon="174.3992136"><ele>98.33333333333333</ele><time>2026-04-09T22:29:11.642Z</time></trkpt><trkpt lat="-36.7358595" lon="174.3992865"><ele>98.5</ele><time>2026-04-09T22:29:13.643Z</time></trkpt><trkpt lat="-36.7358303" lon="174.3993636"><ele>98.66666666666666</ele><time>2026-04-09T22:29:15.643Z</time></trkpt><trkpt lat="-36.7358183" lon="174.3994432"><ele>98.83333333333333</ele><time>2026-04-09T22:29:17.643Z</time></trkpt><trkpt lat="-36.7357968" lon="174.3995556"><ele>99.0</ele><time>2026-04-09T22:29:20.643Z</time></trkpt><trkpt lat="-36.7357195" lon="174.3996237"><ele>99.16666666666667</ele><time>2026-04-09T22:29:23.643Z</time></trkpt><trkpt lat="-36.7356508" lon="174.3996798"><ele>99.33333333333334</ele><time>2026-04-09T22:29:25.642Z</time></trkpt><trkpt lat="-36.7355882" lon="174.3997328"><ele>99.5</ele><time>2026-04-09T22:29:27.642Z</time></trkpt><trkpt lat="-36.7355397" lon="174.3998048"><ele>99.66666666666667</ele><time>2026-04-09T22:29:29.643Z</time></trkpt><trkpt lat="-36.7354797" lon="174.3998413"><ele>99.83333333333334</ele><time>2026-04-09T22:29:31.642Z</time></trkpt><trkpt lat="-36.7353947" lon="174.3998856"><ele>100.0</ele><time>2026-04-09T22:29:34.642Z</time></trkpt><trkpt lat="-36.735332" lon="174.3999195"><ele>100.00000000000001</ele><time>2026-04-09T22:29:36.643Z</time></trkpt><trkpt lat="-36.7352533" lon="174.3999722"><ele>100.0</ele><time>2026-04-09T22:29:39.642Z</time></trkpt><trkpt lat="-36.7351996" lon="174.4000511"><ele>100.0</ele><time>2026-04-09T22:29:42.643Z</time></trkpt><trkpt lat="-36.7351438" lon="174.4001005"><ele>100.0</ele><time>2026-04-09T22:29:44.644Z</time></trkpt><trkpt lat="-36.7350655" lon="174.4001227"><ele>100.00000000000001</ele><time>2026-04-09T22:29:46.642Z</time></trkpt><trkpt lat="-36.7349997" lon="174.4001379"><ele>100.0</ele><time>2026-04-09T22:29:48.643Z</time></trkpt><trkpt lat="-36.734934" lon="174.4001442"><ele>100.14285714285715</ele><time>2026-04-09T22:29:50.643Z</time></trkpt><trkpt lat="-36.7348675" lon="174.4001394"><ele>100.28571428571429</ele><time>2026-04-09T22:29:52.642Z</time></trkpt><trkpt lat="-36.7348002" lon="174.400145"><ele>100.42857142857143</ele><time>2026-04-09T22:29:54.643Z</time></trkpt><trkpt lat="-36.734737" lon="174.4001465"><ele>100.57142857142858</ele><time>2026-04-09T22:29:56.644Z</time></trkpt><trkpt lat="-36.7346579" lon="174.4001397"><ele>100.71428571428571</ele><time>2026-04-09T22:29:59.643Z</time></trkpt><trkpt lat="-36.7345732" lon="174.400149"><ele>100.85714285714286</ele><time>2026-04-09T22:30:02.643Z</time></trkpt><trkpt lat="-36.7344959" lon="174.4001928"><ele>101.0</ele><time>2026-04-09T22:30:05.642Z</time></trkpt><trkpt lat="-36.7344742" lon="174.4002923"><ele>101.0</ele><time>2026-04-09T22:30:08.644Z</time></trkpt><trkpt lat="-36.7345144" lon="174.4004305"><ele>101.0</ele><time>2026-04-09T22:30:10.642Z</time></trkpt><trkpt lat="-36.7345587" lon="174.4005174"><ele>101.0</ele><time>2026-04-09T22:30:12.643Z</time></trkpt><trkpt lat="-36.7345719" lon="174.4006331"><ele>101.0</ele><time>2026-04-09T22:30:14.644Z</time></trkpt><trkpt lat="-36.7345401" lon="174.4007464"><ele>101.0</ele><time>2026-04-09T22:30:16.644Z</time></trkpt><trkpt lat="-36.7345065" lon="174.4008442"><ele>101.16666666666666</ele><time>2026-04-09T22:30:19.644Z</time></trkpt><trkpt lat="-36.7344721" lon="174.4009221"><ele>101.33333333333333</ele><time>2026-04-09T22:30:21.643Z</time></trkpt><trkpt lat="-36.7345436" lon="174.400965"><ele>101.5</ele><time>2026-04-09T22:30:27.642Z</time></trkpt><trkpt lat="-36.7346208" lon="174.400938"><ele>101.66666666666666</ele><time>2026-04-09T22:30:30.641Z</time></trkpt><trkpt lat="-36.7346859" lon="174.4009459"><ele>101.83333333333333</ele><time>2026-04-09T22:30:33.644Z</time></trkpt><trkpt lat="-36.7346775" lon="174.4010466"><ele>102.0</ele><time>2026-04-09T22:30:37.642Z</time></trkpt><trkpt lat="-36.7346739" lon="174.4011382"><ele>102.0</ele><time>2026-04-09T22:30:40.644Z</time></trkpt><trkpt lat="-36.7346654" lon="174.4012179"><ele>102.0</ele><time>2026-04-09T22:30:43.644Z</time></trkpt><trkpt lat="-36.734624" lon="174.4013092"><ele>102.0</ele><time>2026-04-09T22:30:47.644Z</time></trkpt><trkpt lat="-36.7345772" lon="174.4013984"><ele>102.0</ele><time>2026-04-09T22:30:50.643Z</time></trkpt><trkpt lat="-36.7345569" lon="174.4014906"><ele>102.0</ele><time>2026-04-09T22:30:52.642Z</time></trkpt><trkpt lat="-36.7345669" lon="174.4015976"><ele>102.0</ele><time>2026-04-09T22:30:55.642Z</time></trkpt><trkpt lat="-36.7345633" lon="174.4017062"><ele>103.5</ele><time>2026-04-09T22:30:58.642Z</time></trkpt><trkpt lat="-36.734546" lon="174.4017971"><ele>105.0</ele><time>2026-04-09T22:31:01.643Z</time></trkpt><trkpt lat="-36.7345154" lon="174.4018812"><ele>106.5</ele><time>2026-04-09T22:31:03.642Z</time></trkpt><trkpt lat="-36.7344674" lon="174.4019759"><ele>108.0</ele><time>2026-04-09T22:31:05.642Z</time></trkpt><trkpt lat="-36.7343392" lon="174.4020376"><ele>109.5</ele><time>2026-04-09T22:31:07.643Z</time></trkpt><trkpt lat="-36.7342702" lon="174.4020651"><ele>111.0</ele><time>2026-04-09T22:31:08.642Z</time></trkpt><trkpt lat="-36.734207" lon="174.4021122"><ele>111.85714285714286</ele><time>2026-04-09T22:31:09.642Z</time></trkpt><trkpt lat="-36.7341716" lon="174.4021802"><ele>112.71428571428572</ele><time>2026-04-09T22:31:11.643Z</time></trkpt><trkpt lat="-36.7341456" lon="174.402262"><ele>113.57142857142858</ele><time>2026-04-09T22:31:13.643Z</time></trkpt><trkpt lat="-36.7341366" lon="174.4023429"><ele>114.42857142857143</ele><time>2026-04-09T22:31:15.643Z</time></trkpt><trkpt lat="-36.7341554" lon="174.4024397"><ele>115.2857142857143</ele><time>2026-04-09T22:31:18.643Z</time></trkpt><trkpt lat="-36.7341788" lon="174.4025414"><ele>116.14285714285715</ele><time>2026-04-09T22:31:21.643Z</time></trkpt><trkpt lat="-36.7341717" lon="174.4026332"><ele>117.0</ele><time>2026-04-09T22:31:23.643Z</time></trkpt><trkpt lat="-36.734146" lon="174.4027493"><ele>117.0</ele><time>2026-04-09T22:31:25.642Z</time></trkpt><trkpt lat="-36.7341135" lon="174.4028717"><ele>117.0</ele><time>2026-04-09T22:31:27.642Z</time></trkpt><trkpt lat="-36.7341132" lon="174.402972"><ele>117.0</ele><time>2026-04-09T22:31:29.642Z</time></trkpt><trkpt lat="-36.7341255" lon="174.4030542"><ele>117.0</ele><time>2026-04-09T22:31:31.644Z</time></trkpt><trkpt lat="-36.7341675" lon="174.4031373"><ele>117.0</ele><time>2026-04-09T22:31:33.643Z</time></trkpt><trkpt lat="-36.7342116" lon="174.4032028"><ele>117.0</ele><time>2026-04-09T22:31:35.642Z</time></trkpt><trkpt lat="-36.7342534" lon="174.4032902"><ele>118.0</ele><time>2026-04-09T22:31:37.643Z</time></trkpt><trkpt lat="-36.7342814" lon="174.4033986"><ele>119.0</ele><time>2026-04-09T22:31:39.643Z</time></trkpt><trkpt lat="-36.7342957" lon="174.4034955"><ele>120.0</ele><time>2026-04-09T22:31:41.643Z</time></trkpt><trkpt lat="-36.7342793" lon="174.4035824"><ele>121.0</ele><time>2026-04-09T22:31:43.643Z</time></trkpt><trkpt lat="-36.7342231" lon="174.4036573"><ele>122.0</ele><time>2026-04-09T22:31:45.643Z</time></trkpt><trkpt lat="-36.7341807" lon="174.4037371"><ele>123.0</ele><time>2026-04-09T22:31:47.643Z</time></trkpt><trkpt lat="-36.7341385" lon="174.4038344"><ele>123.5</ele><time>2026-04-09T22:31:49.642Z</time></trkpt><trkpt lat="-36.7341269" lon="174.4039319"><ele>124.0</ele><time>2026-04-09T22:31:51.643Z</time></trkpt><trkpt lat="-36.7341387" lon="174.4040112"><ele>124.5</ele><time>2026-04-09T22:31:53.643Z</time></trkpt><trkpt lat="-36.7341773" lon="174.4041077"><ele>125.0</ele><time>2026-04-09T22:31:55.643Z</time></trkpt><trkpt lat="-36.7342256" lon="174.4042004"><ele>125.5</ele><time>2026-04-09T22:31:57.642Z</time></trkpt><trkpt lat="-36.7342679" lon="174.4042818"><ele>126.0</ele><time>2026-04-09T22:31:59.643Z</time></trkpt><trkpt lat="-36.734322" lon="174.404374"><ele>126.0</ele><time>2026-04-09T22:32:01.642Z</time></trkpt><trkpt lat="-36.7343369" lon="174.4044759"><ele>126.0</ele><time>2026-04-09T22:32:04.643Z</time></trkpt><trkpt lat="-36.7343595" lon="174.4045552"><ele>126.0</ele><time>2026-04-09T22:32:06.644Z</time></trkpt><trkpt lat="-36.7344216" lon="174.4045972"><ele>126.0</ele><time>2026-04-09T22:32:08.643Z</time></trkpt><trkpt lat="-36.7344794" lon="174.4046292"><ele>126.0</ele><time>2026-04-09T22:32:10.642Z</time></trkpt><trkpt lat="-36.7345406" lon="174.4046625"><ele>126.0</ele><time>2026-04-09T22:32:12.642Z</time></trkpt><trkpt lat="-36.7346029" lon="174.4046942"><ele>126.0</ele><time>2026-04-09T22:32:14.641Z</time></trkpt><trkpt lat="-36.7346719" lon="174.4047654"><ele>125.28571428571428</ele><time>2026-04-09T22:32:17.643Z</time></trkpt><trkpt lat="-36.7346545" lon="174.4048414"><ele>124.57142857142857</ele><time>2026-04-09T22:32:19.644Z</time></trkpt><trkpt lat="-36.7346365" lon="174.4049195"><ele>123.85714285714286</ele><time>2026-04-09T22:32:21.643Z</time></trkpt><trkpt lat="-36.7346327" lon="174.4050119"><ele>123.14285714285714</ele><time>2026-04-09T22:32:23.643Z</time></trkpt><trkpt lat="-36.7346566" lon="174.4051093"><ele>122.42857142857142</ele><time>2026-04-09T22:32:25.643Z</time></trkpt><trkpt lat="-36.7346704" lon="174.4052001"><ele>121.71428571428571</ele><time>2026-04-09T22:32:27.643Z</time></trkpt><trkpt lat="-36.7347074" lon="174.4052818"><ele>121.0</ele><time>2026-04-09T22:32:31.642Z</time></trkpt><trkpt lat="-36.7346831" lon="174.4053554"><ele>121.00000000000001</ele><time>2026-04-09T22:32:37.642Z</time></trkpt><trkpt lat="-36.7346462" lon="174.4054351"><ele>121.0</ele><time>2026-04-09T22:32:41.642Z</time></trkpt><trkpt lat="-36.7346587" lon="174.4055195"><ele>121.0</ele><time>2026-04-09T22:33:55.643Z</time></trkpt><trkpt lat="-36.7346889" lon="174.4055993"><ele>121.0</ele><time>2026-04-09T22:33:59.642Z</time></trkpt><trkpt lat="-36.7347104" lon="174.4056738"><ele>121.00000000000001</ele><time>2026-04-09T22:34:01.643Z</time></trkpt><trkpt lat="-36.7347366" lon="174.4057622"><ele>121.0</ele><time>2026-04-09T22:34:03.643Z</time></trkpt><trkpt lat="-36.7347884" lon="174.4058703"><ele>120.85714285714285</ele><time>2026-04-09T22:34:05.641Z</time></trkpt><trkpt lat="-36.7348213" lon="174.4059499"><ele>120.7142857142857</ele><time>2026-04-09T22:34:06.643Z</time></trkpt><trkpt lat="-36.7348616" lon="174.4060153"><ele>120.57142857142857</ele><time>2026-04-09T22:34:07.642Z</time></trkpt><trkpt lat="-36.7349054" lon="174.40609"><ele>120.42857142857142</ele><time>2026-04-09T22:34:08.643Z</time></trkpt><trkpt lat="-36.7349596" lon="174.4061419"><ele>120.28571428571428</ele><time>2026-04-09T22:34:09.642Z</time></trkpt><trkpt lat="-36.7350188" lon="174.4061811"><ele>120.14285714285714</ele><time>2026-04-09T22:34:10.642Z</time></trkpt><trkpt lat="-36.7350817" lon="174.4062071"><ele>120.0</ele><time>2026-04-09T22:34:11.643Z</time></trkpt><trkpt lat="-36.7352103" lon="174.4062319"><ele>120.0</ele><time>2026-04-09T22:34:13.643Z</time></trkpt><trkpt lat="-36.7353329" lon="174.4062287"><ele>120.0</ele><time>2026-04-09T22:34:15.642Z</time></trkpt><trkpt lat="-36.7353967" lon="174.4062258"><ele>120.0</ele><time>2026-04-09T22:34:16.643Z</time></trkpt><trkpt lat="-36.7354933" lon="174.4062865"><ele>120.0</ele><time>2026-04-09T22:34:18.643Z</time></trkpt><trkpt lat="-36.735534" lon="174.4063919"><ele>120.0</ele><time>2026-04-09T22:34:20.643Z</time></trkpt><trkpt lat="-36.7355573" lon="174.4065442"><ele>121.0</ele><time>2026-04-09T22:34:22.641Z</time></trkpt><trkpt lat="-36.735576" lon="174.4066713"><ele>122.0</ele><time>2026-04-09T22:34:24.642Z</time></trkpt><trkpt lat="-36.7355859" lon="174.4068272"><ele>123.0</ele><time>2026-04-09T22:34:26.642Z</time></trkpt><trkpt lat="-36.7355895" lon="174.4069152"><ele>124.0</ele><time>2026-04-09T22:34:27.643Z</time></trkpt><trkpt lat="-36.7355978" lon="174.4070636"><ele>125.0</ele><time>2026-04-09T22:34:29.642Z</time></trkpt><trkpt lat="-36.7356114" lon="174.4071468"><ele>125.2</ele><time>2026-04-09T22:34:30.642Z</time></trkpt><trkpt lat="-36.7356158" lon="174.4072346"><ele>125.4</ele><time>2026-04-09T22:34:31.643Z</time></trkpt><trkpt lat="-36.7356395" lon="174.407318"><ele>125.6</ele><time>2026-04-09T22:34:32.644Z</time></trkpt><trkpt lat="-36.7356514" lon="174.4074693"><ele>125.8</ele><time>2026-04-09T22:34:34.642Z</time></trkpt><trkpt lat="-36.7356474" lon="174.4075582"><ele>126.0</ele><time>2026-04-09T22:34:35.644Z</time></trkpt><trkpt lat="-36.7356401" lon="174.4077219"><ele>126.0</ele><time>2026-04-09T22:34:37.641Z</time></trkpt><trkpt lat="-36.735617" lon="174.4078792"><ele>126.0</ele><time>2026-04-09T22:34:39.642Z</time></trkpt><trkpt lat="-36.7356144" lon="174.4079685"><ele>126.0</ele><time>2026-04-09T22:34:40.643Z</time></trkpt><trkpt lat="-36.7356248" lon="174.4080518"><ele>126.0</ele><time>2026-04-09T22:34:41.644Z</time></trkpt><trkpt lat="-36.7356184" lon="174.4081847"><ele>126.0</ele><time>2026-04-09T22:34:43.642Z</time></trkpt><trkpt lat="-36.7356245" lon="174.4082982"><ele>125.5</ele><time>2026-04-09T22:34:45.643Z</time></trkpt><trkpt lat="-36.735606" lon="174.4084462"><ele>125.0</ele><time>2026-04-09T22:34:47.642Z</time></trkpt><trkpt lat="-36.7355823" lon="174.4085225"><ele>124.5</ele><time>2026-04-09T22:34:48.642Z</time></trkpt><trkpt lat="-36.7355492" lon="174.4086019"><ele>124.0</ele><time>2026-04-09T22:34:49.643Z</time></trkpt><trkpt lat="-36.7355006" lon="174.4086666"><ele>123.5</ele><time>2026-04-09T22:34:50.641Z</time></trkpt><trkpt lat="-36.7354518" lon="174.4087347"><ele>123.0</ele><time>2026-04-09T22:34:51.644Z</time></trkpt><trkpt lat="-36.7354116" lon="174.4088826"><ele>124.0</ele><time>2026-04-09T22:34:53.644Z</time></trkpt><trkpt lat="-36.7354015" lon="174.4090147"><ele>125.0</ele><time>2026-04-09T22:34:55.643Z</time></trkpt><trkpt lat="-36.7353867" lon="174.4091211"><ele>126.0</ele><time>2026-04-09T22:34:57.644Z</time></trkpt><trkpt lat="-36.7353638" lon="174.4092239"><ele>127.0</ele><time>2026-04-09T22:34:59.642Z</time></trkpt><trkpt lat="-36.7353519" lon="174.4093316"><ele>128.0</ele><time>2026-04-09T22:35:01.641Z</time></trkpt><trkpt lat="-36.7353404" lon="174.4094284"><ele>129.0</ele><time>2026-04-09T22:35:03.644Z</time></trkpt><trkpt lat="-36.7353362" lon="174.4095306"><ele>129.0</ele><time>2026-04-09T22:35:05.643Z</time></trkpt><trkpt lat="-36.7353537" lon="174.4096436"><ele>129.0</ele><time>2026-04-09T22:35:07.642Z</time></trkpt><trkpt lat="-36.73533" lon="174.4097902"><ele>129.0</ele><time>2026-04-09T22:35:09.641Z</time></trkpt><trkpt lat="-36.7353069" lon="174.4099109"><ele>129.0</ele><time>2026-04-09T22:35:11.643Z</time></trkpt><trkpt lat="-36.7352899" lon="174.4100295"><ele>129.0</ele><time>2026-04-09T22:35:13.643Z</time></trkpt><trkpt lat="-36.7352697" lon="174.4101127"><ele>129.4</ele><time>2026-04-09T22:35:15.642Z</time></trkpt><trkpt lat="-36.7352347" lon="174.4102005"><ele>129.8</ele><time>2026-04-09T22:35:17.642Z</time></trkpt><trkpt lat="-36.7351699" lon="174.4102738"><ele>130.2</ele><time>2026-04-09T22:35:19.643Z</time></trkpt><trkpt lat="-36.7350563" lon="174.4103069"><ele>130.6</ele><time>2026-04-09T22:35:21.643Z</time></trkpt><trkpt lat="-36.7349583" lon="174.4103096"><ele>131.0</ele><time>2026-04-09T22:35:23.642Z</time></trkpt><trkpt lat="-36.7348206" lon="174.4103551"><ele>129.6</ele><time>2026-04-09T22:35:25.643Z</time></trkpt><trkpt lat="-36.7347543" lon="174.4103733"><ele>128.2</ele><time>2026-04-09T22:35:26.643Z</time></trkpt><trkpt lat="-36.7346248" lon="174.4103879"><ele>126.80000000000001</ele><time>2026-04-09T22:35:28.641Z</time></trkpt><trkpt lat="-36.7345324" lon="174.4103704"><ele>125.4</ele><time>2026-04-09T22:35:30.643Z</time></trkpt><trkpt lat="-36.7344333" lon="174.4103646"><ele>124.0</ele><time>2026-04-09T22:35:32.643Z</time></trkpt><trkpt lat="-36.7343639" lon="174.4103709"><ele>124.00000000000001</ele><time>2026-04-09T22:35:34.643Z</time></trkpt><trkpt lat="-36.7343047" lon="174.4104178"><ele>124.0</ele><time>2026-04-09T22:35:38.643Z</time></trkpt><trkpt lat="-36.7342725" lon="174.4105414"><ele>124.0</ele><time>2026-04-09T22:35:41.641Z</time></trkpt><trkpt lat="-36.7342565" lon="174.410639"><ele>124.0</ele><time>2026-04-09T22:35:43.643Z</time></trkpt><trkpt lat="-36.734248" lon="174.4107297"><ele>124.00000000000001</ele><time>2026-04-09T22:35:46.642Z</time></trkpt><trkpt lat="-36.7341714" lon="174.410705"><ele>124.0</ele><time>2026-04-09T22:35:50.643Z</time></trkpt><trkpt lat="-36.7341168" lon="174.4106315"><ele>124.00000000000001</ele><time>2026-04-09T22:35:52.644Z</time></trkpt><trkpt lat="-36.7340366" lon="174.4105453"><ele>124.0</ele><time>2026-04-09T22:35:54.641Z</time></trkpt><trkpt lat="-36.7339402" lon="174.4105546"><ele>124.0</ele><time>2026-04-09T22:35:56.643Z</time></trkpt><trkpt lat="-36.7338698" lon="174.410593"><ele>124.0</ele><time>2026-04-09T22:35:58.642Z</time></trkpt><trkpt lat="-36.7338052" lon="174.4105701"><ele>124.00000000000001</ele><time>2026-04-09T22:36:01.643Z</time></trkpt><trkpt lat="-36.7337207" lon="174.4105323"><ele>124.0</ele><time>2026-04-09T22:36:03.643Z</time></trkpt><trkpt lat="-36.7336218" lon="174.4105343"><ele>124.00000000000001</ele><time>2026-04-09T22:36:05.643Z</time></trkpt><trkpt lat="-36.7335597" lon="174.410579"><ele>124.0</ele><time>2026-04-09T22:36:07.643Z</time></trkpt><trkpt lat="-36.733523" lon="174.4106776"><ele>124.0</ele><time>2026-04-09T22:36:10.644Z</time></trkpt><trkpt lat="-36.7334541" lon="174.4107349"><ele>124.0</ele><time>2026-04-09T22:36:13.643Z</time></trkpt><trkpt lat="-36.7333793" lon="174.4107553"><ele>124.00000000000001</ele><time>2026-04-09T22:36:15.643Z</time></trkpt><trkpt lat="-36.7333195" lon="174.4106953"><ele>124.0</ele><time>2026-04-09T22:36:18.641Z</time></trkpt><trkpt lat="-36.7332795" lon="174.4106199"><ele>124.28571428571429</ele><time>2026-04-09T22:36:22.643Z</time></trkpt><trkpt lat="-36.7332217" lon="174.4106921"><ele>124.57142857142858</ele><time>2026-04-09T22:36:26.642Z</time></trkpt><trkpt lat="-36.7331542" lon="174.4107203"><ele>124.85714285714286</ele><time>2026-04-09T22:36:29.642Z</time></trkpt><trkpt lat="-36.7330799" lon="174.4107158"><ele>125.14285714285714</ele><time>2026-04-09T22:36:32.643Z</time></trkpt><trkpt lat="-36.7331079" lon="174.4106248"><ele>125.42857142857143</ele><time>2026-04-09T22:36:39.643Z</time></trkpt><trkpt lat="-36.733114" lon="174.4105402"><ele>125.71428571428572</ele><time>2026-04-09T22:36:42.643Z</time></trkpt><trkpt lat="-36.7331327" lon="174.4104519"><ele>126.0</ele><time>2026-04-09T22:36:45.643Z</time></trkpt><trkpt lat="-36.7331877" lon="174.410362"><ele>126.0</ele><time>2026-04-09T22:36:48.641Z</time></trkpt><trkpt lat="-36.7331417" lon="174.410293"><ele>126.0</ele><time>2026-04-09T22:36:53.643Z</time></trkpt><trkpt lat="-36.7330652" lon="174.4102818"><ele>126.0</ele><time>2026-04-09T22:36:56.643Z</time></trkpt><trkpt lat="-36.7329838" lon="174.4102858"><ele>126.0</ele><time>2026-04-09T22:36:59.643Z</time></trkpt><trkpt lat="-36.7329073" lon="174.4103488"><ele>126.0</ele><time>2026-04-09T22:37:02.642Z</time></trkpt><trkpt lat="-36.7328425" lon="174.4103626"><ele>126.0</ele><time>2026-04-09T22:37:04.642Z</time></trkpt><trkpt lat="-36.7327672" lon="174.4103294"><ele>127.14285714285714</ele><time>2026-04-09T22:37:07.644Z</time></trkpt><trkpt lat="-36.7327023" lon="174.4103126"><ele>128.28571428571428</ele><time>2026-04-09T22:37:09.641Z</time></trkpt><trkpt lat="-36.7326236" lon="174.4102952"><ele>129.42857142857144</ele><time>2026-04-09T22:37:12.642Z</time></trkpt><trkpt lat="-36.7325482" lon="174.410256"><ele>130.57142857142856</ele><time>2026-04-09T22:37:15.643Z</time></trkpt><trkpt lat="-36.7324841" lon="174.4102243"><ele>131.71428571428572</ele><time>2026-04-09T22:37:17.642Z</time></trkpt><trkpt lat="-36.7324213" lon="174.4101993"><ele>132.85714285714286</ele><time>2026-04-09T22:37:19.641Z</time></trkpt><trkpt lat="-36.7323578" lon="174.4101766"><ele>134.0</ele><time>2026-04-09T22:37:21.642Z</time></trkpt><trkpt lat="-36.7322734" lon="174.4101445"><ele>134.0</ele><time>2026-04-09T22:37:24.642Z</time></trkpt><trkpt lat="-36.7321944" lon="174.4100934"><ele>134.0</ele><time>2026-04-09T22:37:27.642Z</time></trkpt><trkpt lat="-36.7321306" lon="174.4100614"><ele>134.0</ele><time>2026-04-09T22:37:29.642Z</time></trkpt><trkpt lat="-36.7320712" lon="174.4100243"><ele>134.0</ele><time>2026-04-09T22:37:31.642Z</time></trkpt><trkpt lat="-36.7319927" lon="174.4099791"><ele>134.0</ele><time>2026-04-09T22:37:34.642Z</time></trkpt><trkpt lat="-36.7319156" lon="174.4099422"><ele>134.0</ele><time>2026-04-09T22:37:37.643Z</time></trkpt><trkpt lat="-36.7318289" lon="174.4099463"><ele>134.33333333333331</ele><time>2026-04-09T22:37:40.643Z</time></trkpt><trkpt lat="-36.7317608" lon="174.4099845"><ele>134.66666666666666</ele><time>2026-04-09T22:37:42.643Z</time></trkpt><trkpt lat="-36.7316894" lon="174.4100351"><ele>135.0</ele><time>2026-04-09T22:37:44.643Z</time></trkpt><trkpt lat="-36.7316343" lon="174.4100989"><ele>135.33333333333334</ele><time>2026-04-09T22:37:46.642Z</time></trkpt><trkpt lat="-36.731566" lon="174.4101455"><ele>135.66666666666669</ele><time>2026-04-09T22:37:48.642Z</time></trkpt><trkpt lat="-36.73147" lon="174.4101583"><ele>136.0</ele><time>2026-04-09T22:37:51.643Z</time></trkpt><trkpt lat="-36.7313881" lon="174.4102176"><ele>135.99999999999997</ele><time>2026-04-09T22:37:54.641Z</time></trkpt><trkpt lat="-36.7313373" lon="174.4103006"><ele>136.0</ele><time>2026-04-09T22:37:57.643Z</time></trkpt><trkpt lat="-36.7312799" lon="174.4103566"><ele>136.0</ele><time>2026-04-09T22:37:59.643Z</time></trkpt><trkpt lat="-36.7312129" lon="174.4103917"><ele>136.0</ele><time>2026-04-09T22:38:01.641Z</time></trkpt><trkpt lat="-36.7311444" lon="174.41041"><ele>136.0</ele><time>2026-04-09T22:38:03.643Z</time></trkpt><trkpt lat="-36.7310725" lon="174.4104143"><ele>135.99999999999997</ele><time>2026-04-09T22:38:05.642Z</time></trkpt><trkpt lat="-36.730995" lon="174.4104008"><ele>136.0</ele><time>2026-04-09T22:38:07.642Z</time></trkpt><trkpt lat="-36.7309253" lon="174.4103524"><ele>136.33333333333334</ele><time>2026-04-09T22:38:09.642Z</time></trkpt><trkpt lat="-36.7308876" lon="174.410267"><ele>136.66666666666669</ele><time>2026-04-09T22:38:11.642Z</time></trkpt><trkpt lat="-36.7308236" lon="174.4101837"><ele>137.0</ele><time>2026-04-09T22:38:14.643Z</time></trkpt><trkpt lat="-36.7307615" lon="174.4102221"><ele>137.33333333333334</ele><time>2026-04-09T22:38:18.644Z</time></trkpt><trkpt lat="-36.7307208" lon="174.4101445"><ele>137.66666666666666</ele><time>2026-04-09T22:38:25.643Z</time></trkpt><trkpt lat="-36.7307159" lon="174.4100387"><ele>138.0</ele><time>2026-04-09T22:38:28.642Z</time></trkpt><trkpt lat="-36.7306646" lon="174.4099659"><ele>138.0</ele><time>2026-04-09T22:38:31.643Z</time></trkpt><trkpt lat="-36.7305998" lon="174.4099448"><ele>138.0</ele><time>2026-04-09T22:38:34.641Z</time></trkpt><trkpt lat="-36.7305559" lon="174.4098714"><ele>138.0</ele><time>2026-04-09T22:38:37.644Z</time></trkpt><trkpt lat="-36.7305826" lon="174.4097934"><ele>138.0</ele><time>2026-04-09T22:38:39.643Z</time></trkpt><trkpt lat="-36.7306237" lon="174.4097073"><ele>138.0</ele><time>2026-04-09T22:38:41.643Z</time></trkpt><trkpt lat="-36.7306686" lon="174.4096113"><ele>138.0</ele><time>2026-04-09T22:38:43.643Z</time></trkpt><trkpt lat="-36.7307181" lon="174.4094981"><ele>137.33333333333334</ele><time>2026-04-09T22:38:45.643Z</time></trkpt><trkpt lat="-36.7307663" lon="174.4093841"><ele>136.66666666666666</ele><time>2026-04-09T22:38:47.644Z</time></trkpt><trkpt lat="-36.7308061" lon="174.4092773"><ele>136.0</ele><time>2026-04-09T22:38:49.642Z</time></trkpt><trkpt lat="-36.7308412" lon="174.4091918"><ele>135.33333333333331</ele><time>2026-04-09T22:38:51.642Z</time></trkpt><trkpt lat="-36.7308061" lon="174.4091055"><ele>134.66666666666666</ele><time>2026-04-09T22:38:54.643Z</time></trkpt><trkpt lat="-36.7307395" lon="174.4090659"><ele>134.0</ele><time>2026-04-09T22:39:49.642Z</time></trkpt><trkpt lat="-36.7306737" lon="174.4090314"><ele>134.0</ele><time>2026-04-09T22:39:52.642Z</time></trkpt><trkpt lat="-36.7305876" lon="174.4090265"><ele>134.0</ele><time>2026-04-09T22:39:55.641Z</time></trkpt><trkpt lat="-36.7305299" lon="174.4090649"><ele>134.0</ele><time>2026-04-09T22:39:57.644Z</time></trkpt><trkpt lat="-36.7304656" lon="174.409119"><ele>134.0</ele><time>2026-04-09T22:39:59.642Z</time></trkpt><trkpt lat="-36.7303881" lon="174.4091537"><ele>134.0</ele><time>2026-04-09T22:40:01.642Z</time></trkpt><trkpt lat="-36.730272" lon="174.4091011"><ele>134.0</ele><time>2026-04-09T22:40:03.641Z</time></trkpt><trkpt lat="-36.7302049" lon="174.4090686"><ele>133.0</ele><time>2026-04-09T22:40:05.642Z</time></trkpt><trkpt lat="-36.7301339" lon="174.4090751"><ele>132.0</ele><time>2026-04-09T22:40:06.641Z</time></trkpt><trkpt lat="-36.7300602" lon="174.4091492"><ele>131.0</ele><time>2026-04-09T22:40:08.643Z</time></trkpt><trkpt lat="-36.7299994" lon="174.4092745"><ele>130.0</ele><time>2026-04-09T22:40:10.644Z</time></trkpt><trkpt lat="-36.7299628" lon="174.4093457"><ele>129.0</ele><time>2026-04-09T22:40:11.642Z</time></trkpt><trkpt lat="-36.7299247" lon="174.4094148"><ele>128.0</ele><time>2026-04-09T22:40:12.643Z</time></trkpt><trkpt lat="-36.7298447" lon="174.4094447"><ele>128.0</ele><time>2026-04-09T22:40:14.643Z</time></trkpt><trkpt lat="-36.7297471" lon="174.4093464"><ele>128.0</ele><time>2026-04-09T22:40:16.644Z</time></trkpt><trkpt lat="-36.7297103" lon="174.4092754"><ele>128.0</ele><time>2026-04-09T22:40:17.642Z</time></trkpt><trkpt lat="-36.7297108" lon="174.4091723"><ele>128.0</ele><time>2026-04-09T22:40:18.643Z</time></trkpt><trkpt lat="-36.7297193" lon="174.40909"><ele>128.0</ele><time>2026-04-09T22:40:19.643Z</time></trkpt><trkpt lat="-36.729746" lon="174.4089504"><ele>128.0</ele><time>2026-04-09T22:40:21.641Z</time></trkpt><trkpt lat="-36.7296826" lon="174.4088644"><ele>128.0</ele><time>2026-04-09T22:40:23.642Z</time></trkpt><trkpt lat="-36.7295964" lon="174.4088175"><ele>128.0</ele><time>2026-04-09T22:40:25.641Z</time></trkpt><trkpt lat="-36.7294888" lon="174.4088261"><ele>128.0</ele><time>2026-04-09T22:40:27.641Z</time></trkpt><trkpt lat="-36.7294041" lon="174.4088555"><ele>128.0</ele><time>2026-04-09T22:40:28.642Z</time></trkpt><trkpt lat="-36.7293184" lon="174.4088636"><ele>127.0</ele><time>2026-04-09T22:40:29.642Z</time></trkpt><trkpt lat="-36.7292305" lon="174.4089369"><ele>126.00000000000001</ele><time>2026-04-09T22:40:31.642Z</time></trkpt><trkpt lat="-36.7291452" lon="174.408973"><ele>125.00000000000001</ele><time>2026-04-09T22:40:33.642Z</time></trkpt><trkpt lat="-36.7290669" lon="174.408925"><ele>124.0</ele><time>2026-04-09T22:40:35.643Z</time></trkpt><trkpt lat="-36.7290036" lon="174.4088822"><ele>123.0</ele><time>2026-04-09T22:40:37.641Z</time></trkpt><trkpt lat="-36.7289138" lon="174.4088433"><ele>122.16666666666667</ele><time>2026-04-09T22:40:39.643Z</time></trkpt><trkpt lat="-36.7288243" lon="174.4087868"><ele>121.33333333333334</ele><time>2026-04-09T22:40:41.641Z</time></trkpt><trkpt lat="-36.7287678" lon="174.4087136"><ele>120.5</ele><time>2026-04-09T22:40:43.642Z</time></trkpt><trkpt lat="-36.728737" lon="174.4086266"><ele>119.66666666666667</ele><time>2026-04-09T22:40:45.642Z</time></trkpt><trkpt lat="-36.7286782" lon="174.4085582"><ele>118.83333333333334</ele><time>2026-04-09T22:40:47.642Z</time></trkpt><trkpt lat="-36.7286049" lon="174.4085458"><ele>118.0</ele><time>2026-04-09T22:40:50.641Z</time></trkpt><trkpt lat="-36.7285334" lon="174.4085096"><ele>118.00000000000001</ele><time>2026-04-09T22:40:52.642Z</time></trkpt><trkpt lat="-36.7284559" lon="174.4084771"><ele>118.0</ele><time>2026-04-09T22:40:54.642Z</time></trkpt><trkpt lat="-36.7283693" lon="174.408468"><ele>118.0</ele><time>2026-04-09T22:40:56.641Z</time></trkpt><trkpt lat="-36.7282998" lon="174.4084898"><ele>118.0</ele><time>2026-04-09T22:40:58.643Z</time></trkpt><trkpt lat="-36.728234" lon="174.4085609"><ele>118.00000000000001</ele><time>2026-04-09T22:41:01.643Z</time></trkpt><trkpt lat="-36.728193" lon="174.4086533"><ele>118.0</ele><time>2026-04-09T22:41:04.644Z</time></trkpt><trkpt lat="-36.7281284" lon="174.4086784"><ele>118.00000000000001</ele><time>2026-04-09T22:41:07.644Z</time></trkpt><trkpt lat="-36.7280631" lon="174.4086981"><ele>118.0</ele><time>2026-04-09T22:41:10.641Z</time></trkpt><trkpt lat="-36.7279834" lon="174.4087652"><ele>118.0</ele><time>2026-04-09T22:41:13.644Z</time></trkpt><trkpt lat="-36.7279003" lon="174.4087699"><ele>118.0</ele><time>2026-04-09T22:41:15.643Z</time></trkpt><trkpt lat="-36.7278321" lon="174.4087277"><ele>118.00000000000001</ele><time>2026-04-09T22:41:17.643Z</time></trkpt><trkpt lat="-36.7277754" lon="174.4086422"><ele>118.0</ele><time>2026-04-09T22:41:19.644Z</time></trkpt><trkpt lat="-36.7277187" lon="174.4085432"><ele>118.5</ele><time>2026-04-09T22:41:21.643Z</time></trkpt><trkpt lat="-36.7276623" lon="174.4084458"><ele>119.0</ele><time>2026-04-09T22:41:23.642Z</time></trkpt><trkpt lat="-36.7275923" lon="174.4083472"><ele>119.5</ele><time>2026-04-09T22:41:25.641Z</time></trkpt><trkpt lat="-36.727437" lon="174.4083005"><ele>120.0</ele><time>2026-04-09T22:41:27.642Z</time></trkpt><trkpt lat="-36.7273374" lon="174.4083231"><ele>120.0</ele><time>2026-04-09T22:41:29.641Z</time></trkpt><trkpt lat="-36.7272447" lon="174.4083164"><ele>120.0</ele><time>2026-04-09T22:41:31.643Z</time></trkpt><trkpt lat="-36.7271474" lon="174.408242"><ele>120.0</ele><time>2026-04-09T22:41:33.641Z</time></trkpt><trkpt lat="-36.7270893" lon="174.4081285"><ele>120.0</ele><time>2026-04-09T22:41:35.643Z</time></trkpt><trkpt lat="-36.7270919" lon="174.4080484"><ele>120.0</ele><time>2026-04-09T22:41:36.644Z</time></trkpt><trkpt lat="-36.7270262" lon="174.4079151"><ele>119.16666666666667</ele><time>2026-04-09T22:41:38.643Z</time></trkpt><trkpt lat="-36.7269969" lon="174.4078292"><ele>118.33333333333334</ele><time>2026-04-09T22:41:39.643Z</time></trkpt><trkpt lat="-36.7269391" lon="174.4077041"><ele>117.5</ele><time>2026-04-09T22:41:41.642Z</time></trkpt><trkpt lat="-36.7269492" lon="174.4076241"><ele>116.66666666666667</ele><time>2026-04-09T22:41:42.642Z</time></trkpt><trkpt lat="-36.7268722" lon="174.4075524"><ele>115.83333333333334</ele><time>2026-04-09T22:41:44.641Z</time></trkpt><trkpt lat="-36.7268213" lon="174.4076219"><ele>115.0</ele><time>2026-04-09T22:41:46.642Z</time></trkpt><trkpt lat="-36.7267443" lon="174.4076892"><ele>113.66666666666667</ele><time>2026-04-09T22:41:48.641Z</time></trkpt><trkpt lat="-36.7266861" lon="174.4075771"><ele>112.33333333333334</ele><time>2026-04-09T22:41:51.643Z</time></trkpt><trkpt lat="-36.7267137" lon="174.4074537"><ele>111.0</ele><time>2026-04-09T22:41:53.643Z</time></trkpt><trkpt lat="-36.7266884" lon="174.4073593"><ele>109.66666666666666</ele><time>2026-04-09T22:41:56.641Z</time></trkpt><trkpt lat="-36.7266419" lon="174.4072972"><ele>108.33333333333333</ele><time>2026-04-09T22:41:59.642Z</time></trkpt><trkpt lat="-36.726585" lon="174.4072229"><ele>107.0</ele><time>2026-04-09T22:42:02.642Z</time></trkpt><trkpt lat="-36.7265318" lon="174.4071411"><ele>106.83333333333333</ele><time>2026-04-09T22:42:04.642Z</time></trkpt><trkpt lat="-36.7264569" lon="174.4070552"><ele>106.66666666666666</ele><time>2026-04-09T22:42:06.642Z</time></trkpt><trkpt lat="-36.7263902" lon="174.407031"><ele>106.5</ele><time>2026-04-09T22:42:07.643Z</time></trkpt><trkpt lat="-36.7262934" lon="174.4070104"><ele>106.33333333333334</ele><time>2026-04-09T22:42:09.641Z</time></trkpt><trkpt lat="-36.726239" lon="174.406946"><ele>106.16666666666667</ele><time>2026-04-09T22:42:11.641Z</time></trkpt><trkpt lat="-36.7261779" lon="174.4068905"><ele>106.0</ele><time>2026-04-09T22:42:12.643Z</time></trkpt><trkpt lat="-36.7261215" lon="174.4068362"><ele>106.00000000000001</ele><time>2026-04-09T22:42:13.642Z</time></trkpt><trkpt lat="-36.7260679" lon="174.4067711"><ele>106.0</ele><time>2026-04-09T22:42:14.642Z</time></trkpt><trkpt lat="-36.7260346" lon="174.4066999"><ele>106.0</ele><time>2026-04-09T22:42:15.643Z</time></trkpt><trkpt lat="-36.7259647" lon="174.4066376"><ele>106.0</ele><time>2026-04-09T22:42:18.642Z</time></trkpt><trkpt lat="-36.7258835" lon="174.406622"><ele>106.00000000000001</ele><time>2026-04-09T22:42:20.643Z</time></trkpt><trkpt lat="-36.7257919" lon="174.4066169"><ele>106.0</ele><time>2026-04-09T22:42:22.641Z</time></trkpt><trkpt lat="-36.7257142" lon="174.406635"><ele>105.00000000000001</ele><time>2026-04-09T22:42:24.641Z</time></trkpt><trkpt lat="-36.7256423" lon="174.406697"><ele>104.0</ele><time>2026-04-09T22:42:27.642Z</time></trkpt><trkpt lat="-36.725596" lon="174.4067628"><ele>103.0</ele><time>2026-04-09T22:42:29.644Z</time></trkpt><trkpt lat="-36.7255522" lon="174.4068325"><ele>102.0</ele><time>2026-04-09T22:42:31.643Z</time></trkpt><trkpt lat="-36.7255022" lon="174.4069096"><ele>101.00000000000001</ele><time>2026-04-09T22:42:33.643Z</time></trkpt><trkpt lat="-36.725462" lon="174.4069859"><ele>100.0</ele><time>2026-04-09T22:42:35.642Z</time></trkpt><trkpt lat="-36.7254227" lon="174.4070651"><ele>99.66666666666667</ele><time>2026-04-09T22:42:37.642Z</time></trkpt><trkpt lat="-36.7253743" lon="174.4071665"><ele>99.33333333333334</ele><time>2026-04-09T22:42:39.642Z</time></trkpt><trkpt lat="-36.7253379" lon="174.407259"><ele>99.0</ele><time>2026-04-09T22:42:41.643Z</time></trkpt><trkpt lat="-36.7252912" lon="174.4073359"><ele>98.66666666666666</ele><time>2026-04-09T22:42:43.642Z</time></trkpt><trkpt lat="-36.7252416" lon="174.4073997"><ele>98.33333333333333</ele><time>2026-04-09T22:42:45.644Z</time></trkpt><trkpt lat="-36.7251822" lon="174.4074504"><ele>98.0</ele><time>2026-04-09T22:42:47.643Z</time></trkpt><trkpt lat="-36.7251367" lon="174.4075111"><ele>97.99999999999999</ele><time>2026-04-09T22:42:49.642Z</time></trkpt><trkpt lat="-36.7250935" lon="174.4075693"><ele>98.0</ele><time>2026-04-09T22:42:52.641Z</time></trkpt><trkpt lat="-36.7250542" lon="174.4074812"><ele>98.0</ele><time>2026-04-09T22:42:57.642Z</time></trkpt><trkpt lat="-36.7249881" lon="174.4074405"><ele>98.0</ele><time>2026-04-09T22:43:00.641Z</time></trkpt><trkpt lat="-36.7249091" lon="174.4074145"><ele>97.99999999999999</ele><time>2026-04-09T22:43:03.643Z</time></trkpt><trkpt lat="-36.7248878" lon="174.4073347"><ele>98.0</ele><time>2026-04-09T22:43:05.641Z</time></trkpt><trkpt lat="-36.7248821" lon="174.4072276"><ele>98.85714285714286</ele><time>2026-04-09T22:43:08.641Z</time></trkpt><trkpt lat="-36.7248713" lon="174.4071415"><ele>99.71428571428572</ele><time>2026-04-09T22:43:10.642Z</time></trkpt><trkpt lat="-36.724822" lon="174.4070525"><ele>100.57142857142857</ele><time>2026-04-09T22:43:13.643Z</time></trkpt><trkpt lat="-36.7247477" lon="174.4070192"><ele>101.42857142857143</ele><time>2026-04-09T22:43:16.643Z</time></trkpt><trkpt lat="-36.7246783" lon="174.4070075"><ele>102.28571428571429</ele><time>2026-04-09T22:43:18.642Z</time></trkpt><trkpt lat="-36.724605" lon="174.4069748"><ele>103.14285714285714</ele><time>2026-04-09T22:43:20.643Z</time></trkpt><trkpt lat="-36.7245433" lon="174.4069503"><ele>104.0</ele><time>2026-04-09T22:43:22.644Z</time></trkpt><trkpt lat="-36.7245089" lon="174.4068827"><ele>103.99999999999999</ele><time>2026-04-09T22:43:24.643Z</time></trkpt><trkpt lat="-36.7244806" lon="174.4067827"><ele>104.0</ele><time>2026-04-09T22:43:26.642Z</time></trkpt><trkpt lat="-36.7244254" lon="174.4067075"><ele>104.0</ele><time>2026-04-09T22:43:28.642Z</time></trkpt><trkpt lat="-36.7243438" lon="174.4066022"><ele>104.0</ele><time>2026-04-09T22:43:30.642Z</time></trkpt><trkpt lat="-36.7242791" lon="174.4065858"><ele>103.99999999999999</ele><time>2026-04-09T22:43:32.641Z</time></trkpt><trkpt lat="-36.724199" lon="174.4065952"><ele>104.0</ele><time>2026-04-09T22:43:34.642Z</time></trkpt><trkpt lat="-36.7241233" lon="174.4065994"><ele>104.28571428571428</ele><time>2026-04-09T22:43:36.643Z</time></trkpt><trkpt lat="-36.7240562" lon="174.4066013"><ele>104.57142857142858</ele><time>2026-04-09T22:43:38.642Z</time></trkpt><trkpt lat="-36.723971" lon="174.4065846"><ele>104.85714285714286</ele><time>2026-04-09T22:43:40.642Z</time></trkpt><trkpt lat="-36.7239035" lon="174.4065458"><ele>105.14285714285714</ele><time>2026-04-09T22:43:42.642Z</time></trkpt><trkpt lat="-36.7238529" lon="174.4064973"><ele>105.42857142857142</ele><time>2026-04-09T22:43:44.642Z</time></trkpt><trkpt lat="-36.7237767" lon="174.4064781"><ele>105.71428571428572</ele><time>2026-04-09T22:43:47.642Z</time></trkpt><trkpt lat="-36.7237211" lon="174.4064186"><ele>106.0</ele><time>2026-04-09T22:43:49.642Z</time></trkpt><trkpt lat="-36.7236704" lon="174.4063476"><ele>105.8</ele><time>2026-04-09T22:43:51.643Z</time></trkpt><trkpt lat="-36.7235931" lon="174.4063076"><ele>105.6</ele><time>2026-04-09T22:43:53.643Z</time></trkpt><trkpt lat="-36.7235137" lon="174.4062717"><ele>105.4</ele><time>2026-04-09T22:43:55.642Z</time></trkpt><trkpt lat="-36.72343" lon="174.4062133"><ele>105.2</ele><time>2026-04-09T22:43:57.642Z</time></trkpt><trkpt lat="-36.723341" lon="174.4061839"><ele>105.0</ele><time>2026-04-09T22:43:59.641Z</time></trkpt><trkpt lat="-36.7232136" lon="174.4061255"><ele>104.0</ele><time>2026-04-09T22:44:01.641Z</time></trkpt><trkpt lat="-36.7231509" lon="174.4061024"><ele>103.0</ele><time>2026-04-09T22:44:02.642Z</time></trkpt><trkpt lat="-36.7230388" lon="174.4060586"><ele>102.0</ele><time>2026-04-09T22:44:04.641Z</time></trkpt><trkpt lat="-36.7229401" lon="174.4060112"><ele>101.0</ele><time>2026-04-09T22:44:06.641Z</time></trkpt><trkpt lat="-36.7228308" lon="174.4060163"><ele>100.0</ele><time>2026-04-09T22:44:08.642Z</time></trkpt><trkpt lat="-36.7227618" lon="174.4060868"><ele>99.50000000000001</ele><time>2026-04-09T22:44:10.642Z</time></trkpt><trkpt lat="-36.7227111" lon="174.4061842"><ele>99.0</ele><time>2026-04-09T22:44:12.642Z</time></trkpt><trkpt lat="-36.7226785" lon="174.4062563"><ele>98.5</ele><time>2026-04-09T22:44:13.641Z</time></trkpt><trkpt lat="-36.7226149" lon="174.4063682"><ele>98.0</ele><time>2026-04-09T22:44:15.642Z</time></trkpt><trkpt lat="-36.7225742" lon="174.4064698"><ele>97.50000000000001</ele><time>2026-04-09T22:44:17.641Z</time></trkpt><trkpt lat="-36.7224977" lon="174.4065064"><ele>97.0</ele><time>2026-04-09T22:44:19.643Z</time></trkpt><trkpt lat="-36.7224324" lon="174.4065131"><ele>97.00000000000001</ele><time>2026-04-09T22:44:21.643Z</time></trkpt><trkpt lat="-36.7223438" lon="174.4064772"><ele>97.0</ele><time>2026-04-09T22:44:23.641Z</time></trkpt><trkpt lat="-36.7222373" lon="174.4063774"><ele>97.0</ele><time>2026-04-09T22:44:25.642Z</time></trkpt><trkpt lat="-36.7221752" lon="174.4063395"><ele>97.0</ele><time>2026-04-09T22:44:27.642Z</time></trkpt><trkpt lat="-36.7221151" lon="174.406316"><ele>97.00000000000001</ele><time>2026-04-09T22:44:28.642Z</time></trkpt><trkpt lat="-36.7220516" lon="174.4062913"><ele>97.0</ele><time>2026-04-09T22:44:29.642Z</time></trkpt><trkpt lat="-36.7219901" lon="174.4062625"><ele>97.0</ele><time>2026-04-09T22:44:30.641Z</time></trkpt><trkpt lat="-36.7219239" lon="174.4062329"><ele>97.0</ele><time>2026-04-09T22:44:32.641Z</time></trkpt><trkpt lat="-36.7218638" lon="174.4061659"><ele>97.0</ele><time>2026-04-09T22:44:34.643Z</time></trkpt><trkpt lat="-36.7217774" lon="174.4060095"><ele>97.0</ele><time>2026-04-09T22:44:36.644Z</time></trkpt><trkpt lat="-36.7217008" lon="174.4058898"><ele>97.0</ele><time>2026-04-09T22:44:38.642Z</time></trkpt><trkpt lat="-36.7216287" lon="174.4057711"><ele>95.8</ele><time>2026-04-09T22:44:40.642Z</time></trkpt><trkpt lat="-36.7215312" lon="174.4056792"><ele>94.6</ele><time>2026-04-09T22:44:42.643Z</time></trkpt><trkpt lat="-36.7214455" lon="174.4056027"><ele>93.39999999999999</ele><time>2026-04-09T22:44:44.642Z</time></trkpt><trkpt lat="-36.7214007" lon="174.4055131"><ele>92.19999999999999</ele><time>2026-04-09T22:44:45.647Z</time></trkpt><trkpt lat="-36.7213487" lon="174.4054573"><ele>91.0</ele><time>2026-04-09T22:44:46.642Z</time></trkpt><trkpt lat="-36.7213111" lon="174.4053825"><ele>90.66666666666666</ele><time>2026-04-09T22:44:47.642Z</time></trkpt><trkpt lat="-36.7212259" lon="174.4053721"><ele>90.33333333333333</ele><time>2026-04-09T22:44:50.641Z</time></trkpt><trkpt lat="-36.7211275" lon="174.4053947"><ele>90.0</ele><time>2026-04-09T22:44:53.643Z</time></trkpt><trkpt lat="-36.721052" lon="174.4054"><ele>89.66666666666667</ele><time>2026-04-09T22:44:55.641Z</time></trkpt><trkpt lat="-36.7209773" lon="174.4053965"><ele>89.33333333333334</ele><time>2026-04-09T22:44:57.642Z</time></trkpt><trkpt lat="-36.7209007" lon="174.405355"><ele>89.0</ele><time>2026-04-09T22:44:59.643Z</time></trkpt><trkpt lat="-36.7208668" lon="174.4052531"><ele>88.5</ele><time>2026-04-09T22:45:01.642Z</time></trkpt><trkpt lat="-36.72085" lon="174.4051604"><ele>88.0</ele><time>2026-04-09T22:45:03.642Z</time></trkpt><trkpt lat="-36.7208562" lon="174.4050568"><ele>87.5</ele><time>2026-04-09T22:45:06.641Z</time></trkpt><trkpt lat="-36.7208175" lon="174.4049631"><ele>87.0</ele><time>2026-04-09T22:45:09.643Z</time></trkpt><trkpt lat="-36.7208118" lon="174.4048761"><ele>86.5</ele><time>2026-04-09T22:45:12.643Z</time></trkpt><trkpt lat="-36.7208798" lon="174.404817"><ele>86.0</ele><time>2026-04-09T22:45:15.643Z</time></trkpt><trkpt lat="-36.7209275" lon="174.4047509"><ele>87.66666666666667</ele><time>2026-04-09T22:45:18.642Z</time></trkpt><trkpt lat="-36.7209723" lon="174.4046577"><ele>89.33333333333334</ele><time>2026-04-09T22:45:21.641Z</time></trkpt><trkpt lat="-36.7210383" lon="174.4045948"><ele>91.0</ele><time>2026-04-09T22:45:24.642Z</time></trkpt><trkpt lat="-36.7210845" lon="174.4045264"><ele>92.66666666666667</ele><time>2026-04-09T22:45:26.643Z</time></trkpt><trkpt lat="-36.7211543" lon="174.4044751"><ele>94.33333333333333</ele><time>2026-04-09T22:45:29.642Z</time></trkpt><trkpt lat="-36.7212319" lon="174.4044448"><ele>96.0</ele><time>2026-04-09T22:45:31.642Z</time></trkpt><trkpt lat="-36.7213064" lon="174.4043926"><ele>96.0</ele><time>2026-04-09T22:45:33.642Z</time></trkpt><trkpt lat="-36.7213653" lon="174.4043516"><ele>96.0</ele><time>2026-04-09T22:45:35.641Z</time></trkpt><trkpt lat="-36.7214411" lon="174.4043378"><ele>96.0</ele><time>2026-04-09T22:45:38.642Z</time></trkpt><trkpt lat="-36.7215108" lon="174.4043654"><ele>96.0</ele><time>2026-04-09T22:45:40.642Z</time></trkpt><trkpt lat="-36.7215879" lon="174.4043674"><ele>96.0</ele><time>2026-04-09T22:45:42.642Z</time></trkpt><trkpt lat="-36.7216778" lon="174.404367"><ele>96.0</ele><time>2026-04-09T22:45:45.641Z</time></trkpt><trkpt lat="-36.7217526" lon="174.4043704"><ele>96.0</ele><time>2026-04-09T22:45:48.641Z</time></trkpt><trkpt lat="-36.7218166" lon="174.4043842"><ele>96.0</ele><time>2026-04-09T22:45:50.642Z</time></trkpt><trkpt lat="-36.7218799" lon="174.4043958"><ele>96.0</ele><time>2026-04-09T22:45:52.641Z</time></trkpt><trkpt lat="-36.7219571" lon="174.4044213"><ele>96.0</ele><time>2026-04-09T22:45:55.642Z</time></trkpt><trkpt lat="-36.7220154" lon="174.4044557"><ele>96.0</ele><time>2026-04-09T22:45:57.642Z</time></trkpt><trkpt lat="-36.7220984" lon="174.4045136"><ele>96.0</ele><time>2026-04-09T22:46:00.642Z</time></trkpt><trkpt lat="-36.7221753" lon="174.4045535"><ele>96.99999999999999</ele><time>2026-04-09T22:46:03.641Z</time></trkpt><trkpt lat="-36.7222334" lon="174.4045932"><ele>98.0</ele><time>2026-04-09T22:46:07.642Z</time></trkpt><trkpt lat="-36.7222938" lon="174.4045181"><ele>99.0</ele><time>2026-04-09T22:46:11.641Z</time></trkpt><trkpt lat="-36.7223046" lon="174.4044291"><ele>100.0</ele><time>2026-04-09T22:46:14.644Z</time></trkpt><trkpt lat="-36.722338" lon="174.4043503"><ele>101.0</ele><time>2026-04-09T22:46:18.643Z</time></trkpt><trkpt lat="-36.7224034" lon="174.4043583"><ele>101.99999999999999</ele><time>2026-04-09T22:46:20.642Z</time></trkpt><trkpt lat="-36.7224414" lon="174.4044472"><ele>103.0</ele><time>2026-04-09T22:46:23.643Z</time></trkpt><trkpt lat="-36.7224598" lon="174.4045455"><ele>103.00000000000001</ele><time>2026-04-09T22:46:26.641Z</time></trkpt><trkpt lat="-36.7224861" lon="174.4046392"><ele>103.0</ele><time>2026-04-09T22:46:29.642Z</time></trkpt><trkpt lat="-36.7225506" lon="174.4047135"><ele>103.0</ele><time>2026-04-09T22:46:32.642Z</time></trkpt><trkpt lat="-36.7226191" lon="174.4047375"><ele>103.0</ele><time>2026-04-09T22:46:34.641Z</time></trkpt><trkpt lat="-36.7226931" lon="174.4047436"><ele>103.00000000000001</ele><time>2026-04-09T22:46:37.641Z</time></trkpt><trkpt lat="-36.7227648" lon="174.4047757"><ele>103.0</ele><time>2026-04-09T22:46:40.641Z</time></trkpt><trkpt lat="-36.7228434" lon="174.4047871"><ele>103.50000000000001</ele><time>2026-04-09T22:46:43.642Z</time></trkpt><trkpt lat="-36.7229295" lon="174.4048362"><ele>104.0</ele><time>2026-04-09T22:46:46.642Z</time></trkpt><trkpt lat="-36.7230124" lon="174.4048931"><ele>104.5</ele><time>2026-04-09T22:46:49.643Z</time></trkpt><trkpt lat="-36.7230862" lon="174.404905"><ele>105.0</ele><time>2026-04-09T22:46:51.642Z</time></trkpt><trkpt lat="-36.7231575" lon="174.4049174"><ele>105.50000000000001</ele><time>2026-04-09T22:46:53.642Z</time></trkpt><trkpt lat="-36.7232175" lon="174.4049711"><ele>106.0</ele><time>2026-04-09T22:46:55.642Z</time></trkpt><trkpt lat="-36.7233115" lon="174.4050119"><ele>106.00000000000001</ele><time>2026-04-09T22:46:58.642Z</time></trkpt><trkpt lat="-36.7233914" lon="174.4050324"><ele>106.0</ele><time>2026-04-09T22:47:00.643Z</time></trkpt><trkpt lat="-36.7235081" lon="174.4050652"><ele>106.0</ele><time>2026-04-09T22:47:03.643Z</time></trkpt><trkpt lat="-36.7235885" lon="174.4051188"><ele>106.0</ele><time>2026-04-09T22:47:06.641Z</time></trkpt><trkpt lat="-36.7236502" lon="174.4051405"><ele>106.00000000000001</ele><time>2026-04-09T22:47:08.642Z</time></trkpt><trkpt lat="-36.7237338" lon="174.4051259"><ele>106.0</ele><time>2026-04-09T22:47:12.641Z</time></trkpt><trkpt lat="-36.7238002" lon="174.4051098"><ele>106.16666666666667</ele><time>2026-04-09T22:47:14.642Z</time></trkpt><trkpt lat="-36.7238683" lon="174.4051182"><ele>106.33333333333334</ele><time>2026-04-09T22:47:16.642Z</time></trkpt><trkpt lat="-36.7239553" lon="174.4051227"><ele>106.5</ele><time>2026-04-09T22:47:19.641Z</time></trkpt><trkpt lat="-36.7240318" lon="174.4051603"><ele>106.66666666666666</ele><time>2026-04-09T22:47:22.642Z</time></trkpt><trkpt lat="-36.7241148" lon="174.4051952"><ele>106.83333333333333</ele><time>2026-04-09T22:47:25.643Z</time></trkpt><trkpt lat="-36.7241875" lon="174.4052754"><ele>107.0</ele><time>2026-04-09T22:47:28.642Z</time></trkpt><trkpt lat="-36.7242598" lon="174.4053624"><ele>106.99999999999999</ele><time>2026-04-09T22:47:31.644Z</time></trkpt><trkpt lat="-36.7243252" lon="174.40539"><ele>107.0</ele><time>2026-04-09T22:47:33.642Z</time></trkpt><trkpt lat="-36.7243997" lon="174.4054171"><ele>107.0</ele><time>2026-04-09T22:47:35.642Z</time></trkpt><trkpt lat="-36.7244828" lon="174.4054582"><ele>107.0</ele><time>2026-04-09T22:47:37.642Z</time></trkpt><trkpt lat="-36.7245699" lon="174.4054851"><ele>106.99999999999999</ele><time>2026-04-09T22:47:39.641Z</time></trkpt><trkpt lat="-36.7246564" lon="174.4054986"><ele>107.0</ele><time>2026-04-09T22:47:41.641Z</time></trkpt><trkpt lat="-36.7247381" lon="174.4054957"><ele>106.99999999999999</ele><time>2026-04-09T22:47:43.642Z</time></trkpt><trkpt lat="-36.7248107" lon="174.4055655"><ele>107.0</ele><time>2026-04-09T22:47:46.642Z</time></trkpt><trkpt lat="-36.7248726" lon="174.4055821"><ele>107.0</ele><time>2026-04-09T22:47:48.641Z</time></trkpt><trkpt lat="-36.724961" lon="174.4055963"><ele>107.0</ele><time>2026-04-09T22:47:51.641Z</time></trkpt><trkpt lat="-36.7250258" lon="174.4056384"><ele>106.99999999999999</ele><time>2026-04-09T22:47:53.642Z</time></trkpt><trkpt lat="-36.7250927" lon="174.4056887"><ele>107.0</ele><time>2026-04-09T22:47:55.641Z</time></trkpt><trkpt lat="-36.7251543" lon="174.4057078"><ele>106.6</ele><time>2026-04-09T22:47:57.642Z</time></trkpt><trkpt lat="-36.7252559" lon="174.4056815"><ele>106.19999999999999</ele><time>2026-04-09T22:48:00.641Z</time></trkpt><trkpt lat="-36.7253237" lon="174.4056447"><ele>105.8</ele><time>2026-04-09T22:48:02.642Z</time></trkpt><trkpt lat="-36.7254278" lon="174.4056083"><ele>105.4</ele><time>2026-04-09T22:48:04.642Z</time></trkpt><trkpt lat="-36.7255323" lon="174.405629"><ele>105.0</ele><time>2026-04-09T22:48:06.642Z</time></trkpt><trkpt lat="-36.7256311" lon="174.4056339"><ele>105.0</ele><time>2026-04-09T22:48:07.641Z</time></trkpt><trkpt lat="-36.7257222" lon="174.4056174"><ele>105.0</ele><time>2026-04-09T22:48:09.641Z</time></trkpt><trkpt lat="-36.7257795" lon="174.4055776"><ele>105.0</ele><time>2026-04-09T22:48:11.643Z</time></trkpt><trkpt lat="-36.7258407" lon="174.4055509"><ele>105.0</ele><time>2026-04-09T22:48:13.643Z</time></trkpt><trkpt lat="-36.7259151" lon="174.4055532"><ele>105.0</ele><time>2026-04-09T22:48:15.641Z</time></trkpt><trkpt lat="-36.7260033" lon="174.4056015"><ele>105.0</ele><time>2026-04-09T22:48:18.641Z</time></trkpt><trkpt lat="-36.7260539" lon="174.4056507"><ele>105.66666666666667</ele><time>2026-04-09T22:48:20.641Z</time></trkpt><trkpt lat="-36.7261058" lon="174.4057025"><ele>106.33333333333334</ele><time>2026-04-09T22:48:22.641Z</time></trkpt><trkpt lat="-36.7261633" lon="174.4057516"><ele>107.0</ele><time>2026-04-09T22:48:24.641Z</time></trkpt><trkpt lat="-36.7262463" lon="174.4057713"><ele>107.66666666666667</ele><time>2026-04-09T22:48:26.643Z</time></trkpt><trkpt lat="-36.7263365" lon="174.4057666"><ele>108.33333333333334</ele><time>2026-04-09T22:48:28.642Z</time></trkpt><trkpt lat="-36.7264081" lon="174.4057315"><ele>109.0</ele><time>2026-04-09T22:48:31.642Z</time></trkpt><trkpt lat="-36.7264978" lon="174.4057319"><ele>109.00000000000001</ele><time>2026-04-09T22:48:33.642Z</time></trkpt><trkpt lat="-36.726575" lon="174.4057801"><ele>109.0</ele><time>2026-04-09T22:48:35.642Z</time></trkpt><trkpt lat="-36.7266417" lon="174.4058726"><ele>109.0</ele><time>2026-04-09T22:48:37.642Z</time></trkpt><trkpt lat="-36.7266962" lon="174.4059436"><ele>109.0</ele><time>2026-04-09T22:48:38.642Z</time></trkpt><trkpt lat="-36.7267531" lon="174.4060229"><ele>109.00000000000001</ele><time>2026-04-09T22:48:40.641Z</time></trkpt><trkpt lat="-36.7267853" lon="174.4061373"><ele>109.0</ele><time>2026-04-09T22:48:42.642Z</time></trkpt><trkpt lat="-36.726805" lon="174.4062161"><ele>108.4</ele><time>2026-04-09T22:48:43.643Z</time></trkpt><trkpt lat="-36.7268058" lon="174.4063316"><ele>107.80000000000001</ele><time>2026-04-09T22:48:45.642Z</time></trkpt><trkpt lat="-36.7267537" lon="174.4064544"><ele>107.19999999999999</ele><time>2026-04-09T22:48:47.642Z</time></trkpt><trkpt lat="-36.7267194" lon="174.4065592"><ele>106.6</ele><time>2026-04-09T22:48:49.642Z</time></trkpt><trkpt lat="-36.7267547" lon="174.40666"><ele>106.0</ele><time>2026-04-09T22:48:52.641Z</time></trkpt><trkpt lat="-36.7268278" lon="174.4067188"><ele>107.16666666666667</ele><time>2026-04-09T22:48:55.641Z</time></trkpt><trkpt lat="-36.7269045" lon="174.4067461"><ele>108.33333333333334</ele><time>2026-04-09T22:48:58.643Z</time></trkpt><trkpt lat="-36.7269731" lon="174.4067685"><ele>109.5</ele><time>2026-04-09T22:49:01.641Z</time></trkpt><trkpt lat="-36.7270661" lon="174.4068032"><ele>110.66666666666666</ele><time>2026-04-09T22:49:04.643Z</time></trkpt><trkpt lat="-36.7271265" lon="174.4068371"><ele>111.83333333333333</ele><time>2026-04-09T22:49:06.643Z</time></trkpt><trkpt lat="-36.7271867" lon="174.4067858"><ele>113.0</ele><time>2026-04-09T22:49:09.642Z</time></trkpt><trkpt lat="-36.7272163" lon="174.4067154"><ele>113.0</ele><time>2026-04-09T22:49:11.641Z</time></trkpt><trkpt lat="-36.7272636" lon="174.4066422"><ele>113.0</ele><time>2026-04-09T22:49:14.642Z</time></trkpt><trkpt lat="-36.7273365" lon="174.4066915"><ele>113.0</ele><time>2026-04-09T22:49:17.642Z</time></trkpt><trkpt lat="-36.7274078" lon="174.4067416"><ele>113.0</ele><time>2026-04-09T22:49:20.643Z</time></trkpt><trkpt lat="-36.7274657" lon="174.4066987"><ele>113.0</ele><time>2026-04-09T22:49:22.642Z</time></trkpt><trkpt lat="-36.7275274" lon="174.4066645"><ele>113.0</ele><time>2026-04-09T22:49:24.642Z</time></trkpt><trkpt lat="-36.7275933" lon="174.4066938"><ele>113.0</ele><time>2026-04-09T22:49:26.641Z</time></trkpt><trkpt lat="-36.7276833" lon="174.4066994"><ele>113.42857142857143</ele><time>2026-04-09T22:49:27.642Z</time></trkpt><trkpt lat="-36.7277708" lon="174.4067095"><ele>113.85714285714286</ele><time>2026-04-09T22:49:30.642Z</time></trkpt><trkpt lat="-36.7278363" lon="174.4066974"><ele>114.28571428571429</ele><time>2026-04-09T22:49:32.642Z</time></trkpt><trkpt lat="-36.7279042" lon="174.40668"><ele>114.71428571428572</ele><time>2026-04-09T22:49:34.641Z</time></trkpt><trkpt lat="-36.7279671" lon="174.406656"><ele>115.14285714285714</ele><time>2026-04-09T22:49:36.642Z</time></trkpt><trkpt lat="-36.7280317" lon="174.4066295"><ele>115.57142857142858</ele><time>2026-04-09T22:49:38.642Z</time></trkpt><trkpt lat="-36.7281152" lon="174.4066188"><ele>116.00000000000001</ele><time>2026-04-09T22:49:40.642Z</time></trkpt><trkpt lat="-36.7281921" lon="174.4066001"><ele>115.99999999999999</ele><time>2026-04-09T22:49:42.642Z</time></trkpt><trkpt lat="-36.7282527" lon="174.4065548"><ele>116.0</ele><time>2026-04-09T22:49:44.642Z</time></trkpt><trkpt lat="-36.7283179" lon="174.4065024"><ele>116.0</ele><time>2026-04-09T22:49:46.642Z</time></trkpt><trkpt lat="-36.7283965" lon="174.4065138"><ele>116.0</ele><time>2026-04-09T22:49:48.641Z</time></trkpt><trkpt lat="-36.7284444" lon="174.4065955"><ele>115.99999999999999</ele><time>2026-04-09T22:49:50.643Z</time></trkpt><trkpt lat="-36.7284641" lon="174.4067081"><ele>116.0</ele><time>2026-04-09T22:49:52.641Z</time></trkpt><trkpt lat="-36.7285176" lon="174.4067897"><ele>115.8</ele><time>2026-04-09T22:49:55.642Z</time></trkpt><trkpt lat="-36.7286105" lon="174.406875"><ele>115.6</ele><time>2026-04-09T22:49:57.642Z</time></trkpt><trkpt lat="-36.7286722" lon="174.4069388"><ele>115.4</ele><time>2026-04-09T22:49:59.641Z</time></trkpt><trkpt lat="-36.7287385" lon="174.4070385"><ele>115.2</ele><time>2026-04-09T22:50:02.641Z</time></trkpt><trkpt lat="-36.7287858" lon="174.4071313"><ele>115.0</ele><time>2026-04-09T22:50:04.643Z</time></trkpt><trkpt lat="-36.7288381" lon="174.4072569"><ele>115.28571428571428</ele><time>2026-04-09T22:50:06.641Z</time></trkpt><trkpt lat="-36.728872" lon="174.4073337"><ele>115.57142857142857</ele><time>2026-04-09T22:50:08.641Z</time></trkpt><trkpt lat="-36.7288819" lon="174.407419"><ele>115.85714285714286</ele><time>2026-04-09T22:50:10.641Z</time></trkpt><trkpt lat="-36.72892" lon="174.407482"><ele>116.14285714285714</ele><time>2026-04-09T22:50:12.642Z</time></trkpt><trkpt lat="-36.728922" lon="174.4075894"><ele>116.42857142857144</ele><time>2026-04-09T22:50:16.642Z</time></trkpt><trkpt lat="-36.7289772" lon="174.4076555"><ele>116.71428571428572</ele><time>2026-04-09T22:50:18.641Z</time></trkpt><trkpt lat="-36.7290557" lon="174.4076514"><ele>117.0</ele><time>2026-04-09T22:50:21.642Z</time></trkpt><trkpt lat="-36.7291348" lon="174.4076275"><ele>117.0</ele><time>2026-04-09T22:50:23.641Z</time></trkpt><trkpt lat="-36.7292163" lon="174.4076041"><ele>117.0</ele><time>2026-04-09T22:50:24.642Z</time></trkpt><trkpt lat="-36.7293018" lon="174.4076025"><ele>117.0</ele><time>2026-04-09T22:50:25.642Z</time></trkpt><trkpt lat="-36.729372" lon="174.407626"><ele>117.0</ele><time>2026-04-09T22:50:27.642Z</time></trkpt><trkpt lat="-36.7294465" lon="174.407643"><ele>117.0</ele><time>2026-04-09T22:50:29.642Z</time></trkpt><trkpt lat="-36.7295036" lon="174.4076999"><ele>117.0</ele><time>2026-04-09T22:50:31.642Z</time></trkpt><trkpt lat="-36.729587" lon="174.4076899"><ele>117.33333333333333</ele><time>2026-04-09T22:50:33.642Z</time></trkpt><trkpt lat="-36.7296589" lon="174.4076732"><ele>117.66666666666666</ele><time>2026-04-09T22:50:35.642Z</time></trkpt><trkpt lat="-36.729747" lon="174.4076512"><ele>118.0</ele><time>2026-04-09T22:50:38.642Z</time></trkpt><trkpt lat="-36.7298263" lon="174.407691"><ele>118.33333333333333</ele><time>2026-04-09T22:50:41.642Z</time></trkpt><trkpt lat="-36.7298612" lon="174.4078039"><ele>118.66666666666666</ele><time>2026-04-09T22:50:43.642Z</time></trkpt><trkpt lat="-36.7298816" lon="174.4078938"><ele>119.0</ele><time>2026-04-09T22:50:45.642Z</time></trkpt><trkpt lat="-36.7299471" lon="174.4078651"><ele>118.99999999999999</ele><time>2026-04-09T22:50:48.641Z</time></trkpt><trkpt lat="-36.7299859" lon="174.4077668"><ele>119.0</ele><time>2026-04-09T22:50:51.642Z</time></trkpt><trkpt lat="-36.7300349" lon="174.4076933"><ele>119.0</ele><time>2026-04-09T22:50:54.642Z</time></trkpt><trkpt lat="-36.730102" lon="174.4077326"><ele>119.0</ele><time>2026-04-09T22:50:57.642Z</time></trkpt><trkpt lat="-36.7301029" lon="174.4078121"><ele>118.99999999999999</ele><time>2026-04-09T22:51:00.642Z</time></trkpt><trkpt lat="-36.7301269" lon="174.4079052"><ele>119.0</ele><time>2026-04-09T22:51:03.641Z</time></trkpt><trkpt lat="-36.7301978" lon="174.4078943"><ele>120.16666666666666</ele><time>2026-04-09T22:51:06.642Z</time></trkpt><trkpt lat="-36.7302709" lon="174.4079073"><ele>121.33333333333333</ele><time>2026-04-09T22:51:09.643Z</time></trkpt><trkpt lat="-36.7303299" lon="174.4079433"><ele>122.5</ele><time>2026-04-09T22:51:12.641Z</time></trkpt><trkpt lat="-36.7304127" lon="174.4079607"><ele>123.66666666666666</ele><time>2026-04-09T22:51:16.642Z</time></trkpt><trkpt lat="-36.7304917" lon="174.4079749"><ele>124.83333333333333</ele><time>2026-04-09T22:51:19.641Z</time></trkpt><trkpt lat="-36.730564" lon="174.4080035"><ele>126.0</ele><time>2026-04-09T22:51:22.642Z</time></trkpt><trkpt lat="-36.7306397" lon="174.408009"><ele>126.0</ele><time>2026-04-09T22:51:25.641Z</time></trkpt><trkpt lat="-36.7307122" lon="174.4079776"><ele>126.0</ele><time>2026-04-09T22:51:28.641Z</time></trkpt><trkpt lat="-36.7307864" lon="174.4079923"><ele>126.0</ele><time>2026-04-09T22:51:32.643Z</time></trkpt><trkpt lat="-36.7308193" lon="174.4080672"><ele>126.0</ele><time>2026-04-09T22:51:35.642Z</time></trkpt><trkpt lat="-36.7308134" lon="174.4081644"><ele>126.0</ele><time>2026-04-09T22:51:39.642Z</time></trkpt><trkpt lat="-36.7308128" lon="174.4082665"><ele>126.0</ele><time>2026-04-09T22:51:43.642Z</time></trkpt><trkpt lat="-36.7308607" lon="174.4083499"><ele>126.4</ele><time>2026-04-09T22:51:47.643Z</time></trkpt><trkpt lat="-36.7309343" lon="174.4083947"><ele>126.8</ele><time>2026-04-09T22:51:50.643Z</time></trkpt><trkpt lat="-36.7309618" lon="174.4084828"><ele>127.20000000000002</ele><time>2026-04-09T22:51:53.643Z</time></trkpt><trkpt lat="-36.7309485" lon="174.4085891"><ele>127.60000000000001</ele><time>2026-04-09T22:51:57.641Z</time></trkpt><trkpt lat="-36.7309361" lon="174.4087188"><ele>128.0</ele><time>2026-04-09T22:52:00.642Z</time></trkpt><trkpt lat="-36.7309121" lon="174.408842"><ele>129.20000000000002</ele><time>2026-04-09T22:52:02.642Z</time></trkpt><trkpt lat="-36.730892" lon="174.4089578"><ele>130.4</ele><time>2026-04-09T22:52:04.641Z</time></trkpt><trkpt lat="-36.7308591" lon="174.4090821"><ele>131.60000000000002</ele><time>2026-04-09T22:52:06.643Z</time></trkpt><trkpt lat="-36.730825" lon="174.409187"><ele>132.8</ele><time>2026-04-09T22:52:08.641Z</time></trkpt><trkpt lat="-36.7307849" lon="174.409289"><ele>134.0</ele><time>2026-04-09T22:52:10.642Z</time></trkpt><trkpt lat="-36.730741" lon="174.4093917"><ele>134.0</ele><time>2026-04-09T22:52:12.642Z</time></trkpt><trkpt lat="-36.7306985" lon="174.4094917"><ele>134.0</ele><time>2026-04-09T22:52:14.641Z</time></trkpt><trkpt lat="-36.7306621" lon="174.4095922"><ele>134.0</ele><time>2026-04-09T22:52:16.642Z</time></trkpt><trkpt lat="-36.7306176" lon="174.4097002"><ele>134.0</ele><time>2026-04-09T22:52:18.642Z</time></trkpt><trkpt lat="-36.7305734" lon="174.4098011"><ele>134.0</ele><time>2026-04-09T22:52:20.642Z</time></trkpt><trkpt lat="-36.7305548" lon="174.409879"><ele>134.0</ele><time>2026-04-09T22:52:22.641Z</time></trkpt><trkpt lat="-36.7306054" lon="174.4099438"><ele>134.66666666666666</ele><time>2026-04-09T22:52:25.642Z</time></trkpt><trkpt lat="-36.7306097" lon="174.4100277"><ele>135.33333333333331</ele><time>2026-04-09T22:52:29.642Z</time></trkpt><trkpt lat="-36.7305644" lon="174.4101236"><ele>136.0</ele><time>2026-04-09T22:52:33.641Z</time></trkpt><trkpt lat="-36.7305486" lon="174.4102013"><ele>136.66666666666666</ele><time>2026-04-09T22:53:03.641Z</time></trkpt><trkpt lat="-36.7305025" lon="174.4102794"><ele>137.33333333333334</ele><time>2026-04-09T22:53:06.641Z</time></trkpt><trkpt lat="-36.7304531" lon="174.410366"><ele>138.0</ele><time>2026-04-09T22:53:09.642Z</time></trkpt><trkpt lat="-36.7304038" lon="174.4104411"><ele>137.5</ele><time>2026-04-09T22:53:11.642Z</time></trkpt><trkpt lat="-36.7303924" lon="174.4105354"><ele>137.0</ele><time>2026-04-09T22:53:14.641Z</time></trkpt><trkpt lat="-36.7304056" lon="174.4106235"><ele>136.5</ele><time>2026-04-09T22:53:16.641Z</time></trkpt><trkpt lat="-36.7304059" lon="174.4107236"><ele>136.0</ele><time>2026-04-09T22:53:18.642Z</time></trkpt><trkpt lat="-36.7303879" lon="174.4108368"><ele>135.5</ele><time>2026-04-09T22:53:20.643Z</time></trkpt><trkpt lat="-36.7303645" lon="174.4109451"><ele>135.0</ele><time>2026-04-09T22:53:22.642Z</time></trkpt><trkpt lat="-36.7303161" lon="174.411049"><ele>135.0</ele><time>2026-04-09T22:53:24.643Z</time></trkpt><trkpt lat="-36.7302672" lon="174.4111717"><ele>135.0</ele><time>2026-04-09T22:53:26.641Z</time></trkpt><trkpt lat="-36.7302281" lon="174.4113085"><ele>135.0</ele><time>2026-04-09T22:53:28.641Z</time></trkpt><trkpt lat="-36.7301982" lon="174.4114129"><ele>135.0</ele><time>2026-04-09T22:53:30.642Z</time></trkpt><trkpt lat="-36.7301468" lon="174.4115047"><ele>135.0</ele><time>2026-04-09T22:53:32.641Z</time></trkpt><trkpt lat="-36.7301084" lon="174.4115902"><ele>134.33333333333334</ele><time>2026-04-09T22:53:34.64Z</time></trkpt><trkpt lat="-36.7300894" lon="174.4117033"><ele>133.66666666666666</ele><time>2026-04-09T22:53:36.641Z</time></trkpt><trkpt lat="-36.7300537" lon="174.4118198"><ele>133.0</ele><time>2026-04-09T22:53:38.642Z</time></trkpt><trkpt lat="-36.7300353" lon="174.4119024"><ele>132.33333333333331</ele><time>2026-04-09T22:53:39.642Z</time></trkpt><trkpt lat="-36.7300011" lon="174.4119726"><ele>131.66666666666666</ele><time>2026-04-09T22:53:40.641Z</time></trkpt><trkpt lat="-36.7299475" lon="174.4121023"><ele>131.0</ele><time>2026-04-09T22:53:42.641Z</time></trkpt><trkpt lat="-36.7299196" lon="174.4121789"><ele>129.83333333333331</ele><time>2026-04-09T22:53:43.642Z</time></trkpt><trkpt lat="-36.7298693" lon="174.4122285"><ele>128.66666666666666</ele><time>2026-04-09T22:53:44.642Z</time></trkpt><trkpt lat="-36.7298452" lon="174.412305"><ele>127.5</ele><time>2026-04-09T22:53:45.641Z</time></trkpt><trkpt lat="-36.7299066" lon="174.4124211"><ele>126.33333333333334</ele><time>2026-04-09T22:53:47.641Z</time></trkpt><trkpt lat="-36.7299726" lon="174.4124043"><ele>125.16666666666667</ele><time>2026-04-09T22:53:48.641Z</time></trkpt><trkpt lat="-36.7300489" lon="174.4123442"><ele>124.0</ele><time>2026-04-09T22:53:50.641Z</time></trkpt><trkpt lat="-36.7301267" lon="174.4123098"><ele>124.2</ele><time>2026-04-09T22:53:52.641Z</time></trkpt><trkpt lat="-36.7302716" lon="174.4123939"><ele>124.4</ele><time>2026-04-09T22:53:54.64Z</time></trkpt><trkpt lat="-36.7303501" lon="174.4124704"><ele>124.6</ele><time>2026-04-09T22:53:55.642Z</time></trkpt><trkpt lat="-36.730355" lon="174.4125701"><ele>124.8</ele><time>2026-04-09T22:53:56.642Z</time></trkpt><trkpt lat="-36.7303649" lon="174.4126596"><ele>125.0</ele><time>2026-04-09T22:53:57.641Z</time></trkpt><trkpt lat="-36.7303486" lon="174.4127845"><ele>124.99999999999999</ele><time>2026-04-09T22:53:59.642Z</time></trkpt><trkpt lat="-36.730346" lon="174.4129109"><ele>125.0</ele><time>2026-04-09T22:54:01.643Z</time></trkpt><trkpt lat="-36.7303411" lon="174.4129931"><ele>125.0</ele><time>2026-04-09T22:54:03.641Z</time></trkpt><trkpt lat="-36.7304085" lon="174.4129962"><ele>125.0</ele><time>2026-04-09T22:54:07.641Z</time></trkpt><trkpt lat="-36.7304222" lon="174.4128906"><ele>124.99999999999999</ele><time>2026-04-09T22:54:10.642Z</time></trkpt><trkpt lat="-36.7304517" lon="174.4127828"><ele>125.0</ele><time>2026-04-09T22:54:13.642Z</time></trkpt><trkpt lat="-36.7305171" lon="174.4127359"><ele>124.99999999999999</ele><time>2026-04-09T22:54:15.641Z</time></trkpt><trkpt lat="-36.73054" lon="174.4126393"><ele>125.0</ele><time>2026-04-09T22:54:17.641Z</time></trkpt><trkpt lat="-36.7305527" lon="174.4125439"><ele>125.0</ele><time>2026-04-09T22:54:19.642Z</time></trkpt><trkpt lat="-36.7305945" lon="174.412473"><ele>125.0</ele><time>2026-04-09T22:54:21.641Z</time></trkpt><trkpt lat="-36.7306849" lon="174.4124262"><ele>124.99999999999999</ele><time>2026-04-09T22:54:24.642Z</time></trkpt><trkpt lat="-36.7307656" lon="174.4124283"><ele>125.0</ele><time>2026-04-09T22:54:26.641Z</time></trkpt><trkpt lat="-36.7308325" lon="174.4124099"><ele>125.0</ele><time>2026-04-09T22:54:28.643Z</time></trkpt><trkpt lat="-36.7308935" lon="174.4123826"><ele>125.0</ele><time>2026-04-09T22:54:30.643Z</time></trkpt><trkpt lat="-36.73094" lon="174.4123264"><ele>125.0</ele><time>2026-04-09T22:54:33.64Z</time></trkpt><trkpt lat="-36.7310198" lon="174.4123656"><ele>125.0</ele><time>2026-04-09T22:54:36.643Z</time></trkpt><trkpt lat="-36.7310914" lon="174.4124072"><ele>125.0</ele><time>2026-04-09T22:54:38.642Z</time></trkpt><trkpt lat="-36.7311555" lon="174.4124067"><ele>125.0</ele><time>2026-04-09T22:54:40.642Z</time></trkpt><trkpt lat="-36.7312255" lon="174.4123866"><ele>125.0</ele><time>2026-04-09T22:54:42.641Z</time></trkpt><trkpt lat="-36.7313223" lon="174.4124015"><ele>125.2</ele><time>2026-04-09T22:54:45.642Z</time></trkpt><trkpt lat="-36.7314158" lon="174.412403"><ele>125.4</ele><time>2026-04-09T22:54:46.641Z</time></trkpt><trkpt lat="-36.7315194" lon="174.4124283"><ele>125.6</ele><time>2026-04-09T22:54:48.642Z</time></trkpt><trkpt lat="-36.7316308" lon="174.4124656"><ele>125.8</ele><time>2026-04-09T22:54:50.642Z</time></trkpt><trkpt lat="-36.731731" lon="174.4124018"><ele>126.0</ele><time>2026-04-09T22:54:53.642Z</time></trkpt><trkpt lat="-36.7318335" lon="174.4123888"><ele>125.83333333333333</ele><time>2026-04-09T22:54:55.642Z</time></trkpt><trkpt lat="-36.7319166" lon="174.4124135"><ele>125.66666666666666</ele><time>2026-04-09T22:54:58.641Z</time></trkpt><trkpt lat="-36.7319922" lon="174.4124483"><ele>125.5</ele><time>2026-04-09T22:55:00.641Z</time></trkpt><trkpt lat="-36.7320707" lon="174.4124644"><ele>125.33333333333333</ele><time>2026-04-09T22:55:02.641Z</time></trkpt><trkpt lat="-36.7321314" lon="174.4124082"><ele>125.16666666666666</ele><time>2026-04-09T22:55:04.641Z</time></trkpt><trkpt lat="-36.7322163" lon="174.412393"><ele>125.0</ele><time>2026-04-09T22:55:07.641Z</time></trkpt><trkpt lat="-36.7322978" lon="174.4124001"><ele>125.0</ele><time>2026-04-09T22:55:10.64Z</time></trkpt><trkpt lat="-36.732368" lon="174.4123528"><ele>125.0</ele><time>2026-04-09T22:55:12.643Z</time></trkpt><trkpt lat="-36.7324324" lon="174.4122923"><ele>125.0</ele><time>2026-04-09T22:55:14.642Z</time></trkpt><trkpt lat="-36.7324964" lon="174.4122149"><ele>125.0</ele><time>2026-04-09T22:55:16.642Z</time></trkpt><trkpt lat="-36.7325731" lon="174.4121408"><ele>125.0</ele><time>2026-04-09T22:55:18.641Z</time></trkpt><trkpt lat="-36.7326851" lon="174.4121154"><ele>124.83333333333333</ele><time>2026-04-09T22:55:20.642Z</time></trkpt><trkpt lat="-36.7327991" lon="174.4121139"><ele>124.66666666666666</ele><time>2026-04-09T22:55:22.642Z</time></trkpt><trkpt lat="-36.7328727" lon="174.4121475"><ele>124.5</ele><time>2026-04-09T22:55:24.642Z</time></trkpt><trkpt lat="-36.7329515" lon="174.4121368"><ele>124.33333333333334</ele><time>2026-04-09T22:55:26.641Z</time></trkpt><trkpt lat="-36.7330201" lon="174.4121375"><ele>124.16666666666667</ele><time>2026-04-09T22:55:28.642Z</time></trkpt><trkpt lat="-36.7331055" lon="174.4121082"><ele>124.0</ele><time>2026-04-09T22:55:31.643Z</time></trkpt><trkpt lat="-36.7331744" lon="174.4120485"><ele>124.00000000000001</ele><time>2026-04-09T22:55:33.642Z</time></trkpt><trkpt lat="-36.7332576" lon="174.412035"><ele>124.0</ele><time>2026-04-09T22:55:36.641Z</time></trkpt><trkpt lat="-36.7333157" lon="174.4121197"><ele>124.0</ele><time>2026-04-09T22:55:38.642Z</time></trkpt><trkpt lat="-36.7333405" lon="174.4122134"><ele>124.0</ele><time>2026-04-09T22:55:40.643Z</time></trkpt><trkpt lat="-36.7333527" lon="174.4122972"><ele>124.00000000000001</ele><time>2026-04-09T22:55:42.642Z</time></trkpt><trkpt lat="-36.7333839" lon="174.4123704"><ele>124.0</ele><time>2026-04-09T22:55:44.641Z</time></trkpt><trkpt lat="-36.7334362" lon="174.4124169"><ele>124.16666666666667</ele><time>2026-04-09T22:55:46.642Z</time></trkpt><trkpt lat="-36.7334907" lon="174.4124617"><ele>124.33333333333334</ele><time>2026-04-09T22:55:48.641Z</time></trkpt><trkpt lat="-36.7335468" lon="174.4125429"><ele>124.5</ele><time>2026-04-09T22:55:50.642Z</time></trkpt><trkpt lat="-36.733593" lon="174.4126094"><ele>124.66666666666666</ele><time>2026-04-09T22:55:52.641Z</time></trkpt><trkpt lat="-36.7335838" lon="174.4127291"><ele>124.83333333333333</ele><time>2026-04-09T22:55:54.641Z</time></trkpt><trkpt lat="-36.733592" lon="174.4128529"><ele>125.0</ele><time>2026-04-09T22:55:56.641Z</time></trkpt><trkpt lat="-36.7336261" lon="174.4129849"><ele>125.33333333333333</ele><time>2026-04-09T22:55:58.641Z</time></trkpt><trkpt lat="-36.7336443" lon="174.4131031"><ele>125.66666666666666</ele><time>2026-04-09T22:56:00.642Z</time></trkpt><trkpt lat="-36.7336256" lon="174.4132015"><ele>126.0</ele><time>2026-04-09T22:56:02.642Z</time></trkpt><trkpt lat="-36.733672" lon="174.4132616"><ele>126.33333333333334</ele><time>2026-04-09T22:56:04.643Z</time></trkpt><trkpt lat="-36.7337305" lon="174.4133216"><ele>126.66666666666667</ele><time>2026-04-09T22:56:06.643Z</time></trkpt><trkpt lat="-36.7337949" lon="174.4133654"><ele>127.0</ele><time>2026-04-09T22:56:08.642Z</time></trkpt><trkpt lat="-36.7338522" lon="174.4134241"><ele>127.00000000000001</ele><time>2026-04-09T22:56:10.642Z</time></trkpt><trkpt lat="-36.7339106" lon="174.4134566"><ele>127.0</ele><time>2026-04-09T22:56:12.641Z</time></trkpt><trkpt lat="-36.7339895" lon="174.413517"><ele>127.0</ele><time>2026-04-09T22:56:15.642Z</time></trkpt><trkpt lat="-36.7340757" lon="174.4135762"><ele>127.0</ele><time>2026-04-09T22:56:18.641Z</time></trkpt><trkpt lat="-36.7341422" lon="174.4136572"><ele>127.00000000000001</ele><time>2026-04-09T22:56:20.64Z</time></trkpt><trkpt lat="-36.7341903" lon="174.4137252"><ele>127.0</ele><time>2026-04-09T22:56:22.643Z</time></trkpt><trkpt lat="-36.7342686" lon="174.4137843"><ele>127.00000000000001</ele><time>2026-04-09T22:56:25.641Z</time></trkpt><trkpt lat="-36.7343503" lon="174.4138217"><ele>127.0</ele><time>2026-04-09T22:56:27.642Z</time></trkpt><trkpt lat="-36.7344237" lon="174.4138166"><ele>127.0</ele><time>2026-04-09T22:56:29.641Z</time></trkpt><trkpt lat="-36.7344939" lon="174.4138874"><ele>127.0</ele><time>2026-04-09T22:56:32.642Z</time></trkpt><trkpt lat="-36.7345333" lon="174.4139833"><ele>127.00000000000001</ele><time>2026-04-09T22:56:34.641Z</time></trkpt><trkpt lat="-36.7345728" lon="174.4140649"><ele>127.0</ele><time>2026-04-09T22:56:36.643Z</time></trkpt><trkpt lat="-36.7346257" lon="174.4141202"><ele>127.83333333333334</ele><time>2026-04-09T22:56:38.64Z</time></trkpt><trkpt lat="-36.7346997" lon="174.4141709"><ele>128.66666666666669</ele><time>2026-04-09T22:56:40.641Z</time></trkpt><trkpt lat="-36.7347915" lon="174.4141996"><ele>129.5</ele><time>2026-04-09T22:56:42.642Z</time></trkpt><trkpt lat="-36.7348683" lon="174.4141994"><ele>130.33333333333334</ele><time>2026-04-09T22:56:44.642Z</time></trkpt><trkpt lat="-36.7349284" lon="174.4141433"><ele>131.16666666666666</ele><time>2026-04-09T22:56:46.641Z</time></trkpt><trkpt lat="-36.7349998" lon="174.4140948"><ele>132.0</ele><time>2026-04-09T22:56:48.64Z</time></trkpt><trkpt lat="-36.7350762" lon="174.414091"><ele>132.0</ele><time>2026-04-09T22:56:50.643Z</time></trkpt><trkpt lat="-36.735169" lon="174.4141063"><ele>132.0</ele><time>2026-04-09T22:56:52.643Z</time></trkpt><trkpt lat="-36.7352496" lon="174.4140988"><ele>132.0</ele><time>2026-04-09T22:56:54.64Z</time></trkpt><trkpt lat="-36.7353245" lon="174.4141259"><ele>132.0</ele><time>2026-04-09T22:56:56.641Z</time></trkpt><trkpt lat="-36.7353913" lon="174.4141248"><ele>132.0</ele><time>2026-04-09T22:56:58.642Z</time></trkpt><trkpt lat="-36.7354539" lon="174.4140925"><ele>132.0</ele><time>2026-04-09T22:57:00.642Z</time></trkpt><trkpt lat="-36.7355273" lon="174.4141021"><ele>131.83333333333334</ele><time>2026-04-09T22:57:03.642Z</time></trkpt><trkpt lat="-36.7355722" lon="174.4141605"><ele>131.66666666666666</ele><time>2026-04-09T22:57:06.64Z</time></trkpt><trkpt lat="-36.7356285" lon="174.4140798"><ele>131.5</ele><time>2026-04-09T22:57:10.641Z</time></trkpt><trkpt lat="-36.7356439" lon="174.4139733"><ele>131.33333333333331</ele><time>2026-04-09T22:57:12.641Z</time></trkpt><trkpt lat="-36.7356713" lon="174.4138629"><ele>131.16666666666666</ele><time>2026-04-09T22:57:14.643Z</time></trkpt><trkpt lat="-36.7357058" lon="174.4137449"><ele>131.0</ele><time>2026-04-09T22:57:16.642Z</time></trkpt><trkpt lat="-36.7357513" lon="174.4136107"><ele>131.0</ele><time>2026-04-09T22:57:18.641Z</time></trkpt><trkpt lat="-36.7357982" lon="174.4134739"><ele>131.0</ele><time>2026-04-09T22:57:20.642Z</time></trkpt><trkpt lat="-36.7358237" lon="174.4133385"><ele>131.0</ele><time>2026-04-09T22:57:22.642Z</time></trkpt><trkpt lat="-36.7358419" lon="174.4132554"><ele>131.0</ele><time>2026-04-09T22:57:23.643Z</time></trkpt><trkpt lat="-36.7358576" lon="174.4131746"><ele>131.0</ele><time>2026-04-09T22:57:24.64Z</time></trkpt><trkpt lat="-36.7358689" lon="174.4130899"><ele>131.0</ele><time>2026-04-09T22:57:25.641Z</time></trkpt><trkpt lat="-36.7358776" lon="174.4130107"><ele>131.28571428571428</ele><time>2026-04-09T22:57:26.64Z</time></trkpt><trkpt lat="-36.7358936" lon="174.4129324"><ele>131.57142857142858</ele><time>2026-04-09T22:57:27.641Z</time></trkpt><trkpt lat="-36.7359207" lon="174.4128574"><ele>131.85714285714286</ele><time>2026-04-09T22:57:28.643Z</time></trkpt><trkpt lat="-36.7359424" lon="174.4127736"><ele>132.14285714285714</ele><time>2026-04-09T22:57:29.64Z</time></trkpt><trkpt lat="-36.7359519" lon="174.412692"><ele>132.42857142857144</ele><time>2026-04-09T22:57:30.642Z</time></trkpt><trkpt lat="-36.7359832" lon="174.4126128"><ele>132.71428571428572</ele><time>2026-04-09T22:57:31.642Z</time></trkpt><trkpt lat="-36.7359998" lon="174.4125298"><ele>133.0</ele><time>2026-04-09T22:57:32.642Z</time></trkpt><trkpt lat="-36.73602" lon="174.4123829"><ele>133.0</ele><time>2026-04-09T22:57:34.642Z</time></trkpt><trkpt lat="-36.736045" lon="174.4122518"><ele>133.0</ele><time>2026-04-09T22:57:36.641Z</time></trkpt><trkpt lat="-36.7360757" lon="174.4121362"><ele>133.0</ele><time>2026-04-09T22:57:38.642Z</time></trkpt><trkpt lat="-36.7361016" lon="174.4120246"><ele>133.0</ele><time>2026-04-09T22:57:40.642Z</time></trkpt><trkpt lat="-36.7361193" lon="174.4119338"><ele>133.0</ele><time>2026-04-09T22:57:42.64Z</time></trkpt><trkpt lat="-36.7361284" lon="174.4118503"><ele>133.0</ele><time>2026-04-09T22:57:44.642Z</time></trkpt><trkpt lat="-36.7361499" lon="174.411756"><ele>132.33333333333334</ele><time>2026-04-09T22:57:46.64Z</time></trkpt><trkpt lat="-36.7361616" lon="174.4116481"><ele>131.66666666666669</ele><time>2026-04-09T22:57:48.642Z</time></trkpt><trkpt lat="-36.7361652" lon="174.4115382"><ele>131.0</ele><time>2026-04-09T22:57:50.642Z</time></trkpt><trkpt lat="-36.7361845" lon="174.4114467"><ele>130.33333333333334</ele><time>2026-04-09T22:57:52.64Z</time></trkpt><trkpt lat="-36.7362481" lon="174.4113761"><ele>129.66666666666666</ele><time>2026-04-09T22:57:55.643Z</time></trkpt><trkpt lat="-36.7363345" lon="174.411366"><ele>129.0</ele><time>2026-04-09T22:57:57.641Z</time></trkpt><trkpt lat="-36.7364234" lon="174.4113999"><ele>128.99999999999997</ele><time>2026-04-09T22:57:59.64Z</time></trkpt><trkpt lat="-36.7364929" lon="174.4114324"><ele>129.0</ele><time>2026-04-09T22:58:01.641Z</time></trkpt><trkpt lat="-36.7365427" lon="174.4114868"><ele>129.0</ele><time>2026-04-09T22:58:03.641Z</time></trkpt><trkpt lat="-36.7365502" lon="174.411576"><ele>129.0</ele><time>2026-04-09T22:58:05.641Z</time></trkpt><trkpt lat="-36.736515" lon="174.4116631"><ele>129.0</ele><time>2026-04-09T22:58:07.643Z</time></trkpt><trkpt lat="-36.736455" lon="174.4117197"><ele>128.99999999999997</ele><time>2026-04-09T22:58:09.642Z</time></trkpt><trkpt lat="-36.7364258" lon="174.4117967"><ele>129.0</ele><time>2026-04-09T22:58:12.642Z</time></trkpt><trkpt lat="-36.7365152" lon="174.4117661"><ele>129.0</ele><time>2026-04-09T22:58:15.642Z</time></trkpt><trkpt lat="-36.7365652" lon="174.4118627"><ele>129.0</ele><time>2026-04-09T22:58:18.641Z</time></trkpt><trkpt lat="-36.736557" lon="174.4119799"><ele>129.0</ele><time>2026-04-09T22:58:20.641Z</time></trkpt><trkpt lat="-36.7365242" lon="174.4120965"><ele>129.0</ele><time>2026-04-09T22:58:22.642Z</time></trkpt><trkpt lat="-36.7364947" lon="174.4121971"><ele>129.0</ele><time>2026-04-09T22:58:23.643Z</time></trkpt><trkpt lat="-36.7364781" lon="174.4122757"><ele>129.0</ele><time>2026-04-09T22:58:24.642Z</time></trkpt><trkpt lat="-36.7364487" lon="174.4123558"><ele>129.0</ele><time>2026-04-09T22:58:25.641Z</time></trkpt><trkpt lat="-36.7364375" lon="174.4125173"><ele>129.0</ele><time>2026-04-09T22:58:27.642Z</time></trkpt><trkpt lat="-36.7364514" lon="174.4126005"><ele>129.0</ele><time>2026-04-09T22:58:28.641Z</time></trkpt><trkpt lat="-36.7364509" lon="174.4127066"><ele>129.0</ele><time>2026-04-09T22:58:29.64Z</time></trkpt><trkpt lat="-36.7365113" lon="174.4128903"><ele>129.0</ele><time>2026-04-09T22:58:31.643Z</time></trkpt><trkpt lat="-36.7364665" lon="174.4130274"><ele>128.4</ele><time>2026-04-09T22:58:33.642Z</time></trkpt><trkpt lat="-36.7364498" lon="174.4131803"><ele>127.80000000000001</ele><time>2026-04-09T22:58:35.642Z</time></trkpt><trkpt lat="-36.736477" lon="174.4132755"><ele>127.19999999999999</ele><time>2026-04-09T22:58:37.641Z</time></trkpt><trkpt lat="-36.7365106" lon="174.4133479"><ele>126.6</ele><time>2026-04-09T22:58:38.641Z</time></trkpt><trkpt lat="-36.736524" lon="174.4134868"><ele>126.0</ele><time>2026-04-09T22:58:41.641Z</time></trkpt><trkpt lat="-36.7365257" lon="174.4136261"><ele>126.0</ele><time>2026-04-09T22:58:43.641Z</time></trkpt><trkpt lat="-36.7365094" lon="174.4137704"><ele>126.0</ele><time>2026-04-09T22:58:45.643Z</time></trkpt><trkpt lat="-36.7365002" lon="174.413914"><ele>126.0</ele><time>2026-04-09T22:58:47.642Z</time></trkpt><trkpt lat="-36.7364997" lon="174.4140233"><ele>126.0</ele><time>2026-04-09T22:58:49.642Z</time></trkpt><trkpt lat="-36.736481" lon="174.4141433"><ele>126.0</ele><time>2026-04-09T22:58:51.642Z</time></trkpt><trkpt lat="-36.7364823" lon="174.4142605"><ele>126.16666666666667</ele><time>2026-04-09T22:58:53.641Z</time></trkpt><trkpt lat="-36.7364837" lon="174.4143518"><ele>126.33333333333334</ele><time>2026-04-09T22:58:54.642Z</time></trkpt><trkpt lat="-36.7364888" lon="174.4144385"><ele>126.5</ele><time>2026-04-09T22:58:55.643Z</time></trkpt><trkpt lat="-36.736473" lon="174.4145911"><ele>126.66666666666667</ele><time>2026-04-09T22:58:57.641Z</time></trkpt><trkpt lat="-36.7365282" lon="174.4146575"><ele>126.83333333333334</ele><time>2026-04-09T22:58:58.642Z</time></trkpt><trkpt lat="-36.7365965" lon="174.4146667"><ele>127.0</ele><time>2026-04-09T22:59:00.641Z</time></trkpt><trkpt lat="-36.7365936" lon="174.4145725"><ele>127.0</ele><time>2026-04-09T22:59:02.641Z</time></trkpt><trkpt lat="-36.7365826" lon="174.4144591"><ele>126.99999999999999</ele><time>2026-04-09T22:59:05.641Z</time></trkpt><trkpt lat="-36.7365657" lon="174.4143288"><ele>126.99999999999999</ele><time>2026-04-09T22:59:07.641Z</time></trkpt><trkpt lat="-36.7365715" lon="174.4141888"><ele>127.0</ele><time>2026-04-09T22:59:09.64Z</time></trkpt><trkpt lat="-36.7365565" lon="174.4140872"><ele>127.0</ele><time>2026-04-09T22:59:11.642Z</time></trkpt><trkpt lat="-36.7365589" lon="174.4139911"><ele>127.0</ele><time>2026-04-09T22:59:13.642Z</time></trkpt><trkpt lat="-36.736568" lon="174.4138721"><ele>126.99999999999999</ele><time>2026-04-09T22:59:15.641Z</time></trkpt><trkpt lat="-36.7365808" lon="174.4137441"><ele>126.99999999999999</ele><time>2026-04-09T22:59:17.642Z</time></trkpt><trkpt lat="-36.7366017" lon="174.4136117"><ele>127.0</ele><time>2026-04-09T22:59:19.64Z</time></trkpt><trkpt lat="-36.7366331" lon="174.4134961"><ele>127.0</ele><time>2026-04-09T22:59:21.642Z</time></trkpt><trkpt lat="-36.736663" lon="174.4133585"><ele>126.8</ele><time>2026-04-09T22:59:23.642Z</time></trkpt><trkpt lat="-36.7366812" lon="174.4132176"><ele>126.6</ele><time>2026-04-09T22:59:25.641Z</time></trkpt><trkpt lat="-36.7367107" lon="174.4130952"><ele>126.39999999999999</ele><time>2026-04-09T22:59:27.64Z</time></trkpt><trkpt lat="-36.7367806" lon="174.4131211"><ele>126.19999999999999</ele><time>2026-04-09T22:59:29.641Z</time></trkpt><trkpt lat="-36.7368434" lon="174.4131779"><ele>126.0</ele><time>2026-04-09T22:59:31.643Z</time></trkpt><trkpt lat="-36.7369525" lon="174.413178"><ele>126.0</ele><time>2026-04-09T22:59:33.641Z</time></trkpt><trkpt lat="-36.7369839" lon="174.413096"><ele>126.0</ele><time>2026-04-09T22:59:35.642Z</time></trkpt><trkpt lat="-36.7370221" lon="174.4129656"><ele>126.0</ele><time>2026-04-09T22:59:37.643Z</time></trkpt><trkpt lat="-36.7370687" lon="174.4128365"><ele>126.0</ele><time>2026-04-09T22:59:39.641Z</time></trkpt><trkpt lat="-36.7370908" lon="174.4126891"><ele>126.0</ele><time>2026-04-09T22:59:41.641Z</time></trkpt><trkpt lat="-36.7370575" lon="174.4126136"><ele>126.0</ele><time>2026-04-09T22:59:43.642Z</time></trkpt><trkpt lat="-36.7369834" lon="174.412579"><ele>126.0</ele><time>2026-04-09T22:59:46.641Z</time></trkpt><trkpt lat="-36.7369647" lon="174.412499"><ele>126.0</ele><time>2026-04-09T22:59:49.642Z</time></trkpt><trkpt lat="-36.736949" lon="174.4124032"><ele>126.0</ele><time>2026-04-09T22:59:52.641Z</time></trkpt><trkpt lat="-36.7369372" lon="174.412316"><ele>126.0</ele><time>2026-04-09T22:59:54.64Z</time></trkpt><trkpt lat="-36.7369597" lon="174.4122291"><ele>126.0</ele><time>2026-04-09T22:59:56.641Z</time></trkpt><trkpt lat="-36.7370238" lon="174.4121554"><ele>126.0</ele><time>2026-04-09T22:59:58.643Z</time></trkpt><trkpt lat="-36.7371288" lon="174.4121758"><ele>126.0</ele><time>2026-04-09T23:00:00.642Z</time></trkpt><trkpt lat="-36.7372637" lon="174.4122185"><ele>126.0</ele><time>2026-04-09T23:00:02.642Z</time></trkpt><trkpt lat="-36.7373814" lon="174.4122333"><ele>126.0</ele><time>2026-04-09T23:00:04.643Z</time></trkpt><trkpt lat="-36.7374451" lon="174.4122268"><ele>126.0</ele><time>2026-04-09T23:00:06.639Z</time></trkpt><trkpt lat="-36.7375285" lon="174.4122239"><ele>126.0</ele><time>2026-04-09T23:00:08.641Z</time></trkpt><trkpt lat="-36.737604" lon="174.4122516"><ele>126.0</ele><time>2026-04-09T23:00:11.641Z</time></trkpt><trkpt lat="-36.7376796" lon="174.4122662"><ele>126.0</ele><time>2026-04-09T23:00:14.641Z</time></trkpt><trkpt lat="-36.737747" lon="174.412279"><ele>126.0</ele><time>2026-04-09T23:00:16.641Z</time></trkpt><trkpt lat="-36.7378255" lon="174.4122254"><ele>126.0</ele><time>2026-04-09T23:00:19.64Z</time></trkpt><trkpt lat="-36.7378764" lon="174.4121755"><ele>126.0</ele><time>2026-04-09T23:00:21.642Z</time></trkpt><trkpt lat="-36.7379472" lon="174.4121217"><ele>126.0</ele><time>2026-04-09T23:00:24.64Z</time></trkpt><trkpt lat="-36.738017" lon="174.4121895"><ele>126.0</ele><time>2026-04-09T23:00:28.642Z</time></trkpt><trkpt lat="-36.7380361" lon="174.4122758"><ele>126.0</ele><time>2026-04-09T23:00:30.642Z</time></trkpt><trkpt lat="-36.7380737" lon="174.4123605"><ele>126.0</ele><time>2026-04-09T23:00:32.641Z</time></trkpt><trkpt lat="-36.7381303" lon="174.4124412"><ele>126.0</ele><time>2026-04-09T23:00:34.641Z</time></trkpt><trkpt lat="-36.7381817" lon="174.4125036"><ele>126.0</ele><time>2026-04-09T23:00:36.641Z</time></trkpt><trkpt lat="-36.7382667" lon="174.412516"><ele>126.0</ele><time>2026-04-09T23:00:39.643Z</time></trkpt><trkpt lat="-36.7383056" lon="174.4125932"><ele>126.0</ele><time>2026-04-09T23:00:42.642Z</time></trkpt><trkpt lat="-36.7382644" lon="174.4126538"><ele>126.0</ele><time>2026-04-09T23:00:44.641Z</time></trkpt><trkpt lat="-36.7382113" lon="174.4127141"><ele>126.0</ele><time>2026-04-09T23:00:46.642Z</time></trkpt><trkpt lat="-36.7381648" lon="174.412787"><ele>126.0</ele><time>2026-04-09T23:00:48.641Z</time></trkpt><trkpt lat="-36.7381469" lon="174.4128635"><ele>126.0</ele><time>2026-04-09T23:00:50.641Z</time></trkpt><trkpt lat="-36.7382068" lon="174.4129111"><ele>126.0</ele><time>2026-04-09T23:00:53.64Z</time></trkpt><trkpt lat="-36.7382732" lon="174.4128974"><ele>126.0</ele><time>2026-04-09T23:00:55.643Z</time></trkpt><trkpt lat="-36.7383442" lon="174.4128878"><ele>126.0</ele><time>2026-04-09T23:00:57.642Z</time></trkpt><trkpt lat="-36.7384062" lon="174.4129192"><ele>126.0</ele><time>2026-04-09T23:00:59.641Z</time></trkpt><trkpt lat="-36.7384049" lon="174.4130264"><ele>126.0</ele><time>2026-04-09T23:01:02.64Z</time></trkpt><trkpt lat="-36.7384641" lon="174.4130696"><ele>126.0</ele><time>2026-04-09T23:01:06.641Z</time></trkpt><trkpt lat="-36.7385088" lon="174.4130056"><ele>126.0</ele><time>2026-04-09T23:01:08.643Z</time></trkpt><trkpt lat="-36.7385622" lon="174.4129601"><ele>126.0</ele><time>2026-04-09T23:01:11.641Z</time></trkpt><trkpt lat="-36.7385672" lon="174.4130621"><ele>128.0</ele><time>2026-04-09T23:01:15.642Z</time></trkpt><trkpt lat="-36.7385699" lon="174.4131641"><ele>130.0</ele><time>2026-04-09T23:01:18.643Z</time></trkpt><trkpt lat="-36.7385788" lon="174.4132466"><ele>132.0</ele><time>2026-04-09T23:01:21.642Z</time></trkpt><trkpt lat="-36.7386427" lon="174.4132886"><ele>134.0</ele><time>2026-04-09T23:01:26.641Z</time></trkpt><trkpt lat="-36.7387062" lon="174.4132917"><ele>136.0</ele><time>2026-04-09T23:01:44.641Z</time></trkpt><trkpt lat="-36.7387656" lon="174.4132483"><ele>138.0</ele><time>2026-04-09T23:01:47.642Z</time></trkpt><trkpt lat="-36.7388579" lon="174.4132871"><ele>138.0</ele><time>2026-04-09T23:01:50.641Z</time></trkpt><trkpt lat="-36.7389438" lon="174.4133392"><ele>138.0</ele><time>2026-04-09T23:01:52.643Z</time></trkpt><trkpt lat="-36.7390347" lon="174.4133437"><ele>138.0</ele><time>2026-04-09T23:01:53.642Z</time></trkpt><trkpt lat="-36.7390986" lon="174.4134287"><ele>138.0</ele><time>2026-04-09T23:01:56.64Z</time></trkpt><trkpt lat="-36.7391288" lon="174.4135149"><ele>138.0</ele><time>2026-04-09T23:01:59.641Z</time></trkpt><trkpt lat="-36.7391747" lon="174.4135733"><ele>138.0</ele><time>2026-04-09T23:02:01.64Z</time></trkpt><trkpt lat="-36.7392322" lon="174.4135037"><ele>138.0</ele><time>2026-04-09T23:02:05.641Z</time></trkpt><trkpt lat="-36.7392818" lon="174.4134184"><ele>138.0</ele><time>2026-04-09T23:02:07.641Z</time></trkpt><trkpt lat="-36.7392862" lon="174.4133145"><ele>138.0</ele><time>2026-04-09T23:02:10.642Z</time></trkpt><trkpt lat="-36.7392124" lon="174.4132195"><ele>138.0</ele><time>2026-04-09T23:02:12.641Z</time></trkpt><trkpt lat="-36.739147" lon="174.4131167"><ele>138.0</ele><time>2026-04-09T23:02:14.641Z</time></trkpt><trkpt lat="-36.739176" lon="174.413008"><ele>138.0</ele><time>2026-04-09T23:02:16.64Z</time></trkpt><trkpt lat="-36.7392478" lon="174.412967"><ele>138.0</ele><time>2026-04-09T23:02:18.64Z</time></trkpt><trkpt lat="-36.7393442" lon="174.4129927"><ele>138.0</ele><time>2026-04-09T23:02:20.64Z</time></trkpt><trkpt lat="-36.7394265" lon="174.413036"><ele>138.0</ele><time>2026-04-09T23:02:22.641Z</time></trkpt><trkpt lat="-36.7394831" lon="174.4131031"><ele>138.0</ele><time>2026-04-09T23:02:24.641Z</time></trkpt><trkpt lat="-36.7395341" lon="174.4131896"><ele>138.0</ele><time>2026-04-09T23:02:26.642Z</time></trkpt><trkpt lat="-36.7395752" lon="174.4132651"><ele>136.33333333333334</ele><time>2026-04-09T23:02:29.642Z</time></trkpt><trkpt lat="-36.7396269" lon="174.413325"><ele>134.66666666666666</ele><time>2026-04-09T23:02:32.641Z</time></trkpt><trkpt lat="-36.7396187" lon="174.4134204"><ele>133.0</ele><time>2026-04-09T23:02:35.642Z</time></trkpt><trkpt lat="-36.7395292" lon="174.4134304"><ele>131.33333333333331</ele><time>2026-04-09T23:02:38.641Z</time></trkpt><trkpt lat="-36.7394606" lon="174.4134411"><ele>129.66666666666666</ele><time>2026-04-09T23:02:40.64Z</time></trkpt><trkpt lat="-36.7394201" lon="174.4135178"><ele>128.0</ele><time>2026-04-09T23:02:43.64Z</time></trkpt><trkpt lat="-36.7394049" lon="174.4136109"><ele>127.99999999999999</ele><time>2026-04-09T23:02:46.642Z</time></trkpt><trkpt lat="-36.7393919" lon="174.4137121"><ele>128.0</ele><time>2026-04-09T23:02:49.641Z</time></trkpt><trkpt lat="-36.7394188" lon="174.4137997"><ele>128.0</ele><time>2026-04-09T23:02:52.641Z</time></trkpt><trkpt lat="-36.7394948" lon="174.4138063"><ele>128.0</ele><time>2026-04-09T23:02:55.642Z</time></trkpt><trkpt lat="-36.7395762" lon="174.4137946"><ele>127.99999999999999</ele><time>2026-04-09T23:02:57.64Z</time></trkpt><trkpt lat="-36.7396928" lon="174.4137263"><ele>128.0</ele><time>2026-04-09T23:02:59.642Z</time></trkpt><trkpt lat="-36.7397549" lon="174.4136675"><ele>127.99999999999999</ele><time>2026-04-09T23:03:00.641Z</time></trkpt><trkpt lat="-36.7397936" lon="174.4135859"><ele>128.0</ele><time>2026-04-09T23:03:02.64Z</time></trkpt><trkpt lat="-36.7399003" lon="174.4135491"><ele>128.0</ele><time>2026-04-09T23:03:04.64Z</time></trkpt><trkpt lat="-36.739983" lon="174.4135379"><ele>128.0</ele><time>2026-04-09T23:03:05.64Z</time></trkpt><trkpt lat="-36.7400682" lon="174.4135884"><ele>127.99999999999999</ele><time>2026-04-09T23:03:08.641Z</time></trkpt><trkpt lat="-36.7401324" lon="174.4135982"><ele>128.0</ele><time>2026-04-09T23:03:10.642Z</time></trkpt><trkpt lat="-36.7402066" lon="174.4135361"><ele>127.66666666666666</ele><time>2026-04-09T23:03:13.642Z</time></trkpt><trkpt lat="-36.7402962" lon="174.4135612"><ele>127.33333333333333</ele><time>2026-04-09T23:03:16.642Z</time></trkpt><trkpt lat="-36.7403639" lon="174.4135876"><ele>127.0</ele><time>2026-04-09T23:03:18.641Z</time></trkpt><trkpt lat="-36.7404438" lon="174.4136492"><ele>126.66666666666666</ele><time>2026-04-09T23:03:20.641Z</time></trkpt><trkpt lat="-36.7405199" lon="174.413729"><ele>126.33333333333333</ele><time>2026-04-09T23:03:22.642Z</time></trkpt><trkpt lat="-36.7405789" lon="174.4138121"><ele>126.0</ele><time>2026-04-09T23:03:24.64Z</time></trkpt><trkpt lat="-36.7405716" lon="174.4139164"><ele>127.28571428571428</ele><time>2026-04-09T23:03:27.641Z</time></trkpt><trkpt lat="-36.7405072" lon="174.4139913"><ele>128.57142857142856</ele><time>2026-04-09T23:03:30.642Z</time></trkpt><trkpt lat="-36.7404611" lon="174.4140525"><ele>129.85714285714286</ele><time>2026-04-09T23:03:32.642Z</time></trkpt><trkpt lat="-36.7403833" lon="174.4140524"><ele>131.14285714285714</ele><time>2026-04-09T23:03:35.641Z</time></trkpt><trkpt lat="-36.7403189" lon="174.4140521"><ele>132.42857142857142</ele><time>2026-04-09T23:03:38.64Z</time></trkpt><trkpt lat="-36.7402706" lon="174.4141212"><ele>133.71428571428572</ele><time>2026-04-09T23:03:41.641Z</time></trkpt><trkpt lat="-36.7402086" lon="174.41415"><ele>135.0</ele><time>2026-04-09T23:03:43.641Z</time></trkpt><trkpt lat="-36.7401178" lon="174.4141497"><ele>135.83333333333334</ele><time>2026-04-09T23:03:45.641Z</time></trkpt><trkpt lat="-36.7400384" lon="174.4141411"><ele>136.66666666666666</ele><time>2026-04-09T23:03:47.641Z</time></trkpt><trkpt lat="-36.7399704" lon="174.4141174"><ele>137.5</ele><time>2026-04-09T23:03:49.64Z</time></trkpt><trkpt lat="-36.739896" lon="174.4140871"><ele>138.33333333333331</ele><time>2026-04-09T23:03:51.642Z</time></trkpt><trkpt lat="-36.7398256" lon="174.414055"><ele>139.16666666666666</ele><time>2026-04-09T23:03:53.64Z</time></trkpt><trkpt lat="-36.7397555" lon="174.4140529"><ele>140.0</ele><time>2026-04-09T23:03:55.64Z</time></trkpt><trkpt lat="-36.7397051" lon="174.414124"><ele>140.0</ele><time>2026-04-09T23:03:58.64Z</time></trkpt><trkpt lat="-36.7397395" lon="174.4141938"><ele>140.0</ele><time>2026-04-09T23:04:01.642Z</time></trkpt><trkpt lat="-36.7397989" lon="174.4142306"><ele>140.0</ele><time>2026-04-09T23:04:04.641Z</time></trkpt><trkpt lat="-36.739895" lon="174.4142524"><ele>140.0</ele><time>2026-04-09T23:04:07.641Z</time></trkpt><trkpt lat="-36.7399657" lon="174.4142796"><ele>140.0</ele><time>2026-04-09T23:04:09.642Z</time></trkpt><trkpt lat="-36.740027" lon="174.4143049"><ele>140.0</ele><time>2026-04-09T23:04:11.642Z</time></trkpt><trkpt lat="-36.7401061" lon="174.4143084"><ele>140.0</ele><time>2026-04-09T23:04:13.64Z</time></trkpt><trkpt lat="-36.7401958" lon="174.4142899"><ele>139.16666666666666</ele><time>2026-04-09T23:04:15.64Z</time></trkpt><trkpt lat="-36.7402796" lon="174.4142941"><ele>138.33333333333331</ele><time>2026-04-09T23:04:17.64Z</time></trkpt><trkpt lat="-36.7403644" lon="174.4142789"><ele>137.5</ele><time>2026-04-09T23:04:19.642Z</time></trkpt><trkpt lat="-36.7404496" lon="174.4142656"><ele>136.66666666666666</ele><time>2026-04-09T23:04:21.642Z</time></trkpt><trkpt lat="-36.7405501" lon="174.4142512"><ele>135.83333333333334</ele><time>2026-04-09T23:04:23.641Z</time></trkpt><trkpt lat="-36.7406274" lon="174.4141963"><ele>135.0</ele><time>2026-04-09T23:04:25.642Z</time></trkpt><trkpt lat="-36.740702" lon="174.4141531"><ele>135.0</ele><time>2026-04-09T23:04:27.641Z</time></trkpt><trkpt lat="-36.7407954" lon="174.4141212"><ele>135.0</ele><time>2026-04-09T23:04:29.64Z</time></trkpt><trkpt lat="-36.7408698" lon="174.4140705"><ele>135.0</ele><time>2026-04-09T23:04:31.64Z</time></trkpt><trkpt lat="-36.7409424" lon="174.4140353"><ele>135.0</ele><time>2026-04-09T23:04:34.641Z</time></trkpt><trkpt lat="-36.741025" lon="174.4140905"><ele>135.0</ele><time>2026-04-09T23:04:37.641Z</time></trkpt><trkpt lat="-36.7410736" lon="174.4141706"><ele>135.0</ele><time>2026-04-09T23:04:39.642Z</time></trkpt><trkpt lat="-36.7411239" lon="174.4142534"><ele>135.0</ele><time>2026-04-09T23:04:41.641Z</time></trkpt><trkpt lat="-36.7411335" lon="174.4143328"><ele>135.0</ele><time>2026-04-09T23:04:43.641Z</time></trkpt><trkpt lat="-36.7411424" lon="174.4144191"><ele>135.0</ele><time>2026-04-09T23:04:45.64Z</time></trkpt><trkpt lat="-36.7411535" lon="174.4145403"><ele>135.0</ele><time>2026-04-09T23:04:48.641Z</time></trkpt><trkpt lat="-36.741173" lon="174.4146248"><ele>135.0</ele><time>2026-04-09T23:04:50.641Z</time></trkpt><trkpt lat="-36.7412147" lon="174.4146993"><ele>135.0</ele><time>2026-04-09T23:04:52.64Z</time></trkpt><trkpt lat="-36.741265" lon="174.414758"><ele>135.0</ele><time>2026-04-09T23:04:54.642Z</time></trkpt><trkpt lat="-36.741337" lon="174.4148077"><ele>135.33333333333334</ele><time>2026-04-09T23:04:57.641Z</time></trkpt><trkpt lat="-36.7414287" lon="174.4148739"><ele>135.66666666666666</ele><time>2026-04-09T23:05:00.641Z</time></trkpt><trkpt lat="-36.7415239" lon="174.414903"><ele>136.0</ele><time>2026-04-09T23:05:02.641Z</time></trkpt><trkpt lat="-36.7416018" lon="174.414905"><ele>136.33333333333331</ele><time>2026-04-09T23:05:04.641Z</time></trkpt><trkpt lat="-36.7416479" lon="174.4148457"><ele>136.66666666666666</ele><time>2026-04-09T23:05:06.642Z</time></trkpt><trkpt lat="-36.7417091" lon="174.4147688"><ele>137.0</ele><time>2026-04-09T23:05:09.641Z</time></trkpt><trkpt lat="-36.7417872" lon="174.4147916"><ele>137.0</ele><time>2026-04-09T23:05:13.641Z</time></trkpt><trkpt lat="-36.7418142" lon="174.4148896"><ele>137.0</ele><time>2026-04-09T23:05:16.642Z</time></trkpt><trkpt lat="-36.7417758" lon="174.414997"><ele>137.0</ele><time>2026-04-09T23:05:19.641Z</time></trkpt><trkpt lat="-36.7416807" lon="174.4150486"><ele>137.0</ele><time>2026-04-09T23:05:21.64Z</time></trkpt><trkpt lat="-36.7416218" lon="174.415107"><ele>137.0</ele><time>2026-04-09T23:05:23.642Z</time></trkpt><trkpt lat="-36.7415772" lon="174.4151711"><ele>137.0</ele><time>2026-04-09T23:05:25.64Z</time></trkpt><trkpt lat="-36.741548" lon="174.4152677"><ele>137.0</ele><time>2026-04-09T23:05:27.641Z</time></trkpt><trkpt lat="-36.7415764" lon="174.4153542"><ele>137.0</ele><time>2026-04-09T23:05:30.642Z</time></trkpt><trkpt lat="-36.7416464" lon="174.4153933"><ele>137.0</ele><time>2026-04-09T23:05:32.641Z</time></trkpt><trkpt lat="-36.74174" lon="174.4154189"><ele>137.0</ele><time>2026-04-09T23:05:33.642Z</time></trkpt><trkpt lat="-36.7418088" lon="174.4155241"><ele>137.0</ele><time>2026-04-09T23:05:35.64Z</time></trkpt><trkpt lat="-36.7417806" lon="174.4156588"><ele>136.0</ele><time>2026-04-09T23:05:37.642Z</time></trkpt><trkpt lat="-36.7417217" lon="174.4157519"><ele>135.0</ele><time>2026-04-09T23:05:39.641Z</time></trkpt><trkpt lat="-36.741622" lon="174.415801"><ele>134.0</ele><time>2026-04-09T23:05:41.641Z</time></trkpt><trkpt lat="-36.7415517" lon="174.4158136"><ele>133.0</ele><time>2026-04-09T23:05:42.641Z</time></trkpt><trkpt lat="-36.7414774" lon="174.4158313"><ele>132.0</ele><time>2026-04-09T23:05:43.643Z</time></trkpt><trkpt lat="-36.7414038" lon="174.415924"><ele>132.0</ele><time>2026-04-09T23:05:45.64Z</time></trkpt><trkpt lat="-36.7414182" lon="174.4160241"><ele>132.0</ele><time>2026-04-09T23:05:47.64Z</time></trkpt><trkpt lat="-36.7414686" lon="174.4160899"><ele>132.0</ele><time>2026-04-09T23:05:49.641Z</time></trkpt><trkpt lat="-36.7415473" lon="174.4161595"><ele>132.0</ele><time>2026-04-09T23:05:50.641Z</time></trkpt><trkpt lat="-36.741611" lon="174.4162105"><ele>132.0</ele><time>2026-04-09T23:05:51.641Z</time></trkpt><trkpt lat="-36.7416435" lon="174.416313"><ele>132.0</ele><time>2026-04-09T23:05:53.64Z</time></trkpt><trkpt lat="-36.7415953" lon="174.4164492"><ele>131.83333333333334</ele><time>2026-04-09T23:05:55.64Z</time></trkpt><trkpt lat="-36.7415325" lon="174.4165724"><ele>131.66666666666666</ele><time>2026-04-09T23:05:57.643Z</time></trkpt><trkpt lat="-36.7415285" lon="174.4166774"><ele>131.5</ele><time>2026-04-09T23:05:59.64Z</time></trkpt><trkpt lat="-36.7414845" lon="174.4167683"><ele>131.33333333333331</ele><time>2026-04-09T23:06:01.64Z</time></trkpt><trkpt lat="-36.7414416" lon="174.4168286"><ele>131.16666666666666</ele><time>2026-04-09T23:06:03.642Z</time></trkpt><trkpt lat="-36.7413944" lon="174.4169305"><ele>131.0</ele><time>2026-04-09T23:06:06.642Z</time></trkpt><trkpt lat="-36.7414074" lon="174.417014"><ele>131.0</ele><time>2026-04-09T23:06:08.642Z</time></trkpt><trkpt lat="-36.7414244" lon="174.4171291"><ele>131.0</ele><time>2026-04-09T23:06:11.641Z</time></trkpt><trkpt lat="-36.7413663" lon="174.4172405"><ele>131.0</ele><time>2026-04-09T23:06:13.642Z</time></trkpt><trkpt lat="-36.7413024" lon="174.4173377"><ele>131.0</ele><time>2026-04-09T23:06:15.642Z</time></trkpt><trkpt lat="-36.7412489" lon="174.4174458"><ele>131.0</ele><time>2026-04-09T23:06:17.641Z</time></trkpt><trkpt lat="-36.7412267" lon="174.4175405"><ele>131.0</ele><time>2026-04-09T23:06:19.64Z</time></trkpt><trkpt lat="-36.7412901" lon="174.4175635"><ele>131.0</ele><time>2026-04-09T23:06:22.64Z</time></trkpt><trkpt lat="-36.7413069" lon="174.4174795"><ele>131.0</ele><time>2026-04-09T23:06:24.642Z</time></trkpt><trkpt lat="-36.741328" lon="174.4173934"><ele>131.0</ele><time>2026-04-09T23:06:26.641Z</time></trkpt><trkpt lat="-36.7413868" lon="174.4173028"><ele>131.0</ele><time>2026-04-09T23:06:28.642Z</time></trkpt><trkpt lat="-36.7414334" lon="174.4172054"><ele>131.0</ele><time>2026-04-09T23:06:30.642Z</time></trkpt><trkpt lat="-36.7414633" lon="174.4171133"><ele>131.0</ele><time>2026-04-09T23:06:32.64Z</time></trkpt><trkpt lat="-36.7414846" lon="174.4170287"><ele>131.0</ele><time>2026-04-09T23:06:33.642Z</time></trkpt><trkpt lat="-36.7415226" lon="174.4169191"><ele>131.0</ele><time>2026-04-09T23:06:35.641Z</time></trkpt><trkpt lat="-36.7415586" lon="174.4168421"><ele>131.0</ele><time>2026-04-09T23:06:36.64Z</time></trkpt><trkpt lat="-36.7415638" lon="174.4167352"><ele>131.0</ele><time>2026-04-09T23:06:38.641Z</time></trkpt><trkpt lat="-36.7416225" lon="174.4166499"><ele>131.0</ele><time>2026-04-09T23:06:39.641Z</time></trkpt><trkpt lat="-36.7416512" lon="174.4165111"><ele>131.0</ele><time>2026-04-09T23:06:41.641Z</time></trkpt><trkpt lat="-36.7416571" lon="174.4163752"><ele>131.0</ele><time>2026-04-09T23:06:43.643Z</time></trkpt><trkpt lat="-36.7416828" lon="174.4162988"><ele>131.0</ele><time>2026-04-09T23:06:44.641Z</time></trkpt><trkpt lat="-36.7416903" lon="174.4161635"><ele>131.0</ele><time>2026-04-09T23:06:46.64Z</time></trkpt><trkpt lat="-36.7417404" lon="174.416054"><ele>131.0</ele><time>2026-04-09T23:06:48.641Z</time></trkpt><trkpt lat="-36.7417426" lon="174.4159329"><ele>131.16666666666666</ele><time>2026-04-09T23:06:50.641Z</time></trkpt><trkpt lat="-36.741762" lon="174.4158276"><ele>131.33333333333331</ele><time>2026-04-09T23:06:52.642Z</time></trkpt><trkpt lat="-36.7417871" lon="174.4157269"><ele>131.5</ele><time>2026-04-09T23:06:54.641Z</time></trkpt><trkpt lat="-36.7418219" lon="174.4156251"><ele>131.66666666666666</ele><time>2026-04-09T23:06:56.64Z</time></trkpt><trkpt lat="-36.7418464" lon="174.415517"><ele>131.83333333333334</ele><time>2026-04-09T23:06:58.64Z</time></trkpt><trkpt lat="-36.7418743" lon="174.4154451"><ele>132.0</ele><time>2026-04-09T23:06:59.64Z</time></trkpt><trkpt lat="-36.7418963" lon="174.4153621"><ele>132.16666666666666</ele><time>2026-04-09T23:07:00.642Z</time></trkpt><trkpt lat="-36.7418928" lon="174.4152437"><ele>132.33333333333334</ele><time>2026-04-09T23:07:03.641Z</time></trkpt><trkpt lat="-36.7418966" lon="174.415122"><ele>132.5</ele><time>2026-04-09T23:07:05.642Z</time></trkpt><trkpt lat="-36.7419095" lon="174.4150409"><ele>132.66666666666669</ele><time>2026-04-09T23:07:07.641Z</time></trkpt><trkpt lat="-36.7419589" lon="174.4149641"><ele>132.83333333333334</ele><time>2026-04-09T23:07:09.642Z</time></trkpt><trkpt lat="-36.7420279" lon="174.4148865"><ele>133.0</ele><time>2026-04-09T23:07:11.64Z</time></trkpt><trkpt lat="-36.7420914" lon="174.4148362"><ele>133.0</ele><time>2026-04-09T23:07:13.64Z</time></trkpt><trkpt lat="-36.7421174" lon="174.4147565"><ele>133.0</ele><time>2026-04-09T23:07:15.641Z</time></trkpt><trkpt lat="-36.7421478" lon="174.414657"><ele>133.0</ele><time>2026-04-09T23:07:18.642Z</time></trkpt><trkpt lat="-36.7422088" lon="174.4145848"><ele>133.0</ele><time>2026-04-09T23:07:47.642Z</time></trkpt><trkpt lat="-36.7422526" lon="174.4145022"><ele>133.0</ele><time>2026-04-09T23:07:53.64Z</time></trkpt><trkpt lat="-36.7423151" lon="174.4145169"><ele>133.0</ele><time>2026-04-09T23:07:55.642Z</time></trkpt><trkpt lat="-36.7423803" lon="174.4145902"><ele>133.0</ele><time>2026-04-09T23:07:58.642Z</time></trkpt><trkpt lat="-36.7424303" lon="174.4146589"><ele>133.0</ele><time>2026-04-09T23:08:00.641Z</time></trkpt><trkpt lat="-36.7424641" lon="174.4147494"><ele>133.0</ele><time>2026-04-09T23:08:02.641Z</time></trkpt><trkpt lat="-36.7424277" lon="174.4148802"><ele>133.0</ele><time>2026-04-09T23:08:04.641Z</time></trkpt><trkpt lat="-36.7423745" lon="174.4149848"><ele>133.0</ele><time>2026-04-09T23:08:05.64Z</time></trkpt><trkpt lat="-36.7423636" lon="174.4151171"><ele>133.0</ele><time>2026-04-09T23:08:07.641Z</time></trkpt><trkpt lat="-36.7424393" lon="174.4152172"><ele>133.0</ele><time>2026-04-09T23:08:09.641Z</time></trkpt><trkpt lat="-36.7425316" lon="174.4152436"><ele>133.0</ele><time>2026-04-09T23:08:11.641Z</time></trkpt><trkpt lat="-36.7426078" lon="174.4152066"><ele>133.0</ele><time>2026-04-09T23:08:13.64Z</time></trkpt><trkpt lat="-36.742682" lon="174.4151985"><ele>133.0</ele><time>2026-04-09T23:08:14.642Z</time></trkpt><trkpt lat="-36.742787" lon="174.4152443"><ele>131.83333333333334</ele><time>2026-04-09T23:08:16.64Z</time></trkpt><trkpt lat="-36.7428549" lon="174.415289"><ele>130.66666666666669</ele><time>2026-04-09T23:08:17.64Z</time></trkpt><trkpt lat="-36.7428496" lon="174.4153689"><ele>129.5</ele><time>2026-04-09T23:08:18.643Z</time></trkpt><trkpt lat="-36.7428211" lon="174.4154528"><ele>128.33333333333334</ele><time>2026-04-09T23:08:19.64Z</time></trkpt><trkpt lat="-36.7427335" lon="174.4155414"><ele>127.16666666666667</ele><time>2026-04-09T23:08:21.642Z</time></trkpt><trkpt lat="-36.742632" lon="174.4155956"><ele>126.0</ele><time>2026-04-09T23:08:23.642Z</time></trkpt><trkpt lat="-36.7425367" lon="174.4156049"><ele>125.8</ele><time>2026-04-09T23:08:25.641Z</time></trkpt><trkpt lat="-36.7424612" lon="174.4157173"><ele>125.6</ele><time>2026-04-09T23:08:27.642Z</time></trkpt><trkpt lat="-36.7424322" lon="174.4158172"><ele>125.4</ele><time>2026-04-09T23:08:29.641Z</time></trkpt><trkpt lat="-36.7424468" lon="174.415919"><ele>125.2</ele><time>2026-04-09T23:08:31.64Z</time></trkpt><trkpt lat="-36.7425045" lon="174.4160098"><ele>125.0</ele><time>2026-04-09T23:08:33.642Z</time></trkpt><trkpt lat="-36.7425986" lon="174.4160441"><ele>124.99999999999999</ele><time>2026-04-09T23:08:35.641Z</time></trkpt><trkpt lat="-36.7426438" lon="174.4159846"><ele>125.0</ele><time>2026-04-09T23:08:37.641Z</time></trkpt><trkpt lat="-36.7427225" lon="174.4160332"><ele>125.0</ele><time>2026-04-09T23:08:40.641Z</time></trkpt><trkpt lat="-36.7427922" lon="174.4160933"><ele>125.0</ele><time>2026-04-09T23:08:43.641Z</time></trkpt><trkpt lat="-36.742849" lon="174.4161321"><ele>124.99999999999999</ele><time>2026-04-09T23:08:45.641Z</time></trkpt><trkpt lat="-36.7428955" lon="174.4162105"><ele>125.0</ele><time>2026-04-09T23:08:47.641Z</time></trkpt><trkpt lat="-36.7429489" lon="174.4162864"><ele>125.16666666666666</ele><time>2026-04-09T23:08:49.64Z</time></trkpt><trkpt lat="-36.7430129" lon="174.4163215"><ele>125.33333333333333</ele><time>2026-04-09T23:08:51.641Z</time></trkpt><trkpt lat="-36.7431127" lon="174.416339"><ele>125.5</ele><time>2026-04-09T23:08:54.641Z</time></trkpt><trkpt lat="-36.7431832" lon="174.4163996"><ele>125.66666666666666</ele><time>2026-04-09T23:08:57.641Z</time></trkpt><trkpt lat="-36.7432694" lon="174.4164472"><ele>125.83333333333333</ele><time>2026-04-09T23:09:00.64Z</time></trkpt><trkpt lat="-36.7432865" lon="174.4165446"><ele>126.0</ele><time>2026-04-09T23:09:03.641Z</time></trkpt><trkpt lat="-36.7432357" lon="174.4166159"><ele>126.0</ele><time>2026-04-09T23:09:07.64Z</time></trkpt><trkpt lat="-36.7431986" lon="174.416685"><ele>126.0</ele><time>2026-04-09T23:09:09.64Z</time></trkpt><trkpt lat="-36.7431584" lon="174.4167866"><ele>126.0</ele><time>2026-04-09T23:09:12.64Z</time></trkpt><trkpt lat="-36.7430995" lon="174.4168447"><ele>126.0</ele><time>2026-04-09T23:09:14.641Z</time></trkpt><trkpt lat="-36.7430546" lon="174.4169042"><ele>126.0</ele><time>2026-04-09T23:09:16.64Z</time></trkpt><trkpt lat="-36.743046" lon="174.4170052"><ele>126.0</ele><time>2026-04-09T23:09:19.641Z</time></trkpt><trkpt lat="-36.7430981" lon="174.4170621"><ele>126.0</ele><time>2026-04-09T23:09:22.64Z</time></trkpt><trkpt lat="-36.7431572" lon="174.4171507"><ele>126.33333333333333</ele><time>2026-04-09T23:09:25.642Z</time></trkpt><trkpt lat="-36.7431375" lon="174.4172659"><ele>126.66666666666666</ele><time>2026-04-09T23:09:28.642Z</time></trkpt><trkpt lat="-36.7431675" lon="174.4173674"><ele>127.0</ele><time>2026-04-09T23:09:31.64Z</time></trkpt><trkpt lat="-36.743243" lon="174.4174146"><ele>127.33333333333333</ele><time>2026-04-09T23:09:34.64Z</time></trkpt><trkpt lat="-36.7432987" lon="174.4173661"><ele>127.66666666666666</ele><time>2026-04-09T23:09:37.64Z</time></trkpt><trkpt lat="-36.7433852" lon="174.4173457"><ele>128.0</ele><time>2026-04-09T23:09:40.641Z</time></trkpt><trkpt lat="-36.7434695" lon="174.4174128"><ele>127.99999999999999</ele><time>2026-04-09T23:09:43.641Z</time></trkpt><trkpt lat="-36.7435243" lon="174.4174705"><ele>128.0</ele><time>2026-04-09T23:09:45.641Z</time></trkpt><trkpt lat="-36.7435719" lon="174.4175312"><ele>128.0</ele><time>2026-04-09T23:09:47.641Z</time></trkpt><trkpt lat="-36.7436584" lon="174.4175647"><ele>128.0</ele><time>2026-04-09T23:09:50.641Z</time></trkpt><trkpt lat="-36.7436816" lon="174.4174757"><ele>127.99999999999999</ele><time>2026-04-09T23:09:54.641Z</time></trkpt><trkpt lat="-36.743699" lon="174.4173711"><ele>128.0</ele><time>2026-04-09T23:09:57.642Z</time></trkpt><trkpt lat="-36.743775" lon="174.4173143"><ele>127.83333333333333</ele><time>2026-04-09T23:10:00.641Z</time></trkpt><trkpt lat="-36.7438415" lon="174.4172545"><ele>127.66666666666666</ele><time>2026-04-09T23:10:03.642Z</time></trkpt><trkpt lat="-36.7438925" lon="174.4171732"><ele>127.5</ele><time>2026-04-09T23:10:06.641Z</time></trkpt><trkpt lat="-36.7439544" lon="174.4171076"><ele>127.33333333333334</ele><time>2026-04-09T23:10:09.641Z</time></trkpt><trkpt lat="-36.7440198" lon="174.4170812"><ele>127.16666666666667</ele><time>2026-04-09T23:10:11.641Z</time></trkpt><trkpt lat="-36.7440974" lon="174.4170564"><ele>127.0</ele><time>2026-04-09T23:10:13.642Z</time></trkpt><trkpt lat="-36.7442284" lon="174.4170012"><ele>127.00000000000001</ele><time>2026-04-09T23:10:15.64Z</time></trkpt><trkpt lat="-36.7443025" lon="174.4169831"><ele>127.0</ele><time>2026-04-09T23:10:16.64Z</time></trkpt><trkpt lat="-36.7443525" lon="174.4169195"><ele>127.0</ele><time>2026-04-09T23:10:18.642Z</time></trkpt><trkpt lat="-36.7442947" lon="174.4168789"><ele>127.0</ele><time>2026-04-09T23:10:20.641Z</time></trkpt><trkpt lat="-36.7441935" lon="174.4168605"><ele>127.00000000000001</ele><time>2026-04-09T23:10:23.64Z</time></trkpt><trkpt lat="-36.7441284" lon="174.4168123"><ele>127.0</ele><time>2026-04-09T23:10:24.64Z</time></trkpt><trkpt lat="-36.7440647" lon="174.4167615"><ele>127.0</ele><time>2026-04-09T23:10:25.642Z</time></trkpt><trkpt lat="-36.7439933" lon="174.4167239"><ele>126.99999999999999</ele><time>2026-04-09T23:10:27.641Z</time></trkpt><trkpt lat="-36.743956" lon="174.416602"><ele>126.99999999999999</ele><time>2026-04-09T23:10:28.64Z</time></trkpt><trkpt lat="-36.7439971" lon="174.4165062"><ele>127.0</ele><time>2026-04-09T23:10:30.641Z</time></trkpt><trkpt lat="-36.7439425" lon="174.4163839"><ele>127.0</ele><time>2026-04-09T23:10:32.642Z</time></trkpt><trkpt lat="-36.7438639" lon="174.4162856"><ele>125.39999999999999</ele><time>2026-04-09T23:10:34.642Z</time></trkpt><trkpt lat="-36.7438308" lon="174.4162176"><ele>123.79999999999998</ele><time>2026-04-09T23:10:35.641Z</time></trkpt><trkpt lat="-36.7437396" lon="174.4161217"><ele>122.2</ele><time>2026-04-09T23:10:37.64Z</time></trkpt><trkpt lat="-36.7436948" lon="174.4159978"><ele>120.6</ele><time>2026-04-09T23:10:39.642Z</time></trkpt><trkpt lat="-36.7436892" lon="174.415884"><ele>119.0</ele><time>2026-04-09T23:10:41.64Z</time></trkpt><trkpt lat="-36.7437433" lon="174.4158131"><ele>118.99999999999999</ele><time>2026-04-09T23:10:44.641Z</time></trkpt><trkpt lat="-36.7438068" lon="174.4158774"><ele>119.0</ele><time>2026-04-09T23:10:48.642Z</time></trkpt><trkpt lat="-36.7438616" lon="174.415971"><ele>119.0</ele><time>2026-04-09T23:10:51.641Z</time></trkpt><trkpt lat="-36.7439595" lon="174.4159894"><ele>119.0</ele><time>2026-04-09T23:10:54.641Z</time></trkpt><trkpt lat="-36.7440148" lon="174.4160316"><ele>118.99999999999999</ele><time>2026-04-09T23:10:56.641Z</time></trkpt><trkpt lat="-36.7440452" lon="174.416107"><ele>119.0</ele><time>2026-04-09T23:10:58.64Z</time></trkpt><trkpt lat="-36.744062" lon="174.4161916"><ele>119.0</ele><time>2026-04-09T23:11:00.641Z</time></trkpt><trkpt lat="-36.7440714" lon="174.4162734"><ele>119.0</ele><time>2026-04-09T23:11:02.641Z</time></trkpt><trkpt lat="-36.7441142" lon="174.4163717"><ele>119.0</ele><time>2026-04-09T23:11:05.642Z</time></trkpt><trkpt lat="-36.7441194" lon="174.4164548"><ele>119.0</ele><time>2026-04-09T23:11:08.641Z</time></trkpt><trkpt lat="-36.7441472" lon="174.4165276"><ele>119.0</ele><time>2026-04-09T23:11:11.641Z</time></trkpt><trkpt lat="-36.744218" lon="174.4164983"><ele>119.0</ele><time>2026-04-09T23:11:15.641Z</time></trkpt><trkpt lat="-36.7442406" lon="174.4164039"><ele>119.0</ele><time>2026-04-09T23:11:18.64Z</time></trkpt><trkpt lat="-36.7442432" lon="174.4163235"><ele>118.99999999999999</ele><time>2026-04-09T23:11:20.642Z</time></trkpt><trkpt lat="-36.74428" lon="174.4162427"><ele>119.0</ele><time>2026-04-09T23:11:23.642Z</time></trkpt><trkpt lat="-36.7443457" lon="174.4162282"><ele>119.0</ele><time>2026-04-09T23:11:25.641Z</time></trkpt><trkpt lat="-36.7444351" lon="174.4162819"><ele>119.0</ele><time>2026-04-09T23:11:28.641Z</time></trkpt><trkpt lat="-36.7444942" lon="174.41635"><ele>118.99999999999999</ele><time>2026-04-09T23:11:31.642Z</time></trkpt><trkpt lat="-36.7445082" lon="174.4164709"><ele>119.0</ele><time>2026-04-09T23:11:35.641Z</time></trkpt><trkpt lat="-36.7444963" lon="174.4165576"><ele>121.16666666666666</ele><time>2026-04-09T23:11:37.641Z</time></trkpt><trkpt lat="-36.7445196" lon="174.416669"><ele>123.33333333333333</ele><time>2026-04-09T23:11:39.642Z</time></trkpt><trkpt lat="-36.7445619" lon="174.4167564"><ele>125.5</ele><time>2026-04-09T23:11:41.64Z</time></trkpt><trkpt lat="-36.7445907" lon="174.4168554"><ele>127.66666666666666</ele><time>2026-04-09T23:11:44.64Z</time></trkpt><trkpt lat="-36.7446034" lon="174.4169385"><ele>129.83333333333334</ele><time>2026-04-09T23:11:46.64Z</time></trkpt><trkpt lat="-36.744668" lon="174.4169866"><ele>132.0</ele><time>2026-04-09T23:11:49.641Z</time></trkpt><trkpt lat="-36.7447389" lon="174.41694"><ele>132.0</ele><time>2026-04-09T23:11:53.64Z</time></trkpt><trkpt lat="-36.7448162" lon="174.4168974"><ele>132.0</ele><time>2026-04-09T23:11:56.641Z</time></trkpt><trkpt lat="-36.7448846" lon="174.4168795"><ele>132.0</ele><time>2026-04-09T23:11:59.64Z</time></trkpt><trkpt lat="-36.7449399" lon="174.4169171"><ele>132.0</ele><time>2026-04-09T23:12:01.641Z</time></trkpt><trkpt lat="-36.7449983" lon="174.4169574"><ele>132.0</ele><time>2026-04-09T23:12:03.64Z</time></trkpt><trkpt lat="-36.7450582" lon="174.4169959"><ele>132.0</ele><time>2026-04-09T23:12:05.641Z</time></trkpt><trkpt lat="-36.7451219" lon="174.4170671"><ele>132.0</ele><time>2026-04-09T23:12:08.641Z</time></trkpt><trkpt lat="-36.7451762" lon="174.4171073"><ele>132.66666666666666</ele><time>2026-04-09T23:12:10.642Z</time></trkpt><trkpt lat="-36.7452524" lon="174.4171107"><ele>133.33333333333334</ele><time>2026-04-09T23:12:13.641Z</time></trkpt><trkpt lat="-36.7453174" lon="174.4170742"><ele>134.0</ele><time>2026-04-09T23:12:15.641Z</time></trkpt><trkpt lat="-36.7453846" lon="174.4170491"><ele>134.66666666666669</ele><time>2026-04-09T23:12:17.641Z</time></trkpt><trkpt lat="-36.7454563" lon="174.4170974"><ele>135.33333333333334</ele><time>2026-04-09T23:12:20.641Z</time></trkpt><trkpt lat="-36.7455157" lon="174.4171576"><ele>136.0</ele><time>2026-04-09T23:12:22.641Z</time></trkpt><trkpt lat="-36.7456012" lon="174.4171372"><ele>136.0</ele><time>2026-04-09T23:12:25.641Z</time></trkpt><trkpt lat="-36.745696" lon="174.4171607"><ele>136.0</ele><time>2026-04-09T23:12:28.64Z</time></trkpt><trkpt lat="-36.7457351" lon="174.4172272"><ele>136.0</ele><time>2026-04-09T23:12:30.641Z</time></trkpt><trkpt lat="-36.7457664" lon="174.4173053"><ele>136.0</ele><time>2026-04-09T23:12:33.641Z</time></trkpt><trkpt lat="-36.7458085" lon="174.4174091"><ele>136.0</ele><time>2026-04-09T23:12:36.641Z</time></trkpt><trkpt lat="-36.7458375" lon="174.4174995"><ele>136.0</ele><time>2026-04-09T23:12:39.641Z</time></trkpt><trkpt lat="-36.7458672" lon="174.417601"><ele>136.0</ele><time>2026-04-09T23:12:42.641Z</time></trkpt><trkpt lat="-36.7459072" lon="174.4177028"><ele>136.0</ele><time>2026-04-09T23:12:45.64Z</time></trkpt><trkpt lat="-36.7459774" lon="174.4177553"><ele>136.0</ele><time>2026-04-09T23:12:48.642Z</time></trkpt><trkpt lat="-36.7460503" lon="174.4177841"><ele>136.0</ele><time>2026-04-09T23:12:52.641Z</time></trkpt><trkpt lat="-36.7460891" lon="174.4178746"><ele>136.0</ele><time>2026-04-09T23:12:56.641Z</time></trkpt><trkpt lat="-36.7460513" lon="174.4179587"><ele>136.0</ele><time>2026-04-09T23:12:59.642Z</time></trkpt><trkpt lat="-36.7459825" lon="174.4179934"><ele>136.0</ele><time>2026-04-09T23:13:02.64Z</time></trkpt><trkpt lat="-36.7459141" lon="174.4180154"><ele>136.0</ele><time>2026-04-09T23:13:59.641Z</time></trkpt><trkpt lat="-36.7458191" lon="174.4179913"><ele>136.0</ele><time>2026-04-09T23:14:02.641Z</time></trkpt><trkpt lat="-36.7457687" lon="174.4179396"><ele>136.0</ele><time>2026-04-09T23:14:03.641Z</time></trkpt><trkpt lat="-36.7456636" lon="174.4178078"><ele>136.0</ele><time>2026-04-09T23:14:04.641Z</time></trkpt><trkpt lat="-36.7456023" lon="174.4177471"><ele>136.0</ele><time>2026-04-09T23:14:05.64Z</time></trkpt><trkpt lat="-36.7455529" lon="174.4176865"><ele>136.0</ele><time>2026-04-09T23:14:06.642Z</time></trkpt><trkpt lat="-36.7454441" lon="174.4176077"><ele>136.0</ele><time>2026-04-09T23:14:08.641Z</time></trkpt><trkpt lat="-36.745386" lon="174.4175531"><ele>136.0</ele><time>2026-04-09T23:14:09.64Z</time></trkpt><trkpt lat="-36.7453355" lon="174.417505"><ele>136.0</ele><time>2026-04-09T23:14:10.64Z</time></trkpt><trkpt lat="-36.7452594" lon="174.4173833"><ele>135.33333333333334</ele><time>2026-04-09T23:14:12.641Z</time></trkpt><trkpt lat="-36.7452039" lon="174.417337"><ele>134.66666666666669</ele><time>2026-04-09T23:14:13.641Z</time></trkpt><trkpt lat="-36.7451397" lon="174.4173132"><ele>134.0</ele><time>2026-04-09T23:14:14.64Z</time></trkpt><trkpt lat="-36.74503" lon="174.4172334"><ele>133.33333333333334</ele><time>2026-04-09T23:14:16.641Z</time></trkpt><trkpt lat="-36.7449811" lon="174.4171818"><ele>132.66666666666666</ele><time>2026-04-09T23:14:17.641Z</time></trkpt><trkpt lat="-36.7449249" lon="174.4171316"><ele>132.0</ele><time>2026-04-09T23:14:18.64Z</time></trkpt><trkpt lat="-36.7448403" lon="174.4170928"><ele>132.0</ele><time>2026-04-09T23:14:20.642Z</time></trkpt><trkpt lat="-36.7447975" lon="174.4171624"><ele>132.0</ele><time>2026-04-09T23:14:21.641Z</time></trkpt><trkpt lat="-36.7447627" lon="174.4173013"><ele>132.0</ele><time>2026-04-09T23:14:23.64Z</time></trkpt><trkpt lat="-36.7447818" lon="174.4174408"><ele>132.0</ele><time>2026-04-09T23:14:25.642Z</time></trkpt><trkpt lat="-36.7447231" lon="174.4175894"><ele>132.0</ele><time>2026-04-09T23:14:27.641Z</time></trkpt><trkpt lat="-36.7447014" lon="174.4176656"><ele>132.0</ele><time>2026-04-09T23:14:28.64Z</time></trkpt><trkpt lat="-36.7446289" lon="174.4177387"><ele>132.0</ele><time>2026-04-09T23:14:30.641Z</time></trkpt><trkpt lat="-36.7445224" lon="174.4177855"><ele>132.0</ele><time>2026-04-09T23:14:32.64Z</time></trkpt><trkpt lat="-36.7444479" lon="174.417807"><ele>132.0</ele><time>2026-04-09T23:14:33.64Z</time></trkpt><trkpt lat="-36.7443195" lon="174.4178293"><ele>132.0</ele><time>2026-04-09T23:14:35.64Z</time></trkpt><trkpt lat="-36.7442485" lon="174.417858"><ele>131.28571428571428</ele><time>2026-04-09T23:14:36.641Z</time></trkpt><trkpt lat="-36.7441896" lon="174.4178943"><ele>130.57142857142858</ele><time>2026-04-09T23:14:37.641Z</time></trkpt><trkpt lat="-36.7441379" lon="174.4179468"><ele>129.85714285714286</ele><time>2026-04-09T23:14:38.641Z</time></trkpt><trkpt lat="-36.7440782" lon="174.418002"><ele>129.14285714285714</ele><time>2026-04-09T23:14:39.64Z</time></trkpt><trkpt lat="-36.744001" lon="174.4180486"><ele>128.42857142857142</ele><time>2026-04-09T23:14:40.642Z</time></trkpt><trkpt lat="-36.7439362" lon="174.4180583"><ele>127.71428571428572</ele><time>2026-04-09T23:14:41.64Z</time></trkpt><trkpt lat="-36.7438686" lon="174.4180729"><ele>127.0</ele><time>2026-04-09T23:14:42.642Z</time></trkpt><trkpt lat="-36.7437962" lon="174.4181428"><ele>125.39999999999999</ele><time>2026-04-09T23:14:44.64Z</time></trkpt><trkpt lat="-36.7437366" lon="174.4182025"><ele>123.79999999999998</ele><time>2026-04-09T23:14:45.64Z</time></trkpt><trkpt lat="-36.7436477" lon="174.4182575"><ele>122.2</ele><time>2026-04-09T23:14:47.641Z</time></trkpt><trkpt lat="-36.7435736" lon="174.4183297"><ele>120.6</ele><time>2026-04-09T23:14:49.641Z</time></trkpt><trkpt lat="-36.7434664" lon="174.4184264"><ele>119.0</ele><time>2026-04-09T23:14:51.641Z</time></trkpt><trkpt lat="-36.7434119" lon="174.4184671"><ele>118.33333333333333</ele><time>2026-04-09T23:14:52.64Z</time></trkpt><trkpt lat="-36.7433788" lon="174.4185374"><ele>117.66666666666666</ele><time>2026-04-09T23:14:53.64Z</time></trkpt><trkpt lat="-36.7433088" lon="174.4186363"><ele>117.0</ele><time>2026-04-09T23:14:55.641Z</time></trkpt><trkpt lat="-36.7432484" lon="174.4186597"><ele>116.33333333333334</ele><time>2026-04-09T23:14:56.64Z</time></trkpt><trkpt lat="-36.7431816" lon="174.4186503"><ele>115.66666666666667</ele><time>2026-04-09T23:14:57.641Z</time></trkpt><trkpt lat="-36.7431098" lon="174.4186561"><ele>115.0</ele><time>2026-04-09T23:14:58.641Z</time></trkpt><trkpt lat="-36.7430149" lon="174.4186758"><ele>115.0</ele><time>2026-04-09T23:15:00.64Z</time></trkpt><trkpt lat="-36.7428761" lon="174.4186713"><ele>115.0</ele><time>2026-04-09T23:15:02.641Z</time></trkpt><trkpt lat="-36.7427621" lon="174.4186675"><ele>115.0</ele><time>2026-04-09T23:15:04.64Z</time></trkpt><trkpt lat="-36.7426949" lon="174.4186805"><ele>115.0</ele><time>2026-04-09T23:15:05.64Z</time></trkpt><trkpt lat="-36.7425614" lon="174.4186946"><ele>114.50000000000001</ele><time>2026-04-09T23:15:07.641Z</time></trkpt><trkpt lat="-36.7424763" lon="174.4187028"><ele>114.0</ele><time>2026-04-09T23:15:08.642Z</time></trkpt><trkpt lat="-36.7423555" lon="174.4187791"><ele>113.5</ele><time>2026-04-09T23:15:10.641Z</time></trkpt><trkpt lat="-36.742295" lon="174.418822"><ele>113.0</ele><time>2026-04-09T23:15:11.641Z</time></trkpt><trkpt lat="-36.7422312" lon="174.4188614"><ele>112.50000000000001</ele><time>2026-04-09T23:15:12.641Z</time></trkpt><trkpt lat="-36.7421622" lon="174.4188968"><ele>112.0</ele><time>2026-04-09T23:15:13.641Z</time></trkpt><trkpt lat="-36.7420401" lon="174.4189346"><ele>112.00000000000001</ele><time>2026-04-09T23:15:15.64Z</time></trkpt><trkpt lat="-36.7419707" lon="174.4189536"><ele>112.0</ele><time>2026-04-09T23:15:16.64Z</time></trkpt><trkpt lat="-36.7419027" lon="174.4189767"><ele>112.0</ele><time>2026-04-09T23:15:17.641Z</time></trkpt><trkpt lat="-36.7418363" lon="174.4189943"><ele>112.0</ele><time>2026-04-09T23:15:18.641Z</time></trkpt><trkpt lat="-36.7417327" lon="174.4189836"><ele>112.00000000000001</ele><time>2026-04-09T23:15:20.641Z</time></trkpt><trkpt lat="-36.7416259" lon="174.4189881"><ele>112.0</ele><time>2026-04-09T23:15:22.642Z</time></trkpt><trkpt lat="-36.7415617" lon="174.4189916"><ele>111.39999999999999</ele><time>2026-04-09T23:15:23.64Z</time></trkpt><trkpt lat="-36.741442" lon="174.4189969"><ele>110.79999999999998</ele><time>2026-04-09T23:15:25.642Z</time></trkpt><trkpt lat="-36.7413571" lon="174.4190165"><ele>110.2</ele><time>2026-04-09T23:15:27.642Z</time></trkpt><trkpt lat="-36.7412723" lon="174.4190994"><ele>109.6</ele><time>2026-04-09T23:15:29.641Z</time></trkpt><trkpt lat="-36.7412163" lon="174.4192161"><ele>109.0</ele><time>2026-04-09T23:15:31.64Z</time></trkpt><trkpt lat="-36.7411335" lon="174.4193267"><ele>109.0</ele><time>2026-04-09T23:15:33.64Z</time></trkpt><trkpt lat="-36.7410503" lon="174.4193582"><ele>109.0</ele><time>2026-04-09T23:15:35.642Z</time></trkpt><trkpt lat="-36.7410342" lon="174.4192775"><ele>109.0</ele><time>2026-04-09T23:15:40.64Z</time></trkpt><trkpt lat="-36.7410711" lon="174.4192017"><ele>109.0</ele><time>2026-04-09T23:15:43.641Z</time></trkpt><trkpt lat="-36.7409885" lon="174.4192198"><ele>109.0</ele><time>2026-04-09T23:15:47.64Z</time></trkpt><trkpt lat="-36.7409262" lon="174.4192457"><ele>109.0</ele><time>2026-04-09T23:15:49.642Z</time></trkpt><trkpt lat="-36.7408569" lon="174.4192658"><ele>109.0</ele><time>2026-04-09T23:15:51.64Z</time></trkpt><trkpt lat="-36.7407861" lon="174.4193062"><ele>109.6</ele><time>2026-04-09T23:15:53.642Z</time></trkpt><trkpt lat="-36.7407143" lon="174.419385"><ele>110.2</ele><time>2026-04-09T23:15:55.64Z</time></trkpt><trkpt lat="-36.7406254" lon="174.4194531"><ele>110.79999999999998</ele><time>2026-04-09T23:15:57.64Z</time></trkpt><trkpt lat="-36.7405295" lon="174.4194913"><ele>111.39999999999999</ele><time>2026-04-09T23:15:59.64Z</time></trkpt><trkpt lat="-36.7404126" lon="174.4195006"><ele>112.0</ele><time>2026-04-09T23:16:01.64Z</time></trkpt><trkpt lat="-36.7402745" lon="174.4195305"><ele>111.66666666666667</ele><time>2026-04-09T23:16:03.641Z</time></trkpt><trkpt lat="-36.7401912" lon="174.4195454"><ele>111.33333333333334</ele><time>2026-04-09T23:16:04.642Z</time></trkpt><trkpt lat="-36.7401066" lon="174.4195413"><ele>111.0</ele><time>2026-04-09T23:16:05.64Z</time></trkpt><trkpt lat="-36.7400362" lon="174.4195446"><ele>110.66666666666666</ele><time>2026-04-09T23:16:06.64Z</time></trkpt><trkpt lat="-36.7399597" lon="174.4195261"><ele>110.33333333333333</ele><time>2026-04-09T23:16:07.641Z</time></trkpt><trkpt lat="-36.7398819" lon="174.4195292"><ele>110.0</ele><time>2026-04-09T23:16:08.64Z</time></trkpt><trkpt lat="-36.7398105" lon="174.4195378"><ele>109.99999999999999</ele><time>2026-04-09T23:16:09.64Z</time></trkpt><trkpt lat="-36.7397454" lon="174.4195393"><ele>110.0</ele><time>2026-04-09T23:16:10.641Z</time></trkpt><trkpt lat="-36.7396671" lon="174.4195603"><ele>110.0</ele><time>2026-04-09T23:16:11.641Z</time></trkpt><trkpt lat="-36.7395956" lon="174.4195718"><ele>110.0</ele><time>2026-04-09T23:16:12.64Z</time></trkpt><trkpt lat="-36.7395194" lon="174.4195882"><ele>110.0</ele><time>2026-04-09T23:16:13.64Z</time></trkpt><trkpt lat="-36.7394438" lon="174.4196038"><ele>109.99999999999999</ele><time>2026-04-09T23:16:14.641Z</time></trkpt><trkpt lat="-36.7393833" lon="174.419629"><ele>110.0</ele><time>2026-04-09T23:16:15.64Z</time></trkpt><trkpt lat="-36.7393163" lon="174.419632"><ele>107.99999999999999</ele><time>2026-04-09T23:16:16.641Z</time></trkpt><trkpt lat="-36.7392071" lon="174.4195889"><ele>106.0</ele><time>2026-04-09T23:16:18.641Z</time></trkpt><trkpt lat="-36.7391503" lon="174.4194964"><ele>104.0</ele><time>2026-04-09T23:16:20.641Z</time></trkpt><trkpt lat="-36.7390942" lon="174.419412"><ele>102.0</ele><time>2026-04-09T23:16:22.641Z</time></trkpt><trkpt lat="-36.7390429" lon="174.4193306"><ele>99.99999999999999</ele><time>2026-04-09T23:16:24.64Z</time></trkpt><trkpt lat="-36.7389732" lon="174.4193243"><ele>98.0</ele><time>2026-04-09T23:16:27.64Z</time></trkpt><trkpt lat="-36.7390343" lon="174.4194326"><ele>98.0</ele><time>2026-04-09T23:16:30.64Z</time></trkpt><trkpt lat="-36.7391007" lon="174.4195126"><ele>98.0</ele><time>2026-04-09T23:16:32.641Z</time></trkpt><trkpt lat="-36.7391402" lon="174.4195848"><ele>98.0</ele><time>2026-04-09T23:16:33.64Z</time></trkpt><trkpt lat="-36.7391607" lon="174.4196618"><ele>98.0</ele><time>2026-04-09T23:16:34.641Z</time></trkpt><trkpt lat="-36.7391748" lon="174.4197464"><ele>98.0</ele><time>2026-04-09T23:16:35.64Z</time></trkpt><trkpt lat="-36.7391951" lon="174.4198219"><ele>98.0</ele><time>2026-04-09T23:16:36.64Z</time></trkpt><trkpt lat="-36.7392062" lon="174.4199001"><ele>98.0</ele><time>2026-04-09T23:16:37.642Z</time></trkpt><trkpt lat="-36.7392216" lon="174.4199793"><ele>97.99999999999999</ele><time>2026-04-09T23:16:38.641Z</time></trkpt><trkpt lat="-36.7392181" lon="174.420076"><ele>98.0</ele><time>2026-04-09T23:16:39.642Z</time></trkpt><trkpt lat="-36.7392578" lon="174.4201506"><ele>98.0</ele><time>2026-04-09T23:16:40.642Z</time></trkpt><trkpt lat="-36.739283" lon="174.4202311"><ele>98.0</ele><time>2026-04-09T23:16:41.641Z</time></trkpt><trkpt lat="-36.7393485" lon="174.4203381"><ele>97.99999999999999</ele><time>2026-04-09T23:16:43.641Z</time></trkpt><trkpt lat="-36.739427" lon="174.4204487"><ele>98.0</ele><time>2026-04-09T23:16:45.642Z</time></trkpt><trkpt lat="-36.7394667" lon="174.4205572"><ele>96.60000000000001</ele><time>2026-04-09T23:16:47.642Z</time></trkpt><trkpt lat="-36.7394955" lon="174.4206813"><ele>95.2</ele><time>2026-04-09T23:16:49.641Z</time></trkpt><trkpt lat="-36.7395106" lon="174.4207602"><ele>93.8</ele><time>2026-04-09T23:16:50.64Z</time></trkpt><trkpt lat="-36.7394458" lon="174.4208921"><ele>92.4</ele><time>2026-04-09T23:16:52.64Z</time></trkpt><trkpt lat="-36.7394003" lon="174.4210307"><ele>91.0</ele><time>2026-04-09T23:16:54.641Z</time></trkpt><trkpt lat="-36.7393974" lon="174.4211249"><ele>91.0</ele><time>2026-04-09T23:16:55.64Z</time></trkpt><trkpt lat="-36.7393981" lon="174.4212677"><ele>91.0</ele><time>2026-04-09T23:16:57.641Z</time></trkpt><trkpt lat="-36.7394094" lon="174.4213937"><ele>91.0</ele><time>2026-04-09T23:16:59.64Z</time></trkpt><trkpt lat="-36.7394175" lon="174.4214763"><ele>91.0</ele><time>2026-04-09T23:17:00.641Z</time></trkpt><trkpt lat="-36.7394274" lon="174.4216494"><ele>91.0</ele><time>2026-04-09T23:17:02.64Z</time></trkpt><trkpt lat="-36.7394531" lon="174.4217334"><ele>89.8</ele><time>2026-04-09T23:17:03.642Z</time></trkpt><trkpt lat="-36.7394739" lon="174.4218227"><ele>88.6</ele><time>2026-04-09T23:17:04.64Z</time></trkpt><trkpt lat="-36.7395167" lon="174.4218936"><ele>87.4</ele><time>2026-04-09T23:17:05.641Z</time></trkpt><trkpt lat="-36.7395785" lon="174.4220015"><ele>86.2</ele><time>2026-04-09T23:17:07.641Z</time></trkpt><trkpt lat="-36.7396408" lon="174.4220927"><ele>85.0</ele><time>2026-04-09T23:17:09.642Z</time></trkpt><trkpt lat="-36.7397385" lon="174.422131"><ele>85.0</ele><time>2026-04-09T23:17:11.64Z</time></trkpt><trkpt lat="-36.739793" lon="174.4221934"><ele>85.0</ele><time>2026-04-09T23:17:13.641Z</time></trkpt><trkpt lat="-36.7398873" lon="174.4221982"><ele>85.0</ele><time>2026-04-09T23:17:15.64Z</time></trkpt><trkpt lat="-36.7399757" lon="174.4222119"><ele>85.0</ele><time>2026-04-09T23:17:17.64Z</time></trkpt><trkpt lat="-36.7400139" lon="174.4222838"><ele>85.0</ele><time>2026-04-09T23:17:19.642Z</time></trkpt><trkpt lat="-36.7400146" lon="174.422365"><ele>85.0</ele><time>2026-04-09T23:17:22.641Z</time></trkpt><trkpt lat="-36.7399944" lon="174.4224653"><ele>85.0</ele><time>2026-04-09T23:17:26.642Z</time></trkpt><trkpt lat="-36.7399318" lon="174.4225412"><ele>85.0</ele><time>2026-04-09T23:17:32.641Z</time></trkpt><trkpt lat="-36.7399196" lon="174.4226294"><ele>85.0</ele><time>2026-04-09T23:17:34.64Z</time></trkpt><trkpt lat="-36.7399033" lon="174.4227415"><ele>85.0</ele><time>2026-04-09T23:17:36.641Z</time></trkpt><trkpt lat="-36.7398813" lon="174.4228441"><ele>85.0</ele><time>2026-04-09T23:17:38.641Z</time></trkpt><trkpt lat="-36.7398639" lon="174.4229433"><ele>85.0</ele><time>2026-04-09T23:17:40.64Z</time></trkpt><trkpt lat="-36.7398569" lon="174.4230468"><ele>84.33333333333333</ele><time>2026-04-09T23:17:42.642Z</time></trkpt><trkpt lat="-36.7398583" lon="174.423169"><ele>83.66666666666666</ele><time>2026-04-09T23:17:44.64Z</time></trkpt><trkpt lat="-36.7398783" lon="174.423275"><ele>83.0</ele><time>2026-04-09T23:17:46.642Z</time></trkpt><trkpt lat="-36.7399441" lon="174.4233422"><ele>82.33333333333333</ele><time>2026-04-09T23:17:48.641Z</time></trkpt><trkpt lat="-36.7400132" lon="174.4233744"><ele>81.66666666666667</ele><time>2026-04-09T23:17:50.641Z</time></trkpt><trkpt lat="-36.7400887" lon="174.4233717"><ele>81.0</ele><time>2026-04-09T23:17:52.641Z</time></trkpt><trkpt lat="-36.7401586" lon="174.4233327"><ele>81.0</ele><time>2026-04-09T23:17:54.64Z</time></trkpt><trkpt lat="-36.7402369" lon="174.4233078"><ele>81.0</ele><time>2026-04-09T23:17:57.64Z</time></trkpt><trkpt lat="-36.740275" lon="174.4233797"><ele>81.0</ele><time>2026-04-09T23:18:00.641Z</time></trkpt><trkpt lat="-36.7402653" lon="174.4234629"><ele>81.0</ele><time>2026-04-09T23:18:03.641Z</time></trkpt><trkpt lat="-36.740257" lon="174.4233848"><ele>81.0</ele><time>2026-04-09T23:19:44.641Z</time></trkpt><trkpt lat="-36.7402223" lon="174.4232912"><ele>81.0</ele><time>2026-04-09T23:19:47.64Z</time></trkpt><trkpt lat="-36.7401881" lon="174.4232192"><ele>81.0</ele><time>2026-04-09T23:19:49.64Z</time></trkpt><trkpt lat="-36.7402012" lon="174.4231196"><ele>81.0</ele><time>2026-04-09T23:19:52.64Z</time></trkpt><trkpt lat="-36.7402332" lon="174.4230474"><ele>86.0</ele><time>2026-04-09T23:19:54.641Z</time></trkpt><trkpt lat="-36.7402628" lon="174.4229745"><ele>89.0</ele><time>2026-04-09T23:19:56.641Z</time></trkpt><trkpt lat="-36.740301" lon="174.4228737"><ele>89.0</ele><time>2026-04-09T23:19:59.64Z</time></trkpt><trkpt lat="-36.7403328" lon="174.4228042"><ele>89.0</ele><time>2026-04-09T23:20:01.641Z</time></trkpt><trkpt lat="-36.740373" lon="174.4227053"><ele>89.0</ele><time>2026-04-09T23:20:04.641Z</time></trkpt></trkseg></trk></gpx>